<?xml version="1.0" encoding="UTF-8" standalone="no" ?>
<gpx xmlns="http://www.topografix.com/GPX/1/1" xmlns:xsi="http://www.w3.org/2001/XMLSchema-instance" xsi:schemaLocation="http://www.topografix.com/GPX/1/1 http://www.topografix.com/GPX/1/1/gpx.xsd" version="1.1" creator="VisuGPX - https://www.visugpx.com">
  <metadata>
    <name>Un bel enchainement de piste et monotraces en dessus de PIGNAN</name>
    <desc><![CDATA[Bel enchainement réalisé sous la pluie et dans le froid. La reconnaissance de la future Rando VTT des Garrigues de PIGNAn avance ...]]></desc>
  </metadata>
  <trk>
    <name><![CDATA[2010-11-28-01]]></name>
    <trkseg>
      <trkpt lat="43.58469" lon="3.75723">
        <ele>70.400001</ele>
        <time>2010-11-28T07:52:33Z</time>
      </trkpt>
      <trkpt lat="43.58468" lon="3.75723">
        <ele>70.325004</ele>
        <time>2010-11-28T07:52:34Z</time>
      </trkpt>
      <trkpt lat="43.58452" lon="3.75725">
        <ele>68.5</ele>
        <time>2010-11-28T07:52:54Z</time>
      </trkpt>
      <trkpt lat="43.58443" lon="3.75725">
        <ele>65.2</ele>
        <time>2010-11-28T07:53:08Z</time>
      </trkpt>
      <trkpt lat="43.58451" lon="3.7573">
        <ele>67.8</ele>
        <time>2010-11-28T07:54:21Z</time>
      </trkpt>
      <trkpt lat="43.58452" lon="3.7573">
        <ele>68.1</ele>
        <time>2010-11-28T07:54:22Z</time>
      </trkpt>
      <trkpt lat="43.58468" lon="3.75737">
        <ele>72.7</ele>
        <time>2010-11-28T07:54:47Z</time>
      </trkpt>
      <trkpt lat="43.58463" lon="3.75729">
        <ele>71.3</ele>
        <time>2010-11-28T07:55:37Z</time>
      </trkpt>
      <trkpt lat="43.58461" lon="3.75728">
        <ele>71.3</ele>
        <time>2010-11-28T07:55:38Z</time>
      </trkpt>
      <trkpt lat="43.5846" lon="3.75746">
        <ele>72.4</ele>
        <time>2010-11-28T07:55:53Z</time>
      </trkpt>
      <trkpt lat="43.58453" lon="3.75751">
        <ele>72.3</ele>
        <time>2010-11-28T07:55:55Z</time>
      </trkpt>
      <trkpt lat="43.58445" lon="3.75748">
        <ele>72</ele>
        <time>2010-11-28T07:55:57Z</time>
      </trkpt>
      <trkpt lat="43.5844" lon="3.7574">
        <ele>71.6</ele>
        <time>2010-11-28T07:55:59Z</time>
      </trkpt>
      <trkpt lat="43.58436" lon="3.75733">
        <ele>71.6</ele>
        <time>2010-11-28T07:56:01Z</time>
      </trkpt>
      <trkpt lat="43.58432" lon="3.75722">
        <ele>71.9</ele>
        <time>2010-11-28T07:56:04Z</time>
      </trkpt>
      <trkpt lat="43.58428" lon="3.75712">
        <ele>72.5</ele>
        <time>2010-11-28T07:56:07Z</time>
      </trkpt>
      <trkpt lat="43.58424" lon="3.75701">
        <ele>72.6</ele>
        <time>2010-11-28T07:56:10Z</time>
      </trkpt>
      <trkpt lat="43.58421" lon="3.7569">
        <ele>72.5</ele>
        <time>2010-11-28T07:56:13Z</time>
      </trkpt>
      <trkpt lat="43.58418" lon="3.75682">
        <ele>72.3</ele>
        <time>2010-11-28T07:56:15Z</time>
      </trkpt>
      <trkpt lat="43.58415" lon="3.75674">
        <ele>72.2</ele>
        <time>2010-11-28T07:56:17Z</time>
      </trkpt>
      <trkpt lat="43.58411" lon="3.75666">
        <ele>72</ele>
        <time>2010-11-28T07:56:19Z</time>
      </trkpt>
      <trkpt lat="43.58408" lon="3.75658">
        <ele>71.9</ele>
        <time>2010-11-28T07:56:21Z</time>
      </trkpt>
      <trkpt lat="43.58404" lon="3.7565">
        <ele>71.7</ele>
        <time>2010-11-28T07:56:23Z</time>
      </trkpt>
      <trkpt lat="43.58401" lon="3.75642">
        <ele>71.5</ele>
        <time>2010-11-28T07:56:25Z</time>
      </trkpt>
      <trkpt lat="43.58398" lon="3.75634">
        <ele>71.3</ele>
        <time>2010-11-28T07:56:27Z</time>
      </trkpt>
      <trkpt lat="43.58394" lon="3.75625">
        <ele>70.9</ele>
        <time>2010-11-28T07:56:29Z</time>
      </trkpt>
      <trkpt lat="43.5839" lon="3.75616">
        <ele>70.6</ele>
        <time>2010-11-28T07:56:31Z</time>
      </trkpt>
      <trkpt lat="43.58387" lon="3.75607">
        <ele>70.2</ele>
        <time>2010-11-28T07:56:33Z</time>
      </trkpt>
      <trkpt lat="43.58383" lon="3.75597">
        <ele>69.9</ele>
        <time>2010-11-28T07:56:35Z</time>
      </trkpt>
      <trkpt lat="43.58379" lon="3.75588">
        <ele>69.7</ele>
        <time>2010-11-28T07:56:37Z</time>
      </trkpt>
      <trkpt lat="43.58375" lon="3.75578">
        <ele>69.4</ele>
        <time>2010-11-28T07:56:39Z</time>
      </trkpt>
      <trkpt lat="43.58373" lon="3.75574">
        <ele>69.2</ele>
        <time>2010-11-28T07:56:40Z</time>
      </trkpt>
      <trkpt lat="43.58366" lon="3.7556">
        <ele>68.8</ele>
        <time>2010-11-28T07:56:43Z</time>
      </trkpt>
      <trkpt lat="43.58362" lon="3.7555">
        <ele>68.5</ele>
        <time>2010-11-28T07:56:45Z</time>
      </trkpt>
      <trkpt lat="43.58358" lon="3.75539">
        <ele>68.2</ele>
        <time>2010-11-28T07:56:47Z</time>
      </trkpt>
      <trkpt lat="43.58354" lon="3.75529">
        <ele>67.9</ele>
        <time>2010-11-28T07:56:49Z</time>
      </trkpt>
      <trkpt lat="43.58349" lon="3.7552">
        <ele>67.7</ele>
        <time>2010-11-28T07:56:51Z</time>
      </trkpt>
      <trkpt lat="43.58344" lon="3.75509">
        <ele>67.5</ele>
        <time>2010-11-28T07:56:53Z</time>
      </trkpt>
      <trkpt lat="43.5834" lon="3.75499">
        <ele>67.3</ele>
        <time>2010-11-28T07:56:55Z</time>
      </trkpt>
      <trkpt lat="43.58336" lon="3.75488">
        <ele>67.1</ele>
        <time>2010-11-28T07:56:57Z</time>
      </trkpt>
      <trkpt lat="43.58331" lon="3.75478">
        <ele>67</ele>
        <time>2010-11-28T07:56:59Z</time>
      </trkpt>
      <trkpt lat="43.58327" lon="3.75467">
        <ele>66.9</ele>
        <time>2010-11-28T07:57:01Z</time>
      </trkpt>
      <trkpt lat="43.58322" lon="3.75457">
        <ele>66.8</ele>
        <time>2010-11-28T07:57:03Z</time>
      </trkpt>
      <trkpt lat="43.58318" lon="3.75447">
        <ele>66.6</ele>
        <time>2010-11-28T07:57:05Z</time>
      </trkpt>
      <trkpt lat="43.58314" lon="3.75437">
        <ele>66.5</ele>
        <time>2010-11-28T07:57:07Z</time>
      </trkpt>
      <trkpt lat="43.58309" lon="3.75427">
        <ele>66.4</ele>
        <time>2010-11-28T07:57:09Z</time>
      </trkpt>
      <trkpt lat="43.58305" lon="3.75417">
        <ele>66.3</ele>
        <time>2010-11-28T07:57:11Z</time>
      </trkpt>
      <trkpt lat="43.583" lon="3.75406">
        <ele>66.3</ele>
        <time>2010-11-28T07:57:13Z</time>
      </trkpt>
      <trkpt lat="43.58296" lon="3.75396">
        <ele>66.3</ele>
        <time>2010-11-28T07:57:15Z</time>
      </trkpt>
      <trkpt lat="43.58291" lon="3.75386">
        <ele>66.4</ele>
        <time>2010-11-28T07:57:17Z</time>
      </trkpt>
      <trkpt lat="43.58286" lon="3.75376">
        <ele>66.4</ele>
        <time>2010-11-28T07:57:19Z</time>
      </trkpt>
      <trkpt lat="43.58282" lon="3.75365">
        <ele>66.5</ele>
        <time>2010-11-28T07:57:21Z</time>
      </trkpt>
      <trkpt lat="43.58277" lon="3.75355">
        <ele>66.6</ele>
        <time>2010-11-28T07:57:23Z</time>
      </trkpt>
      <trkpt lat="43.58272" lon="3.75344">
        <ele>66.7</ele>
        <time>2010-11-28T07:57:25Z</time>
      </trkpt>
      <trkpt lat="43.58268" lon="3.75334">
        <ele>66.6</ele>
        <time>2010-11-28T07:57:27Z</time>
      </trkpt>
      <trkpt lat="43.58264" lon="3.75323">
        <ele>66.4</ele>
        <time>2010-11-28T07:57:29Z</time>
      </trkpt>
      <trkpt lat="43.58259" lon="3.75313">
        <ele>66.4</ele>
        <time>2010-11-28T07:57:31Z</time>
      </trkpt>
      <trkpt lat="43.58255" lon="3.75303">
        <ele>66.4</ele>
        <time>2010-11-28T07:57:33Z</time>
      </trkpt>
      <trkpt lat="43.5825" lon="3.75292">
        <ele>66.4</ele>
        <time>2010-11-28T07:57:35Z</time>
      </trkpt>
      <trkpt lat="43.58246" lon="3.75282">
        <ele>66.5</ele>
        <time>2010-11-28T07:57:37Z</time>
      </trkpt>
      <trkpt lat="43.58241" lon="3.75272">
        <ele>66.5</ele>
        <time>2010-11-28T07:57:39Z</time>
      </trkpt>
      <trkpt lat="43.58239" lon="3.75266">
        <ele>66.6</ele>
        <time>2010-11-28T07:57:40Z</time>
      </trkpt>
      <trkpt lat="43.58236" lon="3.75261">
        <ele>66.6</ele>
        <time>2010-11-28T07:57:41Z</time>
      </trkpt>
      <trkpt lat="43.5823" lon="3.75246">
        <ele>66.7</ele>
        <time>2010-11-28T07:57:44Z</time>
      </trkpt>
      <trkpt lat="43.58226" lon="3.75236">
        <ele>66.8</ele>
        <time>2010-11-28T07:57:46Z</time>
      </trkpt>
      <trkpt lat="43.58221" lon="3.75225">
        <ele>66.7</ele>
        <time>2010-11-28T07:57:48Z</time>
      </trkpt>
      <trkpt lat="43.58217" lon="3.75215">
        <ele>66.6</ele>
        <time>2010-11-28T07:57:50Z</time>
      </trkpt>
      <trkpt lat="43.58213" lon="3.75206">
        <ele>66.6</ele>
        <time>2010-11-28T07:57:52Z</time>
      </trkpt>
      <trkpt lat="43.58209" lon="3.75198">
        <ele>66.6</ele>
        <time>2010-11-28T07:57:54Z</time>
      </trkpt>
      <trkpt lat="43.58205" lon="3.75189">
        <ele>66.8</ele>
        <time>2010-11-28T07:57:56Z</time>
      </trkpt>
      <trkpt lat="43.58202" lon="3.75181">
        <ele>66.9</ele>
        <time>2010-11-28T07:57:58Z</time>
      </trkpt>
      <trkpt lat="43.58199" lon="3.75173">
        <ele>67</ele>
        <time>2010-11-28T07:58:00Z</time>
      </trkpt>
      <trkpt lat="43.58195" lon="3.75164">
        <ele>67.1</ele>
        <time>2010-11-28T07:58:02Z</time>
      </trkpt>
      <trkpt lat="43.58192" lon="3.75156">
        <ele>67.2</ele>
        <time>2010-11-28T07:58:04Z</time>
      </trkpt>
      <trkpt lat="43.58188" lon="3.75148">
        <ele>67.2</ele>
        <time>2010-11-28T07:58:06Z</time>
      </trkpt>
      <trkpt lat="43.58184" lon="3.75139">
        <ele>67.3</ele>
        <time>2010-11-28T07:58:08Z</time>
      </trkpt>
      <trkpt lat="43.58181" lon="3.75131">
        <ele>67.3</ele>
        <time>2010-11-28T07:58:10Z</time>
      </trkpt>
      <trkpt lat="43.58177" lon="3.75122">
        <ele>67.5</ele>
        <time>2010-11-28T07:58:12Z</time>
      </trkpt>
      <trkpt lat="43.58173" lon="3.75114">
        <ele>67.6</ele>
        <time>2010-11-28T07:58:14Z</time>
      </trkpt>
      <trkpt lat="43.58169" lon="3.75105">
        <ele>67.8</ele>
        <time>2010-11-28T07:58:16Z</time>
      </trkpt>
      <trkpt lat="43.58166" lon="3.75097">
        <ele>68</ele>
        <time>2010-11-28T07:58:18Z</time>
      </trkpt>
      <trkpt lat="43.58162" lon="3.75088">
        <ele>68.2</ele>
        <time>2010-11-28T07:58:20Z</time>
      </trkpt>
      <trkpt lat="43.58158" lon="3.75079">
        <ele>68.5</ele>
        <time>2010-11-28T07:58:22Z</time>
      </trkpt>
      <trkpt lat="43.58154" lon="3.7507">
        <ele>68.7</ele>
        <time>2010-11-28T07:58:24Z</time>
      </trkpt>
      <trkpt lat="43.5815" lon="3.75062">
        <ele>69</ele>
        <time>2010-11-28T07:58:26Z</time>
      </trkpt>
      <trkpt lat="43.58146" lon="3.75053">
        <ele>69.3</ele>
        <time>2010-11-28T07:58:28Z</time>
      </trkpt>
      <trkpt lat="43.58143" lon="3.75044">
        <ele>69.6</ele>
        <time>2010-11-28T07:58:30Z</time>
      </trkpt>
      <trkpt lat="43.58139" lon="3.75036">
        <ele>69.7</ele>
        <time>2010-11-28T07:58:32Z</time>
      </trkpt>
      <trkpt lat="43.58135" lon="3.75027">
        <ele>69.8</ele>
        <time>2010-11-28T07:58:34Z</time>
      </trkpt>
      <trkpt lat="43.58131" lon="3.75018">
        <ele>69.8</ele>
        <time>2010-11-28T07:58:36Z</time>
      </trkpt>
      <trkpt lat="43.58126" lon="3.75009">
        <ele>69.8</ele>
        <time>2010-11-28T07:58:38Z</time>
      </trkpt>
      <trkpt lat="43.58121" lon="3.74999">
        <ele>69.6</ele>
        <time>2010-11-28T07:58:40Z</time>
      </trkpt>
      <trkpt lat="43.58117" lon="3.74989">
        <ele>69.5</ele>
        <time>2010-11-28T07:58:42Z</time>
      </trkpt>
      <trkpt lat="43.58115" lon="3.74984">
        <ele>69.4</ele>
        <time>2010-11-28T07:58:43Z</time>
      </trkpt>
      <trkpt lat="43.58108" lon="3.7497">
        <ele>69.3</ele>
        <time>2010-11-28T07:58:46Z</time>
      </trkpt>
      <trkpt lat="43.58104" lon="3.74961">
        <ele>69.2</ele>
        <time>2010-11-28T07:58:48Z</time>
      </trkpt>
      <trkpt lat="43.58099" lon="3.74952">
        <ele>69.2</ele>
        <time>2010-11-28T07:58:50Z</time>
      </trkpt>
      <trkpt lat="43.58095" lon="3.74943">
        <ele>69.2</ele>
        <time>2010-11-28T07:58:52Z</time>
      </trkpt>
      <trkpt lat="43.58091" lon="3.74934">
        <ele>69.2</ele>
        <time>2010-11-28T07:58:54Z</time>
      </trkpt>
      <trkpt lat="43.58087" lon="3.74925">
        <ele>69.2</ele>
        <time>2010-11-28T07:58:56Z</time>
      </trkpt>
      <trkpt lat="43.58084" lon="3.74915">
        <ele>69.2</ele>
        <time>2010-11-28T07:58:58Z</time>
      </trkpt>
      <trkpt lat="43.5808" lon="3.74906">
        <ele>69.2</ele>
        <time>2010-11-28T07:59:00Z</time>
      </trkpt>
      <trkpt lat="43.58075" lon="3.749">
        <ele>69.3</ele>
        <time>2010-11-28T07:59:02Z</time>
      </trkpt>
      <trkpt lat="43.5807" lon="3.74892">
        <ele>69</ele>
        <time>2010-11-28T07:59:04Z</time>
      </trkpt>
      <trkpt lat="43.58066" lon="3.74883">
        <ele>68.6</ele>
        <time>2010-11-28T07:59:06Z</time>
      </trkpt>
      <trkpt lat="43.58063" lon="3.74875">
        <ele>68.2</ele>
        <time>2010-11-28T07:59:08Z</time>
      </trkpt>
      <trkpt lat="43.58059" lon="3.74868">
        <ele>67.9</ele>
        <time>2010-11-28T07:59:10Z</time>
      </trkpt>
      <trkpt lat="43.58056" lon="3.74861">
        <ele>67.7</ele>
        <time>2010-11-28T07:59:12Z</time>
      </trkpt>
      <trkpt lat="43.58053" lon="3.74854">
        <ele>67.6</ele>
        <time>2010-11-28T07:59:14Z</time>
      </trkpt>
      <trkpt lat="43.58049" lon="3.74847">
        <ele>67.7</ele>
        <time>2010-11-28T07:59:16Z</time>
      </trkpt>
      <trkpt lat="43.58046" lon="3.7484">
        <ele>67.8</ele>
        <time>2010-11-28T07:59:18Z</time>
      </trkpt>
      <trkpt lat="43.58041" lon="3.7483">
        <ele>67.8</ele>
        <time>2010-11-28T07:59:21Z</time>
      </trkpt>
      <trkpt lat="43.58036" lon="3.74821">
        <ele>67.8</ele>
        <time>2010-11-28T07:59:24Z</time>
      </trkpt>
      <trkpt lat="43.58032" lon="3.74814">
        <ele>67.8</ele>
        <time>2010-11-28T07:59:26Z</time>
      </trkpt>
      <trkpt lat="43.58029" lon="3.74807">
        <ele>68</ele>
        <time>2010-11-28T07:59:28Z</time>
      </trkpt>
      <trkpt lat="43.58025" lon="3.748">
        <ele>68.2</ele>
        <time>2010-11-28T07:59:30Z</time>
      </trkpt>
      <trkpt lat="43.58022" lon="3.74792">
        <ele>68.4</ele>
        <time>2010-11-28T07:59:32Z</time>
      </trkpt>
      <trkpt lat="43.58019" lon="3.74784">
        <ele>68.6</ele>
        <time>2010-11-28T07:59:34Z</time>
      </trkpt>
      <trkpt lat="43.58016" lon="3.74776">
        <ele>68.8</ele>
        <time>2010-11-28T07:59:36Z</time>
      </trkpt>
      <trkpt lat="43.58012" lon="3.74769">
        <ele>68.8</ele>
        <time>2010-11-28T07:59:38Z</time>
      </trkpt>
      <trkpt lat="43.58009" lon="3.74761">
        <ele>68.9</ele>
        <time>2010-11-28T07:59:40Z</time>
      </trkpt>
      <trkpt lat="43.58005" lon="3.74754">
        <ele>69.1</ele>
        <time>2010-11-28T07:59:42Z</time>
      </trkpt>
      <trkpt lat="43.58002" lon="3.74747">
        <ele>69.3</ele>
        <time>2010-11-28T07:59:44Z</time>
      </trkpt>
      <trkpt lat="43.58" lon="3.74743">
        <ele>69.4</ele>
        <time>2010-11-28T07:59:45Z</time>
      </trkpt>
      <trkpt lat="43.57994" lon="3.74732">
        <ele>69.8</ele>
        <time>2010-11-28T07:59:48Z</time>
      </trkpt>
      <trkpt lat="43.5799" lon="3.74724">
        <ele>70</ele>
        <time>2010-11-28T07:59:50Z</time>
      </trkpt>
      <trkpt lat="43.57986" lon="3.74716">
        <ele>70.2</ele>
        <time>2010-11-28T07:59:52Z</time>
      </trkpt>
      <trkpt lat="43.57982" lon="3.74708">
        <ele>70.3</ele>
        <time>2010-11-28T07:59:54Z</time>
      </trkpt>
      <trkpt lat="43.57978" lon="3.74701">
        <ele>70.5</ele>
        <time>2010-11-28T07:59:56Z</time>
      </trkpt>
      <trkpt lat="43.57975" lon="3.74693">
        <ele>70.7</ele>
        <time>2010-11-28T07:59:58Z</time>
      </trkpt>
      <trkpt lat="43.57971" lon="3.74685">
        <ele>70.8</ele>
        <time>2010-11-28T08:00:00Z</time>
      </trkpt>
      <trkpt lat="43.57968" lon="3.74676">
        <ele>70.8</ele>
        <time>2010-11-28T08:00:02Z</time>
      </trkpt>
      <trkpt lat="43.57964" lon="3.74668">
        <ele>70.7</ele>
        <time>2010-11-28T08:00:04Z</time>
      </trkpt>
      <trkpt lat="43.57961" lon="3.7466">
        <ele>70.7</ele>
        <time>2010-11-28T08:00:06Z</time>
      </trkpt>
      <trkpt lat="43.57957" lon="3.74652">
        <ele>70.6</ele>
        <time>2010-11-28T08:00:08Z</time>
      </trkpt>
      <trkpt lat="43.57953" lon="3.74644">
        <ele>70.6</ele>
        <time>2010-11-28T08:00:10Z</time>
      </trkpt>
      <trkpt lat="43.5795" lon="3.74636">
        <ele>70.5</ele>
        <time>2010-11-28T08:00:12Z</time>
      </trkpt>
      <trkpt lat="43.57946" lon="3.74627">
        <ele>70.4</ele>
        <time>2010-11-28T08:00:14Z</time>
      </trkpt>
      <trkpt lat="43.57942" lon="3.74618">
        <ele>70.1</ele>
        <time>2010-11-28T08:00:16Z</time>
      </trkpt>
      <trkpt lat="43.57939" lon="3.7461">
        <ele>69.8</ele>
        <time>2010-11-28T08:00:18Z</time>
      </trkpt>
      <trkpt lat="43.57935" lon="3.74602">
        <ele>69.6</ele>
        <time>2010-11-28T08:00:20Z</time>
      </trkpt>
      <trkpt lat="43.57931" lon="3.74594">
        <ele>69.6</ele>
        <time>2010-11-28T08:00:22Z</time>
      </trkpt>
      <trkpt lat="43.57927" lon="3.74586">
        <ele>69.7</ele>
        <time>2010-11-28T08:00:24Z</time>
      </trkpt>
      <trkpt lat="43.57924" lon="3.74579">
        <ele>69.7</ele>
        <time>2010-11-28T08:00:26Z</time>
      </trkpt>
      <trkpt lat="43.57921" lon="3.74572">
        <ele>69.9</ele>
        <time>2010-11-28T08:00:28Z</time>
      </trkpt>
      <trkpt lat="43.57917" lon="3.74564">
        <ele>71.1</ele>
        <time>2010-11-28T08:00:30Z</time>
      </trkpt>
      <trkpt lat="43.57913" lon="3.74556">
        <ele>72.7</ele>
        <time>2010-11-28T08:00:32Z</time>
      </trkpt>
      <trkpt lat="43.5791" lon="3.74549">
        <ele>73.6</ele>
        <time>2010-11-28T08:00:34Z</time>
      </trkpt>
      <trkpt lat="43.57906" lon="3.74541">
        <ele>74.2</ele>
        <time>2010-11-28T08:00:36Z</time>
      </trkpt>
      <trkpt lat="43.57902" lon="3.74533">
        <ele>74.1</ele>
        <time>2010-11-28T08:00:38Z</time>
      </trkpt>
      <trkpt lat="43.57898" lon="3.74525">
        <ele>74</ele>
        <time>2010-11-28T08:00:40Z</time>
      </trkpt>
      <trkpt lat="43.57894" lon="3.74518">
        <ele>74</ele>
        <time>2010-11-28T08:00:42Z</time>
      </trkpt>
      <trkpt lat="43.5789" lon="3.7451">
        <ele>74.3</ele>
        <time>2010-11-28T08:00:44Z</time>
      </trkpt>
      <trkpt lat="43.57887" lon="3.74502">
        <ele>74.7</ele>
        <time>2010-11-28T08:00:46Z</time>
      </trkpt>
      <trkpt lat="43.57885" lon="3.74499">
        <ele>74.7</ele>
        <time>2010-11-28T08:00:47Z</time>
      </trkpt>
      <trkpt lat="43.5788" lon="3.74488">
        <ele>74.7</ele>
        <time>2010-11-28T08:00:50Z</time>
      </trkpt>
      <trkpt lat="43.57876" lon="3.74481">
        <ele>74.9</ele>
        <time>2010-11-28T08:00:52Z</time>
      </trkpt>
      <trkpt lat="43.57873" lon="3.74473">
        <ele>75.2</ele>
        <time>2010-11-28T08:00:54Z</time>
      </trkpt>
      <trkpt lat="43.57869" lon="3.74465">
        <ele>75.4</ele>
        <time>2010-11-28T08:00:56Z</time>
      </trkpt>
      <trkpt lat="43.57865" lon="3.74457">
        <ele>75.1</ele>
        <time>2010-11-28T08:00:58Z</time>
      </trkpt>
      <trkpt lat="43.57861" lon="3.74449">
        <ele>74.9</ele>
        <time>2010-11-28T08:01:00Z</time>
      </trkpt>
      <trkpt lat="43.57857" lon="3.74441">
        <ele>74.7</ele>
        <time>2010-11-28T08:01:02Z</time>
      </trkpt>
      <trkpt lat="43.57852" lon="3.74434">
        <ele>75.6</ele>
        <time>2010-11-28T08:01:04Z</time>
      </trkpt>
      <trkpt lat="43.57848" lon="3.74427">
        <ele>75.6</ele>
        <time>2010-11-28T08:01:06Z</time>
      </trkpt>
      <trkpt lat="43.57844" lon="3.74419">
        <ele>75.1</ele>
        <time>2010-11-28T08:01:08Z</time>
      </trkpt>
      <trkpt lat="43.5784" lon="3.74412">
        <ele>74.8</ele>
        <time>2010-11-28T08:01:10Z</time>
      </trkpt>
      <trkpt lat="43.57836" lon="3.74405">
        <ele>74.7</ele>
        <time>2010-11-28T08:01:12Z</time>
      </trkpt>
      <trkpt lat="43.57832" lon="3.74399">
        <ele>74.8</ele>
        <time>2010-11-28T08:01:14Z</time>
      </trkpt>
      <trkpt lat="43.57827" lon="3.74392">
        <ele>74.7</ele>
        <time>2010-11-28T08:01:16Z</time>
      </trkpt>
      <trkpt lat="43.57822" lon="3.74385">
        <ele>74.6</ele>
        <time>2010-11-28T08:01:18Z</time>
      </trkpt>
      <trkpt lat="43.57817" lon="3.74378">
        <ele>74.2</ele>
        <time>2010-11-28T08:01:20Z</time>
      </trkpt>
      <trkpt lat="43.57812" lon="3.74371">
        <ele>74.2</ele>
        <time>2010-11-28T08:01:22Z</time>
      </trkpt>
      <trkpt lat="43.57807" lon="3.74364">
        <ele>74.3</ele>
        <time>2010-11-28T08:01:24Z</time>
      </trkpt>
      <trkpt lat="43.57802" lon="3.74356">
        <ele>74.2</ele>
        <time>2010-11-28T08:01:26Z</time>
      </trkpt>
      <trkpt lat="43.57797" lon="3.74349">
        <ele>74.4</ele>
        <time>2010-11-28T08:01:28Z</time>
      </trkpt>
      <trkpt lat="43.57791" lon="3.74342">
        <ele>74.6</ele>
        <time>2010-11-28T08:01:30Z</time>
      </trkpt>
      <trkpt lat="43.57786" lon="3.74335">
        <ele>74.9</ele>
        <time>2010-11-28T08:01:32Z</time>
      </trkpt>
      <trkpt lat="43.5778" lon="3.74328">
        <ele>75.3</ele>
        <time>2010-11-28T08:01:34Z</time>
      </trkpt>
      <trkpt lat="43.57775" lon="3.74321">
        <ele>75.2</ele>
        <time>2010-11-28T08:01:36Z</time>
      </trkpt>
      <trkpt lat="43.57769" lon="3.74314">
        <ele>74.8</ele>
        <time>2010-11-28T08:01:38Z</time>
      </trkpt>
      <trkpt lat="43.57763" lon="3.74308">
        <ele>74.4</ele>
        <time>2010-11-28T08:01:40Z</time>
      </trkpt>
      <trkpt lat="43.57758" lon="3.74301">
        <ele>74.3</ele>
        <time>2010-11-28T08:01:42Z</time>
      </trkpt>
      <trkpt lat="43.57752" lon="3.74294">
        <ele>74.4</ele>
        <time>2010-11-28T08:01:44Z</time>
      </trkpt>
      <trkpt lat="43.57747" lon="3.74288">
        <ele>74.7</ele>
        <time>2010-11-28T08:01:46Z</time>
      </trkpt>
      <trkpt lat="43.57741" lon="3.74281">
        <ele>75</ele>
        <time>2010-11-28T08:01:48Z</time>
      </trkpt>
      <trkpt lat="43.57739" lon="3.74278">
        <ele>75.2</ele>
        <time>2010-11-28T08:01:49Z</time>
      </trkpt>
      <trkpt lat="43.5773" lon="3.74268">
        <ele>74.6</ele>
        <time>2010-11-28T08:01:52Z</time>
      </trkpt>
      <trkpt lat="43.57725" lon="3.74262">
        <ele>74.7</ele>
        <time>2010-11-28T08:01:54Z</time>
      </trkpt>
      <trkpt lat="43.57719" lon="3.74255">
        <ele>75.1</ele>
        <time>2010-11-28T08:01:56Z</time>
      </trkpt>
      <trkpt lat="43.57713" lon="3.74249">
        <ele>75.3</ele>
        <time>2010-11-28T08:01:58Z</time>
      </trkpt>
      <trkpt lat="43.57708" lon="3.74243">
        <ele>75.4</ele>
        <time>2010-11-28T08:02:00Z</time>
      </trkpt>
      <trkpt lat="43.57702" lon="3.74237">
        <ele>75.5</ele>
        <time>2010-11-28T08:02:02Z</time>
      </trkpt>
      <trkpt lat="43.57697" lon="3.74231">
        <ele>75.3</ele>
        <time>2010-11-28T08:02:04Z</time>
      </trkpt>
      <trkpt lat="43.57691" lon="3.74225">
        <ele>75.1</ele>
        <time>2010-11-28T08:02:06Z</time>
      </trkpt>
      <trkpt lat="43.57685" lon="3.74218">
        <ele>75.2</ele>
        <time>2010-11-28T08:02:08Z</time>
      </trkpt>
      <trkpt lat="43.57679" lon="3.74212">
        <ele>75.1</ele>
        <time>2010-11-28T08:02:10Z</time>
      </trkpt>
      <trkpt lat="43.57673" lon="3.74206">
        <ele>74.9</ele>
        <time>2010-11-28T08:02:12Z</time>
      </trkpt>
      <trkpt lat="43.57668" lon="3.742">
        <ele>75.1</ele>
        <time>2010-11-28T08:02:14Z</time>
      </trkpt>
      <trkpt lat="43.57662" lon="3.74194">
        <ele>75.4</ele>
        <time>2010-11-28T08:02:16Z</time>
      </trkpt>
      <trkpt lat="43.57656" lon="3.74187">
        <ele>75.7</ele>
        <time>2010-11-28T08:02:18Z</time>
      </trkpt>
      <trkpt lat="43.5765" lon="3.74181">
        <ele>75.7</ele>
        <time>2010-11-28T08:02:20Z</time>
      </trkpt>
      <trkpt lat="43.57645" lon="3.74175">
        <ele>75.7</ele>
        <time>2010-11-28T08:02:22Z</time>
      </trkpt>
      <trkpt lat="43.57639" lon="3.74168">
        <ele>75.4</ele>
        <time>2010-11-28T08:02:24Z</time>
      </trkpt>
      <trkpt lat="43.57633" lon="3.74162">
        <ele>75.3</ele>
        <time>2010-11-28T08:02:26Z</time>
      </trkpt>
      <trkpt lat="43.57628" lon="3.74156">
        <ele>75.2</ele>
        <time>2010-11-28T08:02:28Z</time>
      </trkpt>
      <trkpt lat="43.57622" lon="3.7415">
        <ele>75.6</ele>
        <time>2010-11-28T08:02:30Z</time>
      </trkpt>
      <trkpt lat="43.57616" lon="3.74144">
        <ele>76.1</ele>
        <time>2010-11-28T08:02:32Z</time>
      </trkpt>
      <trkpt lat="43.57611" lon="3.74138">
        <ele>76.6</ele>
        <time>2010-11-28T08:02:34Z</time>
      </trkpt>
      <trkpt lat="43.57605" lon="3.74131">
        <ele>76.3</ele>
        <time>2010-11-28T08:02:36Z</time>
      </trkpt>
      <trkpt lat="43.57599" lon="3.74125">
        <ele>76.2</ele>
        <time>2010-11-28T08:02:38Z</time>
      </trkpt>
      <trkpt lat="43.57594" lon="3.74119">
        <ele>76.2</ele>
        <time>2010-11-28T08:02:40Z</time>
      </trkpt>
      <trkpt lat="43.57588" lon="3.74112">
        <ele>76.1</ele>
        <time>2010-11-28T08:02:42Z</time>
      </trkpt>
      <trkpt lat="43.57582" lon="3.74106">
        <ele>76</ele>
        <time>2010-11-28T08:02:44Z</time>
      </trkpt>
      <trkpt lat="43.57576" lon="3.741">
        <ele>76</ele>
        <time>2010-11-28T08:02:46Z</time>
      </trkpt>
      <trkpt lat="43.57571" lon="3.74093">
        <ele>75.9</ele>
        <time>2010-11-28T08:02:48Z</time>
      </trkpt>
      <trkpt lat="43.57565" lon="3.74087">
        <ele>75.8</ele>
        <time>2010-11-28T08:02:50Z</time>
      </trkpt>
      <trkpt lat="43.57562" lon="3.74084">
        <ele>76.1</ele>
        <time>2010-11-28T08:02:51Z</time>
      </trkpt>
      <trkpt lat="43.57553" lon="3.74075">
        <ele>76.7</ele>
        <time>2010-11-28T08:02:54Z</time>
      </trkpt>
      <trkpt lat="43.57547" lon="3.74069">
        <ele>76.3</ele>
        <time>2010-11-28T08:02:56Z</time>
      </trkpt>
      <trkpt lat="43.57541" lon="3.74062">
        <ele>76.3</ele>
        <time>2010-11-28T08:02:58Z</time>
      </trkpt>
      <trkpt lat="43.57535" lon="3.74056">
        <ele>76.4</ele>
        <time>2010-11-28T08:03:00Z</time>
      </trkpt>
      <trkpt lat="43.57529" lon="3.74049">
        <ele>76</ele>
        <time>2010-11-28T08:03:02Z</time>
      </trkpt>
      <trkpt lat="43.57523" lon="3.74042">
        <ele>76.3</ele>
        <time>2010-11-28T08:03:04Z</time>
      </trkpt>
      <trkpt lat="43.57518" lon="3.74035">
        <ele>76.7</ele>
        <time>2010-11-28T08:03:06Z</time>
      </trkpt>
      <trkpt lat="43.57512" lon="3.74029">
        <ele>76.5</ele>
        <time>2010-11-28T08:03:08Z</time>
      </trkpt>
      <trkpt lat="43.57506" lon="3.74021">
        <ele>76.4</ele>
        <time>2010-11-28T08:03:10Z</time>
      </trkpt>
      <trkpt lat="43.575" lon="3.74014">
        <ele>76.5</ele>
        <time>2010-11-28T08:03:12Z</time>
      </trkpt>
      <trkpt lat="43.57494" lon="3.74007">
        <ele>76.4</ele>
        <time>2010-11-28T08:03:14Z</time>
      </trkpt>
      <trkpt lat="43.57489" lon="3.74">
        <ele>76.1</ele>
        <time>2010-11-28T08:03:16Z</time>
      </trkpt>
      <trkpt lat="43.57483" lon="3.73992">
        <ele>76</ele>
        <time>2010-11-28T08:03:18Z</time>
      </trkpt>
      <trkpt lat="43.57478" lon="3.73985">
        <ele>76</ele>
        <time>2010-11-28T08:03:20Z</time>
      </trkpt>
      <trkpt lat="43.57472" lon="3.73978">
        <ele>75.9</ele>
        <time>2010-11-28T08:03:22Z</time>
      </trkpt>
      <trkpt lat="43.57467" lon="3.7397">
        <ele>75.6</ele>
        <time>2010-11-28T08:03:24Z</time>
      </trkpt>
      <trkpt lat="43.57461" lon="3.73963">
        <ele>75.4</ele>
        <time>2010-11-28T08:03:26Z</time>
      </trkpt>
      <trkpt lat="43.57456" lon="3.73955">
        <ele>76.5</ele>
        <time>2010-11-28T08:03:28Z</time>
      </trkpt>
      <trkpt lat="43.57451" lon="3.73947">
        <ele>77</ele>
        <time>2010-11-28T08:03:30Z</time>
      </trkpt>
      <trkpt lat="43.57446" lon="3.73939">
        <ele>77.2</ele>
        <time>2010-11-28T08:03:32Z</time>
      </trkpt>
      <trkpt lat="43.57441" lon="3.73929">
        <ele>76.9</ele>
        <time>2010-11-28T08:03:34Z</time>
      </trkpt>
      <trkpt lat="43.57437" lon="3.73921">
        <ele>76.4</ele>
        <time>2010-11-28T08:03:36Z</time>
      </trkpt>
      <trkpt lat="43.57432" lon="3.73912">
        <ele>75.9</ele>
        <time>2010-11-28T08:03:38Z</time>
      </trkpt>
      <trkpt lat="43.57427" lon="3.73903">
        <ele>76</ele>
        <time>2010-11-28T08:03:40Z</time>
      </trkpt>
      <trkpt lat="43.57423" lon="3.73894">
        <ele>76</ele>
        <time>2010-11-28T08:03:42Z</time>
      </trkpt>
      <trkpt lat="43.57418" lon="3.73886">
        <ele>75.9</ele>
        <time>2010-11-28T08:03:44Z</time>
      </trkpt>
      <trkpt lat="43.57413" lon="3.73877">
        <ele>75.7</ele>
        <time>2010-11-28T08:03:46Z</time>
      </trkpt>
      <trkpt lat="43.57409" lon="3.73868">
        <ele>75.5</ele>
        <time>2010-11-28T08:03:48Z</time>
      </trkpt>
      <trkpt lat="43.57404" lon="3.73859">
        <ele>75.5</ele>
        <time>2010-11-28T08:03:50Z</time>
      </trkpt>
      <trkpt lat="43.57399" lon="3.73851">
        <ele>75.9</ele>
        <time>2010-11-28T08:03:52Z</time>
      </trkpt>
      <trkpt lat="43.57397" lon="3.73846">
        <ele>76.1</ele>
        <time>2010-11-28T08:03:53Z</time>
      </trkpt>
      <trkpt lat="43.5739" lon="3.73834">
        <ele>76.5</ele>
        <time>2010-11-28T08:03:56Z</time>
      </trkpt>
      <trkpt lat="43.57385" lon="3.73825">
        <ele>76.6</ele>
        <time>2010-11-28T08:03:58Z</time>
      </trkpt>
      <trkpt lat="43.5738" lon="3.73817">
        <ele>75.8</ele>
        <time>2010-11-28T08:04:00Z</time>
      </trkpt>
      <trkpt lat="43.57375" lon="3.73808">
        <ele>75.7</ele>
        <time>2010-11-28T08:04:02Z</time>
      </trkpt>
      <trkpt lat="43.57371" lon="3.738">
        <ele>75.9</ele>
        <time>2010-11-28T08:04:04Z</time>
      </trkpt>
      <trkpt lat="43.57366" lon="3.73791">
        <ele>76.3</ele>
        <time>2010-11-28T08:04:06Z</time>
      </trkpt>
      <trkpt lat="43.57361" lon="3.73782">
        <ele>76.2</ele>
        <time>2010-11-28T08:04:08Z</time>
      </trkpt>
      <trkpt lat="43.57356" lon="3.73774">
        <ele>76</ele>
        <time>2010-11-28T08:04:10Z</time>
      </trkpt>
      <trkpt lat="43.57351" lon="3.73766">
        <ele>76.8</ele>
        <time>2010-11-28T08:04:12Z</time>
      </trkpt>
      <trkpt lat="43.57346" lon="3.73757">
        <ele>77</ele>
        <time>2010-11-28T08:04:14Z</time>
      </trkpt>
      <trkpt lat="43.57341" lon="3.73748">
        <ele>76.9</ele>
        <time>2010-11-28T08:04:16Z</time>
      </trkpt>
      <trkpt lat="43.57336" lon="3.7374">
        <ele>76.6</ele>
        <time>2010-11-28T08:04:18Z</time>
      </trkpt>
      <trkpt lat="43.57331" lon="3.73731">
        <ele>76.2</ele>
        <time>2010-11-28T08:04:20Z</time>
      </trkpt>
      <trkpt lat="43.57326" lon="3.73722">
        <ele>76.5</ele>
        <time>2010-11-28T08:04:22Z</time>
      </trkpt>
      <trkpt lat="43.57321" lon="3.73713">
        <ele>76.6</ele>
        <time>2010-11-28T08:04:24Z</time>
      </trkpt>
      <trkpt lat="43.57316" lon="3.73704">
        <ele>76.5</ele>
        <time>2010-11-28T08:04:26Z</time>
      </trkpt>
      <trkpt lat="43.57311" lon="3.73696">
        <ele>76.6</ele>
        <time>2010-11-28T08:04:28Z</time>
      </trkpt>
      <trkpt lat="43.57307" lon="3.73687">
        <ele>76.4</ele>
        <time>2010-11-28T08:04:30Z</time>
      </trkpt>
      <trkpt lat="43.57302" lon="3.73679">
        <ele>76</ele>
        <time>2010-11-28T08:04:32Z</time>
      </trkpt>
      <trkpt lat="43.57297" lon="3.7367">
        <ele>75.7</ele>
        <time>2010-11-28T08:04:34Z</time>
      </trkpt>
      <trkpt lat="43.57293" lon="3.73661">
        <ele>75.5</ele>
        <time>2010-11-28T08:04:36Z</time>
      </trkpt>
      <trkpt lat="43.57288" lon="3.73652">
        <ele>75.7</ele>
        <time>2010-11-28T08:04:38Z</time>
      </trkpt>
      <trkpt lat="43.57283" lon="3.73644">
        <ele>75.9</ele>
        <time>2010-11-28T08:04:40Z</time>
      </trkpt>
      <trkpt lat="43.57279" lon="3.73635">
        <ele>76.1</ele>
        <time>2010-11-28T08:04:42Z</time>
      </trkpt>
      <trkpt lat="43.57274" lon="3.73627">
        <ele>75.6</ele>
        <time>2010-11-28T08:04:44Z</time>
      </trkpt>
      <trkpt lat="43.57269" lon="3.73618">
        <ele>75.3</ele>
        <time>2010-11-28T08:04:46Z</time>
      </trkpt>
      <trkpt lat="43.57264" lon="3.73609">
        <ele>75.2</ele>
        <time>2010-11-28T08:04:48Z</time>
      </trkpt>
      <trkpt lat="43.5726" lon="3.73601">
        <ele>75.1</ele>
        <time>2010-11-28T08:04:50Z</time>
      </trkpt>
      <trkpt lat="43.57255" lon="3.73592">
        <ele>75.1</ele>
        <time>2010-11-28T08:04:52Z</time>
      </trkpt>
      <trkpt lat="43.57251" lon="3.73584">
        <ele>75.5</ele>
        <time>2010-11-28T08:04:54Z</time>
      </trkpt>
      <trkpt lat="43.57248" lon="3.7358">
        <ele>75.7</ele>
        <time>2010-11-28T08:04:55Z</time>
      </trkpt>
      <trkpt lat="43.57243" lon="3.73567">
        <ele>76</ele>
        <time>2010-11-28T08:04:58Z</time>
      </trkpt>
      <trkpt lat="43.57239" lon="3.73558">
        <ele>75.6</ele>
        <time>2010-11-28T08:05:00Z</time>
      </trkpt>
      <trkpt lat="43.57236" lon="3.73549">
        <ele>75.7</ele>
        <time>2010-11-28T08:05:02Z</time>
      </trkpt>
      <trkpt lat="43.57231" lon="3.73541">
        <ele>76</ele>
        <time>2010-11-28T08:05:04Z</time>
      </trkpt>
      <trkpt lat="43.57225" lon="3.73533">
        <ele>75.8</ele>
        <time>2010-11-28T08:05:06Z</time>
      </trkpt>
      <trkpt lat="43.5722" lon="3.73525">
        <ele>75.5</ele>
        <time>2010-11-28T08:05:08Z</time>
      </trkpt>
      <trkpt lat="43.57215" lon="3.73516">
        <ele>75.9</ele>
        <time>2010-11-28T08:05:10Z</time>
      </trkpt>
      <trkpt lat="43.5721" lon="3.73508">
        <ele>75.9</ele>
        <time>2010-11-28T08:05:12Z</time>
      </trkpt>
      <trkpt lat="43.57206" lon="3.735">
        <ele>75.8</ele>
        <time>2010-11-28T08:05:14Z</time>
      </trkpt>
      <trkpt lat="43.57201" lon="3.7349">
        <ele>75.4</ele>
        <time>2010-11-28T08:05:16Z</time>
      </trkpt>
      <trkpt lat="43.57197" lon="3.73482">
        <ele>75.2</ele>
        <time>2010-11-28T08:05:18Z</time>
      </trkpt>
      <trkpt lat="43.57192" lon="3.73474">
        <ele>75.1</ele>
        <time>2010-11-28T08:05:20Z</time>
      </trkpt>
      <trkpt lat="43.57187" lon="3.73466">
        <ele>75.3</ele>
        <time>2010-11-28T08:05:22Z</time>
      </trkpt>
      <trkpt lat="43.57183" lon="3.73459">
        <ele>75.4</ele>
        <time>2010-11-28T08:05:24Z</time>
      </trkpt>
      <trkpt lat="43.57179" lon="3.7345">
        <ele>74.8</ele>
        <time>2010-11-28T08:05:26Z</time>
      </trkpt>
      <trkpt lat="43.57176" lon="3.73442">
        <ele>74.7</ele>
        <time>2010-11-28T08:05:28Z</time>
      </trkpt>
      <trkpt lat="43.5718" lon="3.73431">
        <ele>76.4</ele>
        <time>2010-11-28T08:05:32Z</time>
      </trkpt>
      <trkpt lat="43.57185" lon="3.73434">
        <ele>76.6</ele>
        <time>2010-11-28T08:05:34Z</time>
      </trkpt>
      <trkpt lat="43.57192" lon="3.73439">
        <ele>76.2</ele>
        <time>2010-11-28T08:05:36Z</time>
      </trkpt>
      <trkpt lat="43.57196" lon="3.73441">
        <ele>75.8</ele>
        <time>2010-11-28T08:05:37Z</time>
      </trkpt>
      <trkpt lat="43.57201" lon="3.73444">
        <ele>75.6</ele>
        <time>2010-11-28T08:05:38Z</time>
      </trkpt>
      <trkpt lat="43.57206" lon="3.73445">
        <ele>75.4</ele>
        <time>2010-11-28T08:05:39Z</time>
      </trkpt>
      <trkpt lat="43.57212" lon="3.73446">
        <ele>75.3</ele>
        <time>2010-11-28T08:05:40Z</time>
      </trkpt>
      <trkpt lat="43.57217" lon="3.73446">
        <ele>75.2</ele>
        <time>2010-11-28T08:05:41Z</time>
      </trkpt>
      <trkpt lat="43.57223" lon="3.73445">
        <ele>75.1</ele>
        <time>2010-11-28T08:05:42Z</time>
      </trkpt>
      <trkpt lat="43.57228" lon="3.73442">
        <ele>75</ele>
        <time>2010-11-28T08:05:43Z</time>
      </trkpt>
      <trkpt lat="43.57231" lon="3.73438">
        <ele>74.5</ele>
        <time>2010-11-28T08:05:44Z</time>
      </trkpt>
      <trkpt lat="43.57237" lon="3.73429">
        <ele>73.9</ele>
        <time>2010-11-28T08:05:46Z</time>
      </trkpt>
      <trkpt lat="43.57242" lon="3.73421">
        <ele>73.8</ele>
        <time>2010-11-28T08:05:48Z</time>
      </trkpt>
      <trkpt lat="43.57246" lon="3.73413">
        <ele>74.2</ele>
        <time>2010-11-28T08:05:50Z</time>
      </trkpt>
      <trkpt lat="43.5725" lon="3.73405">
        <ele>74.8</ele>
        <time>2010-11-28T08:05:52Z</time>
      </trkpt>
      <trkpt lat="43.57255" lon="3.73398">
        <ele>75</ele>
        <time>2010-11-28T08:05:54Z</time>
      </trkpt>
      <trkpt lat="43.5726" lon="3.7339">
        <ele>74.8</ele>
        <time>2010-11-28T08:05:56Z</time>
      </trkpt>
      <trkpt lat="43.57263" lon="3.73387">
        <ele>74.6</ele>
        <time>2010-11-28T08:05:57Z</time>
      </trkpt>
      <trkpt lat="43.57272" lon="3.73377">
        <ele>74.3</ele>
        <time>2010-11-28T08:06:00Z</time>
      </trkpt>
      <trkpt lat="43.57277" lon="3.73369">
        <ele>74.3</ele>
        <time>2010-11-28T08:06:02Z</time>
      </trkpt>
      <trkpt lat="43.57283" lon="3.73362">
        <ele>73.6</ele>
        <time>2010-11-28T08:06:04Z</time>
      </trkpt>
      <trkpt lat="43.57288" lon="3.73354">
        <ele>73.7</ele>
        <time>2010-11-28T08:06:06Z</time>
      </trkpt>
      <trkpt lat="43.57291" lon="3.73345">
        <ele>74.1</ele>
        <time>2010-11-28T08:06:08Z</time>
      </trkpt>
      <trkpt lat="43.57295" lon="3.73336">
        <ele>74.6</ele>
        <time>2010-11-28T08:06:10Z</time>
      </trkpt>
      <trkpt lat="43.573" lon="3.73327">
        <ele>74.7</ele>
        <time>2010-11-28T08:06:12Z</time>
      </trkpt>
      <trkpt lat="43.57303" lon="3.73319">
        <ele>74.7</ele>
        <time>2010-11-28T08:06:14Z</time>
      </trkpt>
      <trkpt lat="43.57307" lon="3.7331">
        <ele>74.6</ele>
        <time>2010-11-28T08:06:16Z</time>
      </trkpt>
      <trkpt lat="43.5731" lon="3.73301">
        <ele>74.6</ele>
        <time>2010-11-28T08:06:18Z</time>
      </trkpt>
      <trkpt lat="43.57314" lon="3.73291">
        <ele>74.7</ele>
        <time>2010-11-28T08:06:20Z</time>
      </trkpt>
      <trkpt lat="43.57316" lon="3.73281">
        <ele>74.9</ele>
        <time>2010-11-28T08:06:22Z</time>
      </trkpt>
      <trkpt lat="43.57317" lon="3.73269">
        <ele>74.5</ele>
        <time>2010-11-28T08:06:30Z</time>
      </trkpt>
      <trkpt lat="43.57324" lon="3.73265">
        <ele>73.2</ele>
        <time>2010-11-28T08:06:41Z</time>
      </trkpt>
      <trkpt lat="43.57327" lon="3.73258">
        <ele>73.5</ele>
        <time>2010-11-28T08:06:43Z</time>
      </trkpt>
      <trkpt lat="43.5733" lon="3.73249">
        <ele>73.7</ele>
        <time>2010-11-28T08:06:45Z</time>
      </trkpt>
      <trkpt lat="43.57334" lon="3.73241">
        <ele>74.1</ele>
        <time>2010-11-28T08:06:47Z</time>
      </trkpt>
      <trkpt lat="43.57338" lon="3.73234">
        <ele>74.5</ele>
        <time>2010-11-28T08:06:49Z</time>
      </trkpt>
      <trkpt lat="43.57342" lon="3.73227">
        <ele>74.9</ele>
        <time>2010-11-28T08:06:51Z</time>
      </trkpt>
      <trkpt lat="43.57346" lon="3.73219">
        <ele>75.1</ele>
        <time>2010-11-28T08:06:53Z</time>
      </trkpt>
      <trkpt lat="43.5735" lon="3.73212">
        <ele>75</ele>
        <time>2010-11-28T08:06:55Z</time>
      </trkpt>
      <trkpt lat="43.57354" lon="3.73205">
        <ele>75</ele>
        <time>2010-11-28T08:06:57Z</time>
      </trkpt>
      <trkpt lat="43.57358" lon="3.73199">
        <ele>74.9</ele>
        <time>2010-11-28T08:06:59Z</time>
      </trkpt>
      <trkpt lat="43.5736" lon="3.73196">
        <ele>75</ele>
        <time>2010-11-28T08:07:00Z</time>
      </trkpt>
      <trkpt lat="43.57368" lon="3.73179">
        <ele>75.6</ele>
        <time>2010-11-28T08:07:05Z</time>
      </trkpt>
      <trkpt lat="43.57374" lon="3.7317">
        <ele>75.3</ele>
        <time>2010-11-28T08:07:08Z</time>
      </trkpt>
      <trkpt lat="43.57379" lon="3.73161">
        <ele>75.7</ele>
        <time>2010-11-28T08:07:11Z</time>
      </trkpt>
      <trkpt lat="43.57379" lon="3.73149">
        <ele>75.7</ele>
        <time>2010-11-28T08:07:14Z</time>
      </trkpt>
      <trkpt lat="43.57377" lon="3.73141">
        <ele>75.8</ele>
        <time>2010-11-28T08:07:16Z</time>
      </trkpt>
      <trkpt lat="43.57375" lon="3.73133">
        <ele>76</ele>
        <time>2010-11-28T08:07:18Z</time>
      </trkpt>
      <trkpt lat="43.57373" lon="3.73126">
        <ele>76.9</ele>
        <time>2010-11-28T08:07:20Z</time>
      </trkpt>
      <trkpt lat="43.5737" lon="3.73118">
        <ele>77.2</ele>
        <time>2010-11-28T08:07:22Z</time>
      </trkpt>
      <trkpt lat="43.57366" lon="3.73107">
        <ele>76.9</ele>
        <time>2010-11-28T08:07:25Z</time>
      </trkpt>
      <trkpt lat="43.57361" lon="3.73097">
        <ele>76.2</ele>
        <time>2010-11-28T08:07:28Z</time>
      </trkpt>
      <trkpt lat="43.57358" lon="3.7309">
        <ele>76</ele>
        <time>2010-11-28T08:07:30Z</time>
      </trkpt>
      <trkpt lat="43.57355" lon="3.73083">
        <ele>76</ele>
        <time>2010-11-28T08:07:32Z</time>
      </trkpt>
      <trkpt lat="43.5735" lon="3.73072">
        <ele>76.4</ele>
        <time>2010-11-28T08:07:35Z</time>
      </trkpt>
      <trkpt lat="43.57346" lon="3.73061">
        <ele>76.9</ele>
        <time>2010-11-28T08:07:38Z</time>
      </trkpt>
      <trkpt lat="43.57345" lon="3.73053">
        <ele>77</ele>
        <time>2010-11-28T08:07:40Z</time>
      </trkpt>
      <trkpt lat="43.57344" lon="3.73045">
        <ele>77.1</ele>
        <time>2010-11-28T08:07:42Z</time>
      </trkpt>
      <trkpt lat="43.57345" lon="3.73032">
        <ele>77.6</ele>
        <time>2010-11-28T08:07:45Z</time>
      </trkpt>
      <trkpt lat="43.57347" lon="3.7302">
        <ele>78</ele>
        <time>2010-11-28T08:07:48Z</time>
      </trkpt>
      <trkpt lat="43.57348" lon="3.73012">
        <ele>77.9</ele>
        <time>2010-11-28T08:07:50Z</time>
      </trkpt>
      <trkpt lat="43.57349" lon="3.73004">
        <ele>78.4</ele>
        <time>2010-11-28T08:07:52Z</time>
      </trkpt>
      <trkpt lat="43.57349" lon="3.72995">
        <ele>78.5</ele>
        <time>2010-11-28T08:07:54Z</time>
      </trkpt>
      <trkpt lat="43.57351" lon="3.72987">
        <ele>78.5</ele>
        <time>2010-11-28T08:07:56Z</time>
      </trkpt>
      <trkpt lat="43.57353" lon="3.72975">
        <ele>78.5</ele>
        <time>2010-11-28T08:07:59Z</time>
      </trkpt>
      <trkpt lat="43.57356" lon="3.72963">
        <ele>79.6</ele>
        <time>2010-11-28T08:08:02Z</time>
      </trkpt>
      <trkpt lat="43.57357" lon="3.7296">
        <ele>79.8</ele>
        <time>2010-11-28T08:08:03Z</time>
      </trkpt>
      <trkpt lat="43.57362" lon="3.72945">
        <ele>80.2</ele>
        <time>2010-11-28T08:08:07Z</time>
      </trkpt>
      <trkpt lat="43.57366" lon="3.72934">
        <ele>80.1</ele>
        <time>2010-11-28T08:08:10Z</time>
      </trkpt>
      <trkpt lat="43.57371" lon="3.72923">
        <ele>80.2</ele>
        <time>2010-11-28T08:08:13Z</time>
      </trkpt>
      <trkpt lat="43.57374" lon="3.72916">
        <ele>80.3</ele>
        <time>2010-11-28T08:08:15Z</time>
      </trkpt>
      <trkpt lat="43.57377" lon="3.72909">
        <ele>80.5</ele>
        <time>2010-11-28T08:08:17Z</time>
      </trkpt>
      <trkpt lat="43.5738" lon="3.72902">
        <ele>80.6</ele>
        <time>2010-11-28T08:08:19Z</time>
      </trkpt>
      <trkpt lat="43.57385" lon="3.72891">
        <ele>81.2</ele>
        <time>2010-11-28T08:08:22Z</time>
      </trkpt>
      <trkpt lat="43.5739" lon="3.72881">
        <ele>81.3</ele>
        <time>2010-11-28T08:08:25Z</time>
      </trkpt>
      <trkpt lat="43.57394" lon="3.72874">
        <ele>81.4</ele>
        <time>2010-11-28T08:08:27Z</time>
      </trkpt>
      <trkpt lat="43.574" lon="3.72866">
        <ele>81.8</ele>
        <time>2010-11-28T08:08:30Z</time>
      </trkpt>
      <trkpt lat="43.57405" lon="3.72861">
        <ele>81.8</ele>
        <time>2010-11-28T08:08:32Z</time>
      </trkpt>
      <trkpt lat="43.5741" lon="3.72857">
        <ele>81.7</ele>
        <time>2010-11-28T08:08:34Z</time>
      </trkpt>
      <trkpt lat="43.57415" lon="3.72852">
        <ele>82.2</ele>
        <time>2010-11-28T08:08:36Z</time>
      </trkpt>
      <trkpt lat="43.5742" lon="3.72847">
        <ele>82.4</ele>
        <time>2010-11-28T08:08:38Z</time>
      </trkpt>
      <trkpt lat="43.57425" lon="3.72842">
        <ele>82.5</ele>
        <time>2010-11-28T08:08:40Z</time>
      </trkpt>
      <trkpt lat="43.57432" lon="3.72835">
        <ele>82.8</ele>
        <time>2010-11-28T08:08:43Z</time>
      </trkpt>
      <trkpt lat="43.57439" lon="3.72828">
        <ele>83.3</ele>
        <time>2010-11-28T08:08:46Z</time>
      </trkpt>
      <trkpt lat="43.57446" lon="3.7282">
        <ele>83.1</ele>
        <time>2010-11-28T08:08:49Z</time>
      </trkpt>
      <trkpt lat="43.57452" lon="3.72812">
        <ele>83</ele>
        <time>2010-11-28T08:08:52Z</time>
      </trkpt>
      <trkpt lat="43.57459" lon="3.72804">
        <ele>83.4</ele>
        <time>2010-11-28T08:08:55Z</time>
      </trkpt>
      <trkpt lat="43.57464" lon="3.72799">
        <ele>84</ele>
        <time>2010-11-28T08:08:57Z</time>
      </trkpt>
      <trkpt lat="43.57469" lon="3.72794">
        <ele>83.9</ele>
        <time>2010-11-28T08:08:59Z</time>
      </trkpt>
      <trkpt lat="43.57477" lon="3.7279">
        <ele>83.8</ele>
        <time>2010-11-28T08:09:02Z</time>
      </trkpt>
      <trkpt lat="43.57485" lon="3.72785">
        <ele>83.9</ele>
        <time>2010-11-28T08:09:05Z</time>
      </trkpt>
      <trkpt lat="43.57487" lon="3.72782">
        <ele>84</ele>
        <time>2010-11-28T08:09:06Z</time>
      </trkpt>
      <trkpt lat="43.57497" lon="3.72771">
        <ele>85.9</ele>
        <time>2010-11-28T08:09:11Z</time>
      </trkpt>
      <trkpt lat="43.57505" lon="3.72766">
        <ele>85.9</ele>
        <time>2010-11-28T08:09:14Z</time>
      </trkpt>
      <trkpt lat="43.57511" lon="3.72759">
        <ele>86.1</ele>
        <time>2010-11-28T08:09:17Z</time>
      </trkpt>
      <trkpt lat="43.57516" lon="3.72749">
        <ele>86.6</ele>
        <time>2010-11-28T08:09:20Z</time>
      </trkpt>
      <trkpt lat="43.5752" lon="3.72739">
        <ele>86.8</ele>
        <time>2010-11-28T08:09:23Z</time>
      </trkpt>
      <trkpt lat="43.57523" lon="3.72728">
        <ele>87.1</ele>
        <time>2010-11-28T08:09:26Z</time>
      </trkpt>
      <trkpt lat="43.57524" lon="3.72717">
        <ele>87.2</ele>
        <time>2010-11-28T08:09:29Z</time>
      </trkpt>
      <trkpt lat="43.57525" lon="3.72705">
        <ele>86.9</ele>
        <time>2010-11-28T08:09:32Z</time>
      </trkpt>
      <trkpt lat="43.57524" lon="3.72693">
        <ele>87.1</ele>
        <time>2010-11-28T08:09:35Z</time>
      </trkpt>
      <trkpt lat="43.57523" lon="3.72681">
        <ele>87.6</ele>
        <time>2010-11-28T08:09:38Z</time>
      </trkpt>
      <trkpt lat="43.57522" lon="3.72669">
        <ele>87.7</ele>
        <time>2010-11-28T08:09:41Z</time>
      </trkpt>
      <trkpt lat="43.5752" lon="3.72657">
        <ele>87.3</ele>
        <time>2010-11-28T08:09:44Z</time>
      </trkpt>
      <trkpt lat="43.57517" lon="3.72645">
        <ele>86.7</ele>
        <time>2010-11-28T08:09:47Z</time>
      </trkpt>
      <trkpt lat="43.57515" lon="3.72637">
        <ele>87.1</ele>
        <time>2010-11-28T08:09:49Z</time>
      </trkpt>
      <trkpt lat="43.57514" lon="3.72629">
        <ele>87.8</ele>
        <time>2010-11-28T08:09:51Z</time>
      </trkpt>
      <trkpt lat="43.57513" lon="3.72621">
        <ele>88</ele>
        <time>2010-11-28T08:09:53Z</time>
      </trkpt>
      <trkpt lat="43.5751" lon="3.72609">
        <ele>89</ele>
        <time>2010-11-28T08:09:56Z</time>
      </trkpt>
      <trkpt lat="43.57507" lon="3.72599">
        <ele>90.2</ele>
        <time>2010-11-28T08:09:59Z</time>
      </trkpt>
      <trkpt lat="43.57503" lon="3.72589">
        <ele>89.4</ele>
        <time>2010-11-28T08:10:02Z</time>
      </trkpt>
      <trkpt lat="43.57499" lon="3.7258">
        <ele>89.2</ele>
        <time>2010-11-28T08:10:05Z</time>
      </trkpt>
      <trkpt lat="43.57494" lon="3.72572">
        <ele>90.3</ele>
        <time>2010-11-28T08:10:08Z</time>
      </trkpt>
      <trkpt lat="43.57493" lon="3.72569">
        <ele>90.8</ele>
        <time>2010-11-28T08:10:09Z</time>
      </trkpt>
      <trkpt lat="43.57485" lon="3.72556">
        <ele>90.5</ele>
        <time>2010-11-28T08:10:14Z</time>
      </trkpt>
      <trkpt lat="43.57481" lon="3.72547">
        <ele>90.7</ele>
        <time>2010-11-28T08:10:17Z</time>
      </trkpt>
      <trkpt lat="43.57478" lon="3.72539">
        <ele>91.4</ele>
        <time>2010-11-28T08:10:20Z</time>
      </trkpt>
      <trkpt lat="43.57472" lon="3.72533">
        <ele>91.7</ele>
        <time>2010-11-28T08:10:23Z</time>
      </trkpt>
      <trkpt lat="43.57466" lon="3.72525">
        <ele>92.5</ele>
        <time>2010-11-28T08:10:27Z</time>
      </trkpt>
      <trkpt lat="43.57462" lon="3.72516">
        <ele>92.9</ele>
        <time>2010-11-28T08:10:30Z</time>
      </trkpt>
      <trkpt lat="43.57455" lon="3.7251">
        <ele>94.4</ele>
        <time>2010-11-28T08:10:34Z</time>
      </trkpt>
      <trkpt lat="43.57449" lon="3.72502">
        <ele>95.2</ele>
        <time>2010-11-28T08:10:38Z</time>
      </trkpt>
      <trkpt lat="43.57443" lon="3.72495">
        <ele>96.3</ele>
        <time>2010-11-28T08:10:42Z</time>
      </trkpt>
      <trkpt lat="43.57438" lon="3.72485">
        <ele>96.4</ele>
        <time>2010-11-28T08:10:46Z</time>
      </trkpt>
      <trkpt lat="43.57433" lon="3.72475">
        <ele>96.2</ele>
        <time>2010-11-28T08:10:50Z</time>
      </trkpt>
      <trkpt lat="43.57427" lon="3.72466">
        <ele>97.4</ele>
        <time>2010-11-28T08:10:54Z</time>
      </trkpt>
      <trkpt lat="43.57421" lon="3.72461">
        <ele>98.4</ele>
        <time>2010-11-28T08:10:57Z</time>
      </trkpt>
      <trkpt lat="43.57415" lon="3.72452">
        <ele>98.5</ele>
        <time>2010-11-28T08:11:01Z</time>
      </trkpt>
      <trkpt lat="43.5741" lon="3.72442">
        <ele>99.7</ele>
        <time>2010-11-28T08:11:05Z</time>
      </trkpt>
      <trkpt lat="43.57405" lon="3.72432">
        <ele>100.2</ele>
        <time>2010-11-28T08:11:09Z</time>
      </trkpt>
      <trkpt lat="43.57404" lon="3.7243">
        <ele>100.2</ele>
        <time>2010-11-28T08:11:10Z</time>
      </trkpt>
      <trkpt lat="43.57397" lon="3.72414">
        <ele>100.7</ele>
        <time>2010-11-28T08:11:17Z</time>
      </trkpt>
      <trkpt lat="43.57393" lon="3.72405">
        <ele>101.5</ele>
        <time>2010-11-28T08:11:21Z</time>
      </trkpt>
      <trkpt lat="43.5739" lon="3.72396">
        <ele>102.2</ele>
        <time>2010-11-28T08:11:25Z</time>
      </trkpt>
      <trkpt lat="43.57387" lon="3.72386">
        <ele>102.4</ele>
        <time>2010-11-28T08:11:29Z</time>
      </trkpt>
      <trkpt lat="43.57384" lon="3.72375">
        <ele>102.8</ele>
        <time>2010-11-28T08:11:33Z</time>
      </trkpt>
      <trkpt lat="43.5738" lon="3.72366">
        <ele>103</ele>
        <time>2010-11-28T08:11:36Z</time>
      </trkpt>
      <trkpt lat="43.57376" lon="3.72357">
        <ele>103.8</ele>
        <time>2010-11-28T08:11:39Z</time>
      </trkpt>
      <trkpt lat="43.57371" lon="3.7235">
        <ele>103.7</ele>
        <time>2010-11-28T08:11:42Z</time>
      </trkpt>
      <trkpt lat="43.57366" lon="3.72342">
        <ele>103.9</ele>
        <time>2010-11-28T08:11:45Z</time>
      </trkpt>
      <trkpt lat="43.57361" lon="3.72335">
        <ele>104</ele>
        <time>2010-11-28T08:11:48Z</time>
      </trkpt>
      <trkpt lat="43.57355" lon="3.72329">
        <ele>104.9</ele>
        <time>2010-11-28T08:11:51Z</time>
      </trkpt>
      <trkpt lat="43.57349" lon="3.72321">
        <ele>105.2</ele>
        <time>2010-11-28T08:11:55Z</time>
      </trkpt>
      <trkpt lat="43.57342" lon="3.72313">
        <ele>106.8</ele>
        <time>2010-11-28T08:11:59Z</time>
      </trkpt>
      <trkpt lat="43.57338" lon="3.72305">
        <ele>107.2</ele>
        <time>2010-11-28T08:12:02Z</time>
      </trkpt>
      <trkpt lat="43.57333" lon="3.72298">
        <ele>107</ele>
        <time>2010-11-28T08:12:05Z</time>
      </trkpt>
      <trkpt lat="43.57329" lon="3.72289">
        <ele>106.9</ele>
        <time>2010-11-28T08:12:08Z</time>
      </trkpt>
      <trkpt lat="43.57325" lon="3.7228">
        <ele>107.8</ele>
        <time>2010-11-28T08:12:11Z</time>
      </trkpt>
      <trkpt lat="43.57324" lon="3.72277">
        <ele>108</ele>
        <time>2010-11-28T08:12:12Z</time>
      </trkpt>
      <trkpt lat="43.57315" lon="3.72261">
        <ele>107.7</ele>
        <time>2010-11-28T08:12:17Z</time>
      </trkpt>
      <trkpt lat="43.57311" lon="3.7225">
        <ele>107.7</ele>
        <time>2010-11-28T08:12:20Z</time>
      </trkpt>
      <trkpt lat="43.57308" lon="3.72243">
        <ele>107.7</ele>
        <time>2010-11-28T08:12:22Z</time>
      </trkpt>
      <trkpt lat="43.57304" lon="3.72235">
        <ele>107.7</ele>
        <time>2010-11-28T08:12:24Z</time>
      </trkpt>
      <trkpt lat="43.57301" lon="3.72228">
        <ele>108.2</ele>
        <time>2010-11-28T08:12:26Z</time>
      </trkpt>
      <trkpt lat="43.57297" lon="3.72221">
        <ele>108.3</ele>
        <time>2010-11-28T08:12:28Z</time>
      </trkpt>
      <trkpt lat="43.57294" lon="3.72214">
        <ele>108.3</ele>
        <time>2010-11-28T08:12:30Z</time>
      </trkpt>
      <trkpt lat="43.57291" lon="3.72206">
        <ele>108.3</ele>
        <time>2010-11-28T08:12:32Z</time>
      </trkpt>
      <trkpt lat="43.57287" lon="3.722">
        <ele>108.3</ele>
        <time>2010-11-28T08:12:34Z</time>
      </trkpt>
      <trkpt lat="43.57282" lon="3.72194">
        <ele>108.6</ele>
        <time>2010-11-28T08:12:36Z</time>
      </trkpt>
      <trkpt lat="43.57276" lon="3.72189">
        <ele>109.1</ele>
        <time>2010-11-28T08:12:38Z</time>
      </trkpt>
      <trkpt lat="43.5727" lon="3.72187">
        <ele>109.6</ele>
        <time>2010-11-28T08:12:40Z</time>
      </trkpt>
      <trkpt lat="43.57263" lon="3.72181">
        <ele>110.9</ele>
        <time>2010-11-28T08:12:43Z</time>
      </trkpt>
      <trkpt lat="43.57258" lon="3.72172">
        <ele>111.5</ele>
        <time>2010-11-28T08:12:46Z</time>
      </trkpt>
      <trkpt lat="43.57254" lon="3.72162">
        <ele>111.6</ele>
        <time>2010-11-28T08:12:49Z</time>
      </trkpt>
      <trkpt lat="43.57251" lon="3.72155">
        <ele>112.4</ele>
        <time>2010-11-28T08:12:51Z</time>
      </trkpt>
      <trkpt lat="43.57247" lon="3.72149">
        <ele>112.8</ele>
        <time>2010-11-28T08:12:53Z</time>
      </trkpt>
      <trkpt lat="43.5724" lon="3.72141">
        <ele>112.7</ele>
        <time>2010-11-28T08:12:56Z</time>
      </trkpt>
      <trkpt lat="43.57234" lon="3.72134">
        <ele>113.8</ele>
        <time>2010-11-28T08:13:00Z</time>
      </trkpt>
      <trkpt lat="43.57228" lon="3.72125">
        <ele>113.9</ele>
        <time>2010-11-28T08:13:05Z</time>
      </trkpt>
      <trkpt lat="43.57226" lon="3.72115">
        <ele>114.5</ele>
        <time>2010-11-28T08:15:48Z</time>
      </trkpt>
      <trkpt lat="43.57225" lon="3.72112">
        <ele>114.9</ele>
        <time>2010-11-28T08:15:49Z</time>
      </trkpt>
      <trkpt lat="43.57222" lon="3.72095">
        <ele>115.4</ele>
        <time>2010-11-28T08:15:54Z</time>
      </trkpt>
      <trkpt lat="43.57218" lon="3.72084">
        <ele>115.3</ele>
        <time>2010-11-28T08:15:57Z</time>
      </trkpt>
      <trkpt lat="43.57216" lon="3.72076">
        <ele>114.9</ele>
        <time>2010-11-28T08:15:59Z</time>
      </trkpt>
      <trkpt lat="43.57214" lon="3.72068">
        <ele>114.5</ele>
        <time>2010-11-28T08:16:01Z</time>
      </trkpt>
      <trkpt lat="43.57212" lon="3.7206">
        <ele>115</ele>
        <time>2010-11-28T08:16:03Z</time>
      </trkpt>
      <trkpt lat="43.57209" lon="3.72052">
        <ele>115.1</ele>
        <time>2010-11-28T08:16:05Z</time>
      </trkpt>
      <trkpt lat="43.57205" lon="3.72043">
        <ele>115.2</ele>
        <time>2010-11-28T08:16:07Z</time>
      </trkpt>
      <trkpt lat="43.57202" lon="3.72034">
        <ele>114.9</ele>
        <time>2010-11-28T08:16:09Z</time>
      </trkpt>
      <trkpt lat="43.57201" lon="3.72024">
        <ele>114.7</ele>
        <time>2010-11-28T08:16:11Z</time>
      </trkpt>
      <trkpt lat="43.57201" lon="3.72016">
        <ele>114.3</ele>
        <time>2010-11-28T08:16:13Z</time>
      </trkpt>
      <trkpt lat="43.57204" lon="3.72006">
        <ele>113.9</ele>
        <time>2010-11-28T08:16:16Z</time>
      </trkpt>
      <trkpt lat="43.57212" lon="3.72004">
        <ele>114.1</ele>
        <time>2010-11-28T08:16:19Z</time>
      </trkpt>
      <trkpt lat="43.57221" lon="3.72001">
        <ele>113.7</ele>
        <time>2010-11-28T08:16:22Z</time>
      </trkpt>
      <trkpt lat="43.57227" lon="3.71999">
        <ele>113.9</ele>
        <time>2010-11-28T08:16:24Z</time>
      </trkpt>
      <trkpt lat="43.57234" lon="3.71998">
        <ele>114.4</ele>
        <time>2010-11-28T08:16:26Z</time>
      </trkpt>
      <trkpt lat="43.57242" lon="3.71996">
        <ele>114.7</ele>
        <time>2010-11-28T08:16:28Z</time>
      </trkpt>
      <trkpt lat="43.5725" lon="3.71994">
        <ele>115</ele>
        <time>2010-11-28T08:16:30Z</time>
      </trkpt>
      <trkpt lat="43.57257" lon="3.71991">
        <ele>115.3</ele>
        <time>2010-11-28T08:16:32Z</time>
      </trkpt>
      <trkpt lat="43.57265" lon="3.71988">
        <ele>115</ele>
        <time>2010-11-28T08:16:34Z</time>
      </trkpt>
      <trkpt lat="43.57273" lon="3.71986">
        <ele>114.5</ele>
        <time>2010-11-28T08:16:36Z</time>
      </trkpt>
      <trkpt lat="43.57281" lon="3.71982">
        <ele>114.2</ele>
        <time>2010-11-28T08:16:38Z</time>
      </trkpt>
      <trkpt lat="43.57289" lon="3.71978">
        <ele>114.4</ele>
        <time>2010-11-28T08:16:40Z</time>
      </trkpt>
      <trkpt lat="43.57297" lon="3.71974">
        <ele>114.8</ele>
        <time>2010-11-28T08:16:42Z</time>
      </trkpt>
      <trkpt lat="43.57304" lon="3.71969">
        <ele>115.2</ele>
        <time>2010-11-28T08:16:44Z</time>
      </trkpt>
      <trkpt lat="43.57311" lon="3.71963">
        <ele>115.4</ele>
        <time>2010-11-28T08:16:46Z</time>
      </trkpt>
      <trkpt lat="43.57318" lon="3.71958">
        <ele>115.6</ele>
        <time>2010-11-28T08:16:48Z</time>
      </trkpt>
      <trkpt lat="43.57325" lon="3.71952">
        <ele>115.8</ele>
        <time>2010-11-28T08:16:50Z</time>
      </trkpt>
      <trkpt lat="43.57329" lon="3.71949">
        <ele>115.9</ele>
        <time>2010-11-28T08:16:51Z</time>
      </trkpt>
      <trkpt lat="43.57339" lon="3.71941">
        <ele>116.1</ele>
        <time>2010-11-28T08:16:54Z</time>
      </trkpt>
      <trkpt lat="43.57346" lon="3.71936">
        <ele>116.3</ele>
        <time>2010-11-28T08:16:56Z</time>
      </trkpt>
      <trkpt lat="43.57353" lon="3.7193">
        <ele>116.6</ele>
        <time>2010-11-28T08:16:58Z</time>
      </trkpt>
      <trkpt lat="43.5736" lon="3.71925">
        <ele>116.8</ele>
        <time>2010-11-28T08:17:00Z</time>
      </trkpt>
      <trkpt lat="43.57367" lon="3.71921">
        <ele>116.8</ele>
        <time>2010-11-28T08:17:02Z</time>
      </trkpt>
      <trkpt lat="43.57375" lon="3.71917">
        <ele>116.7</ele>
        <time>2010-11-28T08:17:04Z</time>
      </trkpt>
      <trkpt lat="43.57383" lon="3.71914">
        <ele>117.1</ele>
        <time>2010-11-28T08:17:06Z</time>
      </trkpt>
      <trkpt lat="43.5739" lon="3.71912">
        <ele>117.6</ele>
        <time>2010-11-28T08:17:08Z</time>
      </trkpt>
      <trkpt lat="43.57397" lon="3.7191">
        <ele>117</ele>
        <time>2010-11-28T08:17:10Z</time>
      </trkpt>
      <trkpt lat="43.57404" lon="3.71906">
        <ele>116.5</ele>
        <time>2010-11-28T08:17:12Z</time>
      </trkpt>
      <trkpt lat="43.57409" lon="3.719">
        <ele>116.2</ele>
        <time>2010-11-28T08:17:14Z</time>
      </trkpt>
      <trkpt lat="43.57414" lon="3.71893">
        <ele>116.9</ele>
        <time>2010-11-28T08:17:16Z</time>
      </trkpt>
      <trkpt lat="43.57419" lon="3.71886">
        <ele>117.2</ele>
        <time>2010-11-28T08:17:18Z</time>
      </trkpt>
      <trkpt lat="43.57423" lon="3.71879">
        <ele>117.4</ele>
        <time>2010-11-28T08:17:20Z</time>
      </trkpt>
      <trkpt lat="43.57428" lon="3.71873">
        <ele>117.4</ele>
        <time>2010-11-28T08:17:22Z</time>
      </trkpt>
      <trkpt lat="43.57433" lon="3.71867">
        <ele>117.3</ele>
        <time>2010-11-28T08:17:24Z</time>
      </trkpt>
      <trkpt lat="43.57438" lon="3.71862">
        <ele>117.4</ele>
        <time>2010-11-28T08:17:26Z</time>
      </trkpt>
      <trkpt lat="43.57443" lon="3.71856">
        <ele>117.4</ele>
        <time>2010-11-28T08:17:28Z</time>
      </trkpt>
      <trkpt lat="43.57447" lon="3.71851">
        <ele>117.5</ele>
        <time>2010-11-28T08:17:30Z</time>
      </trkpt>
      <trkpt lat="43.57452" lon="3.71845">
        <ele>118.1</ele>
        <time>2010-11-28T08:17:32Z</time>
      </trkpt>
      <trkpt lat="43.57457" lon="3.71839">
        <ele>118.4</ele>
        <time>2010-11-28T08:17:34Z</time>
      </trkpt>
      <trkpt lat="43.57462" lon="3.71834">
        <ele>118.6</ele>
        <time>2010-11-28T08:17:36Z</time>
      </trkpt>
      <trkpt lat="43.57468" lon="3.71829">
        <ele>118.8</ele>
        <time>2010-11-28T08:17:38Z</time>
      </trkpt>
      <trkpt lat="43.57473" lon="3.71824">
        <ele>119</ele>
        <time>2010-11-28T08:17:40Z</time>
      </trkpt>
      <trkpt lat="43.5748" lon="3.71817">
        <ele>119.3</ele>
        <time>2010-11-28T08:17:43Z</time>
      </trkpt>
      <trkpt lat="43.57485" lon="3.71812">
        <ele>119.1</ele>
        <time>2010-11-28T08:17:45Z</time>
      </trkpt>
      <trkpt lat="43.5749" lon="3.71807">
        <ele>119.1</ele>
        <time>2010-11-28T08:17:47Z</time>
      </trkpt>
      <trkpt lat="43.57495" lon="3.71804">
        <ele>119.1</ele>
        <time>2010-11-28T08:17:49Z</time>
      </trkpt>
      <trkpt lat="43.57501" lon="3.71801">
        <ele>119.7</ele>
        <time>2010-11-28T08:17:51Z</time>
      </trkpt>
      <trkpt lat="43.57504" lon="3.718">
        <ele>119.9</ele>
        <time>2010-11-28T08:17:52Z</time>
      </trkpt>
      <trkpt lat="43.57513" lon="3.71798">
        <ele>119.6</ele>
        <time>2010-11-28T08:17:55Z</time>
      </trkpt>
      <trkpt lat="43.57521" lon="3.71795">
        <ele>120.1</ele>
        <time>2010-11-28T08:17:58Z</time>
      </trkpt>
      <trkpt lat="43.57529" lon="3.7179">
        <ele>120.8</ele>
        <time>2010-11-28T08:18:01Z</time>
      </trkpt>
      <trkpt lat="43.57536" lon="3.71784">
        <ele>121.3</ele>
        <time>2010-11-28T08:18:04Z</time>
      </trkpt>
      <trkpt lat="43.57544" lon="3.71778">
        <ele>121.8</ele>
        <time>2010-11-28T08:18:07Z</time>
      </trkpt>
      <trkpt lat="43.57551" lon="3.71773">
        <ele>121.8</ele>
        <time>2010-11-28T08:18:10Z</time>
      </trkpt>
      <trkpt lat="43.57558" lon="3.71768">
        <ele>121.5</ele>
        <time>2010-11-28T08:18:13Z</time>
      </trkpt>
      <trkpt lat="43.57566" lon="3.71763">
        <ele>121.8</ele>
        <time>2010-11-28T08:18:16Z</time>
      </trkpt>
      <trkpt lat="43.57573" lon="3.71758">
        <ele>122.4</ele>
        <time>2010-11-28T08:18:19Z</time>
      </trkpt>
      <trkpt lat="43.5758" lon="3.71755">
        <ele>123.3</ele>
        <time>2010-11-28T08:18:22Z</time>
      </trkpt>
      <trkpt lat="43.57587" lon="3.71751">
        <ele>123.8</ele>
        <time>2010-11-28T08:18:25Z</time>
      </trkpt>
      <trkpt lat="43.57594" lon="3.71747">
        <ele>124.3</ele>
        <time>2010-11-28T08:18:28Z</time>
      </trkpt>
      <trkpt lat="43.576" lon="3.71743">
        <ele>125.1</ele>
        <time>2010-11-28T08:18:31Z</time>
      </trkpt>
      <trkpt lat="43.57607" lon="3.71738">
        <ele>125.3</ele>
        <time>2010-11-28T08:18:34Z</time>
      </trkpt>
      <trkpt lat="43.57613" lon="3.71735">
        <ele>126.2</ele>
        <time>2010-11-28T08:18:37Z</time>
      </trkpt>
      <trkpt lat="43.5762" lon="3.71731">
        <ele>126.3</ele>
        <time>2010-11-28T08:18:40Z</time>
      </trkpt>
      <trkpt lat="43.57626" lon="3.71727">
        <ele>127</ele>
        <time>2010-11-28T08:18:43Z</time>
      </trkpt>
      <trkpt lat="43.57633" lon="3.71723">
        <ele>127.7</ele>
        <time>2010-11-28T08:18:46Z</time>
      </trkpt>
      <trkpt lat="43.57639" lon="3.71721">
        <ele>128.5</ele>
        <time>2010-11-28T08:18:49Z</time>
      </trkpt>
      <trkpt lat="43.57646" lon="3.71719">
        <ele>128.5</ele>
        <time>2010-11-28T08:18:52Z</time>
      </trkpt>
      <trkpt lat="43.57648" lon="3.71718">
        <ele>128.4</ele>
        <time>2010-11-28T08:18:53Z</time>
      </trkpt>
      <trkpt lat="43.5766" lon="3.71708">
        <ele>129.4</ele>
        <time>2010-11-28T08:18:59Z</time>
      </trkpt>
      <trkpt lat="43.57666" lon="3.71703">
        <ele>130.3</ele>
        <time>2010-11-28T08:19:02Z</time>
      </trkpt>
      <trkpt lat="43.57672" lon="3.71698">
        <ele>130.3</ele>
        <time>2010-11-28T08:19:05Z</time>
      </trkpt>
      <trkpt lat="43.57679" lon="3.71693">
        <ele>131</ele>
        <time>2010-11-28T08:19:08Z</time>
      </trkpt>
      <trkpt lat="43.57686" lon="3.71689">
        <ele>131.2</ele>
        <time>2010-11-28T08:19:11Z</time>
      </trkpt>
      <trkpt lat="43.57693" lon="3.71685">
        <ele>132.1</ele>
        <time>2010-11-28T08:19:14Z</time>
      </trkpt>
      <trkpt lat="43.577" lon="3.71681">
        <ele>132.9</ele>
        <time>2010-11-28T08:19:17Z</time>
      </trkpt>
      <trkpt lat="43.57708" lon="3.71678">
        <ele>133.7</ele>
        <time>2010-11-28T08:19:20Z</time>
      </trkpt>
      <trkpt lat="43.57715" lon="3.71677">
        <ele>133.5</ele>
        <time>2010-11-28T08:19:23Z</time>
      </trkpt>
      <trkpt lat="43.57722" lon="3.71676">
        <ele>133.3</ele>
        <time>2010-11-28T08:19:26Z</time>
      </trkpt>
      <trkpt lat="43.5773" lon="3.71675">
        <ele>132.9</ele>
        <time>2010-11-28T08:19:29Z</time>
      </trkpt>
      <trkpt lat="43.57738" lon="3.71673">
        <ele>132.7</ele>
        <time>2010-11-28T08:19:32Z</time>
      </trkpt>
      <trkpt lat="43.57747" lon="3.71672">
        <ele>133.3</ele>
        <time>2010-11-28T08:19:35Z</time>
      </trkpt>
      <trkpt lat="43.57756" lon="3.71672">
        <ele>133.2</ele>
        <time>2010-11-28T08:19:38Z</time>
      </trkpt>
      <trkpt lat="43.57764" lon="3.71673">
        <ele>133</ele>
        <time>2010-11-28T08:19:41Z</time>
      </trkpt>
      <trkpt lat="43.57773" lon="3.71673">
        <ele>133.7</ele>
        <time>2010-11-28T08:19:44Z</time>
      </trkpt>
      <trkpt lat="43.57781" lon="3.71671">
        <ele>134.2</ele>
        <time>2010-11-28T08:19:47Z</time>
      </trkpt>
      <trkpt lat="43.5779" lon="3.71669">
        <ele>133.8</ele>
        <time>2010-11-28T08:19:50Z</time>
      </trkpt>
      <trkpt lat="43.57797" lon="3.71665">
        <ele>134.2</ele>
        <time>2010-11-28T08:19:53Z</time>
      </trkpt>
      <trkpt lat="43.578" lon="3.71664">
        <ele>133.9</ele>
        <time>2010-11-28T08:19:54Z</time>
      </trkpt>
      <trkpt lat="43.57812" lon="3.7166">
        <ele>134.5</ele>
        <time>2010-11-28T08:19:59Z</time>
      </trkpt>
      <trkpt lat="43.5782" lon="3.71659">
        <ele>134.7</ele>
        <time>2010-11-28T08:20:02Z</time>
      </trkpt>
      <trkpt lat="43.57829" lon="3.71655">
        <ele>135.7</ele>
        <time>2010-11-28T08:20:05Z</time>
      </trkpt>
      <trkpt lat="43.57836" lon="3.71649">
        <ele>134.8</ele>
        <time>2010-11-28T08:20:08Z</time>
      </trkpt>
      <trkpt lat="43.57844" lon="3.71644">
        <ele>135</ele>
        <time>2010-11-28T08:20:11Z</time>
      </trkpt>
      <trkpt lat="43.57852" lon="3.7164">
        <ele>135.1</ele>
        <time>2010-11-28T08:20:14Z</time>
      </trkpt>
      <trkpt lat="43.5786" lon="3.71634">
        <ele>136.4</ele>
        <time>2010-11-28T08:20:17Z</time>
      </trkpt>
      <trkpt lat="43.57867" lon="3.71628">
        <ele>136.3</ele>
        <time>2010-11-28T08:20:20Z</time>
      </trkpt>
      <trkpt lat="43.57874" lon="3.71621">
        <ele>136.8</ele>
        <time>2010-11-28T08:20:23Z</time>
      </trkpt>
      <trkpt lat="43.5788" lon="3.71614">
        <ele>137</ele>
        <time>2010-11-28T08:20:26Z</time>
      </trkpt>
      <trkpt lat="43.57886" lon="3.71607">
        <ele>136.9</ele>
        <time>2010-11-28T08:20:29Z</time>
      </trkpt>
      <trkpt lat="43.57894" lon="3.71601">
        <ele>137</ele>
        <time>2010-11-28T08:20:32Z</time>
      </trkpt>
      <trkpt lat="43.57901" lon="3.71596">
        <ele>136.7</ele>
        <time>2010-11-28T08:20:35Z</time>
      </trkpt>
      <trkpt lat="43.5791" lon="3.71591">
        <ele>136.8</ele>
        <time>2010-11-28T08:20:38Z</time>
      </trkpt>
      <trkpt lat="43.57915" lon="3.71586">
        <ele>136.9</ele>
        <time>2010-11-28T08:20:40Z</time>
      </trkpt>
      <trkpt lat="43.57919" lon="3.7158">
        <ele>137.3</ele>
        <time>2010-11-28T08:20:42Z</time>
      </trkpt>
      <trkpt lat="43.57924" lon="3.71574">
        <ele>137.5</ele>
        <time>2010-11-28T08:20:44Z</time>
      </trkpt>
      <trkpt lat="43.57929" lon="3.71568">
        <ele>137.8</ele>
        <time>2010-11-28T08:20:46Z</time>
      </trkpt>
      <trkpt lat="43.57934" lon="3.71563">
        <ele>137.9</ele>
        <time>2010-11-28T08:20:48Z</time>
      </trkpt>
      <trkpt lat="43.57939" lon="3.71558">
        <ele>137.8</ele>
        <time>2010-11-28T08:20:50Z</time>
      </trkpt>
      <trkpt lat="43.57945" lon="3.71552">
        <ele>137.7</ele>
        <time>2010-11-28T08:20:52Z</time>
      </trkpt>
      <trkpt lat="43.57951" lon="3.71547">
        <ele>137.5</ele>
        <time>2010-11-28T08:20:54Z</time>
      </trkpt>
      <trkpt lat="43.57954" lon="3.71544">
        <ele>137.4</ele>
        <time>2010-11-28T08:20:55Z</time>
      </trkpt>
      <trkpt lat="43.57962" lon="3.71536">
        <ele>136.8</ele>
        <time>2010-11-28T08:20:58Z</time>
      </trkpt>
      <trkpt lat="43.57968" lon="3.7153">
        <ele>136.8</ele>
        <time>2010-11-28T08:21:00Z</time>
      </trkpt>
      <trkpt lat="43.57974" lon="3.71524">
        <ele>137</ele>
        <time>2010-11-28T08:21:02Z</time>
      </trkpt>
      <trkpt lat="43.5798" lon="3.71519">
        <ele>136.9</ele>
        <time>2010-11-28T08:21:04Z</time>
      </trkpt>
      <trkpt lat="43.57986" lon="3.71514">
        <ele>136.8</ele>
        <time>2010-11-28T08:21:06Z</time>
      </trkpt>
      <trkpt lat="43.57993" lon="3.71509">
        <ele>136.1</ele>
        <time>2010-11-28T08:21:08Z</time>
      </trkpt>
      <trkpt lat="43.57999" lon="3.71504">
        <ele>135.8</ele>
        <time>2010-11-28T08:21:10Z</time>
      </trkpt>
      <trkpt lat="43.58005" lon="3.71498">
        <ele>135.5</ele>
        <time>2010-11-28T08:21:12Z</time>
      </trkpt>
      <trkpt lat="43.5801" lon="3.71491">
        <ele>135.4</ele>
        <time>2010-11-28T08:21:14Z</time>
      </trkpt>
      <trkpt lat="43.58015" lon="3.71486">
        <ele>135.6</ele>
        <time>2010-11-28T08:21:16Z</time>
      </trkpt>
      <trkpt lat="43.5802" lon="3.71481">
        <ele>135.9</ele>
        <time>2010-11-28T08:21:18Z</time>
      </trkpt>
      <trkpt lat="43.58026" lon="3.71477">
        <ele>135.6</ele>
        <time>2010-11-28T08:21:20Z</time>
      </trkpt>
      <trkpt lat="43.58032" lon="3.71472">
        <ele>135.1</ele>
        <time>2010-11-28T08:21:22Z</time>
      </trkpt>
      <trkpt lat="43.58037" lon="3.71467">
        <ele>135.5</ele>
        <time>2010-11-28T08:21:24Z</time>
      </trkpt>
      <trkpt lat="43.58043" lon="3.71463">
        <ele>135.5</ele>
        <time>2010-11-28T08:21:26Z</time>
      </trkpt>
      <trkpt lat="43.58048" lon="3.71458">
        <ele>135.3</ele>
        <time>2010-11-28T08:21:28Z</time>
      </trkpt>
      <trkpt lat="43.58054" lon="3.71453">
        <ele>134.8</ele>
        <time>2010-11-28T08:21:30Z</time>
      </trkpt>
      <trkpt lat="43.58059" lon="3.71449">
        <ele>135.1</ele>
        <time>2010-11-28T08:21:32Z</time>
      </trkpt>
      <trkpt lat="43.58064" lon="3.71444">
        <ele>135.7</ele>
        <time>2010-11-28T08:21:34Z</time>
      </trkpt>
      <trkpt lat="43.5807" lon="3.71439">
        <ele>135.2</ele>
        <time>2010-11-28T08:21:36Z</time>
      </trkpt>
      <trkpt lat="43.58076" lon="3.71435">
        <ele>134.9</ele>
        <time>2010-11-28T08:21:38Z</time>
      </trkpt>
      <trkpt lat="43.58083" lon="3.71433">
        <ele>133.9</ele>
        <time>2010-11-28T08:21:40Z</time>
      </trkpt>
      <trkpt lat="43.58089" lon="3.71431">
        <ele>134.4</ele>
        <time>2010-11-28T08:21:42Z</time>
      </trkpt>
      <trkpt lat="43.58096" lon="3.7143">
        <ele>135.4</ele>
        <time>2010-11-28T08:21:44Z</time>
      </trkpt>
      <trkpt lat="43.58102" lon="3.71428">
        <ele>133.9</ele>
        <time>2010-11-28T08:21:46Z</time>
      </trkpt>
      <trkpt lat="43.58108" lon="3.71424">
        <ele>133.7</ele>
        <time>2010-11-28T08:21:48Z</time>
      </trkpt>
      <trkpt lat="43.58114" lon="3.7142">
        <ele>134</ele>
        <time>2010-11-28T08:21:50Z</time>
      </trkpt>
      <trkpt lat="43.5812" lon="3.71415">
        <ele>134</ele>
        <time>2010-11-28T08:21:52Z</time>
      </trkpt>
      <trkpt lat="43.58127" lon="3.71411">
        <ele>134.1</ele>
        <time>2010-11-28T08:21:54Z</time>
      </trkpt>
      <trkpt lat="43.58134" lon="3.71408">
        <ele>134.4</ele>
        <time>2010-11-28T08:21:56Z</time>
      </trkpt>
      <trkpt lat="43.58137" lon="3.71405">
        <ele>134.4</ele>
        <time>2010-11-28T08:21:57Z</time>
      </trkpt>
      <trkpt lat="43.58147" lon="3.71397">
        <ele>132.8</ele>
        <time>2010-11-28T08:22:00Z</time>
      </trkpt>
      <trkpt lat="43.58154" lon="3.71393">
        <ele>133.4</ele>
        <time>2010-11-28T08:22:02Z</time>
      </trkpt>
      <trkpt lat="43.58162" lon="3.7139">
        <ele>133.6</ele>
        <time>2010-11-28T08:22:04Z</time>
      </trkpt>
      <trkpt lat="43.58169" lon="3.71389">
        <ele>133.5</ele>
        <time>2010-11-28T08:22:06Z</time>
      </trkpt>
      <trkpt lat="43.58176" lon="3.71387">
        <ele>132.5</ele>
        <time>2010-11-28T08:22:08Z</time>
      </trkpt>
      <trkpt lat="43.58183" lon="3.71384">
        <ele>132.2</ele>
        <time>2010-11-28T08:22:10Z</time>
      </trkpt>
      <trkpt lat="43.58189" lon="3.71379">
        <ele>132.4</ele>
        <time>2010-11-28T08:22:12Z</time>
      </trkpt>
      <trkpt lat="43.58195" lon="3.71373">
        <ele>131.8</ele>
        <time>2010-11-28T08:22:14Z</time>
      </trkpt>
      <trkpt lat="43.58201" lon="3.71367">
        <ele>130.9</ele>
        <time>2010-11-28T08:22:16Z</time>
      </trkpt>
      <trkpt lat="43.58207" lon="3.71361">
        <ele>131.4</ele>
        <time>2010-11-28T08:22:18Z</time>
      </trkpt>
      <trkpt lat="43.58214" lon="3.71357">
        <ele>131.5</ele>
        <time>2010-11-28T08:22:20Z</time>
      </trkpt>
      <trkpt lat="43.58221" lon="3.71354">
        <ele>131.4</ele>
        <time>2010-11-28T08:22:22Z</time>
      </trkpt>
      <trkpt lat="43.58228" lon="3.71352">
        <ele>130.5</ele>
        <time>2010-11-28T08:22:24Z</time>
      </trkpt>
      <trkpt lat="43.58236" lon="3.71352">
        <ele>130.3</ele>
        <time>2010-11-28T08:22:26Z</time>
      </trkpt>
      <trkpt lat="43.58243" lon="3.71352">
        <ele>130.4</ele>
        <time>2010-11-28T08:22:28Z</time>
      </trkpt>
      <trkpt lat="43.5825" lon="3.7135">
        <ele>129.7</ele>
        <time>2010-11-28T08:22:30Z</time>
      </trkpt>
      <trkpt lat="43.58256" lon="3.71344">
        <ele>129.3</ele>
        <time>2010-11-28T08:22:32Z</time>
      </trkpt>
      <trkpt lat="43.58261" lon="3.71337">
        <ele>128.7</ele>
        <time>2010-11-28T08:22:34Z</time>
      </trkpt>
      <trkpt lat="43.58267" lon="3.71332">
        <ele>128.3</ele>
        <time>2010-11-28T08:22:36Z</time>
      </trkpt>
      <trkpt lat="43.58274" lon="3.71328">
        <ele>128</ele>
        <time>2010-11-28T08:22:38Z</time>
      </trkpt>
      <trkpt lat="43.58281" lon="3.71322">
        <ele>127.4</ele>
        <time>2010-11-28T08:22:40Z</time>
      </trkpt>
      <trkpt lat="43.58287" lon="3.71315">
        <ele>127.5</ele>
        <time>2010-11-28T08:22:42Z</time>
      </trkpt>
      <trkpt lat="43.58292" lon="3.71308">
        <ele>127.7</ele>
        <time>2010-11-28T08:22:44Z</time>
      </trkpt>
      <trkpt lat="43.58299" lon="3.71301">
        <ele>128.1</ele>
        <time>2010-11-28T08:22:46Z</time>
      </trkpt>
      <trkpt lat="43.58305" lon="3.71298">
        <ele>127.6</ele>
        <time>2010-11-28T08:22:48Z</time>
      </trkpt>
      <trkpt lat="43.58313" lon="3.71295">
        <ele>126.9</ele>
        <time>2010-11-28T08:22:50Z</time>
      </trkpt>
      <trkpt lat="43.58321" lon="3.71294">
        <ele>126.4</ele>
        <time>2010-11-28T08:22:52Z</time>
      </trkpt>
      <trkpt lat="43.58329" lon="3.71294">
        <ele>126</ele>
        <time>2010-11-28T08:22:54Z</time>
      </trkpt>
      <trkpt lat="43.58337" lon="3.71294">
        <ele>125.9</ele>
        <time>2010-11-28T08:22:56Z</time>
      </trkpt>
      <trkpt lat="43.58345" lon="3.71294">
        <ele>125.6</ele>
        <time>2010-11-28T08:22:58Z</time>
      </trkpt>
      <trkpt lat="43.58349" lon="3.71294">
        <ele>125.5</ele>
        <time>2010-11-28T08:22:59Z</time>
      </trkpt>
      <trkpt lat="43.58361" lon="3.71293">
        <ele>125</ele>
        <time>2010-11-28T08:23:02Z</time>
      </trkpt>
      <trkpt lat="43.58368" lon="3.71292">
        <ele>125.1</ele>
        <time>2010-11-28T08:23:04Z</time>
      </trkpt>
      <trkpt lat="43.58376" lon="3.71291">
        <ele>125.5</ele>
        <time>2010-11-28T08:23:06Z</time>
      </trkpt>
      <trkpt lat="43.58383" lon="3.7129">
        <ele>126</ele>
        <time>2010-11-28T08:23:08Z</time>
      </trkpt>
      <trkpt lat="43.5839" lon="3.71289">
        <ele>126.3</ele>
        <time>2010-11-28T08:23:10Z</time>
      </trkpt>
      <trkpt lat="43.58397" lon="3.71289">
        <ele>125.1</ele>
        <time>2010-11-28T08:23:12Z</time>
      </trkpt>
      <trkpt lat="43.58404" lon="3.71288">
        <ele>125</ele>
        <time>2010-11-28T08:23:14Z</time>
      </trkpt>
      <trkpt lat="43.58411" lon="3.71287">
        <ele>125.2</ele>
        <time>2010-11-28T08:23:16Z</time>
      </trkpt>
      <trkpt lat="43.58417" lon="3.71287">
        <ele>124.9</ele>
        <time>2010-11-28T08:23:18Z</time>
      </trkpt>
      <trkpt lat="43.58424" lon="3.71285">
        <ele>125</ele>
        <time>2010-11-28T08:23:20Z</time>
      </trkpt>
      <trkpt lat="43.58431" lon="3.71285">
        <ele>125.3</ele>
        <time>2010-11-28T08:23:22Z</time>
      </trkpt>
      <trkpt lat="43.58439" lon="3.71285">
        <ele>126.3</ele>
        <time>2010-11-28T08:23:24Z</time>
      </trkpt>
      <trkpt lat="43.58445" lon="3.71285">
        <ele>126.8</ele>
        <time>2010-11-28T08:23:26Z</time>
      </trkpt>
      <trkpt lat="43.58451" lon="3.71284">
        <ele>126.6</ele>
        <time>2010-11-28T08:23:28Z</time>
      </trkpt>
      <trkpt lat="43.58457" lon="3.71281">
        <ele>126.6</ele>
        <time>2010-11-28T08:23:30Z</time>
      </trkpt>
      <trkpt lat="43.58465" lon="3.71278">
        <ele>126.9</ele>
        <time>2010-11-28T08:23:33Z</time>
      </trkpt>
      <trkpt lat="43.58473" lon="3.71276">
        <ele>127.3</ele>
        <time>2010-11-28T08:23:36Z</time>
      </trkpt>
      <trkpt lat="43.58481" lon="3.71272">
        <ele>128.1</ele>
        <time>2010-11-28T08:23:39Z</time>
      </trkpt>
      <trkpt lat="43.58487" lon="3.71268">
        <ele>129.4</ele>
        <time>2010-11-28T08:23:42Z</time>
      </trkpt>
      <trkpt lat="43.58493" lon="3.71262">
        <ele>130.1</ele>
        <time>2010-11-28T08:23:45Z</time>
      </trkpt>
      <trkpt lat="43.58499" lon="3.71256">
        <ele>129.4</ele>
        <time>2010-11-28T08:23:48Z</time>
      </trkpt>
      <trkpt lat="43.58506" lon="3.71252">
        <ele>129.1</ele>
        <time>2010-11-28T08:23:51Z</time>
      </trkpt>
      <trkpt lat="43.58514" lon="3.71248">
        <ele>128.6</ele>
        <time>2010-11-28T08:23:54Z</time>
      </trkpt>
      <trkpt lat="43.58521" lon="3.71246">
        <ele>128.3</ele>
        <time>2010-11-28T08:23:57Z</time>
      </trkpt>
      <trkpt lat="43.58529" lon="3.71243">
        <ele>129.4</ele>
        <time>2010-11-28T08:24:00Z</time>
      </trkpt>
      <trkpt lat="43.58532" lon="3.71242">
        <ele>130</ele>
        <time>2010-11-28T08:24:01Z</time>
      </trkpt>
      <trkpt lat="43.58545" lon="3.71237">
        <ele>130.6</ele>
        <time>2010-11-28T08:24:06Z</time>
      </trkpt>
      <trkpt lat="43.58552" lon="3.71234">
        <ele>129.6</ele>
        <time>2010-11-28T08:24:09Z</time>
      </trkpt>
      <trkpt lat="43.5856" lon="3.71232">
        <ele>130.2</ele>
        <time>2010-11-28T08:24:12Z</time>
      </trkpt>
      <trkpt lat="43.58568" lon="3.7123">
        <ele>130.7</ele>
        <time>2010-11-28T08:24:15Z</time>
      </trkpt>
      <trkpt lat="43.58577" lon="3.71228">
        <ele>130.8</ele>
        <time>2010-11-28T08:24:18Z</time>
      </trkpt>
      <trkpt lat="43.58585" lon="3.71228">
        <ele>131.2</ele>
        <time>2010-11-28T08:24:21Z</time>
      </trkpt>
      <trkpt lat="43.58592" lon="3.71226">
        <ele>131.8</ele>
        <time>2010-11-28T08:24:24Z</time>
      </trkpt>
      <trkpt lat="43.58598" lon="3.7122">
        <ele>132.7</ele>
        <time>2010-11-28T08:24:27Z</time>
      </trkpt>
      <trkpt lat="43.586" lon="3.71208">
        <ele>133.2</ele>
        <time>2010-11-28T08:24:30Z</time>
      </trkpt>
      <trkpt lat="43.58601" lon="3.71199">
        <ele>132.7</ele>
        <time>2010-11-28T08:24:32Z</time>
      </trkpt>
      <trkpt lat="43.58601" lon="3.71191">
        <ele>132.9</ele>
        <time>2010-11-28T08:24:34Z</time>
      </trkpt>
      <trkpt lat="43.58601" lon="3.71182">
        <ele>132.8</ele>
        <time>2010-11-28T08:24:36Z</time>
      </trkpt>
      <trkpt lat="43.58601" lon="3.71173">
        <ele>132.5</ele>
        <time>2010-11-28T08:24:38Z</time>
      </trkpt>
      <trkpt lat="43.586" lon="3.71163">
        <ele>132.5</ele>
        <time>2010-11-28T08:24:40Z</time>
      </trkpt>
      <trkpt lat="43.586" lon="3.71153">
        <ele>132.5</ele>
        <time>2010-11-28T08:24:42Z</time>
      </trkpt>
      <trkpt lat="43.58599" lon="3.71142">
        <ele>132.2</ele>
        <time>2010-11-28T08:24:44Z</time>
      </trkpt>
      <trkpt lat="43.58599" lon="3.7113">
        <ele>131.8</ele>
        <time>2010-11-28T08:24:46Z</time>
      </trkpt>
      <trkpt lat="43.58598" lon="3.71118">
        <ele>131.3</ele>
        <time>2010-11-28T08:24:48Z</time>
      </trkpt>
      <trkpt lat="43.58599" lon="3.71107">
        <ele>132</ele>
        <time>2010-11-28T08:24:50Z</time>
      </trkpt>
      <trkpt lat="43.58599" lon="3.71095">
        <ele>132.2</ele>
        <time>2010-11-28T08:24:52Z</time>
      </trkpt>
      <trkpt lat="43.58599" lon="3.71084">
        <ele>132.3</ele>
        <time>2010-11-28T08:24:54Z</time>
      </trkpt>
      <trkpt lat="43.586" lon="3.71073">
        <ele>132.4</ele>
        <time>2010-11-28T08:24:56Z</time>
      </trkpt>
      <trkpt lat="43.586" lon="3.71063">
        <ele>132.5</ele>
        <time>2010-11-28T08:24:58Z</time>
      </trkpt>
      <trkpt lat="43.58601" lon="3.71052">
        <ele>132.6</ele>
        <time>2010-11-28T08:25:00Z</time>
      </trkpt>
      <trkpt lat="43.58602" lon="3.71042">
        <ele>132.7</ele>
        <time>2010-11-28T08:25:02Z</time>
      </trkpt>
      <trkpt lat="43.58603" lon="3.71037">
        <ele>132.7</ele>
        <time>2010-11-28T08:25:03Z</time>
      </trkpt>
      <trkpt lat="43.58604" lon="3.71023">
        <ele>132.2</ele>
        <time>2010-11-28T08:25:06Z</time>
      </trkpt>
      <trkpt lat="43.58604" lon="3.71014">
        <ele>131.9</ele>
        <time>2010-11-28T08:25:08Z</time>
      </trkpt>
      <trkpt lat="43.58603" lon="3.71005">
        <ele>131.6</ele>
        <time>2010-11-28T08:25:10Z</time>
      </trkpt>
      <trkpt lat="43.58602" lon="3.70996">
        <ele>132.1</ele>
        <time>2010-11-28T08:25:12Z</time>
      </trkpt>
      <trkpt lat="43.58601" lon="3.70987">
        <ele>132.9</ele>
        <time>2010-11-28T08:25:14Z</time>
      </trkpt>
      <trkpt lat="43.58601" lon="3.70978">
        <ele>133</ele>
        <time>2010-11-28T08:25:16Z</time>
      </trkpt>
      <trkpt lat="43.586" lon="3.7097">
        <ele>133.5</ele>
        <time>2010-11-28T08:25:18Z</time>
      </trkpt>
      <trkpt lat="43.586" lon="3.70961">
        <ele>134</ele>
        <time>2010-11-28T08:25:20Z</time>
      </trkpt>
      <trkpt lat="43.586" lon="3.70952">
        <ele>135</ele>
        <time>2010-11-28T08:25:22Z</time>
      </trkpt>
      <trkpt lat="43.586" lon="3.70944">
        <ele>135.5</ele>
        <time>2010-11-28T08:25:24Z</time>
      </trkpt>
      <trkpt lat="43.586" lon="3.70935">
        <ele>135.6</ele>
        <time>2010-11-28T08:25:26Z</time>
      </trkpt>
      <trkpt lat="43.58601" lon="3.70926">
        <ele>135.9</ele>
        <time>2010-11-28T08:25:28Z</time>
      </trkpt>
      <trkpt lat="43.58601" lon="3.70918">
        <ele>136.2</ele>
        <time>2010-11-28T08:25:30Z</time>
      </trkpt>
      <trkpt lat="43.58601" lon="3.70909">
        <ele>136.3</ele>
        <time>2010-11-28T08:25:32Z</time>
      </trkpt>
      <trkpt lat="43.58602" lon="3.70901">
        <ele>136.2</ele>
        <time>2010-11-28T08:25:34Z</time>
      </trkpt>
      <trkpt lat="43.58602" lon="3.70893">
        <ele>135.9</ele>
        <time>2010-11-28T08:25:36Z</time>
      </trkpt>
      <trkpt lat="43.58602" lon="3.70884">
        <ele>137.2</ele>
        <time>2010-11-28T08:25:38Z</time>
      </trkpt>
      <trkpt lat="43.58602" lon="3.70875">
        <ele>137.7</ele>
        <time>2010-11-28T08:25:40Z</time>
      </trkpt>
      <trkpt lat="43.58602" lon="3.70867">
        <ele>137.7</ele>
        <time>2010-11-28T08:25:42Z</time>
      </trkpt>
      <trkpt lat="43.58601" lon="3.70858">
        <ele>138.1</ele>
        <time>2010-11-28T08:25:44Z</time>
      </trkpt>
      <trkpt lat="43.58601" lon="3.7085">
        <ele>138.3</ele>
        <time>2010-11-28T08:25:46Z</time>
      </trkpt>
      <trkpt lat="43.58601" lon="3.70841">
        <ele>140.3</ele>
        <time>2010-11-28T08:25:48Z</time>
      </trkpt>
      <trkpt lat="43.58601" lon="3.70833">
        <ele>141</ele>
        <time>2010-11-28T08:25:50Z</time>
      </trkpt>
      <trkpt lat="43.58601" lon="3.7082">
        <ele>141.4</ele>
        <time>2010-11-28T08:25:53Z</time>
      </trkpt>
      <trkpt lat="43.58602" lon="3.70808">
        <ele>141.8</ele>
        <time>2010-11-28T08:25:56Z</time>
      </trkpt>
      <trkpt lat="43.58603" lon="3.70796">
        <ele>142.2</ele>
        <time>2010-11-28T08:25:59Z</time>
      </trkpt>
      <trkpt lat="43.58604" lon="3.70787">
        <ele>142.5</ele>
        <time>2010-11-28T08:26:01Z</time>
      </trkpt>
      <trkpt lat="43.58605" lon="3.70779">
        <ele>142.5</ele>
        <time>2010-11-28T08:26:03Z</time>
      </trkpt>
      <trkpt lat="43.58605" lon="3.70775">
        <ele>142.4</ele>
        <time>2010-11-28T08:26:04Z</time>
      </trkpt>
      <trkpt lat="43.58607" lon="3.70758">
        <ele>142.9</ele>
        <time>2010-11-28T08:26:08Z</time>
      </trkpt>
      <trkpt lat="43.58607" lon="3.70749">
        <ele>142.9</ele>
        <time>2010-11-28T08:26:10Z</time>
      </trkpt>
      <trkpt lat="43.58608" lon="3.7074">
        <ele>143.1</ele>
        <time>2010-11-28T08:26:12Z</time>
      </trkpt>
      <trkpt lat="43.58609" lon="3.7073">
        <ele>143.4</ele>
        <time>2010-11-28T08:26:14Z</time>
      </trkpt>
      <trkpt lat="43.58609" lon="3.7072">
        <ele>143.6</ele>
        <time>2010-11-28T08:26:16Z</time>
      </trkpt>
      <trkpt lat="43.5861" lon="3.70711">
        <ele>143.6</ele>
        <time>2010-11-28T08:26:18Z</time>
      </trkpt>
      <trkpt lat="43.58611" lon="3.70701">
        <ele>143.4</ele>
        <time>2010-11-28T08:26:20Z</time>
      </trkpt>
      <trkpt lat="43.58612" lon="3.70691">
        <ele>143.6</ele>
        <time>2010-11-28T08:26:22Z</time>
      </trkpt>
      <trkpt lat="43.58612" lon="3.70681">
        <ele>144</ele>
        <time>2010-11-28T08:26:24Z</time>
      </trkpt>
      <trkpt lat="43.58611" lon="3.70671">
        <ele>142.7</ele>
        <time>2010-11-28T08:26:26Z</time>
      </trkpt>
      <trkpt lat="43.5861" lon="3.70661">
        <ele>142.5</ele>
        <time>2010-11-28T08:26:28Z</time>
      </trkpt>
      <trkpt lat="43.5861" lon="3.70651">
        <ele>142.7</ele>
        <time>2010-11-28T08:26:30Z</time>
      </trkpt>
      <trkpt lat="43.58609" lon="3.7064">
        <ele>143.5</ele>
        <time>2010-11-28T08:26:32Z</time>
      </trkpt>
      <trkpt lat="43.58609" lon="3.70629">
        <ele>143.9</ele>
        <time>2010-11-28T08:26:34Z</time>
      </trkpt>
      <trkpt lat="43.58611" lon="3.70618">
        <ele>144.1</ele>
        <time>2010-11-28T08:26:36Z</time>
      </trkpt>
      <trkpt lat="43.58612" lon="3.70607">
        <ele>144.4</ele>
        <time>2010-11-28T08:26:38Z</time>
      </trkpt>
      <trkpt lat="43.58615" lon="3.70597">
        <ele>144.7</ele>
        <time>2010-11-28T08:26:40Z</time>
      </trkpt>
      <trkpt lat="43.58617" lon="3.70587">
        <ele>143.6</ele>
        <time>2010-11-28T08:26:42Z</time>
      </trkpt>
      <trkpt lat="43.5862" lon="3.70576">
        <ele>143.4</ele>
        <time>2010-11-28T08:26:44Z</time>
      </trkpt>
      <trkpt lat="43.58623" lon="3.70565">
        <ele>143.7</ele>
        <time>2010-11-28T08:26:46Z</time>
      </trkpt>
      <trkpt lat="43.58626" lon="3.70554">
        <ele>144.7</ele>
        <time>2010-11-28T08:26:48Z</time>
      </trkpt>
      <trkpt lat="43.58628" lon="3.70543">
        <ele>145.2</ele>
        <time>2010-11-28T08:26:50Z</time>
      </trkpt>
      <trkpt lat="43.5863" lon="3.70532">
        <ele>144.1</ele>
        <time>2010-11-28T08:26:52Z</time>
      </trkpt>
      <trkpt lat="43.58632" lon="3.7052">
        <ele>143.5</ele>
        <time>2010-11-28T08:26:54Z</time>
      </trkpt>
      <trkpt lat="43.58633" lon="3.70508">
        <ele>143.2</ele>
        <time>2010-11-28T08:26:56Z</time>
      </trkpt>
      <trkpt lat="43.58636" lon="3.70498">
        <ele>143.3</ele>
        <time>2010-11-28T08:26:58Z</time>
      </trkpt>
      <trkpt lat="43.58643" lon="3.7049">
        <ele>142.9</ele>
        <time>2010-11-28T08:27:00Z</time>
      </trkpt>
      <trkpt lat="43.58651" lon="3.7049">
        <ele>142.4</ele>
        <time>2010-11-28T08:27:02Z</time>
      </trkpt>
      <trkpt lat="43.58659" lon="3.70494">
        <ele>141.6</ele>
        <time>2010-11-28T08:27:04Z</time>
      </trkpt>
      <trkpt lat="43.58662" lon="3.70497">
        <ele>141.3</ele>
        <time>2010-11-28T08:27:05Z</time>
      </trkpt>
      <trkpt lat="43.58673" lon="3.70507">
        <ele>140.2</ele>
        <time>2010-11-28T08:27:08Z</time>
      </trkpt>
      <trkpt lat="43.5868" lon="3.70514">
        <ele>139.9</ele>
        <time>2010-11-28T08:27:10Z</time>
      </trkpt>
      <trkpt lat="43.58686" lon="3.70519">
        <ele>139.8</ele>
        <time>2010-11-28T08:27:12Z</time>
      </trkpt>
      <trkpt lat="43.58693" lon="3.70525">
        <ele>140.6</ele>
        <time>2010-11-28T08:27:14Z</time>
      </trkpt>
      <trkpt lat="43.587" lon="3.7053">
        <ele>141</ele>
        <time>2010-11-28T08:27:16Z</time>
      </trkpt>
      <trkpt lat="43.58706" lon="3.70535">
        <ele>141.4</ele>
        <time>2010-11-28T08:27:18Z</time>
      </trkpt>
      <trkpt lat="43.58713" lon="3.7054">
        <ele>142.9</ele>
        <time>2010-11-28T08:27:20Z</time>
      </trkpt>
      <trkpt lat="43.58719" lon="3.70545">
        <ele>142.9</ele>
        <time>2010-11-28T08:27:22Z</time>
      </trkpt>
      <trkpt lat="43.58725" lon="3.70549">
        <ele>142.3</ele>
        <time>2010-11-28T08:27:24Z</time>
      </trkpt>
      <trkpt lat="43.58732" lon="3.70554">
        <ele>142.9</ele>
        <time>2010-11-28T08:27:26Z</time>
      </trkpt>
      <trkpt lat="43.58738" lon="3.70558">
        <ele>143.2</ele>
        <time>2010-11-28T08:27:28Z</time>
      </trkpt>
      <trkpt lat="43.58744" lon="3.70563">
        <ele>144.2</ele>
        <time>2010-11-28T08:27:30Z</time>
      </trkpt>
      <trkpt lat="43.58751" lon="3.70568">
        <ele>143.2</ele>
        <time>2010-11-28T08:27:32Z</time>
      </trkpt>
      <trkpt lat="43.58757" lon="3.70573">
        <ele>141.5</ele>
        <time>2010-11-28T08:27:34Z</time>
      </trkpt>
      <trkpt lat="43.58763" lon="3.70579">
        <ele>141.3</ele>
        <time>2010-11-28T08:27:36Z</time>
      </trkpt>
      <trkpt lat="43.58768" lon="3.70586">
        <ele>141.4</ele>
        <time>2010-11-28T08:27:38Z</time>
      </trkpt>
      <trkpt lat="43.58774" lon="3.70593">
        <ele>141.7</ele>
        <time>2010-11-28T08:27:40Z</time>
      </trkpt>
      <trkpt lat="43.5878" lon="3.706">
        <ele>141.5</ele>
        <time>2010-11-28T08:27:42Z</time>
      </trkpt>
      <trkpt lat="43.58786" lon="3.70607">
        <ele>141.4</ele>
        <time>2010-11-28T08:27:44Z</time>
      </trkpt>
      <trkpt lat="43.58793" lon="3.70614">
        <ele>141.8</ele>
        <time>2010-11-28T08:27:46Z</time>
      </trkpt>
      <trkpt lat="43.58799" lon="3.70621">
        <ele>142</ele>
        <time>2010-11-28T08:27:48Z</time>
      </trkpt>
      <trkpt lat="43.58806" lon="3.70628">
        <ele>142.1</ele>
        <time>2010-11-28T08:27:50Z</time>
      </trkpt>
      <trkpt lat="43.58813" lon="3.70635">
        <ele>141.6</ele>
        <time>2010-11-28T08:27:52Z</time>
      </trkpt>
      <trkpt lat="43.58817" lon="3.70639">
        <ele>141.5</ele>
        <time>2010-11-28T08:27:53Z</time>
      </trkpt>
      <trkpt lat="43.58821" lon="3.70642">
        <ele>141.3</ele>
        <time>2010-11-28T08:27:54Z</time>
      </trkpt>
      <trkpt lat="43.58826" lon="3.70646">
        <ele>141.1</ele>
        <time>2010-11-28T08:27:55Z</time>
      </trkpt>
      <trkpt lat="43.5883" lon="3.70648">
        <ele>141</ele>
        <time>2010-11-28T08:27:56Z</time>
      </trkpt>
      <trkpt lat="43.58835" lon="3.70651">
        <ele>141.2</ele>
        <time>2010-11-28T08:27:57Z</time>
      </trkpt>
      <trkpt lat="43.58839" lon="3.70654">
        <ele>141.3</ele>
        <time>2010-11-28T08:27:58Z</time>
      </trkpt>
      <trkpt lat="43.58843" lon="3.70657">
        <ele>141.4</ele>
        <time>2010-11-28T08:27:59Z</time>
      </trkpt>
      <trkpt lat="43.58847" lon="3.70659">
        <ele>141.2</ele>
        <time>2010-11-28T08:28:00Z</time>
      </trkpt>
      <trkpt lat="43.58856" lon="3.70663">
        <ele>140.9</ele>
        <time>2010-11-28T08:28:02Z</time>
      </trkpt>
      <trkpt lat="43.58864" lon="3.70666">
        <ele>140.9</ele>
        <time>2010-11-28T08:28:04Z</time>
      </trkpt>
      <trkpt lat="43.58871" lon="3.70671">
        <ele>141</ele>
        <time>2010-11-28T08:28:06Z</time>
      </trkpt>
      <trkpt lat="43.58875" lon="3.70675">
        <ele>140.7</ele>
        <time>2010-11-28T08:28:07Z</time>
      </trkpt>
      <trkpt lat="43.58884" lon="3.70686">
        <ele>140.5</ele>
        <time>2010-11-28T08:28:10Z</time>
      </trkpt>
      <trkpt lat="43.5889" lon="3.70694">
        <ele>140.8</ele>
        <time>2010-11-28T08:28:12Z</time>
      </trkpt>
      <trkpt lat="43.58896" lon="3.70703">
        <ele>140.9</ele>
        <time>2010-11-28T08:28:14Z</time>
      </trkpt>
      <trkpt lat="43.58902" lon="3.70711">
        <ele>140.9</ele>
        <time>2010-11-28T08:28:16Z</time>
      </trkpt>
      <trkpt lat="43.58908" lon="3.70718">
        <ele>140.7</ele>
        <time>2010-11-28T08:28:18Z</time>
      </trkpt>
      <trkpt lat="43.58914" lon="3.70725">
        <ele>140.9</ele>
        <time>2010-11-28T08:28:20Z</time>
      </trkpt>
      <trkpt lat="43.5892" lon="3.70732">
        <ele>141.1</ele>
        <time>2010-11-28T08:28:22Z</time>
      </trkpt>
      <trkpt lat="43.58925" lon="3.7074">
        <ele>140.9</ele>
        <time>2010-11-28T08:28:24Z</time>
      </trkpt>
      <trkpt lat="43.5893" lon="3.70748">
        <ele>141</ele>
        <time>2010-11-28T08:28:26Z</time>
      </trkpt>
      <trkpt lat="43.58933" lon="3.70758">
        <ele>141.3</ele>
        <time>2010-11-28T08:28:28Z</time>
      </trkpt>
      <trkpt lat="43.58935" lon="3.70769">
        <ele>141.4</ele>
        <time>2010-11-28T08:28:30Z</time>
      </trkpt>
      <trkpt lat="43.58937" lon="3.7078">
        <ele>141.1</ele>
        <time>2010-11-28T08:28:32Z</time>
      </trkpt>
      <trkpt lat="43.58938" lon="3.70792">
        <ele>140.8</ele>
        <time>2010-11-28T08:28:34Z</time>
      </trkpt>
      <trkpt lat="43.58938" lon="3.70799">
        <ele>140.8</ele>
        <time>2010-11-28T08:28:35Z</time>
      </trkpt>
      <trkpt lat="43.58939" lon="3.70805">
        <ele>140.9</ele>
        <time>2010-11-28T08:28:36Z</time>
      </trkpt>
      <trkpt lat="43.5894" lon="3.70812">
        <ele>140.9</ele>
        <time>2010-11-28T08:28:37Z</time>
      </trkpt>
      <trkpt lat="43.58942" lon="3.70819">
        <ele>140.9</ele>
        <time>2010-11-28T08:28:38Z</time>
      </trkpt>
      <trkpt lat="43.58944" lon="3.70826">
        <ele>140.4</ele>
        <time>2010-11-28T08:28:39Z</time>
      </trkpt>
      <trkpt lat="43.58946" lon="3.70834">
        <ele>140.1</ele>
        <time>2010-11-28T08:28:40Z</time>
      </trkpt>
      <trkpt lat="43.58948" lon="3.70841">
        <ele>139.8</ele>
        <time>2010-11-28T08:28:41Z</time>
      </trkpt>
      <trkpt lat="43.58951" lon="3.70848">
        <ele>139.9</ele>
        <time>2010-11-28T08:28:42Z</time>
      </trkpt>
      <trkpt lat="43.58954" lon="3.70855">
        <ele>139.9</ele>
        <time>2010-11-28T08:28:43Z</time>
      </trkpt>
      <trkpt lat="43.58956" lon="3.70862">
        <ele>139.9</ele>
        <time>2010-11-28T08:28:44Z</time>
      </trkpt>
      <trkpt lat="43.58959" lon="3.70869">
        <ele>138.9</ele>
        <time>2010-11-28T08:28:45Z</time>
      </trkpt>
      <trkpt lat="43.58961" lon="3.70876">
        <ele>138.1</ele>
        <time>2010-11-28T08:28:46Z</time>
      </trkpt>
      <trkpt lat="43.58964" lon="3.70883">
        <ele>137.5</ele>
        <time>2010-11-28T08:28:47Z</time>
      </trkpt>
      <trkpt lat="43.58966" lon="3.70891">
        <ele>137.4</ele>
        <time>2010-11-28T08:28:48Z</time>
      </trkpt>
      <trkpt lat="43.58969" lon="3.70899">
        <ele>137.4</ele>
        <time>2010-11-28T08:28:49Z</time>
      </trkpt>
      <trkpt lat="43.58971" lon="3.70907">
        <ele>137.3</ele>
        <time>2010-11-28T08:28:50Z</time>
      </trkpt>
      <trkpt lat="43.58974" lon="3.70914">
        <ele>136.8</ele>
        <time>2010-11-28T08:28:51Z</time>
      </trkpt>
      <trkpt lat="43.58976" lon="3.70922">
        <ele>136.4</ele>
        <time>2010-11-28T08:28:52Z</time>
      </trkpt>
      <trkpt lat="43.58979" lon="3.7093">
        <ele>136.2</ele>
        <time>2010-11-28T08:28:53Z</time>
      </trkpt>
      <trkpt lat="43.58982" lon="3.70938">
        <ele>135.9</ele>
        <time>2010-11-28T08:28:54Z</time>
      </trkpt>
      <trkpt lat="43.58984" lon="3.70947">
        <ele>135.8</ele>
        <time>2010-11-28T08:28:55Z</time>
      </trkpt>
      <trkpt lat="43.58986" lon="3.70955">
        <ele>135.7</ele>
        <time>2010-11-28T08:28:56Z</time>
      </trkpt>
      <trkpt lat="43.58989" lon="3.70964">
        <ele>135.6</ele>
        <time>2010-11-28T08:28:57Z</time>
      </trkpt>
      <trkpt lat="43.58992" lon="3.70973">
        <ele>135.3</ele>
        <time>2010-11-28T08:28:58Z</time>
      </trkpt>
      <trkpt lat="43.58997" lon="3.7098">
        <ele>135.1</ele>
        <time>2010-11-28T08:28:59Z</time>
      </trkpt>
      <trkpt lat="43.59003" lon="3.70985">
        <ele>134.9</ele>
        <time>2010-11-28T08:29:00Z</time>
      </trkpt>
      <trkpt lat="43.59009" lon="3.70988">
        <ele>134.7</ele>
        <time>2010-11-28T08:29:01Z</time>
      </trkpt>
      <trkpt lat="43.59016" lon="3.7099">
        <ele>134.5</ele>
        <time>2010-11-28T08:29:02Z</time>
      </trkpt>
      <trkpt lat="43.59022" lon="3.70991">
        <ele>134.4</ele>
        <time>2010-11-28T08:29:03Z</time>
      </trkpt>
      <trkpt lat="43.59029" lon="3.70992">
        <ele>133.6</ele>
        <time>2010-11-28T08:29:04Z</time>
      </trkpt>
      <trkpt lat="43.59035" lon="3.70993">
        <ele>133</ele>
        <time>2010-11-28T08:29:05Z</time>
      </trkpt>
      <trkpt lat="43.59042" lon="3.70994">
        <ele>132.6</ele>
        <time>2010-11-28T08:29:06Z</time>
      </trkpt>
      <trkpt lat="43.59048" lon="3.70995">
        <ele>132.3</ele>
        <time>2010-11-28T08:29:07Z</time>
      </trkpt>
      <trkpt lat="43.59055" lon="3.70997">
        <ele>132</ele>
        <time>2010-11-28T08:29:08Z</time>
      </trkpt>
      <trkpt lat="43.59062" lon="3.70998">
        <ele>131.9</ele>
        <time>2010-11-28T08:29:09Z</time>
      </trkpt>
      <trkpt lat="43.5907" lon="3.71001">
        <ele>131.4</ele>
        <time>2010-11-28T08:29:10Z</time>
      </trkpt>
      <trkpt lat="43.59077" lon="3.71004">
        <ele>131.1</ele>
        <time>2010-11-28T08:29:11Z</time>
      </trkpt>
      <trkpt lat="43.59084" lon="3.71006">
        <ele>130.8</ele>
        <time>2010-11-28T08:29:12Z</time>
      </trkpt>
      <trkpt lat="43.59091" lon="3.71005">
        <ele>130.6</ele>
        <time>2010-11-28T08:29:13Z</time>
      </trkpt>
      <trkpt lat="43.59097" lon="3.71003">
        <ele>130</ele>
        <time>2010-11-28T08:29:14Z</time>
      </trkpt>
      <trkpt lat="43.59101" lon="3.70999">
        <ele>129.5</ele>
        <time>2010-11-28T08:29:15Z</time>
      </trkpt>
      <trkpt lat="43.59104" lon="3.70993">
        <ele>129.2</ele>
        <time>2010-11-28T08:29:16Z</time>
      </trkpt>
      <trkpt lat="43.59107" lon="3.70987">
        <ele>128.4</ele>
        <time>2010-11-28T08:29:17Z</time>
      </trkpt>
      <trkpt lat="43.5911" lon="3.7098">
        <ele>127.9</ele>
        <time>2010-11-28T08:29:18Z</time>
      </trkpt>
      <trkpt lat="43.59115" lon="3.70974">
        <ele>127.4</ele>
        <time>2010-11-28T08:29:19Z</time>
      </trkpt>
      <trkpt lat="43.59119" lon="3.70968">
        <ele>127.2</ele>
        <time>2010-11-28T08:29:20Z</time>
      </trkpt>
      <trkpt lat="43.59125" lon="3.70962">
        <ele>126.9</ele>
        <time>2010-11-28T08:29:21Z</time>
      </trkpt>
      <trkpt lat="43.59131" lon="3.70958">
        <ele>126.8</ele>
        <time>2010-11-28T08:29:22Z</time>
      </trkpt>
      <trkpt lat="43.59137" lon="3.70955">
        <ele>125.9</ele>
        <time>2010-11-28T08:29:23Z</time>
      </trkpt>
      <trkpt lat="43.59143" lon="3.70952">
        <ele>125.3</ele>
        <time>2010-11-28T08:29:24Z</time>
      </trkpt>
      <trkpt lat="43.59149" lon="3.70949">
        <ele>124.9</ele>
        <time>2010-11-28T08:29:25Z</time>
      </trkpt>
      <trkpt lat="43.59156" lon="3.70945">
        <ele>124.4</ele>
        <time>2010-11-28T08:29:26Z</time>
      </trkpt>
      <trkpt lat="43.59162" lon="3.70939">
        <ele>124</ele>
        <time>2010-11-28T08:29:27Z</time>
      </trkpt>
      <trkpt lat="43.59169" lon="3.70933">
        <ele>123.7</ele>
        <time>2010-11-28T08:29:28Z</time>
      </trkpt>
      <trkpt lat="43.59175" lon="3.70926">
        <ele>123</ele>
        <time>2010-11-28T08:29:29Z</time>
      </trkpt>
      <trkpt lat="43.59181" lon="3.70919">
        <ele>122.4</ele>
        <time>2010-11-28T08:29:30Z</time>
      </trkpt>
      <trkpt lat="43.59186" lon="3.70911">
        <ele>122</ele>
        <time>2010-11-28T08:29:31Z</time>
      </trkpt>
      <trkpt lat="43.59192" lon="3.70904">
        <ele>121.6</ele>
        <time>2010-11-28T08:29:32Z</time>
      </trkpt>
      <trkpt lat="43.59197" lon="3.70897">
        <ele>120.7</ele>
        <time>2010-11-28T08:29:33Z</time>
      </trkpt>
      <trkpt lat="43.59201" lon="3.70891">
        <ele>120</ele>
        <time>2010-11-28T08:29:34Z</time>
      </trkpt>
      <trkpt lat="43.59205" lon="3.70885">
        <ele>119.5</ele>
        <time>2010-11-28T08:29:35Z</time>
      </trkpt>
      <trkpt lat="43.59209" lon="3.70881">
        <ele>119.3</ele>
        <time>2010-11-28T08:29:36Z</time>
      </trkpt>
      <trkpt lat="43.59216" lon="3.70873">
        <ele>119.1</ele>
        <time>2010-11-28T08:29:38Z</time>
      </trkpt>
      <trkpt lat="43.59224" lon="3.7087">
        <ele>117.5</ele>
        <time>2010-11-28T08:29:41Z</time>
      </trkpt>
      <trkpt lat="43.59232" lon="3.70867">
        <ele>117.4</ele>
        <time>2010-11-28T08:29:45Z</time>
      </trkpt>
      <trkpt lat="43.59237" lon="3.7086">
        <ele>117.5</ele>
        <time>2010-11-28T08:29:48Z</time>
      </trkpt>
      <trkpt lat="43.59243" lon="3.70857">
        <ele>118.1</ele>
        <time>2010-11-28T08:29:50Z</time>
      </trkpt>
      <trkpt lat="43.59249" lon="3.70855">
        <ele>118.1</ele>
        <time>2010-11-28T08:29:52Z</time>
      </trkpt>
      <trkpt lat="43.59256" lon="3.70854">
        <ele>117.9</ele>
        <time>2010-11-28T08:29:54Z</time>
      </trkpt>
      <trkpt lat="43.59262" lon="3.70854">
        <ele>118.3</ele>
        <time>2010-11-28T08:29:56Z</time>
      </trkpt>
      <trkpt lat="43.59268" lon="3.70855">
        <ele>118.5</ele>
        <time>2010-11-28T08:29:58Z</time>
      </trkpt>
      <trkpt lat="43.59276" lon="3.7086">
        <ele>118.6</ele>
        <time>2010-11-28T08:30:01Z</time>
      </trkpt>
      <trkpt lat="43.59282" lon="3.70867">
        <ele>118.9</ele>
        <time>2010-11-28T08:30:04Z</time>
      </trkpt>
      <trkpt lat="43.59287" lon="3.70877">
        <ele>119.4</ele>
        <time>2010-11-28T08:30:07Z</time>
      </trkpt>
      <trkpt lat="43.5929" lon="3.70888">
        <ele>119.5</ele>
        <time>2010-11-28T08:30:10Z</time>
      </trkpt>
      <trkpt lat="43.5929" lon="3.70892">
        <ele>119.3</ele>
        <time>2010-11-28T08:30:11Z</time>
      </trkpt>
      <trkpt lat="43.59289" lon="3.70908">
        <ele>120.4</ele>
        <time>2010-11-28T08:30:15Z</time>
      </trkpt>
      <trkpt lat="43.59289" lon="3.70916">
        <ele>120.7</ele>
        <time>2010-11-28T08:30:17Z</time>
      </trkpt>
      <trkpt lat="43.5929" lon="3.70926">
        <ele>120.6</ele>
        <time>2010-11-28T08:30:19Z</time>
      </trkpt>
      <trkpt lat="43.59291" lon="3.70934">
        <ele>120.1</ele>
        <time>2010-11-28T08:30:21Z</time>
      </trkpt>
      <trkpt lat="43.59291" lon="3.70943">
        <ele>119.9</ele>
        <time>2010-11-28T08:30:23Z</time>
      </trkpt>
      <trkpt lat="43.59291" lon="3.70951">
        <ele>119.8</ele>
        <time>2010-11-28T08:30:25Z</time>
      </trkpt>
      <trkpt lat="43.59292" lon="3.7096">
        <ele>119.8</ele>
        <time>2010-11-28T08:30:27Z</time>
      </trkpt>
      <trkpt lat="43.59294" lon="3.70968">
        <ele>120</ele>
        <time>2010-11-28T08:30:29Z</time>
      </trkpt>
      <trkpt lat="43.59297" lon="3.7098">
        <ele>120.7</ele>
        <time>2010-11-28T08:30:33Z</time>
      </trkpt>
      <trkpt lat="43.59301" lon="3.70987">
        <ele>120.7</ele>
        <time>2010-11-28T08:30:36Z</time>
      </trkpt>
      <trkpt lat="43.59307" lon="3.70996">
        <ele>120.9</ele>
        <time>2010-11-28T08:30:39Z</time>
      </trkpt>
      <trkpt lat="43.59313" lon="3.71003">
        <ele>121.8</ele>
        <time>2010-11-28T08:30:42Z</time>
      </trkpt>
      <trkpt lat="43.5932" lon="3.71009">
        <ele>120.9</ele>
        <time>2010-11-28T08:30:45Z</time>
      </trkpt>
      <trkpt lat="43.59327" lon="3.71015">
        <ele>121.4</ele>
        <time>2010-11-28T08:30:48Z</time>
      </trkpt>
      <trkpt lat="43.59334" lon="3.7102">
        <ele>122</ele>
        <time>2010-11-28T08:30:51Z</time>
      </trkpt>
      <trkpt lat="43.59341" lon="3.7102">
        <ele>123</ele>
        <time>2010-11-28T08:30:54Z</time>
      </trkpt>
      <trkpt lat="43.59348" lon="3.71017">
        <ele>123</ele>
        <time>2010-11-28T08:30:57Z</time>
      </trkpt>
      <trkpt lat="43.59355" lon="3.71013">
        <ele>123.3</ele>
        <time>2010-11-28T08:31:00Z</time>
      </trkpt>
      <trkpt lat="43.59363" lon="3.71009">
        <ele>123.8</ele>
        <time>2010-11-28T08:31:03Z</time>
      </trkpt>
      <trkpt lat="43.5937" lon="3.71007">
        <ele>124.4</ele>
        <time>2010-11-28T08:31:06Z</time>
      </trkpt>
      <trkpt lat="43.59378" lon="3.71008">
        <ele>124.7</ele>
        <time>2010-11-28T08:31:09Z</time>
      </trkpt>
      <trkpt lat="43.59386" lon="3.71009">
        <ele>124.7</ele>
        <time>2010-11-28T08:31:12Z</time>
      </trkpt>
      <trkpt lat="43.59389" lon="3.7101">
        <ele>124.7</ele>
        <time>2010-11-28T08:31:13Z</time>
      </trkpt>
      <trkpt lat="43.59401" lon="3.71019">
        <ele>125.7</ele>
        <time>2010-11-28T08:31:18Z</time>
      </trkpt>
      <trkpt lat="43.59407" lon="3.71028">
        <ele>125.4</ele>
        <time>2010-11-28T08:31:21Z</time>
      </trkpt>
      <trkpt lat="43.5941" lon="3.71039">
        <ele>125.3</ele>
        <time>2010-11-28T08:31:24Z</time>
      </trkpt>
      <trkpt lat="43.59413" lon="3.7105">
        <ele>125.5</ele>
        <time>2010-11-28T08:31:27Z</time>
      </trkpt>
      <trkpt lat="43.59415" lon="3.71062">
        <ele>126.1</ele>
        <time>2010-11-28T08:31:30Z</time>
      </trkpt>
      <trkpt lat="43.59418" lon="3.71072">
        <ele>126.7</ele>
        <time>2010-11-28T08:31:33Z</time>
      </trkpt>
      <trkpt lat="43.59423" lon="3.71081">
        <ele>126.6</ele>
        <time>2010-11-28T08:31:36Z</time>
      </trkpt>
      <trkpt lat="43.59429" lon="3.71088">
        <ele>127.7</ele>
        <time>2010-11-28T08:31:39Z</time>
      </trkpt>
      <trkpt lat="43.59436" lon="3.71093">
        <ele>128.8</ele>
        <time>2010-11-28T08:31:42Z</time>
      </trkpt>
      <trkpt lat="43.59444" lon="3.71095">
        <ele>128.3</ele>
        <time>2010-11-28T08:31:45Z</time>
      </trkpt>
      <trkpt lat="43.59452" lon="3.71094">
        <ele>128.9</ele>
        <time>2010-11-28T08:31:48Z</time>
      </trkpt>
      <trkpt lat="43.59459" lon="3.71093">
        <ele>129.1</ele>
        <time>2010-11-28T08:31:51Z</time>
      </trkpt>
      <trkpt lat="43.59467" lon="3.71091">
        <ele>129.8</ele>
        <time>2010-11-28T08:31:54Z</time>
      </trkpt>
      <trkpt lat="43.59475" lon="3.71089">
        <ele>129.9</ele>
        <time>2010-11-28T08:31:57Z</time>
      </trkpt>
      <trkpt lat="43.59483" lon="3.71086">
        <ele>130.6</ele>
        <time>2010-11-28T08:32:00Z</time>
      </trkpt>
      <trkpt lat="43.5949" lon="3.71083">
        <ele>131.1</ele>
        <time>2010-11-28T08:32:03Z</time>
      </trkpt>
      <trkpt lat="43.59498" lon="3.71083">
        <ele>131.6</ele>
        <time>2010-11-28T08:32:06Z</time>
      </trkpt>
      <trkpt lat="43.59506" lon="3.71086">
        <ele>131.9</ele>
        <time>2010-11-28T08:32:09Z</time>
      </trkpt>
      <trkpt lat="43.59513" lon="3.7109">
        <ele>132.3</ele>
        <time>2010-11-28T08:32:12Z</time>
      </trkpt>
      <trkpt lat="43.5952" lon="3.71095">
        <ele>132.8</ele>
        <time>2010-11-28T08:32:15Z</time>
      </trkpt>
      <trkpt lat="43.59522" lon="3.71097">
        <ele>132.9</ele>
        <time>2010-11-28T08:32:16Z</time>
      </trkpt>
      <trkpt lat="43.59533" lon="3.71109">
        <ele>134.1</ele>
        <time>2010-11-28T08:32:21Z</time>
      </trkpt>
      <trkpt lat="43.59538" lon="3.71116">
        <ele>134.7</ele>
        <time>2010-11-28T08:32:24Z</time>
      </trkpt>
      <trkpt lat="43.59544" lon="3.71124">
        <ele>135.4</ele>
        <time>2010-11-28T08:32:27Z</time>
      </trkpt>
      <trkpt lat="43.59549" lon="3.71133">
        <ele>135.5</ele>
        <time>2010-11-28T08:32:30Z</time>
      </trkpt>
      <trkpt lat="43.59553" lon="3.71142">
        <ele>136.1</ele>
        <time>2010-11-28T08:32:33Z</time>
      </trkpt>
      <trkpt lat="43.59557" lon="3.71152">
        <ele>136.4</ele>
        <time>2010-11-28T08:32:36Z</time>
      </trkpt>
      <trkpt lat="43.59561" lon="3.71162">
        <ele>134.9</ele>
        <time>2010-11-28T08:32:39Z</time>
      </trkpt>
      <trkpt lat="43.59565" lon="3.71171">
        <ele>134.8</ele>
        <time>2010-11-28T08:32:42Z</time>
      </trkpt>
      <trkpt lat="43.59568" lon="3.71181">
        <ele>136.8</ele>
        <time>2010-11-28T08:32:45Z</time>
      </trkpt>
      <trkpt lat="43.59571" lon="3.71191">
        <ele>137.2</ele>
        <time>2010-11-28T08:32:48Z</time>
      </trkpt>
      <trkpt lat="43.59573" lon="3.71201">
        <ele>138.1</ele>
        <time>2010-11-28T08:32:51Z</time>
      </trkpt>
      <trkpt lat="43.59574" lon="3.71212">
        <ele>138.4</ele>
        <time>2010-11-28T08:32:54Z</time>
      </trkpt>
      <trkpt lat="43.59576" lon="3.71223">
        <ele>138</ele>
        <time>2010-11-28T08:32:57Z</time>
      </trkpt>
      <trkpt lat="43.59577" lon="3.71233">
        <ele>137.6</ele>
        <time>2010-11-28T08:33:00Z</time>
      </trkpt>
      <trkpt lat="43.59577" lon="3.71244">
        <ele>137.8</ele>
        <time>2010-11-28T08:33:04Z</time>
      </trkpt>
      <trkpt lat="43.59578" lon="3.71254">
        <ele>137.9</ele>
        <time>2010-11-28T08:33:08Z</time>
      </trkpt>
      <trkpt lat="43.59579" lon="3.71265">
        <ele>138.5</ele>
        <time>2010-11-28T08:33:12Z</time>
      </trkpt>
      <trkpt lat="43.59579" lon="3.71275">
        <ele>138.5</ele>
        <time>2010-11-28T08:33:16Z</time>
      </trkpt>
      <trkpt lat="43.59579" lon="3.71277">
        <ele>138.5</ele>
        <time>2010-11-28T08:33:17Z</time>
      </trkpt>
      <trkpt lat="43.59578" lon="3.71296">
        <ele>140.5</ele>
        <time>2010-11-28T08:33:24Z</time>
      </trkpt>
      <trkpt lat="43.59576" lon="3.71307">
        <ele>140.8</ele>
        <time>2010-11-28T08:33:28Z</time>
      </trkpt>
      <trkpt lat="43.59575" lon="3.71318">
        <ele>140.1</ele>
        <time>2010-11-28T08:33:32Z</time>
      </trkpt>
      <trkpt lat="43.59573" lon="3.71329">
        <ele>140.5</ele>
        <time>2010-11-28T08:33:36Z</time>
      </trkpt>
      <trkpt lat="43.59573" lon="3.71339">
        <ele>140.8</ele>
        <time>2010-11-28T08:33:40Z</time>
      </trkpt>
      <trkpt lat="43.59577" lon="3.71348">
        <ele>141.2</ele>
        <time>2010-11-28T08:33:44Z</time>
      </trkpt>
      <trkpt lat="43.59585" lon="3.71346">
        <ele>142.3</ele>
        <time>2010-11-28T08:33:48Z</time>
      </trkpt>
      <trkpt lat="43.59592" lon="3.71341">
        <ele>143.3</ele>
        <time>2010-11-28T08:33:52Z</time>
      </trkpt>
      <trkpt lat="43.59598" lon="3.71335">
        <ele>143</ele>
        <time>2010-11-28T08:33:56Z</time>
      </trkpt>
      <trkpt lat="43.59605" lon="3.71329">
        <ele>143.4</ele>
        <time>2010-11-28T08:34:00Z</time>
      </trkpt>
      <trkpt lat="43.59611" lon="3.71322">
        <ele>143.8</ele>
        <time>2010-11-28T08:34:04Z</time>
      </trkpt>
      <trkpt lat="43.59617" lon="3.71316">
        <ele>144.6</ele>
        <time>2010-11-28T08:34:08Z</time>
      </trkpt>
      <trkpt lat="43.59623" lon="3.71307">
        <ele>145.5</ele>
        <time>2010-11-28T08:34:12Z</time>
      </trkpt>
      <trkpt lat="43.59628" lon="3.71298">
        <ele>145.6</ele>
        <time>2010-11-28T08:34:16Z</time>
      </trkpt>
      <trkpt lat="43.59633" lon="3.71288">
        <ele>146.6</ele>
        <time>2010-11-28T08:34:20Z</time>
      </trkpt>
      <trkpt lat="43.59634" lon="3.71285">
        <ele>146.9</ele>
        <time>2010-11-28T08:34:21Z</time>
      </trkpt>
      <trkpt lat="43.5964" lon="3.71269">
        <ele>146.9</ele>
        <time>2010-11-28T08:34:28Z</time>
      </trkpt>
      <trkpt lat="43.59644" lon="3.71259">
        <ele>148.2</ele>
        <time>2010-11-28T08:34:33Z</time>
      </trkpt>
      <trkpt lat="43.59648" lon="3.71248">
        <ele>149.5</ele>
        <time>2010-11-28T08:34:38Z</time>
      </trkpt>
      <trkpt lat="43.59652" lon="3.71237">
        <ele>150</ele>
        <time>2010-11-28T08:34:43Z</time>
      </trkpt>
      <trkpt lat="43.59656" lon="3.71227">
        <ele>151.6</ele>
        <time>2010-11-28T08:34:47Z</time>
      </trkpt>
      <trkpt lat="43.59662" lon="3.71218">
        <ele>151.4</ele>
        <time>2010-11-28T08:34:51Z</time>
      </trkpt>
      <trkpt lat="43.59668" lon="3.71212">
        <ele>152</ele>
        <time>2010-11-28T08:34:55Z</time>
      </trkpt>
      <trkpt lat="43.59675" lon="3.71205">
        <ele>153.5</ele>
        <time>2010-11-28T08:34:59Z</time>
      </trkpt>
      <trkpt lat="43.59682" lon="3.71198">
        <ele>153.4</ele>
        <time>2010-11-28T08:35:03Z</time>
      </trkpt>
      <trkpt lat="43.59689" lon="3.71192">
        <ele>154.5</ele>
        <time>2010-11-28T08:35:07Z</time>
      </trkpt>
      <trkpt lat="43.59697" lon="3.71187">
        <ele>154.7</ele>
        <time>2010-11-28T08:35:11Z</time>
      </trkpt>
      <trkpt lat="43.59705" lon="3.71186">
        <ele>155</ele>
        <time>2010-11-28T08:35:15Z</time>
      </trkpt>
      <trkpt lat="43.59714" lon="3.71185">
        <ele>155.9</ele>
        <time>2010-11-28T08:35:19Z</time>
      </trkpt>
      <trkpt lat="43.59722" lon="3.71185">
        <ele>156.9</ele>
        <time>2010-11-28T08:35:23Z</time>
      </trkpt>
      <trkpt lat="43.59724" lon="3.71186">
        <ele>157.1</ele>
        <time>2010-11-28T08:35:24Z</time>
      </trkpt>
      <trkpt lat="43.59738" lon="3.71194">
        <ele>157.7</ele>
        <time>2010-11-28T08:35:31Z</time>
      </trkpt>
      <trkpt lat="43.59746" lon="3.71198">
        <ele>158.6</ele>
        <time>2010-11-28T08:35:35Z</time>
      </trkpt>
      <trkpt lat="43.59753" lon="3.71202">
        <ele>159.5</ele>
        <time>2010-11-28T08:35:39Z</time>
      </trkpt>
      <trkpt lat="43.59761" lon="3.71207">
        <ele>160.8</ele>
        <time>2010-11-28T08:35:43Z</time>
      </trkpt>
      <trkpt lat="43.59767" lon="3.71214">
        <ele>161.7</ele>
        <time>2010-11-28T08:35:47Z</time>
      </trkpt>
      <trkpt lat="43.59771" lon="3.71222">
        <ele>162.9</ele>
        <time>2010-11-28T08:35:51Z</time>
      </trkpt>
      <trkpt lat="43.59775" lon="3.71231">
        <ele>163</ele>
        <time>2010-11-28T08:35:55Z</time>
      </trkpt>
      <trkpt lat="43.59776" lon="3.71241">
        <ele>163.1</ele>
        <time>2010-11-28T08:35:59Z</time>
      </trkpt>
      <trkpt lat="43.59778" lon="3.71251">
        <ele>163.9</ele>
        <time>2010-11-28T08:36:03Z</time>
      </trkpt>
      <trkpt lat="43.5978" lon="3.71262">
        <ele>164.7</ele>
        <time>2010-11-28T08:36:07Z</time>
      </trkpt>
      <trkpt lat="43.5978" lon="3.71272">
        <ele>164.6</ele>
        <time>2010-11-28T08:36:11Z</time>
      </trkpt>
      <trkpt lat="43.5978" lon="3.71283">
        <ele>165.3</ele>
        <time>2010-11-28T08:36:15Z</time>
      </trkpt>
      <trkpt lat="43.59781" lon="3.71294">
        <ele>166</ele>
        <time>2010-11-28T08:36:19Z</time>
      </trkpt>
      <trkpt lat="43.59781" lon="3.71304">
        <ele>166.3</ele>
        <time>2010-11-28T08:36:23Z</time>
      </trkpt>
      <trkpt lat="43.59782" lon="3.71315">
        <ele>166.2</ele>
        <time>2010-11-28T08:36:27Z</time>
      </trkpt>
      <trkpt lat="43.59782" lon="3.71318">
        <ele>166.3</ele>
        <time>2010-11-28T08:36:28Z</time>
      </trkpt>
      <trkpt lat="43.59786" lon="3.71337">
        <ele>168</ele>
        <time>2010-11-28T08:36:35Z</time>
      </trkpt>
      <trkpt lat="43.59789" lon="3.71348">
        <ele>168.9</ele>
        <time>2010-11-28T08:36:39Z</time>
      </trkpt>
      <trkpt lat="43.59792" lon="3.71358">
        <ele>169.3</ele>
        <time>2010-11-28T08:36:43Z</time>
      </trkpt>
      <trkpt lat="43.59795" lon="3.71369">
        <ele>169.6</ele>
        <time>2010-11-28T08:36:47Z</time>
      </trkpt>
      <trkpt lat="43.59798" lon="3.71379">
        <ele>170.9</ele>
        <time>2010-11-28T08:36:51Z</time>
      </trkpt>
      <trkpt lat="43.59802" lon="3.71389">
        <ele>171.4</ele>
        <time>2010-11-28T08:36:55Z</time>
      </trkpt>
      <trkpt lat="43.59806" lon="3.71398">
        <ele>171.5</ele>
        <time>2010-11-28T08:36:59Z</time>
      </trkpt>
      <trkpt lat="43.59811" lon="3.71407">
        <ele>169.8</ele>
        <time>2010-11-28T08:37:03Z</time>
      </trkpt>
      <trkpt lat="43.59817" lon="3.71417">
        <ele>172.7</ele>
        <time>2010-11-28T08:37:07Z</time>
      </trkpt>
      <trkpt lat="43.59822" lon="3.71425">
        <ele>173.2</ele>
        <time>2010-11-28T08:37:11Z</time>
      </trkpt>
      <trkpt lat="43.59826" lon="3.71436">
        <ele>172.7</ele>
        <time>2010-11-28T08:37:59Z</time>
      </trkpt>
      <trkpt lat="43.59827" lon="3.71438">
        <ele>172.9</ele>
        <time>2010-11-28T08:38:00Z</time>
      </trkpt>
      <trkpt lat="43.59834" lon="3.71456">
        <ele>175.4</ele>
        <time>2010-11-28T08:38:08Z</time>
      </trkpt>
      <trkpt lat="43.59838" lon="3.71467">
        <ele>176</ele>
        <time>2010-11-28T08:38:13Z</time>
      </trkpt>
      <trkpt lat="43.59841" lon="3.71478">
        <ele>175.9</ele>
        <time>2010-11-28T08:38:18Z</time>
      </trkpt>
      <trkpt lat="43.59844" lon="3.7149">
        <ele>177.1</ele>
        <time>2010-11-28T08:38:23Z</time>
      </trkpt>
      <trkpt lat="43.59845" lon="3.71502">
        <ele>178.2</ele>
        <time>2010-11-28T08:38:28Z</time>
      </trkpt>
      <trkpt lat="43.59845" lon="3.71513">
        <ele>178.5</ele>
        <time>2010-11-28T08:38:33Z</time>
      </trkpt>
      <trkpt lat="43.59846" lon="3.71525">
        <ele>178.3</ele>
        <time>2010-11-28T08:38:38Z</time>
      </trkpt>
      <trkpt lat="43.59846" lon="3.71537">
        <ele>179.6</ele>
        <time>2010-11-28T08:38:43Z</time>
      </trkpt>
      <trkpt lat="43.5985" lon="3.71548">
        <ele>180.6</ele>
        <time>2010-11-28T08:38:48Z</time>
      </trkpt>
      <trkpt lat="43.59857" lon="3.71548">
        <ele>181.4</ele>
        <time>2010-11-28T08:38:52Z</time>
      </trkpt>
      <trkpt lat="43.59865" lon="3.71547">
        <ele>182</ele>
        <time>2010-11-28T08:38:56Z</time>
      </trkpt>
      <trkpt lat="43.59874" lon="3.71545">
        <ele>182.9</ele>
        <time>2010-11-28T08:39:01Z</time>
      </trkpt>
      <trkpt lat="43.59875" lon="3.71544">
        <ele>183.1</ele>
        <time>2010-11-28T08:39:02Z</time>
      </trkpt>
      <trkpt lat="43.59891" lon="3.71544">
        <ele>184.6</ele>
        <time>2010-11-28T08:39:11Z</time>
      </trkpt>
      <trkpt lat="43.59899" lon="3.71545">
        <ele>185.9</ele>
        <time>2010-11-28T08:39:16Z</time>
      </trkpt>
      <trkpt lat="43.59907" lon="3.7155">
        <ele>187.3</ele>
        <time>2010-11-28T08:39:21Z</time>
      </trkpt>
      <trkpt lat="43.59916" lon="3.71551">
        <ele>188.8</ele>
        <time>2010-11-28T08:39:26Z</time>
      </trkpt>
      <trkpt lat="43.59924" lon="3.7155">
        <ele>190</ele>
        <time>2010-11-28T08:39:31Z</time>
      </trkpt>
      <trkpt lat="43.59927" lon="3.71561">
        <ele>190.7</ele>
        <time>2010-11-28T08:39:37Z</time>
      </trkpt>
      <trkpt lat="43.5992" lon="3.71568">
        <ele>191.4</ele>
        <time>2010-11-28T08:39:42Z</time>
      </trkpt>
      <trkpt lat="43.59912" lon="3.71568">
        <ele>192.4</ele>
        <time>2010-11-28T08:39:46Z</time>
      </trkpt>
      <trkpt lat="43.59905" lon="3.71571">
        <ele>192.9</ele>
        <time>2010-11-28T08:39:50Z</time>
      </trkpt>
      <trkpt lat="43.59898" lon="3.71575">
        <ele>193.2</ele>
        <time>2010-11-28T08:39:54Z</time>
      </trkpt>
      <trkpt lat="43.59892" lon="3.7158">
        <ele>193.9</ele>
        <time>2010-11-28T08:39:58Z</time>
      </trkpt>
      <trkpt lat="43.59886" lon="3.71587">
        <ele>195</ele>
        <time>2010-11-28T08:40:02Z</time>
      </trkpt>
      <trkpt lat="43.59884" lon="3.71589">
        <ele>195.6</ele>
        <time>2010-11-28T08:40:03Z</time>
      </trkpt>
      <trkpt lat="43.59876" lon="3.71602">
        <ele>196.8</ele>
        <time>2010-11-28T08:40:10Z</time>
      </trkpt>
      <trkpt lat="43.59874" lon="3.71612">
        <ele>197</ele>
        <time>2010-11-28T08:40:14Z</time>
      </trkpt>
      <trkpt lat="43.59869" lon="3.71622">
        <ele>199.5</ele>
        <time>2010-11-28T08:40:19Z</time>
      </trkpt>
      <trkpt lat="43.59866" lon="3.71633">
        <ele>199.5</ele>
        <time>2010-11-28T08:40:24Z</time>
      </trkpt>
      <trkpt lat="43.59863" lon="3.71644">
        <ele>200.7</ele>
        <time>2010-11-28T08:40:29Z</time>
      </trkpt>
      <trkpt lat="43.59861" lon="3.71653">
        <ele>201.5</ele>
        <time>2010-11-28T08:40:33Z</time>
      </trkpt>
      <trkpt lat="43.59859" lon="3.71663">
        <ele>202.2</ele>
        <time>2010-11-28T08:40:37Z</time>
      </trkpt>
      <trkpt lat="43.59854" lon="3.71672">
        <ele>203.8</ele>
        <time>2010-11-28T08:40:41Z</time>
      </trkpt>
      <trkpt lat="43.59848" lon="3.71676">
        <ele>204.5</ele>
        <time>2010-11-28T08:40:45Z</time>
      </trkpt>
      <trkpt lat="43.5984" lon="3.71678">
        <ele>204.8</ele>
        <time>2010-11-28T08:40:49Z</time>
      </trkpt>
      <trkpt lat="43.59833" lon="3.7168">
        <ele>206.7</ele>
        <time>2010-11-28T08:40:53Z</time>
      </trkpt>
      <trkpt lat="43.59826" lon="3.71682">
        <ele>206.9</ele>
        <time>2010-11-28T08:40:57Z</time>
      </trkpt>
      <trkpt lat="43.59818" lon="3.71684">
        <ele>207.7</ele>
        <time>2010-11-28T08:41:01Z</time>
      </trkpt>
      <trkpt lat="43.59811" lon="3.71687">
        <ele>209</ele>
        <time>2010-11-28T08:41:05Z</time>
      </trkpt>
      <trkpt lat="43.5981" lon="3.71688">
        <ele>209.1</ele>
        <time>2010-11-28T08:41:06Z</time>
      </trkpt>
      <trkpt lat="43.59801" lon="3.71704">
        <ele>210.2</ele>
        <time>2010-11-28T08:41:14Z</time>
      </trkpt>
      <trkpt lat="43.59797" lon="3.71712">
        <ele>209.8</ele>
        <time>2010-11-28T08:41:18Z</time>
      </trkpt>
      <trkpt lat="43.59797" lon="3.71724">
        <ele>208.8</ele>
        <time>2010-11-28T08:43:47Z</time>
      </trkpt>
      <trkpt lat="43.59797" lon="3.71725">
        <ele>208.3</ele>
        <time>2010-11-28T08:43:48Z</time>
      </trkpt>
      <trkpt lat="43.59794" lon="3.71736">
        <ele>208.4</ele>
        <time>2010-11-28T08:45:11Z</time>
      </trkpt>
      <trkpt lat="43.59795" lon="3.71754">
        <ele>207.1</ele>
        <time>2010-11-28T08:45:20Z</time>
      </trkpt>
      <trkpt lat="43.59803" lon="3.71756">
        <ele>205.8</ele>
        <time>2010-11-28T08:45:23Z</time>
      </trkpt>
      <trkpt lat="43.5981" lon="3.71753">
        <ele>205.4</ele>
        <time>2010-11-28T08:45:26Z</time>
      </trkpt>
      <trkpt lat="43.59818" lon="3.71753">
        <ele>205.4</ele>
        <time>2010-11-28T08:45:29Z</time>
      </trkpt>
      <trkpt lat="43.59825" lon="3.71753">
        <ele>205.1</ele>
        <time>2010-11-28T08:45:32Z</time>
      </trkpt>
      <trkpt lat="43.59833" lon="3.71756">
        <ele>204.8</ele>
        <time>2010-11-28T08:45:35Z</time>
      </trkpt>
      <trkpt lat="43.5984" lon="3.71763">
        <ele>204.6</ele>
        <time>2010-11-28T08:45:38Z</time>
      </trkpt>
      <trkpt lat="43.59846" lon="3.71772">
        <ele>204.5</ele>
        <time>2010-11-28T08:45:41Z</time>
      </trkpt>
      <trkpt lat="43.59848" lon="3.71783">
        <ele>204.8</ele>
        <time>2010-11-28T08:45:44Z</time>
      </trkpt>
      <trkpt lat="43.59851" lon="3.71793">
        <ele>205</ele>
        <time>2010-11-28T08:45:47Z</time>
      </trkpt>
      <trkpt lat="43.59852" lon="3.71804">
        <ele>205.2</ele>
        <time>2010-11-28T08:45:50Z</time>
      </trkpt>
      <trkpt lat="43.59854" lon="3.71814">
        <ele>206.3</ele>
        <time>2010-11-28T08:45:53Z</time>
      </trkpt>
      <trkpt lat="43.59854" lon="3.71825">
        <ele>207.3</ele>
        <time>2010-11-28T08:45:56Z</time>
      </trkpt>
      <trkpt lat="43.59854" lon="3.71836">
        <ele>208</ele>
        <time>2010-11-28T08:45:59Z</time>
      </trkpt>
      <trkpt lat="43.59854" lon="3.71847">
        <ele>208.3</ele>
        <time>2010-11-28T08:46:02Z</time>
      </trkpt>
      <trkpt lat="43.59852" lon="3.71858">
        <ele>208.5</ele>
        <time>2010-11-28T08:46:05Z</time>
      </trkpt>
      <trkpt lat="43.59855" lon="3.71868">
        <ele>209.2</ele>
        <time>2010-11-28T08:46:08Z</time>
      </trkpt>
      <trkpt lat="43.59863" lon="3.71866">
        <ele>210.3</ele>
        <time>2010-11-28T08:46:14Z</time>
      </trkpt>
      <trkpt lat="43.59864" lon="3.71863">
        <ele>210.6</ele>
        <time>2010-11-28T08:46:15Z</time>
      </trkpt>
      <trkpt lat="43.59865" lon="3.71845">
        <ele>211.1</ele>
        <time>2010-11-28T08:46:21Z</time>
      </trkpt>
      <trkpt lat="43.59867" lon="3.71833">
        <ele>212.3</ele>
        <time>2010-11-28T08:46:25Z</time>
      </trkpt>
      <trkpt lat="43.59867" lon="3.71821">
        <ele>210.9</ele>
        <time>2010-11-28T08:49:23Z</time>
      </trkpt>
      <trkpt lat="43.59867" lon="3.71821">
        <ele>211</ele>
        <time>2010-11-28T08:49:24Z</time>
      </trkpt>
      <trkpt lat="43.59872" lon="3.71809">
        <ele>212.1</ele>
        <time>2010-11-28T08:55:57Z</time>
      </trkpt>
      <trkpt lat="43.59879" lon="3.71791">
        <ele>213.2</ele>
        <time>2010-11-28T08:56:05Z</time>
      </trkpt>
      <trkpt lat="43.59886" lon="3.71783">
        <ele>213.8</ele>
        <time>2010-11-28T08:56:09Z</time>
      </trkpt>
      <trkpt lat="43.59892" lon="3.71775">
        <ele>214.4</ele>
        <time>2010-11-28T08:56:13Z</time>
      </trkpt>
      <trkpt lat="43.59898" lon="3.71767">
        <ele>216.1</ele>
        <time>2010-11-28T08:56:17Z</time>
      </trkpt>
      <trkpt lat="43.59903" lon="3.71758">
        <ele>217</ele>
        <time>2010-11-28T08:56:21Z</time>
      </trkpt>
      <trkpt lat="43.59909" lon="3.71751">
        <ele>217.2</ele>
        <time>2010-11-28T08:56:25Z</time>
      </trkpt>
      <trkpt lat="43.59914" lon="3.71742">
        <ele>217.9</ele>
        <time>2010-11-28T08:56:29Z</time>
      </trkpt>
      <trkpt lat="43.5992" lon="3.71735">
        <ele>219</ele>
        <time>2010-11-28T08:56:33Z</time>
      </trkpt>
      <trkpt lat="43.59928" lon="3.71735">
        <ele>219.8</ele>
        <time>2010-11-28T08:56:37Z</time>
      </trkpt>
      <trkpt lat="43.59936" lon="3.71738">
        <ele>219.9</ele>
        <time>2010-11-28T08:56:41Z</time>
      </trkpt>
      <trkpt lat="43.59943" lon="3.71745">
        <ele>221.2</ele>
        <time>2010-11-28T08:56:45Z</time>
      </trkpt>
      <trkpt lat="43.59948" lon="3.71755">
        <ele>221.7</ele>
        <time>2010-11-28T08:56:49Z</time>
      </trkpt>
      <trkpt lat="43.59953" lon="3.71764">
        <ele>222.4</ele>
        <time>2010-11-28T08:56:53Z</time>
      </trkpt>
      <trkpt lat="43.59958" lon="3.71771">
        <ele>222.6</ele>
        <time>2010-11-28T08:56:56Z</time>
      </trkpt>
      <trkpt lat="43.59964" lon="3.71777">
        <ele>222.6</ele>
        <time>2010-11-28T08:56:59Z</time>
      </trkpt>
      <trkpt lat="43.59965" lon="3.71779">
        <ele>222.6</ele>
        <time>2010-11-28T08:57:00Z</time>
      </trkpt>
      <trkpt lat="43.59975" lon="3.71788">
        <ele>224.4</ele>
        <time>2010-11-28T08:57:05Z</time>
      </trkpt>
      <trkpt lat="43.59982" lon="3.71794">
        <ele>224.7</ele>
        <time>2010-11-28T08:57:08Z</time>
      </trkpt>
      <trkpt lat="43.59988" lon="3.718">
        <ele>224.9</ele>
        <time>2010-11-28T08:57:11Z</time>
      </trkpt>
      <trkpt lat="43.59994" lon="3.71805">
        <ele>225.4</ele>
        <time>2010-11-28T08:57:14Z</time>
      </trkpt>
      <trkpt lat="43.6" lon="3.71812">
        <ele>226.2</ele>
        <time>2010-11-28T08:57:18Z</time>
      </trkpt>
      <trkpt lat="43.60007" lon="3.71819">
        <ele>226.9</ele>
        <time>2010-11-28T08:57:22Z</time>
      </trkpt>
      <trkpt lat="43.60015" lon="3.71824">
        <ele>226.7</ele>
        <time>2010-11-28T08:57:26Z</time>
      </trkpt>
      <trkpt lat="43.60023" lon="3.71829">
        <ele>229.2</ele>
        <time>2010-11-28T08:57:30Z</time>
      </trkpt>
      <trkpt lat="43.60031" lon="3.71834">
        <ele>229.9</ele>
        <time>2010-11-28T08:57:34Z</time>
      </trkpt>
      <trkpt lat="43.60039" lon="3.71837">
        <ele>230.3</ele>
        <time>2010-11-28T08:57:38Z</time>
      </trkpt>
      <trkpt lat="43.60047" lon="3.7184">
        <ele>230.6</ele>
        <time>2010-11-28T08:57:42Z</time>
      </trkpt>
      <trkpt lat="43.60055" lon="3.71842">
        <ele>231.5</ele>
        <time>2010-11-28T08:57:46Z</time>
      </trkpt>
      <trkpt lat="43.60064" lon="3.71844">
        <ele>232.1</ele>
        <time>2010-11-28T08:57:50Z</time>
      </trkpt>
      <trkpt lat="43.60072" lon="3.71847">
        <ele>233.1</ele>
        <time>2010-11-28T08:57:54Z</time>
      </trkpt>
      <trkpt lat="43.60077" lon="3.71855">
        <ele>233.8</ele>
        <time>2010-11-28T08:57:58Z</time>
      </trkpt>
      <trkpt lat="43.60085" lon="3.7186">
        <ele>234.7</ele>
        <time>2010-11-28T08:58:02Z</time>
      </trkpt>
      <trkpt lat="43.60087" lon="3.71861">
        <ele>234.9</ele>
        <time>2010-11-28T08:58:03Z</time>
      </trkpt>
      <trkpt lat="43.60099" lon="3.71871">
        <ele>236.3</ele>
        <time>2010-11-28T08:58:10Z</time>
      </trkpt>
      <trkpt lat="43.60106" lon="3.71877">
        <ele>237.1</ele>
        <time>2010-11-28T08:58:14Z</time>
      </trkpt>
      <trkpt lat="43.6011" lon="3.71884">
        <ele>237.6</ele>
        <time>2010-11-28T08:58:17Z</time>
      </trkpt>
      <trkpt lat="43.60114" lon="3.71892">
        <ele>238.1</ele>
        <time>2010-11-28T08:58:20Z</time>
      </trkpt>
      <trkpt lat="43.60118" lon="3.71901">
        <ele>238.8</ele>
        <time>2010-11-28T08:58:23Z</time>
      </trkpt>
      <trkpt lat="43.60122" lon="3.71911">
        <ele>238.5</ele>
        <time>2010-11-28T08:58:26Z</time>
      </trkpt>
      <trkpt lat="43.60126" lon="3.71921">
        <ele>238.6</ele>
        <time>2010-11-28T08:58:29Z</time>
      </trkpt>
      <trkpt lat="43.6013" lon="3.71932">
        <ele>239.2</ele>
        <time>2010-11-28T08:58:32Z</time>
      </trkpt>
      <trkpt lat="43.60134" lon="3.71942">
        <ele>239.2</ele>
        <time>2010-11-28T08:58:35Z</time>
      </trkpt>
      <trkpt lat="43.60137" lon="3.7195">
        <ele>239.2</ele>
        <time>2010-11-28T08:58:37Z</time>
      </trkpt>
      <trkpt lat="43.6014" lon="3.71957">
        <ele>239.2</ele>
        <time>2010-11-28T08:58:39Z</time>
      </trkpt>
      <trkpt lat="43.60145" lon="3.71968">
        <ele>239.6</ele>
        <time>2010-11-28T08:58:42Z</time>
      </trkpt>
      <trkpt lat="43.60148" lon="3.71975">
        <ele>239.7</ele>
        <time>2010-11-28T08:58:44Z</time>
      </trkpt>
      <trkpt lat="43.6015" lon="3.71983">
        <ele>240.1</ele>
        <time>2010-11-28T08:58:46Z</time>
      </trkpt>
      <trkpt lat="43.60153" lon="3.71994">
        <ele>240.7</ele>
        <time>2010-11-28T08:58:49Z</time>
      </trkpt>
      <trkpt lat="43.60155" lon="3.72002">
        <ele>241.2</ele>
        <time>2010-11-28T08:58:51Z</time>
      </trkpt>
      <trkpt lat="43.60158" lon="3.7201">
        <ele>241.4</ele>
        <time>2010-11-28T08:58:53Z</time>
      </trkpt>
      <trkpt lat="43.60161" lon="3.72017">
        <ele>241.5</ele>
        <time>2010-11-28T08:58:55Z</time>
      </trkpt>
      <trkpt lat="43.60166" lon="3.72022">
        <ele>241.5</ele>
        <time>2010-11-28T08:58:57Z</time>
      </trkpt>
      <trkpt lat="43.60172" lon="3.72026">
        <ele>241.6</ele>
        <time>2010-11-28T08:58:59Z</time>
      </trkpt>
      <trkpt lat="43.60177" lon="3.72028">
        <ele>241.7</ele>
        <time>2010-11-28T08:59:01Z</time>
      </trkpt>
      <trkpt lat="43.60186" lon="3.72029">
        <ele>242.5</ele>
        <time>2010-11-28T08:59:04Z</time>
      </trkpt>
      <trkpt lat="43.60189" lon="3.72029">
        <ele>242.5</ele>
        <time>2010-11-28T08:59:05Z</time>
      </trkpt>
      <trkpt lat="43.60203" lon="3.72024">
        <ele>243.6</ele>
        <time>2010-11-28T08:59:10Z</time>
      </trkpt>
      <trkpt lat="43.6021" lon="3.72017">
        <ele>244.4</ele>
        <time>2010-11-28T08:59:13Z</time>
      </trkpt>
      <trkpt lat="43.60215" lon="3.72009">
        <ele>245</ele>
        <time>2010-11-28T08:59:16Z</time>
      </trkpt>
      <trkpt lat="43.60221" lon="3.72002">
        <ele>245.5</ele>
        <time>2010-11-28T08:59:19Z</time>
      </trkpt>
      <trkpt lat="43.60229" lon="3.71995">
        <ele>246.2</ele>
        <time>2010-11-28T08:59:22Z</time>
      </trkpt>
      <trkpt lat="43.60237" lon="3.71994">
        <ele>246.4</ele>
        <time>2010-11-28T08:59:25Z</time>
      </trkpt>
      <trkpt lat="43.60245" lon="3.71999">
        <ele>246.5</ele>
        <time>2010-11-28T08:59:28Z</time>
      </trkpt>
      <trkpt lat="43.60249" lon="3.72008">
        <ele>247</ele>
        <time>2010-11-28T08:59:31Z</time>
      </trkpt>
      <trkpt lat="43.60254" lon="3.72017">
        <ele>248.3</ele>
        <time>2010-11-28T08:59:35Z</time>
      </trkpt>
      <trkpt lat="43.6026" lon="3.72026">
        <ele>248.8</ele>
        <time>2010-11-28T09:00:16Z</time>
      </trkpt>
      <trkpt lat="43.60261" lon="3.72026">
        <ele>248.8</ele>
        <time>2010-11-28T09:00:17Z</time>
      </trkpt>
      <trkpt lat="43.60276" lon="3.72007">
        <ele>249</ele>
        <time>2010-11-28T09:00:27Z</time>
      </trkpt>
      <trkpt lat="43.6028" lon="3.72">
        <ele>248.7</ele>
        <time>2010-11-28T09:00:30Z</time>
      </trkpt>
      <trkpt lat="43.60284" lon="3.71993">
        <ele>248.5</ele>
        <time>2010-11-28T09:00:32Z</time>
      </trkpt>
      <trkpt lat="43.60289" lon="3.71985">
        <ele>248.4</ele>
        <time>2010-11-28T09:00:34Z</time>
      </trkpt>
      <trkpt lat="43.60293" lon="3.71977">
        <ele>248.7</ele>
        <time>2010-11-28T09:00:36Z</time>
      </trkpt>
      <trkpt lat="43.60298" lon="3.7197">
        <ele>248.5</ele>
        <time>2010-11-28T09:00:38Z</time>
      </trkpt>
      <trkpt lat="43.60303" lon="3.71961">
        <ele>248.2</ele>
        <time>2010-11-28T09:00:40Z</time>
      </trkpt>
      <trkpt lat="43.60309" lon="3.71953">
        <ele>247.7</ele>
        <time>2010-11-28T09:00:42Z</time>
      </trkpt>
      <trkpt lat="43.60312" lon="3.71948">
        <ele>247.5</ele>
        <time>2010-11-28T09:00:43Z</time>
      </trkpt>
      <trkpt lat="43.60315" lon="3.71944">
        <ele>247</ele>
        <time>2010-11-28T09:00:44Z</time>
      </trkpt>
      <trkpt lat="43.60318" lon="3.71938">
        <ele>246.6</ele>
        <time>2010-11-28T09:00:45Z</time>
      </trkpt>
      <trkpt lat="43.60322" lon="3.71933">
        <ele>246.3</ele>
        <time>2010-11-28T09:00:46Z</time>
      </trkpt>
      <trkpt lat="43.60325" lon="3.71928">
        <ele>246.1</ele>
        <time>2010-11-28T09:00:47Z</time>
      </trkpt>
      <trkpt lat="43.60329" lon="3.71922">
        <ele>245.9</ele>
        <time>2010-11-28T09:00:48Z</time>
      </trkpt>
      <trkpt lat="43.60333" lon="3.71916">
        <ele>245.8</ele>
        <time>2010-11-28T09:00:49Z</time>
      </trkpt>
      <trkpt lat="43.60336" lon="3.71911">
        <ele>245.7</ele>
        <time>2010-11-28T09:00:50Z</time>
      </trkpt>
      <trkpt lat="43.6034" lon="3.71905">
        <ele>245.4</ele>
        <time>2010-11-28T09:00:51Z</time>
      </trkpt>
      <trkpt lat="43.60344" lon="3.71898">
        <ele>245.2</ele>
        <time>2010-11-28T09:00:52Z</time>
      </trkpt>
      <trkpt lat="43.60348" lon="3.71892">
        <ele>245.1</ele>
        <time>2010-11-28T09:00:53Z</time>
      </trkpt>
      <trkpt lat="43.60352" lon="3.71886">
        <ele>244.6</ele>
        <time>2010-11-28T09:00:54Z</time>
      </trkpt>
      <trkpt lat="43.60355" lon="3.7188">
        <ele>244.2</ele>
        <time>2010-11-28T09:00:55Z</time>
      </trkpt>
      <trkpt lat="43.60359" lon="3.71874">
        <ele>243.9</ele>
        <time>2010-11-28T09:00:56Z</time>
      </trkpt>
      <trkpt lat="43.60363" lon="3.71868">
        <ele>243.5</ele>
        <time>2010-11-28T09:00:57Z</time>
      </trkpt>
      <trkpt lat="43.60367" lon="3.71862">
        <ele>243.2</ele>
        <time>2010-11-28T09:00:58Z</time>
      </trkpt>
      <trkpt lat="43.60371" lon="3.71856">
        <ele>243</ele>
        <time>2010-11-28T09:00:59Z</time>
      </trkpt>
      <trkpt lat="43.60375" lon="3.71849">
        <ele>242</ele>
        <time>2010-11-28T09:01:00Z</time>
      </trkpt>
      <trkpt lat="43.60379" lon="3.71843">
        <ele>241.2</ele>
        <time>2010-11-28T09:01:01Z</time>
      </trkpt>
      <trkpt lat="43.60383" lon="3.71836">
        <ele>240.6</ele>
        <time>2010-11-28T09:01:02Z</time>
      </trkpt>
      <trkpt lat="43.60387" lon="3.71829">
        <ele>240.2</ele>
        <time>2010-11-28T09:01:03Z</time>
      </trkpt>
      <trkpt lat="43.60392" lon="3.71823">
        <ele>239.7</ele>
        <time>2010-11-28T09:01:04Z</time>
      </trkpt>
      <trkpt lat="43.60396" lon="3.71817">
        <ele>239.4</ele>
        <time>2010-11-28T09:01:05Z</time>
      </trkpt>
      <trkpt lat="43.604" lon="3.71811">
        <ele>239.1</ele>
        <time>2010-11-28T09:01:06Z</time>
      </trkpt>
      <trkpt lat="43.60403" lon="3.71805">
        <ele>238.9</ele>
        <time>2010-11-28T09:01:07Z</time>
      </trkpt>
      <trkpt lat="43.60407" lon="3.718">
        <ele>238.8</ele>
        <time>2010-11-28T09:01:08Z</time>
      </trkpt>
      <trkpt lat="43.60411" lon="3.71795">
        <ele>238.7</ele>
        <time>2010-11-28T09:01:09Z</time>
      </trkpt>
      <trkpt lat="43.60414" lon="3.7179">
        <ele>238.5</ele>
        <time>2010-11-28T09:01:10Z</time>
      </trkpt>
      <trkpt lat="43.60418" lon="3.71785">
        <ele>238.3</ele>
        <time>2010-11-28T09:01:11Z</time>
      </trkpt>
      <trkpt lat="43.60422" lon="3.71781">
        <ele>238.1</ele>
        <time>2010-11-28T09:01:12Z</time>
      </trkpt>
      <trkpt lat="43.60425" lon="3.71777">
        <ele>237.9</ele>
        <time>2010-11-28T09:01:13Z</time>
      </trkpt>
      <trkpt lat="43.60429" lon="3.71773">
        <ele>237.7</ele>
        <time>2010-11-28T09:01:14Z</time>
      </trkpt>
      <trkpt lat="43.60434" lon="3.71769">
        <ele>237.5</ele>
        <time>2010-11-28T09:01:15Z</time>
      </trkpt>
      <trkpt lat="43.60439" lon="3.71766">
        <ele>237.3</ele>
        <time>2010-11-28T09:01:16Z</time>
      </trkpt>
      <trkpt lat="43.60444" lon="3.71764">
        <ele>237.1</ele>
        <time>2010-11-28T09:01:17Z</time>
      </trkpt>
      <trkpt lat="43.6045" lon="3.71763">
        <ele>237</ele>
        <time>2010-11-28T09:01:18Z</time>
      </trkpt>
      <trkpt lat="43.60456" lon="3.71763">
        <ele>236.8</ele>
        <time>2010-11-28T09:01:19Z</time>
      </trkpt>
      <trkpt lat="43.60463" lon="3.71762">
        <ele>236.6</ele>
        <time>2010-11-28T09:01:20Z</time>
      </trkpt>
      <trkpt lat="43.6047" lon="3.7176">
        <ele>236.5</ele>
        <time>2010-11-28T09:01:21Z</time>
      </trkpt>
      <trkpt lat="43.60477" lon="3.71757">
        <ele>236.4</ele>
        <time>2010-11-28T09:01:22Z</time>
      </trkpt>
      <trkpt lat="43.60484" lon="3.71755">
        <ele>235.8</ele>
        <time>2010-11-28T09:01:23Z</time>
      </trkpt>
      <trkpt lat="43.60491" lon="3.71752">
        <ele>235.3</ele>
        <time>2010-11-28T09:01:24Z</time>
      </trkpt>
      <trkpt lat="43.60498" lon="3.7175">
        <ele>234.9</ele>
        <time>2010-11-28T09:01:25Z</time>
      </trkpt>
      <trkpt lat="43.60505" lon="3.71748">
        <ele>234.4</ele>
        <time>2010-11-28T09:01:26Z</time>
      </trkpt>
      <trkpt lat="43.60511" lon="3.71747">
        <ele>234</ele>
        <time>2010-11-28T09:01:27Z</time>
      </trkpt>
      <trkpt lat="43.60518" lon="3.71748">
        <ele>233.7</ele>
        <time>2010-11-28T09:01:28Z</time>
      </trkpt>
      <trkpt lat="43.60524" lon="3.7175">
        <ele>233.1</ele>
        <time>2010-11-28T09:01:29Z</time>
      </trkpt>
      <trkpt lat="43.60531" lon="3.71754">
        <ele>232.7</ele>
        <time>2010-11-28T09:01:30Z</time>
      </trkpt>
      <trkpt lat="43.60537" lon="3.71758">
        <ele>232.4</ele>
        <time>2010-11-28T09:01:31Z</time>
      </trkpt>
      <trkpt lat="43.60544" lon="3.71763">
        <ele>231.6</ele>
        <time>2010-11-28T09:01:32Z</time>
      </trkpt>
      <trkpt lat="43.60551" lon="3.71767">
        <ele>230.9</ele>
        <time>2010-11-28T09:01:33Z</time>
      </trkpt>
      <trkpt lat="43.60558" lon="3.71772">
        <ele>230.5</ele>
        <time>2010-11-28T09:01:34Z</time>
      </trkpt>
      <trkpt lat="43.60565" lon="3.71776">
        <ele>229</ele>
        <time>2010-11-28T09:01:35Z</time>
      </trkpt>
      <trkpt lat="43.60573" lon="3.7178">
        <ele>228</ele>
        <time>2010-11-28T09:01:36Z</time>
      </trkpt>
      <trkpt lat="43.60581" lon="3.71785">
        <ele>227.2</ele>
        <time>2010-11-28T09:01:37Z</time>
      </trkpt>
      <trkpt lat="43.60588" lon="3.7179">
        <ele>226.6</ele>
        <time>2010-11-28T09:01:38Z</time>
      </trkpt>
      <trkpt lat="43.60596" lon="3.71795">
        <ele>226</ele>
        <time>2010-11-28T09:01:39Z</time>
      </trkpt>
      <trkpt lat="43.60604" lon="3.71799">
        <ele>225.6</ele>
        <time>2010-11-28T09:01:40Z</time>
      </trkpt>
      <trkpt lat="43.60611" lon="3.71804">
        <ele>225.3</ele>
        <time>2010-11-28T09:01:41Z</time>
      </trkpt>
      <trkpt lat="43.60619" lon="3.71809">
        <ele>224.5</ele>
        <time>2010-11-28T09:01:42Z</time>
      </trkpt>
      <trkpt lat="43.60627" lon="3.71812">
        <ele>223.9</ele>
        <time>2010-11-28T09:01:43Z</time>
      </trkpt>
      <trkpt lat="43.60635" lon="3.71815">
        <ele>223.5</ele>
        <time>2010-11-28T09:01:44Z</time>
      </trkpt>
      <trkpt lat="43.60641" lon="3.71817">
        <ele>222.6</ele>
        <time>2010-11-28T09:01:45Z</time>
      </trkpt>
      <trkpt lat="43.6065" lon="3.71816">
        <ele>221.4</ele>
        <time>2010-11-28T09:01:47Z</time>
      </trkpt>
      <trkpt lat="43.60653" lon="3.71807">
        <ele>219.9</ele>
        <time>2010-11-28T09:01:50Z</time>
      </trkpt>
      <trkpt lat="43.6065" lon="3.71799">
        <ele>218.5</ele>
        <time>2010-11-28T09:01:52Z</time>
      </trkpt>
      <trkpt lat="43.60645" lon="3.71788">
        <ele>217.7</ele>
        <time>2010-11-28T09:01:54Z</time>
      </trkpt>
      <trkpt lat="43.60642" lon="3.71782">
        <ele>217.5</ele>
        <time>2010-11-28T09:01:55Z</time>
      </trkpt>
      <trkpt lat="43.6064" lon="3.71777">
        <ele>217.3</ele>
        <time>2010-11-28T09:01:56Z</time>
      </trkpt>
      <trkpt lat="43.60636" lon="3.71771">
        <ele>217.1</ele>
        <time>2010-11-28T09:01:57Z</time>
      </trkpt>
      <trkpt lat="43.60633" lon="3.71765">
        <ele>216.6</ele>
        <time>2010-11-28T09:01:58Z</time>
      </trkpt>
      <trkpt lat="43.6063" lon="3.71759">
        <ele>216.3</ele>
        <time>2010-11-28T09:01:59Z</time>
      </trkpt>
      <trkpt lat="43.60626" lon="3.71753">
        <ele>216</ele>
        <time>2010-11-28T09:02:00Z</time>
      </trkpt>
      <trkpt lat="43.60622" lon="3.71748">
        <ele>215.2</ele>
        <time>2010-11-28T09:02:01Z</time>
      </trkpt>
      <trkpt lat="43.60618" lon="3.71742">
        <ele>214.5</ele>
        <time>2010-11-28T09:02:02Z</time>
      </trkpt>
      <trkpt lat="43.60613" lon="3.71736">
        <ele>214.1</ele>
        <time>2010-11-28T09:02:03Z</time>
      </trkpt>
      <trkpt lat="43.6061" lon="3.7173">
        <ele>213</ele>
        <time>2010-11-28T09:02:04Z</time>
      </trkpt>
      <trkpt lat="43.60608" lon="3.71723">
        <ele>212.2</ele>
        <time>2010-11-28T09:02:05Z</time>
      </trkpt>
      <trkpt lat="43.60608" lon="3.71716">
        <ele>211.7</ele>
        <time>2010-11-28T09:02:06Z</time>
      </trkpt>
      <trkpt lat="43.6061" lon="3.7171">
        <ele>211.2</ele>
        <time>2010-11-28T09:02:07Z</time>
      </trkpt>
      <trkpt lat="43.60615" lon="3.71701">
        <ele>210.5</ele>
        <time>2010-11-28T09:02:09Z</time>
      </trkpt>
      <trkpt lat="43.60619" lon="3.71696">
        <ele>210.1</ele>
        <time>2010-11-28T09:02:10Z</time>
      </trkpt>
      <trkpt lat="43.60622" lon="3.71692">
        <ele>209.8</ele>
        <time>2010-11-28T09:02:11Z</time>
      </trkpt>
      <trkpt lat="43.60627" lon="3.71688">
        <ele>209.6</ele>
        <time>2010-11-28T09:02:12Z</time>
      </trkpt>
      <trkpt lat="43.60631" lon="3.71685">
        <ele>209.4</ele>
        <time>2010-11-28T09:02:13Z</time>
      </trkpt>
      <trkpt lat="43.60637" lon="3.71682">
        <ele>208.9</ele>
        <time>2010-11-28T09:02:14Z</time>
      </trkpt>
      <trkpt lat="43.60642" lon="3.7168">
        <ele>208.6</ele>
        <time>2010-11-28T09:02:15Z</time>
      </trkpt>
      <trkpt lat="43.60647" lon="3.71677">
        <ele>208.3</ele>
        <time>2010-11-28T09:02:16Z</time>
      </trkpt>
      <trkpt lat="43.60653" lon="3.71675">
        <ele>208.3</ele>
        <time>2010-11-28T09:02:17Z</time>
      </trkpt>
      <trkpt lat="43.60658" lon="3.71674">
        <ele>208.3</ele>
        <time>2010-11-28T09:02:18Z</time>
      </trkpt>
      <trkpt lat="43.60663" lon="3.71671">
        <ele>208.3</ele>
        <time>2010-11-28T09:02:19Z</time>
      </trkpt>
      <trkpt lat="43.60668" lon="3.71669">
        <ele>208</ele>
        <time>2010-11-28T09:02:20Z</time>
      </trkpt>
      <trkpt lat="43.60674" lon="3.71666">
        <ele>207.7</ele>
        <time>2010-11-28T09:02:21Z</time>
      </trkpt>
      <trkpt lat="43.60679" lon="3.71663">
        <ele>207.5</ele>
        <time>2010-11-28T09:02:22Z</time>
      </trkpt>
      <trkpt lat="43.60684" lon="3.7166">
        <ele>207.4</ele>
        <time>2010-11-28T09:02:23Z</time>
      </trkpt>
      <trkpt lat="43.60689" lon="3.71655">
        <ele>207.2</ele>
        <time>2010-11-28T09:02:24Z</time>
      </trkpt>
      <trkpt lat="43.60694" lon="3.7165">
        <ele>207.1</ele>
        <time>2010-11-28T09:02:25Z</time>
      </trkpt>
      <trkpt lat="43.60698" lon="3.71644">
        <ele>206.9</ele>
        <time>2010-11-28T09:02:26Z</time>
      </trkpt>
      <trkpt lat="43.60701" lon="3.71638">
        <ele>206.8</ele>
        <time>2010-11-28T09:02:27Z</time>
      </trkpt>
      <trkpt lat="43.60704" lon="3.7163">
        <ele>206.7</ele>
        <time>2010-11-28T09:02:28Z</time>
      </trkpt>
      <trkpt lat="43.60707" lon="3.71622">
        <ele>206.6</ele>
        <time>2010-11-28T09:02:29Z</time>
      </trkpt>
      <trkpt lat="43.60708" lon="3.71614">
        <ele>206.1</ele>
        <time>2010-11-28T09:02:30Z</time>
      </trkpt>
      <trkpt lat="43.60709" lon="3.71606">
        <ele>205.8</ele>
        <time>2010-11-28T09:02:31Z</time>
      </trkpt>
      <trkpt lat="43.6071" lon="3.71598">
        <ele>205.6</ele>
        <time>2010-11-28T09:02:32Z</time>
      </trkpt>
      <trkpt lat="43.6071" lon="3.71589">
        <ele>204.9</ele>
        <time>2010-11-28T09:02:33Z</time>
      </trkpt>
      <trkpt lat="43.6071" lon="3.7158">
        <ele>204.4</ele>
        <time>2010-11-28T09:02:34Z</time>
      </trkpt>
      <trkpt lat="43.6071" lon="3.71571">
        <ele>204.1</ele>
        <time>2010-11-28T09:02:35Z</time>
      </trkpt>
      <trkpt lat="43.60709" lon="3.71563">
        <ele>203.5</ele>
        <time>2010-11-28T09:02:36Z</time>
      </trkpt>
      <trkpt lat="43.60708" lon="3.71555">
        <ele>203.1</ele>
        <time>2010-11-28T09:02:37Z</time>
      </trkpt>
      <trkpt lat="43.60707" lon="3.71548">
        <ele>202.8</ele>
        <time>2010-11-28T09:02:38Z</time>
      </trkpt>
      <trkpt lat="43.60705" lon="3.71541">
        <ele>202.2</ele>
        <time>2010-11-28T09:02:39Z</time>
      </trkpt>
      <trkpt lat="43.60704" lon="3.71534">
        <ele>201.8</ele>
        <time>2010-11-28T09:02:40Z</time>
      </trkpt>
      <trkpt lat="43.60701" lon="3.71523">
        <ele>200.8</ele>
        <time>2010-11-28T09:02:42Z</time>
      </trkpt>
      <trkpt lat="43.60697" lon="3.71513">
        <ele>200</ele>
        <time>2010-11-28T09:02:44Z</time>
      </trkpt>
      <trkpt lat="43.60692" lon="3.71504">
        <ele>198.3</ele>
        <time>2010-11-28T09:02:46Z</time>
      </trkpt>
      <trkpt lat="43.60687" lon="3.71496">
        <ele>197.1</ele>
        <time>2010-11-28T09:02:49Z</time>
      </trkpt>
      <trkpt lat="43.60682" lon="3.71488">
        <ele>196.4</ele>
        <time>2010-11-28T09:02:52Z</time>
      </trkpt>
      <trkpt lat="43.60678" lon="3.71483">
        <ele>195.8</ele>
        <time>2010-11-28T09:02:54Z</time>
      </trkpt>
      <trkpt lat="43.60672" lon="3.71479">
        <ele>194.9</ele>
        <time>2010-11-28T09:02:56Z</time>
      </trkpt>
      <trkpt lat="43.60665" lon="3.71475">
        <ele>194.4</ele>
        <time>2010-11-28T09:02:58Z</time>
      </trkpt>
      <trkpt lat="43.60658" lon="3.7147">
        <ele>194.2</ele>
        <time>2010-11-28T09:03:00Z</time>
      </trkpt>
      <trkpt lat="43.60653" lon="3.71464">
        <ele>193.5</ele>
        <time>2010-11-28T09:03:02Z</time>
      </trkpt>
      <trkpt lat="43.60647" lon="3.71456">
        <ele>192.6</ele>
        <time>2010-11-28T09:03:04Z</time>
      </trkpt>
      <trkpt lat="43.60639" lon="3.71452">
        <ele>191.3</ele>
        <time>2010-11-28T09:03:06Z</time>
      </trkpt>
      <trkpt lat="43.60631" lon="3.7145">
        <ele>190.8</ele>
        <time>2010-11-28T09:03:08Z</time>
      </trkpt>
      <trkpt lat="43.60625" lon="3.71445">
        <ele>190.7</ele>
        <time>2010-11-28T09:03:10Z</time>
      </trkpt>
      <trkpt lat="43.60618" lon="3.71438">
        <ele>190.1</ele>
        <time>2010-11-28T09:03:13Z</time>
      </trkpt>
      <trkpt lat="43.60612" lon="3.71432">
        <ele>188.3</ele>
        <time>2010-11-28T09:03:16Z</time>
      </trkpt>
      <trkpt lat="43.60608" lon="3.71422">
        <ele>188.6</ele>
        <time>2010-11-28T09:03:19Z</time>
      </trkpt>
      <trkpt lat="43.60606" lon="3.71418">
        <ele>188.7</ele>
        <time>2010-11-28T09:03:20Z</time>
      </trkpt>
      <trkpt lat="43.60599" lon="3.71405">
        <ele>189.3</ele>
        <time>2010-11-28T09:03:23Z</time>
      </trkpt>
      <trkpt lat="43.60594" lon="3.71399">
        <ele>189.3</ele>
        <time>2010-11-28T09:03:25Z</time>
      </trkpt>
      <trkpt lat="43.60589" lon="3.7139">
        <ele>189.1</ele>
        <time>2010-11-28T09:03:27Z</time>
      </trkpt>
      <trkpt lat="43.60586" lon="3.71384">
        <ele>188.9</ele>
        <time>2010-11-28T09:03:28Z</time>
      </trkpt>
      <trkpt lat="43.60584" lon="3.71378">
        <ele>188.8</ele>
        <time>2010-11-28T09:03:29Z</time>
      </trkpt>
      <trkpt lat="43.60579" lon="3.71369">
        <ele>187.8</ele>
        <time>2010-11-28T09:03:31Z</time>
      </trkpt>
      <trkpt lat="43.60576" lon="3.71359">
        <ele>187.2</ele>
        <time>2010-11-28T09:03:33Z</time>
      </trkpt>
      <trkpt lat="43.60573" lon="3.71348">
        <ele>186.5</ele>
        <time>2010-11-28T09:03:35Z</time>
      </trkpt>
      <trkpt lat="43.60572" lon="3.71341">
        <ele>186.2</ele>
        <time>2010-11-28T09:03:36Z</time>
      </trkpt>
      <trkpt lat="43.6057" lon="3.71334">
        <ele>185.6</ele>
        <time>2010-11-28T09:03:37Z</time>
      </trkpt>
      <trkpt lat="43.60568" lon="3.71328">
        <ele>185.1</ele>
        <time>2010-11-28T09:03:38Z</time>
      </trkpt>
      <trkpt lat="43.60565" lon="3.71317">
        <ele>184.4</ele>
        <time>2010-11-28T09:03:40Z</time>
      </trkpt>
      <trkpt lat="43.60561" lon="3.71309">
        <ele>184</ele>
        <time>2010-11-28T09:03:42Z</time>
      </trkpt>
      <trkpt lat="43.60556" lon="3.71299">
        <ele>183.6</ele>
        <time>2010-11-28T09:03:44Z</time>
      </trkpt>
      <trkpt lat="43.60552" lon="3.71291">
        <ele>183.7</ele>
        <time>2010-11-28T09:03:46Z</time>
      </trkpt>
      <trkpt lat="43.60546" lon="3.71281">
        <ele>184</ele>
        <time>2010-11-28T09:03:48Z</time>
      </trkpt>
      <trkpt lat="43.6054" lon="3.71273">
        <ele>183.5</ele>
        <time>2010-11-28T09:03:50Z</time>
      </trkpt>
      <trkpt lat="43.60537" lon="3.71262">
        <ele>183.3</ele>
        <time>2010-11-28T09:03:52Z</time>
      </trkpt>
      <trkpt lat="43.60532" lon="3.71251">
        <ele>182.1</ele>
        <time>2010-11-28T09:03:54Z</time>
      </trkpt>
      <trkpt lat="43.60527" lon="3.71242">
        <ele>180.9</ele>
        <time>2010-11-28T09:03:56Z</time>
      </trkpt>
      <trkpt lat="43.60521" lon="3.71234">
        <ele>179.8</ele>
        <time>2010-11-28T09:03:58Z</time>
      </trkpt>
      <trkpt lat="43.60515" lon="3.71225">
        <ele>178.5</ele>
        <time>2010-11-28T09:04:00Z</time>
      </trkpt>
      <trkpt lat="43.60509" lon="3.71219">
        <ele>177.7</ele>
        <time>2010-11-28T09:04:02Z</time>
      </trkpt>
      <trkpt lat="43.60504" lon="3.71215">
        <ele>177.1</ele>
        <time>2010-11-28T09:04:04Z</time>
      </trkpt>
      <trkpt lat="43.60499" lon="3.71208">
        <ele>176.6</ele>
        <time>2010-11-28T09:04:06Z</time>
      </trkpt>
      <trkpt lat="43.60493" lon="3.71202">
        <ele>176.3</ele>
        <time>2010-11-28T09:04:08Z</time>
      </trkpt>
      <trkpt lat="43.60488" lon="3.71195">
        <ele>175.7</ele>
        <time>2010-11-28T09:04:10Z</time>
      </trkpt>
      <trkpt lat="43.60482" lon="3.71187">
        <ele>174.4</ele>
        <time>2010-11-28T09:04:12Z</time>
      </trkpt>
      <trkpt lat="43.60475" lon="3.7118">
        <ele>173</ele>
        <time>2010-11-28T09:04:14Z</time>
      </trkpt>
      <trkpt lat="43.6047" lon="3.71172">
        <ele>172.4</ele>
        <time>2010-11-28T09:04:16Z</time>
      </trkpt>
      <trkpt lat="43.60462" lon="3.71168">
        <ele>171.7</ele>
        <time>2010-11-28T09:04:19Z</time>
      </trkpt>
      <trkpt lat="43.60454" lon="3.71164">
        <ele>169.5</ele>
        <time>2010-11-28T09:04:25Z</time>
      </trkpt>
      <trkpt lat="43.60453" lon="3.71163">
        <ele>169.1</ele>
        <time>2010-11-28T09:04:26Z</time>
      </trkpt>
      <trkpt lat="43.60443" lon="3.71154">
        <ele>167.9</ele>
        <time>2010-11-28T09:04:32Z</time>
      </trkpt>
      <trkpt lat="43.60437" lon="3.7115">
        <ele>167.5</ele>
        <time>2010-11-28T09:04:34Z</time>
      </trkpt>
      <trkpt lat="43.60429" lon="3.71145">
        <ele>166.9</ele>
        <time>2010-11-28T09:04:36Z</time>
      </trkpt>
      <trkpt lat="43.60425" lon="3.71143">
        <ele>166.4</ele>
        <time>2010-11-28T09:04:37Z</time>
      </trkpt>
      <trkpt lat="43.60416" lon="3.71141">
        <ele>165.7</ele>
        <time>2010-11-28T09:04:39Z</time>
      </trkpt>
      <trkpt lat="43.60409" lon="3.71141">
        <ele>164.8</ele>
        <time>2010-11-28T09:04:41Z</time>
      </trkpt>
      <trkpt lat="43.60401" lon="3.71137">
        <ele>163.5</ele>
        <time>2010-11-28T09:04:44Z</time>
      </trkpt>
      <trkpt lat="43.60394" lon="3.71132">
        <ele>161.8</ele>
        <time>2010-11-28T09:04:47Z</time>
      </trkpt>
      <trkpt lat="43.60386" lon="3.71127">
        <ele>160.8</ele>
        <time>2010-11-28T09:04:50Z</time>
      </trkpt>
      <trkpt lat="43.60379" lon="3.7112">
        <ele>160</ele>
        <time>2010-11-28T09:04:53Z</time>
      </trkpt>
      <trkpt lat="43.60374" lon="3.71114">
        <ele>159.5</ele>
        <time>2010-11-28T09:04:55Z</time>
      </trkpt>
      <trkpt lat="43.60367" lon="3.71106">
        <ele>156.4</ele>
        <time>2010-11-28T09:05:25Z</time>
      </trkpt>
      <trkpt lat="43.60375" lon="3.71102">
        <ele>157.5</ele>
        <time>2010-11-28T09:05:56Z</time>
      </trkpt>
      <trkpt lat="43.60377" lon="3.71102">
        <ele>157.3</ele>
        <time>2010-11-28T09:05:57Z</time>
      </trkpt>
      <trkpt lat="43.60391" lon="3.71105">
        <ele>157</ele>
        <time>2010-11-28T09:06:04Z</time>
      </trkpt>
      <trkpt lat="43.60399" lon="3.71105">
        <ele>157</ele>
        <time>2010-11-28T09:06:07Z</time>
      </trkpt>
      <trkpt lat="43.60406" lon="3.71105">
        <ele>157</ele>
        <time>2010-11-28T09:06:10Z</time>
      </trkpt>
      <trkpt lat="43.60414" lon="3.71104">
        <ele>157.1</ele>
        <time>2010-11-28T09:06:13Z</time>
      </trkpt>
      <trkpt lat="43.60422" lon="3.71104">
        <ele>157.5</ele>
        <time>2010-11-28T09:06:16Z</time>
      </trkpt>
      <trkpt lat="43.60431" lon="3.71103">
        <ele>157.8</ele>
        <time>2010-11-28T09:06:19Z</time>
      </trkpt>
      <trkpt lat="43.60437" lon="3.71101">
        <ele>157.5</ele>
        <time>2010-11-28T09:06:21Z</time>
      </trkpt>
      <trkpt lat="43.60445" lon="3.71095">
        <ele>158</ele>
        <time>2010-11-28T09:06:24Z</time>
      </trkpt>
      <trkpt lat="43.6045" lon="3.71087">
        <ele>158.2</ele>
        <time>2010-11-28T09:06:26Z</time>
      </trkpt>
      <trkpt lat="43.60453" lon="3.71077">
        <ele>158.1</ele>
        <time>2010-11-28T09:06:28Z</time>
      </trkpt>
      <trkpt lat="43.60457" lon="3.71068">
        <ele>158</ele>
        <time>2010-11-28T09:06:30Z</time>
      </trkpt>
      <trkpt lat="43.60462" lon="3.71058">
        <ele>157.9</ele>
        <time>2010-11-28T09:06:32Z</time>
      </trkpt>
      <trkpt lat="43.60468" lon="3.7105">
        <ele>157.8</ele>
        <time>2010-11-28T09:06:34Z</time>
      </trkpt>
      <trkpt lat="43.60474" lon="3.71041">
        <ele>158.1</ele>
        <time>2010-11-28T09:06:36Z</time>
      </trkpt>
      <trkpt lat="43.6048" lon="3.71033">
        <ele>158.2</ele>
        <time>2010-11-28T09:06:38Z</time>
      </trkpt>
      <trkpt lat="43.60486" lon="3.71026">
        <ele>158.2</ele>
        <time>2010-11-28T09:06:40Z</time>
      </trkpt>
      <trkpt lat="43.60492" lon="3.71019">
        <ele>158.2</ele>
        <time>2010-11-28T09:06:42Z</time>
      </trkpt>
      <trkpt lat="43.60496" lon="3.71008">
        <ele>158</ele>
        <time>2010-11-28T09:06:45Z</time>
      </trkpt>
      <trkpt lat="43.60492" lon="3.71001">
        <ele>157.5</ele>
        <time>2010-11-28T09:06:47Z</time>
      </trkpt>
      <trkpt lat="43.60488" lon="3.70994">
        <ele>157.6</ele>
        <time>2010-11-28T09:06:49Z</time>
      </trkpt>
      <trkpt lat="43.60485" lon="3.70987">
        <ele>157.9</ele>
        <time>2010-11-28T09:06:51Z</time>
      </trkpt>
      <trkpt lat="43.60482" lon="3.70979">
        <ele>158.4</ele>
        <time>2010-11-28T09:06:53Z</time>
      </trkpt>
      <trkpt lat="43.60482" lon="3.7097">
        <ele>158.6</ele>
        <time>2010-11-28T09:06:55Z</time>
      </trkpt>
      <trkpt lat="43.60481" lon="3.70957">
        <ele>158.6</ele>
        <time>2010-11-28T09:06:58Z</time>
      </trkpt>
      <trkpt lat="43.60481" lon="3.70953">
        <ele>158.5</ele>
        <time>2010-11-28T09:06:59Z</time>
      </trkpt>
      <trkpt lat="43.60473" lon="3.70938">
        <ele>158.9</ele>
        <time>2010-11-28T09:07:04Z</time>
      </trkpt>
      <trkpt lat="43.60466" lon="3.70934">
        <ele>160</ele>
        <time>2010-11-28T09:07:07Z</time>
      </trkpt>
      <trkpt lat="43.6046" lon="3.7093">
        <ele>160.8</ele>
        <time>2010-11-28T09:07:10Z</time>
      </trkpt>
      <trkpt lat="43.60452" lon="3.70926">
        <ele>161.1</ele>
        <time>2010-11-28T09:07:14Z</time>
      </trkpt>
      <trkpt lat="43.60444" lon="3.70922">
        <ele>162.6</ele>
        <time>2010-11-28T09:07:18Z</time>
      </trkpt>
      <trkpt lat="43.60438" lon="3.70915">
        <ele>163.5</ele>
        <time>2010-11-28T09:07:22Z</time>
      </trkpt>
      <trkpt lat="43.60435" lon="3.70905">
        <ele>164.5</ele>
        <time>2010-11-28T09:07:26Z</time>
      </trkpt>
      <trkpt lat="43.60432" lon="3.70895">
        <ele>164.5</ele>
        <time>2010-11-28T09:07:30Z</time>
      </trkpt>
      <trkpt lat="43.6043" lon="3.70884">
        <ele>165.3</ele>
        <time>2010-11-28T09:07:34Z</time>
      </trkpt>
      <trkpt lat="43.60428" lon="3.70873">
        <ele>166.8</ele>
        <time>2010-11-28T09:07:38Z</time>
      </trkpt>
      <trkpt lat="43.60427" lon="3.70863">
        <ele>167.9</ele>
        <time>2010-11-28T09:07:42Z</time>
      </trkpt>
      <trkpt lat="43.60425" lon="3.70852">
        <ele>167.9</ele>
        <time>2010-11-28T09:07:46Z</time>
      </trkpt>
      <trkpt lat="43.60423" lon="3.70841">
        <ele>168.4</ele>
        <time>2010-11-28T09:07:50Z</time>
      </trkpt>
      <trkpt lat="43.60421" lon="3.7083">
        <ele>169.5</ele>
        <time>2010-11-28T09:07:54Z</time>
      </trkpt>
      <trkpt lat="43.60419" lon="3.70819">
        <ele>170.9</ele>
        <time>2010-11-28T09:07:58Z</time>
      </trkpt>
      <trkpt lat="43.60417" lon="3.70809">
        <ele>171.5</ele>
        <time>2010-11-28T09:08:02Z</time>
      </trkpt>
      <trkpt lat="43.60416" lon="3.70807">
        <ele>171.6</ele>
        <time>2010-11-28T09:08:03Z</time>
      </trkpt>
      <trkpt lat="43.60413" lon="3.70788">
        <ele>173.2</ele>
        <time>2010-11-28T09:08:10Z</time>
      </trkpt>
      <trkpt lat="43.60411" lon="3.70778">
        <ele>174</ele>
        <time>2010-11-28T09:08:14Z</time>
      </trkpt>
      <trkpt lat="43.60409" lon="3.70767">
        <ele>175</ele>
        <time>2010-11-28T09:08:18Z</time>
      </trkpt>
      <trkpt lat="43.60409" lon="3.70756">
        <ele>175.5</ele>
        <time>2010-11-28T09:08:22Z</time>
      </trkpt>
      <trkpt lat="43.60409" lon="3.70746">
        <ele>176.2</ele>
        <time>2010-11-28T09:08:26Z</time>
      </trkpt>
      <trkpt lat="43.60409" lon="3.70735">
        <ele>177.4</ele>
        <time>2010-11-28T09:08:30Z</time>
      </trkpt>
      <trkpt lat="43.60407" lon="3.70725">
        <ele>178</ele>
        <time>2010-11-28T09:08:34Z</time>
      </trkpt>
      <trkpt lat="43.60401" lon="3.70718">
        <ele>178.9</ele>
        <time>2010-11-28T09:08:39Z</time>
      </trkpt>
      <trkpt lat="43.60392" lon="3.70717">
        <ele>179.6</ele>
        <time>2010-11-28T09:08:44Z</time>
      </trkpt>
      <trkpt lat="43.60384" lon="3.7072">
        <ele>181</ele>
        <time>2010-11-28T09:08:48Z</time>
      </trkpt>
      <trkpt lat="43.60377" lon="3.70723">
        <ele>180.2</ele>
        <time>2010-11-28T09:08:53Z</time>
      </trkpt>
      <trkpt lat="43.60369" lon="3.70726">
        <ele>180.6</ele>
        <time>2010-11-28T09:08:57Z</time>
      </trkpt>
      <trkpt lat="43.60361" lon="3.7073">
        <ele>182</ele>
        <time>2010-11-28T09:09:01Z</time>
      </trkpt>
      <trkpt lat="43.60353" lon="3.7073">
        <ele>181.2</ele>
        <time>2010-11-28T09:09:05Z</time>
      </trkpt>
      <trkpt lat="43.60352" lon="3.70728">
        <ele>181.5</ele>
        <time>2010-11-28T09:09:06Z</time>
      </trkpt>
      <trkpt lat="43.6035" lon="3.7071">
        <ele>183.2</ele>
        <time>2010-11-28T09:09:13Z</time>
      </trkpt>
      <trkpt lat="43.6035" lon="3.70699">
        <ele>184.7</ele>
        <time>2010-11-28T09:09:17Z</time>
      </trkpt>
      <trkpt lat="43.60351" lon="3.70688">
        <ele>185.3</ele>
        <time>2010-11-28T09:09:21Z</time>
      </trkpt>
      <trkpt lat="43.60353" lon="3.70676">
        <ele>186</ele>
        <time>2010-11-28T09:09:26Z</time>
      </trkpt>
      <trkpt lat="43.60355" lon="3.70666">
        <ele>186</ele>
        <time>2010-11-28T09:09:30Z</time>
      </trkpt>
      <trkpt lat="43.60357" lon="3.70654">
        <ele>187.9</ele>
        <time>2010-11-28T09:09:35Z</time>
      </trkpt>
      <trkpt lat="43.60359" lon="3.70645">
        <ele>188.8</ele>
        <time>2010-11-28T09:09:39Z</time>
      </trkpt>
      <trkpt lat="43.60361" lon="3.70633">
        <ele>189.2</ele>
        <time>2010-11-28T09:09:44Z</time>
      </trkpt>
      <trkpt lat="43.60362" lon="3.70622">
        <ele>189.4</ele>
        <time>2010-11-28T09:09:49Z</time>
      </trkpt>
      <trkpt lat="43.60363" lon="3.70612">
        <ele>191.3</ele>
        <time>2010-11-28T09:09:54Z</time>
      </trkpt>
      <trkpt lat="43.60365" lon="3.706">
        <ele>191.2</ele>
        <time>2010-11-28T09:09:59Z</time>
      </trkpt>
      <trkpt lat="43.60367" lon="3.70588">
        <ele>192.9</ele>
        <time>2010-11-28T09:10:04Z</time>
      </trkpt>
      <trkpt lat="43.6037" lon="3.70578">
        <ele>194.3</ele>
        <time>2010-11-28T09:10:09Z</time>
      </trkpt>
      <trkpt lat="43.60371" lon="3.70576">
        <ele>194.6</ele>
        <time>2010-11-28T09:10:10Z</time>
      </trkpt>
      <trkpt lat="43.60378" lon="3.70556">
        <ele>195.7</ele>
        <time>2010-11-28T09:10:19Z</time>
      </trkpt>
      <trkpt lat="43.6038" lon="3.70546">
        <ele>195.6</ele>
        <time>2010-11-28T09:10:23Z</time>
      </trkpt>
      <trkpt lat="43.60382" lon="3.70536">
        <ele>195.9</ele>
        <time>2010-11-28T09:10:27Z</time>
      </trkpt>
      <trkpt lat="43.60385" lon="3.70526">
        <ele>195.6</ele>
        <time>2010-11-28T09:10:31Z</time>
      </trkpt>
      <trkpt lat="43.60388" lon="3.70515">
        <ele>196.2</ele>
        <time>2010-11-28T09:10:35Z</time>
      </trkpt>
      <trkpt lat="43.6039" lon="3.70505">
        <ele>196.8</ele>
        <time>2010-11-28T09:10:39Z</time>
      </trkpt>
      <trkpt lat="43.60392" lon="3.70495">
        <ele>198</ele>
        <time>2010-11-28T09:10:43Z</time>
      </trkpt>
      <trkpt lat="43.60395" lon="3.70484">
        <ele>198.2</ele>
        <time>2010-11-28T09:10:47Z</time>
      </trkpt>
      <trkpt lat="43.60398" lon="3.70474">
        <ele>198.8</ele>
        <time>2010-11-28T09:10:51Z</time>
      </trkpt>
      <trkpt lat="43.60402" lon="3.70465">
        <ele>201.3</ele>
        <time>2010-11-28T09:10:55Z</time>
      </trkpt>
      <trkpt lat="43.60405" lon="3.70454">
        <ele>201</ele>
        <time>2010-11-28T09:10:59Z</time>
      </trkpt>
      <trkpt lat="43.60401" lon="3.70445">
        <ele>201.6</ele>
        <time>2010-11-28T09:11:03Z</time>
      </trkpt>
      <trkpt lat="43.60395" lon="3.70438">
        <ele>203.3</ele>
        <time>2010-11-28T09:11:07Z</time>
      </trkpt>
      <trkpt lat="43.60388" lon="3.70433">
        <ele>204.3</ele>
        <time>2010-11-28T09:11:10Z</time>
      </trkpt>
      <trkpt lat="43.60386" lon="3.70431">
        <ele>204.5</ele>
        <time>2010-11-28T09:11:11Z</time>
      </trkpt>
      <trkpt lat="43.60376" lon="3.70419">
        <ele>204</ele>
        <time>2010-11-28T09:11:15Z</time>
      </trkpt>
      <trkpt lat="43.6037" lon="3.70414">
        <ele>203.8</ele>
        <time>2010-11-28T09:11:17Z</time>
      </trkpt>
      <trkpt lat="43.60364" lon="3.70409">
        <ele>203.3</ele>
        <time>2010-11-28T09:11:19Z</time>
      </trkpt>
      <trkpt lat="43.60358" lon="3.70404">
        <ele>202.7</ele>
        <time>2010-11-28T09:11:21Z</time>
      </trkpt>
      <trkpt lat="43.60349" lon="3.70402">
        <ele>200.1</ele>
        <time>2010-11-28T09:12:44Z</time>
      </trkpt>
      <trkpt lat="43.60349" lon="3.70402">
        <ele>200.3</ele>
        <time>2010-11-28T09:12:45Z</time>
      </trkpt>
      <trkpt lat="43.60342" lon="3.70392">
        <ele>199.7</ele>
        <time>2010-11-28T09:15:10Z</time>
      </trkpt>
      <trkpt lat="43.60331" lon="3.70385">
        <ele>198.7</ele>
        <time>2010-11-28T09:15:15Z</time>
      </trkpt>
      <trkpt lat="43.60325" lon="3.70381">
        <ele>199.3</ele>
        <time>2010-11-28T09:15:18Z</time>
      </trkpt>
      <trkpt lat="43.6032" lon="3.70374">
        <ele>200.5</ele>
        <time>2010-11-28T09:15:21Z</time>
      </trkpt>
      <trkpt lat="43.60315" lon="3.70367">
        <ele>200.7</ele>
        <time>2010-11-28T09:15:24Z</time>
      </trkpt>
      <trkpt lat="43.60307" lon="3.70364">
        <ele>201.2</ele>
        <time>2010-11-28T09:15:28Z</time>
      </trkpt>
      <trkpt lat="43.603" lon="3.70363">
        <ele>201.7</ele>
        <time>2010-11-28T09:15:32Z</time>
      </trkpt>
      <trkpt lat="43.60291" lon="3.70361">
        <ele>203</ele>
        <time>2010-11-28T09:15:36Z</time>
      </trkpt>
      <trkpt lat="43.60283" lon="3.70358">
        <ele>205.1</ele>
        <time>2010-11-28T09:15:40Z</time>
      </trkpt>
      <trkpt lat="43.60275" lon="3.70356">
        <ele>205.8</ele>
        <time>2010-11-28T09:15:44Z</time>
      </trkpt>
      <trkpt lat="43.60267" lon="3.70353">
        <ele>206.1</ele>
        <time>2010-11-28T09:15:48Z</time>
      </trkpt>
      <trkpt lat="43.6026" lon="3.7035">
        <ele>207</ele>
        <time>2010-11-28T09:15:52Z</time>
      </trkpt>
      <trkpt lat="43.60253" lon="3.70346">
        <ele>210.1</ele>
        <time>2010-11-28T09:15:56Z</time>
      </trkpt>
      <trkpt lat="43.60246" lon="3.7034">
        <ele>208.2</ele>
        <time>2010-11-28T09:16:00Z</time>
      </trkpt>
      <trkpt lat="43.60239" lon="3.70334">
        <ele>208.7</ele>
        <time>2010-11-28T09:16:04Z</time>
      </trkpt>
      <trkpt lat="43.60232" lon="3.70327">
        <ele>210.8</ele>
        <time>2010-11-28T09:16:08Z</time>
      </trkpt>
      <trkpt lat="43.60227" lon="3.70322">
        <ele>213.2</ele>
        <time>2010-11-28T09:16:11Z</time>
      </trkpt>
      <trkpt lat="43.60225" lon="3.7032">
        <ele>213.8</ele>
        <time>2010-11-28T09:16:12Z</time>
      </trkpt>
      <trkpt lat="43.60214" lon="3.70313">
        <ele>214.8</ele>
        <time>2010-11-28T09:16:17Z</time>
      </trkpt>
      <trkpt lat="43.60208" lon="3.70306">
        <ele>215.1</ele>
        <time>2010-11-28T09:16:20Z</time>
      </trkpt>
      <trkpt lat="43.60202" lon="3.70299">
        <ele>214.8</ele>
        <time>2010-11-28T09:16:23Z</time>
      </trkpt>
      <trkpt lat="43.60197" lon="3.70291">
        <ele>214.6</ele>
        <time>2010-11-28T09:16:26Z</time>
      </trkpt>
      <trkpt lat="43.60191" lon="3.70282">
        <ele>215.1</ele>
        <time>2010-11-28T09:16:29Z</time>
      </trkpt>
      <trkpt lat="43.60187" lon="3.70275">
        <ele>215.2</ele>
        <time>2010-11-28T09:16:31Z</time>
      </trkpt>
      <trkpt lat="43.60182" lon="3.70268">
        <ele>215</ele>
        <time>2010-11-28T09:16:33Z</time>
      </trkpt>
      <trkpt lat="43.60176" lon="3.70261">
        <ele>214.8</ele>
        <time>2010-11-28T09:16:35Z</time>
      </trkpt>
      <trkpt lat="43.60171" lon="3.70252">
        <ele>214.6</ele>
        <time>2010-11-28T09:16:37Z</time>
      </trkpt>
      <trkpt lat="43.60166" lon="3.70243">
        <ele>214.6</ele>
        <time>2010-11-28T09:16:39Z</time>
      </trkpt>
      <trkpt lat="43.60161" lon="3.70235">
        <ele>214.6</ele>
        <time>2010-11-28T09:16:41Z</time>
      </trkpt>
      <trkpt lat="43.60159" lon="3.70224">
        <ele>213.3</ele>
        <time>2010-11-28T09:16:44Z</time>
      </trkpt>
      <trkpt lat="43.60154" lon="3.70216">
        <ele>212.6</ele>
        <time>2010-11-28T09:16:47Z</time>
      </trkpt>
      <trkpt lat="43.60149" lon="3.70207">
        <ele>211.6</ele>
        <time>2010-11-28T09:16:50Z</time>
      </trkpt>
      <trkpt lat="43.60147" lon="3.70199">
        <ele>211.7</ele>
        <time>2010-11-28T09:16:52Z</time>
      </trkpt>
      <trkpt lat="43.60143" lon="3.7019">
        <ele>211.7</ele>
        <time>2010-11-28T09:16:54Z</time>
      </trkpt>
      <trkpt lat="43.60139" lon="3.70182">
        <ele>211.4</ele>
        <time>2010-11-28T09:16:56Z</time>
      </trkpt>
      <trkpt lat="43.60136" lon="3.70172">
        <ele>210.9</ele>
        <time>2010-11-28T09:16:58Z</time>
      </trkpt>
      <trkpt lat="43.60134" lon="3.70163">
        <ele>210.5</ele>
        <time>2010-11-28T09:17:00Z</time>
      </trkpt>
      <trkpt lat="43.60131" lon="3.70154">
        <ele>210.5</ele>
        <time>2010-11-28T09:17:02Z</time>
      </trkpt>
      <trkpt lat="43.60127" lon="3.70143">
        <ele>209.8</ele>
        <time>2010-11-28T09:17:06Z</time>
      </trkpt>
      <trkpt lat="43.60124" lon="3.70132">
        <ele>208.8</ele>
        <time>2010-11-28T09:17:23Z</time>
      </trkpt>
      <trkpt lat="43.60124" lon="3.70132">
        <ele>208.9</ele>
        <time>2010-11-28T09:17:24Z</time>
      </trkpt>
      <trkpt lat="43.60129" lon="3.70112">
        <ele>207.2</ele>
        <time>2010-11-28T09:18:15Z</time>
      </trkpt>
      <trkpt lat="43.60136" lon="3.70112">
        <ele>204.7</ele>
        <time>2010-11-28T09:18:20Z</time>
      </trkpt>
      <trkpt lat="43.60143" lon="3.70114">
        <ele>202.2</ele>
        <time>2010-11-28T09:18:23Z</time>
      </trkpt>
      <trkpt lat="43.60152" lon="3.70113">
        <ele>197.6</ele>
        <time>2010-11-28T09:18:29Z</time>
      </trkpt>
      <trkpt lat="43.60152" lon="3.70113">
        <ele>197</ele>
        <time>2010-11-28T09:18:30Z</time>
      </trkpt>
      <trkpt lat="43.6016" lon="3.70093">
        <ele>191.6</ele>
        <time>2010-11-28T09:18:45Z</time>
      </trkpt>
      <trkpt lat="43.60162" lon="3.70083">
        <ele>190.8</ele>
        <time>2010-11-28T09:18:49Z</time>
      </trkpt>
      <trkpt lat="43.60165" lon="3.70072">
        <ele>189.4</ele>
        <time>2010-11-28T09:18:52Z</time>
      </trkpt>
      <trkpt lat="43.60169" lon="3.70062">
        <ele>188.5</ele>
        <time>2010-11-28T09:18:54Z</time>
      </trkpt>
      <trkpt lat="43.60173" lon="3.70053">
        <ele>187.6</ele>
        <time>2010-11-28T09:18:56Z</time>
      </trkpt>
      <trkpt lat="43.60176" lon="3.70048">
        <ele>187.2</ele>
        <time>2010-11-28T09:18:57Z</time>
      </trkpt>
      <trkpt lat="43.60179" lon="3.70043">
        <ele>186.8</ele>
        <time>2010-11-28T09:18:58Z</time>
      </trkpt>
      <trkpt lat="43.60183" lon="3.70038">
        <ele>186.1</ele>
        <time>2010-11-28T09:18:59Z</time>
      </trkpt>
      <trkpt lat="43.60186" lon="3.70033">
        <ele>185.5</ele>
        <time>2010-11-28T09:19:00Z</time>
      </trkpt>
      <trkpt lat="43.6019" lon="3.70028">
        <ele>185.1</ele>
        <time>2010-11-28T09:19:01Z</time>
      </trkpt>
      <trkpt lat="43.60195" lon="3.70019">
        <ele>184.2</ele>
        <time>2010-11-28T09:19:03Z</time>
      </trkpt>
      <trkpt lat="43.60198" lon="3.70011">
        <ele>182.9</ele>
        <time>2010-11-28T09:19:05Z</time>
      </trkpt>
      <trkpt lat="43.602" lon="3.7">
        <ele>181.6</ele>
        <time>2010-11-28T09:19:07Z</time>
      </trkpt>
      <trkpt lat="43.60207" lon="3.69993">
        <ele>179.6</ele>
        <time>2010-11-28T09:19:10Z</time>
      </trkpt>
      <trkpt lat="43.60206" lon="3.69981">
        <ele>177.2</ele>
        <time>2010-11-28T09:19:14Z</time>
      </trkpt>
      <trkpt lat="43.60206" lon="3.69969">
        <ele>177.4</ele>
        <time>2010-11-28T09:19:17Z</time>
      </trkpt>
      <trkpt lat="43.60211" lon="3.69962">
        <ele>176.5</ele>
        <time>2010-11-28T09:19:19Z</time>
      </trkpt>
      <trkpt lat="43.60216" lon="3.69953">
        <ele>176</ele>
        <time>2010-11-28T09:19:21Z</time>
      </trkpt>
      <trkpt lat="43.60216" lon="3.69945">
        <ele>175.6</ele>
        <time>2010-11-28T09:19:23Z</time>
      </trkpt>
      <trkpt lat="43.60214" lon="3.69936">
        <ele>174.8</ele>
        <time>2010-11-28T09:19:25Z</time>
      </trkpt>
      <trkpt lat="43.60212" lon="3.69929">
        <ele>173.9</ele>
        <time>2010-11-28T09:19:27Z</time>
      </trkpt>
      <trkpt lat="43.60209" lon="3.6992">
        <ele>171.9</ele>
        <time>2010-11-28T09:19:29Z</time>
      </trkpt>
      <trkpt lat="43.60208" lon="3.69911">
        <ele>170.9</ele>
        <time>2010-11-28T09:19:31Z</time>
      </trkpt>
      <trkpt lat="43.60209" lon="3.69905">
        <ele>170.7</ele>
        <time>2010-11-28T09:19:32Z</time>
      </trkpt>
      <trkpt lat="43.60206" lon="3.69894">
        <ele>171</ele>
        <time>2010-11-28T09:19:35Z</time>
      </trkpt>
      <trkpt lat="43.602" lon="3.69885">
        <ele>170.5</ele>
        <time>2010-11-28T09:19:38Z</time>
      </trkpt>
      <trkpt lat="43.60196" lon="3.69878">
        <ele>170.2</ele>
        <time>2010-11-28T09:19:40Z</time>
      </trkpt>
      <trkpt lat="43.60187" lon="3.69875">
        <ele>170.1</ele>
        <time>2010-11-28T09:19:44Z</time>
      </trkpt>
      <trkpt lat="43.60182" lon="3.69869">
        <ele>170.2</ele>
        <time>2010-11-28T09:19:47Z</time>
      </trkpt>
      <trkpt lat="43.60176" lon="3.69862">
        <ele>169.8</ele>
        <time>2010-11-28T09:19:50Z</time>
      </trkpt>
      <trkpt lat="43.60172" lon="3.69852">
        <ele>168.8</ele>
        <time>2010-11-28T09:19:53Z</time>
      </trkpt>
      <trkpt lat="43.60172" lon="3.6984">
        <ele>168</ele>
        <time>2010-11-28T09:19:56Z</time>
      </trkpt>
      <trkpt lat="43.60178" lon="3.69836">
        <ele>167.7</ele>
        <time>2010-11-28T09:20:00Z</time>
      </trkpt>
      <trkpt lat="43.60186" lon="3.69838">
        <ele>169.6</ele>
        <time>2010-11-28T09:20:04Z</time>
      </trkpt>
      <trkpt lat="43.60193" lon="3.69839">
        <ele>169.7</ele>
        <time>2010-11-28T09:20:08Z</time>
      </trkpt>
      <trkpt lat="43.60202" lon="3.6984">
        <ele>171.7</ele>
        <time>2010-11-28T09:20:14Z</time>
      </trkpt>
      <trkpt lat="43.6021" lon="3.69841">
        <ele>173.1</ele>
        <time>2010-11-28T09:20:19Z</time>
      </trkpt>
      <trkpt lat="43.60217" lon="3.69846">
        <ele>175</ele>
        <time>2010-11-28T09:20:24Z</time>
      </trkpt>
      <trkpt lat="43.60223" lon="3.69853">
        <ele>175.6</ele>
        <time>2010-11-28T09:20:29Z</time>
      </trkpt>
      <trkpt lat="43.60232" lon="3.69854">
        <ele>175.9</ele>
        <time>2010-11-28T09:20:35Z</time>
      </trkpt>
      <trkpt lat="43.60233" lon="3.69855">
        <ele>175.7</ele>
        <time>2010-11-28T09:20:36Z</time>
      </trkpt>
      <trkpt lat="43.60248" lon="3.69857">
        <ele>179.2</ele>
        <time>2010-11-28T09:20:47Z</time>
      </trkpt>
      <trkpt lat="43.60256" lon="3.69858">
        <ele>181.5</ele>
        <time>2010-11-28T09:20:54Z</time>
      </trkpt>
      <trkpt lat="43.60264" lon="3.69862">
        <ele>182.6</ele>
        <time>2010-11-28T09:21:01Z</time>
      </trkpt>
      <trkpt lat="43.60272" lon="3.69867">
        <ele>184.9</ele>
        <time>2010-11-28T09:21:08Z</time>
      </trkpt>
      <trkpt lat="43.6028" lon="3.6987">
        <ele>186.9</ele>
        <time>2010-11-28T09:21:15Z</time>
      </trkpt>
      <trkpt lat="43.60288" lon="3.69874">
        <ele>187.4</ele>
        <time>2010-11-28T09:21:22Z</time>
      </trkpt>
      <trkpt lat="43.60297" lon="3.69871">
        <ele>189.4</ele>
        <time>2010-11-28T09:21:29Z</time>
      </trkpt>
      <trkpt lat="43.60303" lon="3.69863">
        <ele>189.6</ele>
        <time>2010-11-28T09:21:36Z</time>
      </trkpt>
      <trkpt lat="43.60304" lon="3.69861">
        <ele>189.7</ele>
        <time>2010-11-28T09:21:37Z</time>
      </trkpt>
      <trkpt lat="43.60316" lon="3.69849">
        <ele>192.7</ele>
        <time>2010-11-28T09:21:49Z</time>
      </trkpt>
      <trkpt lat="43.60321" lon="3.69838">
        <ele>193.6</ele>
        <time>2010-11-28T09:23:27Z</time>
      </trkpt>
      <trkpt lat="43.60321" lon="3.69838">
        <ele>193.8</ele>
        <time>2010-11-28T09:23:28Z</time>
      </trkpt>
      <trkpt lat="43.60325" lon="3.69825">
        <ele>193.1</ele>
        <time>2010-11-28T09:26:38Z</time>
      </trkpt>
      <trkpt lat="43.60338" lon="3.69815">
        <ele>193.5</ele>
        <time>2010-11-28T09:26:47Z</time>
      </trkpt>
      <trkpt lat="43.60345" lon="3.69813">
        <ele>193</ele>
        <time>2010-11-28T09:26:50Z</time>
      </trkpt>
      <trkpt lat="43.60353" lon="3.6981">
        <ele>192.4</ele>
        <time>2010-11-28T09:26:54Z</time>
      </trkpt>
      <trkpt lat="43.60359" lon="3.69803">
        <ele>190.8</ele>
        <time>2010-11-28T09:26:58Z</time>
      </trkpt>
      <trkpt lat="43.60364" lon="3.69794">
        <ele>188.9</ele>
        <time>2010-11-28T09:27:02Z</time>
      </trkpt>
      <trkpt lat="43.60371" lon="3.69789">
        <ele>187.2</ele>
        <time>2010-11-28T09:27:07Z</time>
      </trkpt>
      <trkpt lat="43.60379" lon="3.69784">
        <ele>181.2</ele>
        <time>2010-11-28T09:27:33Z</time>
      </trkpt>
      <trkpt lat="43.60388" lon="3.69781">
        <ele>180.9</ele>
        <time>2010-11-28T09:27:40Z</time>
      </trkpt>
      <trkpt lat="43.6039" lon="3.69781">
        <ele>181</ele>
        <time>2010-11-28T09:27:41Z</time>
      </trkpt>
      <trkpt lat="43.60401" lon="3.69778">
        <ele>177.5</ele>
        <time>2010-11-28T09:27:46Z</time>
      </trkpt>
      <trkpt lat="43.60408" lon="3.69773">
        <ele>176.9</ele>
        <time>2010-11-28T09:27:48Z</time>
      </trkpt>
      <trkpt lat="43.60412" lon="3.69771">
        <ele>176</ele>
        <time>2010-11-28T09:27:49Z</time>
      </trkpt>
      <trkpt lat="43.60417" lon="3.69769">
        <ele>175.3</ele>
        <time>2010-11-28T09:27:50Z</time>
      </trkpt>
      <trkpt lat="43.60423" lon="3.69767">
        <ele>174.8</ele>
        <time>2010-11-28T09:27:51Z</time>
      </trkpt>
      <trkpt lat="43.60429" lon="3.69765">
        <ele>173.4</ele>
        <time>2010-11-28T09:27:52Z</time>
      </trkpt>
      <trkpt lat="43.60434" lon="3.69762">
        <ele>172.3</ele>
        <time>2010-11-28T09:27:53Z</time>
      </trkpt>
      <trkpt lat="43.60439" lon="3.6976">
        <ele>171.6</ele>
        <time>2010-11-28T09:27:54Z</time>
      </trkpt>
      <trkpt lat="43.60446" lon="3.69756">
        <ele>170.6</ele>
        <time>2010-11-28T09:27:56Z</time>
      </trkpt>
      <trkpt lat="43.60453" lon="3.69752">
        <ele>170</ele>
        <time>2010-11-28T09:27:58Z</time>
      </trkpt>
      <trkpt lat="43.6046" lon="3.69748">
        <ele>169.8</ele>
        <time>2010-11-28T09:28:00Z</time>
      </trkpt>
      <trkpt lat="43.60466" lon="3.69744">
        <ele>169.4</ele>
        <time>2010-11-28T09:28:02Z</time>
      </trkpt>
      <trkpt lat="43.60474" lon="3.69741">
        <ele>169</ele>
        <time>2010-11-28T09:28:04Z</time>
      </trkpt>
      <trkpt lat="43.60482" lon="3.69737">
        <ele>168.5</ele>
        <time>2010-11-28T09:28:07Z</time>
      </trkpt>
      <trkpt lat="43.60486" lon="3.69728">
        <ele>168.7</ele>
        <time>2010-11-28T09:28:11Z</time>
      </trkpt>
      <trkpt lat="43.60488" lon="3.69716">
        <ele>168</ele>
        <time>2010-11-28T09:28:16Z</time>
      </trkpt>
      <trkpt lat="43.60489" lon="3.69707">
        <ele>167.6</ele>
        <time>2010-11-28T09:28:19Z</time>
      </trkpt>
      <trkpt lat="43.60491" lon="3.69698">
        <ele>166.3</ele>
        <time>2010-11-28T09:28:22Z</time>
      </trkpt>
      <trkpt lat="43.60494" lon="3.69688">
        <ele>165</ele>
        <time>2010-11-28T09:28:25Z</time>
      </trkpt>
      <trkpt lat="43.60498" lon="3.6968">
        <ele>163.4</ele>
        <time>2010-11-28T09:28:28Z</time>
      </trkpt>
      <trkpt lat="43.60504" lon="3.69672">
        <ele>161.9</ele>
        <time>2010-11-28T09:28:31Z</time>
      </trkpt>
      <trkpt lat="43.6051" lon="3.69666">
        <ele>159.6</ele>
        <time>2010-11-28T09:28:34Z</time>
      </trkpt>
      <trkpt lat="43.60514" lon="3.69658">
        <ele>156.7</ele>
        <time>2010-11-28T09:28:37Z</time>
      </trkpt>
      <trkpt lat="43.60519" lon="3.69651">
        <ele>154.4</ele>
        <time>2010-11-28T09:28:40Z</time>
      </trkpt>
      <trkpt lat="43.60525" lon="3.69641">
        <ele>150.7</ele>
        <time>2010-11-28T09:28:44Z</time>
      </trkpt>
      <trkpt lat="43.60527" lon="3.6964">
        <ele>149.8</ele>
        <time>2010-11-28T09:28:45Z</time>
      </trkpt>
      <trkpt lat="43.60536" lon="3.69629">
        <ele>147.8</ele>
        <time>2010-11-28T09:28:50Z</time>
      </trkpt>
      <trkpt lat="43.60543" lon="3.69621">
        <ele>143.5</ele>
        <time>2010-11-28T09:28:55Z</time>
      </trkpt>
      <trkpt lat="43.60548" lon="3.69612">
        <ele>140.6</ele>
        <time>2010-11-28T09:29:00Z</time>
      </trkpt>
      <trkpt lat="43.6055" lon="3.69603">
        <ele>137.9</ele>
        <time>2010-11-28T09:29:03Z</time>
      </trkpt>
      <trkpt lat="43.60554" lon="3.69592">
        <ele>136.3</ele>
        <time>2010-11-28T09:29:07Z</time>
      </trkpt>
      <trkpt lat="43.60562" lon="3.69587">
        <ele>131.5</ele>
        <time>2010-11-28T09:29:14Z</time>
      </trkpt>
      <trkpt lat="43.60569" lon="3.6959">
        <ele>128.8</ele>
        <time>2010-11-28T09:29:21Z</time>
      </trkpt>
      <trkpt lat="43.60577" lon="3.69587">
        <ele>127.1</ele>
        <time>2010-11-28T09:29:31Z</time>
      </trkpt>
      <trkpt lat="43.60586" lon="3.69587">
        <ele>128.3</ele>
        <time>2010-11-28T09:30:00Z</time>
      </trkpt>
      <trkpt lat="43.60586" lon="3.69587">
        <ele>128.5</ele>
        <time>2010-11-28T09:30:01Z</time>
      </trkpt>
      <trkpt lat="43.60592" lon="3.69577">
        <ele>132.6</ele>
        <time>2010-11-28T09:31:46Z</time>
      </trkpt>
      <trkpt lat="43.60608" lon="3.69571">
        <ele>137.4</ele>
        <time>2010-11-28T09:32:16Z</time>
      </trkpt>
      <trkpt lat="43.60616" lon="3.69567">
        <ele>140.8</ele>
        <time>2010-11-28T09:32:31Z</time>
      </trkpt>
      <trkpt lat="43.60625" lon="3.69567">
        <ele>144.2</ele>
        <time>2010-11-28T09:32:49Z</time>
      </trkpt>
      <trkpt lat="43.60625" lon="3.69567">
        <ele>144.4</ele>
        <time>2010-11-28T09:32:50Z</time>
      </trkpt>
      <trkpt lat="43.60639" lon="3.69577">
        <ele>143.6</ele>
        <time>2010-11-28T09:33:30Z</time>
      </trkpt>
      <trkpt lat="43.60644" lon="3.69582">
        <ele>144.7</ele>
        <time>2010-11-28T09:33:33Z</time>
      </trkpt>
      <trkpt lat="43.60651" lon="3.69589">
        <ele>144.3</ele>
        <time>2010-11-28T09:33:36Z</time>
      </trkpt>
      <trkpt lat="43.60657" lon="3.69594">
        <ele>144.3</ele>
        <time>2010-11-28T09:33:38Z</time>
      </trkpt>
      <trkpt lat="43.60662" lon="3.69601">
        <ele>143.8</ele>
        <time>2010-11-28T09:33:42Z</time>
      </trkpt>
      <trkpt lat="43.60669" lon="3.69608">
        <ele>143</ele>
        <time>2010-11-28T09:33:51Z</time>
      </trkpt>
      <trkpt lat="43.6067" lon="3.6961">
        <ele>143.2</ele>
        <time>2010-11-28T09:33:52Z</time>
      </trkpt>
      <trkpt lat="43.60681" lon="3.69623">
        <ele>142.4</ele>
        <time>2010-11-28T09:33:57Z</time>
      </trkpt>
      <trkpt lat="43.60686" lon="3.69629">
        <ele>141.6</ele>
        <time>2010-11-28T09:33:59Z</time>
      </trkpt>
      <trkpt lat="43.60692" lon="3.69637">
        <ele>140.8</ele>
        <time>2010-11-28T09:34:01Z</time>
      </trkpt>
      <trkpt lat="43.60695" lon="3.69648">
        <ele>140.1</ele>
        <time>2010-11-28T09:34:03Z</time>
      </trkpt>
      <trkpt lat="43.60696" lon="3.69656">
        <ele>139.6</ele>
        <time>2010-11-28T09:34:05Z</time>
      </trkpt>
      <trkpt lat="43.60697" lon="3.69667">
        <ele>139.8</ele>
        <time>2010-11-28T09:34:07Z</time>
      </trkpt>
      <trkpt lat="43.60699" lon="3.69676">
        <ele>140</ele>
        <time>2010-11-28T09:34:09Z</time>
      </trkpt>
      <trkpt lat="43.60703" lon="3.69687">
        <ele>140.1</ele>
        <time>2010-11-28T09:34:12Z</time>
      </trkpt>
      <trkpt lat="43.60708" lon="3.69696">
        <ele>141.6</ele>
        <time>2010-11-28T09:34:27Z</time>
      </trkpt>
      <trkpt lat="43.60714" lon="3.69703">
        <ele>141.8</ele>
        <time>2010-11-28T09:34:32Z</time>
      </trkpt>
      <trkpt lat="43.60721" lon="3.6971">
        <ele>142.6</ele>
        <time>2010-11-28T09:34:37Z</time>
      </trkpt>
      <trkpt lat="43.60728" lon="3.69713">
        <ele>143</ele>
        <time>2010-11-28T09:34:41Z</time>
      </trkpt>
      <trkpt lat="43.60735" lon="3.69715">
        <ele>143.7</ele>
        <time>2010-11-28T09:34:44Z</time>
      </trkpt>
      <trkpt lat="43.60742" lon="3.69715">
        <ele>144.4</ele>
        <time>2010-11-28T09:34:47Z</time>
      </trkpt>
      <trkpt lat="43.60749" lon="3.69714">
        <ele>144.8</ele>
        <time>2010-11-28T09:34:50Z</time>
      </trkpt>
      <trkpt lat="43.60758" lon="3.69713">
        <ele>144.9</ele>
        <time>2010-11-28T09:34:54Z</time>
      </trkpt>
      <trkpt lat="43.60759" lon="3.69712">
        <ele>144.9</ele>
        <time>2010-11-28T09:34:55Z</time>
      </trkpt>
      <trkpt lat="43.60773" lon="3.69706">
        <ele>149</ele>
        <time>2010-11-28T09:35:07Z</time>
      </trkpt>
      <trkpt lat="43.60782" lon="3.69705">
        <ele>150.7</ele>
        <time>2010-11-28T09:35:16Z</time>
      </trkpt>
      <trkpt lat="43.60789" lon="3.69702">
        <ele>152.8</ele>
        <time>2010-11-28T09:35:26Z</time>
      </trkpt>
      <trkpt lat="43.60797" lon="3.697">
        <ele>153.6</ele>
        <time>2010-11-28T09:35:33Z</time>
      </trkpt>
      <trkpt lat="43.60806" lon="3.69698">
        <ele>154.7</ele>
        <time>2010-11-28T09:35:58Z</time>
      </trkpt>
      <trkpt lat="43.60807" lon="3.69697">
        <ele>154.6</ele>
        <time>2010-11-28T09:35:59Z</time>
      </trkpt>
      <trkpt lat="43.60821" lon="3.6969">
        <ele>156.4</ele>
        <time>2010-11-28T09:36:32Z</time>
      </trkpt>
      <trkpt lat="43.60829" lon="3.69686">
        <ele>159.2</ele>
        <time>2010-11-28T09:36:43Z</time>
      </trkpt>
      <trkpt lat="43.60837" lon="3.69686">
        <ele>160.1</ele>
        <time>2010-11-28T09:36:54Z</time>
      </trkpt>
      <trkpt lat="43.60845" lon="3.69685">
        <ele>161.1</ele>
        <time>2010-11-28T09:37:01Z</time>
      </trkpt>
      <trkpt lat="43.60846" lon="3.69685">
        <ele>161.2</ele>
        <time>2010-11-28T09:37:02Z</time>
      </trkpt>
      <trkpt lat="43.60862" lon="3.69685">
        <ele>163.4</ele>
        <time>2010-11-28T09:37:14Z</time>
      </trkpt>
      <trkpt lat="43.6087" lon="3.69684">
        <ele>165.6</ele>
        <time>2010-11-28T09:37:20Z</time>
      </trkpt>
      <trkpt lat="43.60877" lon="3.69685">
        <ele>167.5</ele>
        <time>2010-11-28T09:37:25Z</time>
      </trkpt>
      <trkpt lat="43.60886" lon="3.69683">
        <ele>169.8</ele>
        <time>2010-11-28T09:37:31Z</time>
      </trkpt>
      <trkpt lat="43.60894" lon="3.69681">
        <ele>170.5</ele>
        <time>2010-11-28T09:37:37Z</time>
      </trkpt>
      <trkpt lat="43.60902" lon="3.69681">
        <ele>170.8</ele>
        <time>2010-11-28T09:37:43Z</time>
      </trkpt>
      <trkpt lat="43.60911" lon="3.69681">
        <ele>172.3</ele>
        <time>2010-11-28T09:37:53Z</time>
      </trkpt>
      <trkpt lat="43.60919" lon="3.69681">
        <ele>172.3</ele>
        <time>2010-11-28T09:37:59Z</time>
      </trkpt>
      <trkpt lat="43.60927" lon="3.6968">
        <ele>172.7</ele>
        <time>2010-11-28T09:38:03Z</time>
      </trkpt>
      <trkpt lat="43.60929" lon="3.6968">
        <ele>172.9</ele>
        <time>2010-11-28T09:38:04Z</time>
      </trkpt>
      <trkpt lat="43.60943" lon="3.69674">
        <ele>172</ele>
        <time>2010-11-28T09:38:37Z</time>
      </trkpt>
      <trkpt lat="43.60951" lon="3.69676">
        <ele>172</ele>
        <time>2010-11-28T09:38:47Z</time>
      </trkpt>
      <trkpt lat="43.60959" lon="3.69679">
        <ele>172.2</ele>
        <time>2010-11-28T09:38:51Z</time>
      </trkpt>
      <trkpt lat="43.60967" lon="3.69683">
        <ele>171.7</ele>
        <time>2010-11-28T09:38:55Z</time>
      </trkpt>
      <trkpt lat="43.60972" lon="3.6969">
        <ele>171.8</ele>
        <time>2010-11-28T09:38:58Z</time>
      </trkpt>
      <trkpt lat="43.60978" lon="3.69695">
        <ele>171</ele>
        <time>2010-11-28T09:39:01Z</time>
      </trkpt>
      <trkpt lat="43.60986" lon="3.69697">
        <ele>171.1</ele>
        <time>2010-11-28T09:39:04Z</time>
      </trkpt>
      <trkpt lat="43.60989" lon="3.69696">
        <ele>171.2</ele>
        <time>2010-11-28T09:39:05Z</time>
      </trkpt>
      <trkpt lat="43.61002" lon="3.69691">
        <ele>170.6</ele>
        <time>2010-11-28T09:39:10Z</time>
      </trkpt>
      <trkpt lat="43.61008" lon="3.69686">
        <ele>170.3</ele>
        <time>2010-11-28T09:39:13Z</time>
      </trkpt>
      <trkpt lat="43.61014" lon="3.69678">
        <ele>169.5</ele>
        <time>2010-11-28T09:39:16Z</time>
      </trkpt>
      <trkpt lat="43.61018" lon="3.69669">
        <ele>168.7</ele>
        <time>2010-11-28T09:39:18Z</time>
      </trkpt>
      <trkpt lat="43.61022" lon="3.69661">
        <ele>167.9</ele>
        <time>2010-11-28T09:39:20Z</time>
      </trkpt>
      <trkpt lat="43.61027" lon="3.69654">
        <ele>167</ele>
        <time>2010-11-28T09:39:22Z</time>
      </trkpt>
      <trkpt lat="43.6103" lon="3.69646">
        <ele>166.1</ele>
        <time>2010-11-28T09:39:24Z</time>
      </trkpt>
      <trkpt lat="43.61033" lon="3.69636">
        <ele>164.9</ele>
        <time>2010-11-28T09:39:26Z</time>
      </trkpt>
      <trkpt lat="43.61038" lon="3.69628">
        <ele>164.1</ele>
        <time>2010-11-28T09:39:28Z</time>
      </trkpt>
      <trkpt lat="43.61041" lon="3.6962">
        <ele>163.5</ele>
        <time>2010-11-28T09:39:30Z</time>
      </trkpt>
      <trkpt lat="43.61046" lon="3.69613">
        <ele>162.5</ele>
        <time>2010-11-28T09:39:32Z</time>
      </trkpt>
      <trkpt lat="43.6105" lon="3.69605">
        <ele>160.9</ele>
        <time>2010-11-28T09:39:34Z</time>
      </trkpt>
      <trkpt lat="43.61054" lon="3.69596">
        <ele>159.3</ele>
        <time>2010-11-28T09:39:36Z</time>
      </trkpt>
      <trkpt lat="43.61055" lon="3.69587">
        <ele>158.2</ele>
        <time>2010-11-28T09:39:38Z</time>
      </trkpt>
      <trkpt lat="43.61053" lon="3.69579">
        <ele>157.4</ele>
        <time>2010-11-28T09:39:40Z</time>
      </trkpt>
      <trkpt lat="43.61051" lon="3.69569">
        <ele>156.8</ele>
        <time>2010-11-28T09:39:42Z</time>
      </trkpt>
      <trkpt lat="43.61048" lon="3.69559">
        <ele>155.8</ele>
        <time>2010-11-28T09:39:44Z</time>
      </trkpt>
      <trkpt lat="43.61046" lon="3.69548">
        <ele>154.7</ele>
        <time>2010-11-28T09:39:46Z</time>
      </trkpt>
      <trkpt lat="43.61044" lon="3.69536">
        <ele>154.7</ele>
        <time>2010-11-28T09:39:48Z</time>
      </trkpt>
      <trkpt lat="43.61041" lon="3.69526">
        <ele>154.6</ele>
        <time>2010-11-28T09:39:50Z</time>
      </trkpt>
      <trkpt lat="43.61039" lon="3.6952">
        <ele>154.4</ele>
        <time>2010-11-28T09:39:51Z</time>
      </trkpt>
      <trkpt lat="43.61037" lon="3.69514">
        <ele>154.3</ele>
        <time>2010-11-28T09:39:52Z</time>
      </trkpt>
      <trkpt lat="43.61035" lon="3.69508">
        <ele>154.3</ele>
        <time>2010-11-28T09:39:53Z</time>
      </trkpt>
      <trkpt lat="43.61033" lon="3.69501">
        <ele>154.2</ele>
        <time>2010-11-28T09:39:54Z</time>
      </trkpt>
      <trkpt lat="43.61032" lon="3.69495">
        <ele>154.1</ele>
        <time>2010-11-28T09:39:55Z</time>
      </trkpt>
      <trkpt lat="43.6103" lon="3.69489">
        <ele>154</ele>
        <time>2010-11-28T09:39:56Z</time>
      </trkpt>
      <trkpt lat="43.61028" lon="3.69482">
        <ele>153.7</ele>
        <time>2010-11-28T09:39:57Z</time>
      </trkpt>
      <trkpt lat="43.61027" lon="3.69476">
        <ele>153.5</ele>
        <time>2010-11-28T09:39:58Z</time>
      </trkpt>
      <trkpt lat="43.61025" lon="3.69469">
        <ele>153.3</ele>
        <time>2010-11-28T09:39:59Z</time>
      </trkpt>
      <trkpt lat="43.61024" lon="3.69462">
        <ele>152.6</ele>
        <time>2010-11-28T09:40:00Z</time>
      </trkpt>
      <trkpt lat="43.61023" lon="3.69455">
        <ele>152.1</ele>
        <time>2010-11-28T09:40:01Z</time>
      </trkpt>
      <trkpt lat="43.61023" lon="3.69448">
        <ele>151.6</ele>
        <time>2010-11-28T09:40:02Z</time>
      </trkpt>
      <trkpt lat="43.61022" lon="3.69441">
        <ele>151.6</ele>
        <time>2010-11-28T09:40:03Z</time>
      </trkpt>
      <trkpt lat="43.61023" lon="3.69434">
        <ele>151.6</ele>
        <time>2010-11-28T09:40:04Z</time>
      </trkpt>
      <trkpt lat="43.61023" lon="3.69426">
        <ele>151.6</ele>
        <time>2010-11-28T09:40:05Z</time>
      </trkpt>
      <trkpt lat="43.61024" lon="3.69419">
        <ele>151.2</ele>
        <time>2010-11-28T09:40:06Z</time>
      </trkpt>
      <trkpt lat="43.61025" lon="3.69411">
        <ele>150.9</ele>
        <time>2010-11-28T09:40:07Z</time>
      </trkpt>
      <trkpt lat="43.61026" lon="3.69404">
        <ele>150.7</ele>
        <time>2010-11-28T09:40:08Z</time>
      </trkpt>
      <trkpt lat="43.61028" lon="3.69397">
        <ele>150.5</ele>
        <time>2010-11-28T09:40:09Z</time>
      </trkpt>
      <trkpt lat="43.6103" lon="3.69389">
        <ele>150.1</ele>
        <time>2010-11-28T09:40:10Z</time>
      </trkpt>
      <trkpt lat="43.61031" lon="3.69381">
        <ele>149.7</ele>
        <time>2010-11-28T09:40:11Z</time>
      </trkpt>
      <trkpt lat="43.61032" lon="3.69374">
        <ele>149.5</ele>
        <time>2010-11-28T09:40:12Z</time>
      </trkpt>
      <trkpt lat="43.61032" lon="3.69366">
        <ele>149</ele>
        <time>2010-11-28T09:40:13Z</time>
      </trkpt>
      <trkpt lat="43.61032" lon="3.69358">
        <ele>148.7</ele>
        <time>2010-11-28T09:40:14Z</time>
      </trkpt>
      <trkpt lat="43.61031" lon="3.69351">
        <ele>148.5</ele>
        <time>2010-11-28T09:40:15Z</time>
      </trkpt>
      <trkpt lat="43.6103" lon="3.69344">
        <ele>148.2</ele>
        <time>2010-11-28T09:40:16Z</time>
      </trkpt>
      <trkpt lat="43.61029" lon="3.69338">
        <ele>148</ele>
        <time>2010-11-28T09:40:17Z</time>
      </trkpt>
      <trkpt lat="43.61027" lon="3.69326">
        <ele>147.9</ele>
        <time>2010-11-28T09:40:19Z</time>
      </trkpt>
      <trkpt lat="43.61025" lon="3.69314">
        <ele>147.9</ele>
        <time>2010-11-28T09:40:21Z</time>
      </trkpt>
      <trkpt lat="43.61023" lon="3.69306">
        <ele>147.6</ele>
        <time>2010-11-28T09:40:23Z</time>
      </trkpt>
      <trkpt lat="43.61022" lon="3.69298">
        <ele>147.4</ele>
        <time>2010-11-28T09:40:25Z</time>
      </trkpt>
      <trkpt lat="43.61022" lon="3.69288">
        <ele>147.4</ele>
        <time>2010-11-28T09:40:27Z</time>
      </trkpt>
      <trkpt lat="43.61021" lon="3.69278">
        <ele>147.1</ele>
        <time>2010-11-28T09:40:29Z</time>
      </trkpt>
      <trkpt lat="43.61021" lon="3.69268">
        <ele>146.6</ele>
        <time>2010-11-28T09:40:31Z</time>
      </trkpt>
      <trkpt lat="43.6102" lon="3.69258">
        <ele>146.5</ele>
        <time>2010-11-28T09:40:33Z</time>
      </trkpt>
      <trkpt lat="43.61019" lon="3.69246">
        <ele>145.8</ele>
        <time>2010-11-28T09:40:35Z</time>
      </trkpt>
      <trkpt lat="43.61019" lon="3.69239">
        <ele>145.3</ele>
        <time>2010-11-28T09:40:36Z</time>
      </trkpt>
      <trkpt lat="43.61018" lon="3.69233">
        <ele>144.9</ele>
        <time>2010-11-28T09:40:37Z</time>
      </trkpt>
      <trkpt lat="43.61016" lon="3.69222">
        <ele>144.5</ele>
        <time>2010-11-28T09:40:39Z</time>
      </trkpt>
      <trkpt lat="43.61014" lon="3.69211">
        <ele>144.6</ele>
        <time>2010-11-28T09:40:41Z</time>
      </trkpt>
      <trkpt lat="43.61011" lon="3.69199">
        <ele>145</ele>
        <time>2010-11-28T09:40:44Z</time>
      </trkpt>
      <trkpt lat="43.61005" lon="3.69193">
        <ele>143.3</ele>
        <time>2010-11-28T09:40:48Z</time>
      </trkpt>
      <trkpt lat="43.60997" lon="3.69189">
        <ele>142.3</ele>
        <time>2010-11-28T09:40:51Z</time>
      </trkpt>
      <trkpt lat="43.6099" lon="3.69187">
        <ele>141.5</ele>
        <time>2010-11-28T09:40:53Z</time>
      </trkpt>
      <trkpt lat="43.60983" lon="3.69185">
        <ele>140.7</ele>
        <time>2010-11-28T09:40:55Z</time>
      </trkpt>
      <trkpt lat="43.60976" lon="3.69178">
        <ele>141.1</ele>
        <time>2010-11-28T09:41:02Z</time>
      </trkpt>
      <trkpt lat="43.60977" lon="3.69166">
        <ele>142.8</ele>
        <time>2010-11-28T09:41:14Z</time>
      </trkpt>
      <trkpt lat="43.60976" lon="3.69165">
        <ele>142.8</ele>
        <time>2010-11-28T09:41:15Z</time>
      </trkpt>
      <trkpt lat="43.60971" lon="3.69145">
        <ele>144.6</ele>
        <time>2010-11-28T09:41:27Z</time>
      </trkpt>
      <trkpt lat="43.60967" lon="3.69134">
        <ele>146.4</ele>
        <time>2010-11-28T09:41:33Z</time>
      </trkpt>
      <trkpt lat="43.60966" lon="3.69122">
        <ele>146.9</ele>
        <time>2010-11-28T09:41:39Z</time>
      </trkpt>
      <trkpt lat="43.60965" lon="3.69111">
        <ele>146.9</ele>
        <time>2010-11-28T09:41:43Z</time>
      </trkpt>
      <trkpt lat="43.60963" lon="3.69101">
        <ele>147.7</ele>
        <time>2010-11-28T09:41:47Z</time>
      </trkpt>
      <trkpt lat="43.6096" lon="3.69089">
        <ele>148.5</ele>
        <time>2010-11-28T09:41:51Z</time>
      </trkpt>
      <trkpt lat="43.60956" lon="3.69079">
        <ele>148.7</ele>
        <time>2010-11-28T09:41:55Z</time>
      </trkpt>
      <trkpt lat="43.60949" lon="3.69073">
        <ele>149.7</ele>
        <time>2010-11-28T09:41:59Z</time>
      </trkpt>
      <trkpt lat="43.60943" lon="3.69081">
        <ele>152.3</ele>
        <time>2010-11-28T09:42:09Z</time>
      </trkpt>
      <trkpt lat="43.60939" lon="3.69092">
        <ele>155.4</ele>
        <time>2010-11-28T09:42:19Z</time>
      </trkpt>
      <trkpt lat="43.60938" lon="3.69093">
        <ele>155.6</ele>
        <time>2010-11-28T09:42:20Z</time>
      </trkpt>
      <trkpt lat="43.60927" lon="3.69109">
        <ele>160.4</ele>
        <time>2010-11-28T09:42:39Z</time>
      </trkpt>
      <trkpt lat="43.60919" lon="3.6911">
        <ele>162.5</ele>
        <time>2010-11-28T09:42:48Z</time>
      </trkpt>
      <trkpt lat="43.60911" lon="3.69108">
        <ele>164.3</ele>
        <time>2010-11-28T09:42:54Z</time>
      </trkpt>
      <trkpt lat="43.60903" lon="3.69105">
        <ele>165.4</ele>
        <time>2010-11-28T09:42:59Z</time>
      </trkpt>
      <trkpt lat="43.60895" lon="3.69102">
        <ele>166.3</ele>
        <time>2010-11-28T09:43:05Z</time>
      </trkpt>
      <trkpt lat="43.60887" lon="3.69095">
        <ele>167.3</ele>
        <time>2010-11-28T09:43:11Z</time>
      </trkpt>
      <trkpt lat="43.60881" lon="3.69086">
        <ele>167.6</ele>
        <time>2010-11-28T09:43:17Z</time>
      </trkpt>
      <trkpt lat="43.60875" lon="3.6908">
        <ele>168</ele>
        <time>2010-11-28T09:43:21Z</time>
      </trkpt>
      <trkpt lat="43.60874" lon="3.69078">
        <ele>168.2</ele>
        <time>2010-11-28T09:43:22Z</time>
      </trkpt>
      <trkpt lat="43.6086" lon="3.69068">
        <ele>168.5</ele>
        <time>2010-11-28T09:43:31Z</time>
      </trkpt>
      <trkpt lat="43.60854" lon="3.69062">
        <ele>170.1</ele>
        <time>2010-11-28T09:43:36Z</time>
      </trkpt>
      <trkpt lat="43.60846" lon="3.69055">
        <ele>171.8</ele>
        <time>2010-11-28T09:43:42Z</time>
      </trkpt>
      <trkpt lat="43.60838" lon="3.69053">
        <ele>171.5</ele>
        <time>2010-11-28T09:43:48Z</time>
      </trkpt>
      <trkpt lat="43.6083" lon="3.69053">
        <ele>173.7</ele>
        <time>2010-11-28T09:43:54Z</time>
      </trkpt>
      <trkpt lat="43.60822" lon="3.69052">
        <ele>173.7</ele>
        <time>2010-11-28T09:44:01Z</time>
      </trkpt>
      <trkpt lat="43.60815" lon="3.69046">
        <ele>174.1</ele>
        <time>2010-11-28T09:44:05Z</time>
      </trkpt>
      <trkpt lat="43.60807" lon="3.69041">
        <ele>173.1</ele>
        <time>2010-11-28T09:44:33Z</time>
      </trkpt>
      <trkpt lat="43.60807" lon="3.6904">
        <ele>173.1</ele>
        <time>2010-11-28T09:44:34Z</time>
      </trkpt>
      <trkpt lat="43.6079" lon="3.69036">
        <ele>173.6</ele>
        <time>2010-11-28T09:44:49Z</time>
      </trkpt>
      <trkpt lat="43.60783" lon="3.69036">
        <ele>173.7</ele>
        <time>2010-11-28T09:44:52Z</time>
      </trkpt>
      <trkpt lat="43.60774" lon="3.69036">
        <ele>173.3</ele>
        <time>2010-11-28T09:44:56Z</time>
      </trkpt>
      <trkpt lat="43.60766" lon="3.69034">
        <ele>173.9</ele>
        <time>2010-11-28T09:45:00Z</time>
      </trkpt>
      <trkpt lat="43.60759" lon="3.69031">
        <ele>174.5</ele>
        <time>2010-11-28T09:45:04Z</time>
      </trkpt>
      <trkpt lat="43.60751" lon="3.69028">
        <ele>174.5</ele>
        <time>2010-11-28T09:45:07Z</time>
      </trkpt>
      <trkpt lat="43.60743" lon="3.69023">
        <ele>174.3</ele>
        <time>2010-11-28T09:45:10Z</time>
      </trkpt>
      <trkpt lat="43.60736" lon="3.69017">
        <ele>174.5</ele>
        <time>2010-11-28T09:45:14Z</time>
      </trkpt>
      <trkpt lat="43.60729" lon="3.6901">
        <ele>174.3</ele>
        <time>2010-11-28T09:45:18Z</time>
      </trkpt>
      <trkpt lat="43.60724" lon="3.69001">
        <ele>175.5</ele>
        <time>2010-11-28T09:45:21Z</time>
      </trkpt>
      <trkpt lat="43.6072" lon="3.68992">
        <ele>175.6</ele>
        <time>2010-11-28T09:45:24Z</time>
      </trkpt>
      <trkpt lat="43.60717" lon="3.68983">
        <ele>175.4</ele>
        <time>2010-11-28T09:45:26Z</time>
      </trkpt>
      <trkpt lat="43.60713" lon="3.68977">
        <ele>175.1</ele>
        <time>2010-11-28T09:45:28Z</time>
      </trkpt>
      <trkpt lat="43.6071" lon="3.68969">
        <ele>175.2</ele>
        <time>2010-11-28T09:45:30Z</time>
      </trkpt>
      <trkpt lat="43.60705" lon="3.6896">
        <ele>175.9</ele>
        <time>2010-11-28T09:45:33Z</time>
      </trkpt>
      <trkpt lat="43.60697" lon="3.68956">
        <ele>176.4</ele>
        <time>2010-11-28T09:45:37Z</time>
      </trkpt>
      <trkpt lat="43.60695" lon="3.68955">
        <ele>176.8</ele>
        <time>2010-11-28T09:45:38Z</time>
      </trkpt>
      <trkpt lat="43.60682" lon="3.68948">
        <ele>178</ele>
        <time>2010-11-28T09:45:43Z</time>
      </trkpt>
      <trkpt lat="43.60676" lon="3.68943">
        <ele>178.5</ele>
        <time>2010-11-28T09:45:46Z</time>
      </trkpt>
      <trkpt lat="43.60669" lon="3.68942">
        <ele>177.6</ele>
        <time>2010-11-28T09:45:49Z</time>
      </trkpt>
      <trkpt lat="43.60661" lon="3.68943">
        <ele>177.7</ele>
        <time>2010-11-28T09:45:56Z</time>
      </trkpt>
      <trkpt lat="43.60653" lon="3.68938">
        <ele>176.7</ele>
        <time>2010-11-28T09:46:07Z</time>
      </trkpt>
      <trkpt lat="43.60646" lon="3.68932">
        <ele>176.9</ele>
        <time>2010-11-28T09:46:11Z</time>
      </trkpt>
      <trkpt lat="43.6064" lon="3.68927">
        <ele>175.4</ele>
        <time>2010-11-28T09:46:14Z</time>
      </trkpt>
      <trkpt lat="43.60633" lon="3.6892">
        <ele>174.1</ele>
        <time>2010-11-28T09:46:17Z</time>
      </trkpt>
      <trkpt lat="43.60627" lon="3.68914">
        <ele>172.9</ele>
        <time>2010-11-28T09:46:20Z</time>
      </trkpt>
      <trkpt lat="43.60624" lon="3.68905">
        <ele>171.8</ele>
        <time>2010-11-28T09:46:23Z</time>
      </trkpt>
      <trkpt lat="43.60621" lon="3.68898">
        <ele>171.2</ele>
        <time>2010-11-28T09:46:25Z</time>
      </trkpt>
      <trkpt lat="43.60617" lon="3.68891">
        <ele>169.2</ele>
        <time>2010-11-28T09:46:27Z</time>
      </trkpt>
      <trkpt lat="43.60613" lon="3.68885">
        <ele>167.2</ele>
        <time>2010-11-28T09:46:29Z</time>
      </trkpt>
      <trkpt lat="43.60606" lon="3.6888">
        <ele>165</ele>
        <time>2010-11-28T09:46:32Z</time>
      </trkpt>
      <trkpt lat="43.60601" lon="3.68876">
        <ele>164.5</ele>
        <time>2010-11-28T09:46:34Z</time>
      </trkpt>
      <trkpt lat="43.60593" lon="3.68872">
        <ele>162.4</ele>
        <time>2010-11-28T09:46:37Z</time>
      </trkpt>
      <trkpt lat="43.6059" lon="3.68863">
        <ele>159.7</ele>
        <time>2010-11-28T09:46:40Z</time>
      </trkpt>
      <trkpt lat="43.6059" lon="3.6886">
        <ele>159</ele>
        <time>2010-11-28T09:46:41Z</time>
      </trkpt>
      <trkpt lat="43.60583" lon="3.68842">
        <ele>156.8</ele>
        <time>2010-11-28T09:46:47Z</time>
      </trkpt>
      <trkpt lat="43.6058" lon="3.68834">
        <ele>155.8</ele>
        <time>2010-11-28T09:46:49Z</time>
      </trkpt>
      <trkpt lat="43.60579" lon="3.68823">
        <ele>153.8</ele>
        <time>2010-11-28T09:46:52Z</time>
      </trkpt>
      <trkpt lat="43.60577" lon="3.68812">
        <ele>151.4</ele>
        <time>2010-11-28T09:46:56Z</time>
      </trkpt>
      <trkpt lat="43.6057" lon="3.68805">
        <ele>149.6</ele>
        <time>2010-11-28T09:47:00Z</time>
      </trkpt>
      <trkpt lat="43.60565" lon="3.68798">
        <ele>147.3</ele>
        <time>2010-11-28T09:47:03Z</time>
      </trkpt>
      <trkpt lat="43.60559" lon="3.68791">
        <ele>145</ele>
        <time>2010-11-28T09:47:07Z</time>
      </trkpt>
      <trkpt lat="43.60555" lon="3.6878">
        <ele>143.6</ele>
        <time>2010-11-28T09:47:10Z</time>
      </trkpt>
      <trkpt lat="43.60549" lon="3.68772">
        <ele>141.3</ele>
        <time>2010-11-28T09:47:13Z</time>
      </trkpt>
      <trkpt lat="43.60544" lon="3.68767">
        <ele>140.1</ele>
        <time>2010-11-28T09:47:15Z</time>
      </trkpt>
      <trkpt lat="43.6054" lon="3.6876">
        <ele>138.7</ele>
        <time>2010-11-28T09:47:17Z</time>
      </trkpt>
      <trkpt lat="43.60533" lon="3.68753">
        <ele>136.6</ele>
        <time>2010-11-28T09:47:20Z</time>
      </trkpt>
      <trkpt lat="43.6053" lon="3.68743">
        <ele>135.5</ele>
        <time>2010-11-28T09:47:23Z</time>
      </trkpt>
      <trkpt lat="43.60531" lon="3.68734">
        <ele>133.9</ele>
        <time>2010-11-28T09:47:25Z</time>
      </trkpt>
      <trkpt lat="43.60531" lon="3.68725">
        <ele>133</ele>
        <time>2010-11-28T09:47:27Z</time>
      </trkpt>
      <trkpt lat="43.60529" lon="3.68714">
        <ele>131.9</ele>
        <time>2010-11-28T09:47:30Z</time>
      </trkpt>
      <trkpt lat="43.60528" lon="3.68703">
        <ele>130.2</ele>
        <time>2010-11-28T09:47:33Z</time>
      </trkpt>
      <trkpt lat="43.60529" lon="3.68693">
        <ele>127.9</ele>
        <time>2010-11-28T09:47:37Z</time>
      </trkpt>
      <trkpt lat="43.60525" lon="3.68683">
        <ele>124.4</ele>
        <time>2010-11-28T09:47:43Z</time>
      </trkpt>
      <trkpt lat="43.60525" lon="3.68681">
        <ele>124.1</ele>
        <time>2010-11-28T09:47:44Z</time>
      </trkpt>
      <trkpt lat="43.60514" lon="3.68672">
        <ele>120.7</ele>
        <time>2010-11-28T09:47:52Z</time>
      </trkpt>
      <trkpt lat="43.60509" lon="3.68664">
        <ele>119.8</ele>
        <time>2010-11-28T09:47:56Z</time>
      </trkpt>
      <trkpt lat="43.60509" lon="3.68656">
        <ele>119.3</ele>
        <time>2010-11-28T09:47:58Z</time>
      </trkpt>
      <trkpt lat="43.60506" lon="3.68645">
        <ele>113.7</ele>
        <time>2010-11-28T09:50:42Z</time>
      </trkpt>
      <trkpt lat="43.60506" lon="3.68644">
        <ele>113.4</ele>
        <time>2010-11-28T09:50:43Z</time>
      </trkpt>
      <trkpt lat="43.60494" lon="3.68629">
        <ele>112.4</ele>
        <time>2010-11-28T09:50:55Z</time>
      </trkpt>
      <trkpt lat="43.60488" lon="3.68624">
        <ele>113</ele>
        <time>2010-11-28T09:51:00Z</time>
      </trkpt>
      <trkpt lat="43.6048" lon="3.68624">
        <ele>112.7</ele>
        <time>2010-11-28T09:51:04Z</time>
      </trkpt>
      <trkpt lat="43.60473" lon="3.68623">
        <ele>112.1</ele>
        <time>2010-11-28T09:51:06Z</time>
      </trkpt>
      <trkpt lat="43.60466" lon="3.68621">
        <ele>111.8</ele>
        <time>2010-11-28T09:51:08Z</time>
      </trkpt>
      <trkpt lat="43.60459" lon="3.68619">
        <ele>111.5</ele>
        <time>2010-11-28T09:51:10Z</time>
      </trkpt>
      <trkpt lat="43.6045" lon="3.6862">
        <ele>111</ele>
        <time>2010-11-28T09:51:19Z</time>
      </trkpt>
      <trkpt lat="43.60443" lon="3.68626">
        <ele>111.7</ele>
        <time>2010-11-28T09:52:43Z</time>
      </trkpt>
      <trkpt lat="43.60442" lon="3.68629">
        <ele>112.2</ele>
        <time>2010-11-28T09:52:44Z</time>
      </trkpt>
      <trkpt lat="43.6044" lon="3.68645">
        <ele>112.9</ele>
        <time>2010-11-28T09:52:49Z</time>
      </trkpt>
      <trkpt lat="43.60439" lon="3.68655">
        <ele>113.3</ele>
        <time>2010-11-28T09:52:52Z</time>
      </trkpt>
      <trkpt lat="43.60437" lon="3.68664">
        <ele>113.2</ele>
        <time>2010-11-28T09:52:55Z</time>
      </trkpt>
      <trkpt lat="43.60432" lon="3.68673">
        <ele>114.4</ele>
        <time>2010-11-28T09:52:58Z</time>
      </trkpt>
      <trkpt lat="43.60428" lon="3.6868">
        <ele>113.9</ele>
        <time>2010-11-28T09:53:00Z</time>
      </trkpt>
      <trkpt lat="43.60425" lon="3.68689">
        <ele>113.8</ele>
        <time>2010-11-28T09:53:02Z</time>
      </trkpt>
      <trkpt lat="43.60421" lon="3.68698">
        <ele>114</ele>
        <time>2010-11-28T09:53:04Z</time>
      </trkpt>
      <trkpt lat="43.60418" lon="3.68707">
        <ele>114.1</ele>
        <time>2010-11-28T09:53:06Z</time>
      </trkpt>
      <trkpt lat="43.60414" lon="3.68716">
        <ele>114</ele>
        <time>2010-11-28T09:53:08Z</time>
      </trkpt>
      <trkpt lat="43.60411" lon="3.68726">
        <ele>114</ele>
        <time>2010-11-28T09:53:10Z</time>
      </trkpt>
      <trkpt lat="43.60408" lon="3.68736">
        <ele>113.9</ele>
        <time>2010-11-28T09:53:12Z</time>
      </trkpt>
      <trkpt lat="43.60406" lon="3.68746">
        <ele>113.8</ele>
        <time>2010-11-28T09:53:14Z</time>
      </trkpt>
      <trkpt lat="43.60403" lon="3.68756">
        <ele>113.4</ele>
        <time>2010-11-28T09:53:16Z</time>
      </trkpt>
      <trkpt lat="43.60399" lon="3.68767">
        <ele>113.6</ele>
        <time>2010-11-28T09:53:18Z</time>
      </trkpt>
      <trkpt lat="43.60396" lon="3.68776">
        <ele>113.9</ele>
        <time>2010-11-28T09:53:20Z</time>
      </trkpt>
      <trkpt lat="43.60393" lon="3.68787">
        <ele>114.1</ele>
        <time>2010-11-28T09:53:22Z</time>
      </trkpt>
      <trkpt lat="43.6039" lon="3.68797">
        <ele>114.1</ele>
        <time>2010-11-28T09:53:24Z</time>
      </trkpt>
      <trkpt lat="43.60387" lon="3.68809">
        <ele>114.1</ele>
        <time>2010-11-28T09:53:26Z</time>
      </trkpt>
      <trkpt lat="43.60384" lon="3.6882">
        <ele>114</ele>
        <time>2010-11-28T09:53:28Z</time>
      </trkpt>
      <trkpt lat="43.60381" lon="3.68832">
        <ele>114</ele>
        <time>2010-11-28T09:53:30Z</time>
      </trkpt>
      <trkpt lat="43.60379" lon="3.68843">
        <ele>113.7</ele>
        <time>2010-11-28T09:53:32Z</time>
      </trkpt>
      <trkpt lat="43.60376" lon="3.68854">
        <ele>113.7</ele>
        <time>2010-11-28T09:53:34Z</time>
      </trkpt>
      <trkpt lat="43.60374" lon="3.68864">
        <ele>113.7</ele>
        <time>2010-11-28T09:53:36Z</time>
      </trkpt>
      <trkpt lat="43.60373" lon="3.68874">
        <ele>113.6</ele>
        <time>2010-11-28T09:53:38Z</time>
      </trkpt>
      <trkpt lat="43.60373" lon="3.68883">
        <ele>113.7</ele>
        <time>2010-11-28T09:53:40Z</time>
      </trkpt>
      <trkpt lat="43.60369" lon="3.68893">
        <ele>114</ele>
        <time>2010-11-28T09:53:43Z</time>
      </trkpt>
      <trkpt lat="43.60365" lon="3.68902">
        <ele>113.6</ele>
        <time>2010-11-28T09:53:46Z</time>
      </trkpt>
      <trkpt lat="43.60363" lon="3.68905">
        <ele>114.2</ele>
        <time>2010-11-28T09:53:47Z</time>
      </trkpt>
      <trkpt lat="43.60358" lon="3.68923">
        <ele>114.6</ele>
        <time>2010-11-28T09:53:54Z</time>
      </trkpt>
      <trkpt lat="43.60355" lon="3.68932">
        <ele>115.3</ele>
        <time>2010-11-28T09:53:57Z</time>
      </trkpt>
      <trkpt lat="43.60349" lon="3.68941">
        <ele>116.6</ele>
        <time>2010-11-28T09:54:01Z</time>
      </trkpt>
      <trkpt lat="43.6034" lon="3.6894">
        <ele>117.7</ele>
        <time>2010-11-28T09:54:05Z</time>
      </trkpt>
      <trkpt lat="43.60333" lon="3.68935">
        <ele>117.7</ele>
        <time>2010-11-28T09:54:09Z</time>
      </trkpt>
      <trkpt lat="43.60326" lon="3.6893">
        <ele>118.4</ele>
        <time>2010-11-28T09:54:13Z</time>
      </trkpt>
      <trkpt lat="43.60323" lon="3.6892">
        <ele>119.2</ele>
        <time>2010-11-28T09:54:17Z</time>
      </trkpt>
      <trkpt lat="43.60324" lon="3.6891">
        <ele>119.8</ele>
        <time>2010-11-28T09:54:21Z</time>
      </trkpt>
      <trkpt lat="43.60326" lon="3.689">
        <ele>121.8</ele>
        <time>2010-11-28T09:54:25Z</time>
      </trkpt>
      <trkpt lat="43.6033" lon="3.68891">
        <ele>122.5</ele>
        <time>2010-11-28T09:54:29Z</time>
      </trkpt>
      <trkpt lat="43.60335" lon="3.68882">
        <ele>122.4</ele>
        <time>2010-11-28T09:54:33Z</time>
      </trkpt>
      <trkpt lat="43.60338" lon="3.68871">
        <ele>123.4</ele>
        <time>2010-11-28T09:54:37Z</time>
      </trkpt>
      <trkpt lat="43.60342" lon="3.6886">
        <ele>122.9</ele>
        <time>2010-11-28T09:54:41Z</time>
      </trkpt>
      <trkpt lat="43.60342" lon="3.68848">
        <ele>124.3</ele>
        <time>2010-11-28T09:54:45Z</time>
      </trkpt>
      <trkpt lat="43.6034" lon="3.68837">
        <ele>124.7</ele>
        <time>2010-11-28T09:54:49Z</time>
      </trkpt>
      <trkpt lat="43.60339" lon="3.68834">
        <ele>124.7</ele>
        <time>2010-11-28T09:54:50Z</time>
      </trkpt>
      <trkpt lat="43.60335" lon="3.68814">
        <ele>125.3</ele>
        <time>2010-11-28T09:54:57Z</time>
      </trkpt>
      <trkpt lat="43.60337" lon="3.68802">
        <ele>126.4</ele>
        <time>2010-11-28T09:55:01Z</time>
      </trkpt>
      <trkpt lat="43.60341" lon="3.68793">
        <ele>127.2</ele>
        <time>2010-11-28T09:55:04Z</time>
      </trkpt>
      <trkpt lat="43.60346" lon="3.68786">
        <ele>128</ele>
        <time>2010-11-28T09:55:07Z</time>
      </trkpt>
      <trkpt lat="43.60352" lon="3.68779">
        <ele>128.7</ele>
        <time>2010-11-28T09:55:10Z</time>
      </trkpt>
      <trkpt lat="43.60357" lon="3.6877">
        <ele>128.9</ele>
        <time>2010-11-28T09:55:13Z</time>
      </trkpt>
      <trkpt lat="43.60362" lon="3.6876">
        <ele>128.9</ele>
        <time>2010-11-28T09:55:16Z</time>
      </trkpt>
      <trkpt lat="43.60366" lon="3.68751">
        <ele>129.3</ele>
        <time>2010-11-28T09:55:19Z</time>
      </trkpt>
      <trkpt lat="43.60371" lon="3.68743">
        <ele>129.8</ele>
        <time>2010-11-28T09:55:22Z</time>
      </trkpt>
      <trkpt lat="43.60375" lon="3.68734">
        <ele>130.4</ele>
        <time>2010-11-28T09:55:25Z</time>
      </trkpt>
      <trkpt lat="43.60377" lon="3.68725">
        <ele>130.3</ele>
        <time>2010-11-28T09:55:28Z</time>
      </trkpt>
      <trkpt lat="43.6038" lon="3.68715">
        <ele>131.3</ele>
        <time>2010-11-28T09:55:31Z</time>
      </trkpt>
      <trkpt lat="43.60381" lon="3.68705">
        <ele>131.6</ele>
        <time>2010-11-28T09:55:34Z</time>
      </trkpt>
      <trkpt lat="43.60382" lon="3.68695">
        <ele>132.3</ele>
        <time>2010-11-28T09:55:37Z</time>
      </trkpt>
      <trkpt lat="43.60382" lon="3.68684">
        <ele>132.8</ele>
        <time>2010-11-28T09:55:40Z</time>
      </trkpt>
      <trkpt lat="43.60383" lon="3.68673">
        <ele>133.4</ele>
        <time>2010-11-28T09:55:43Z</time>
      </trkpt>
      <trkpt lat="43.60383" lon="3.68662">
        <ele>134.1</ele>
        <time>2010-11-28T09:55:46Z</time>
      </trkpt>
      <trkpt lat="43.60383" lon="3.68652">
        <ele>134.2</ele>
        <time>2010-11-28T09:55:49Z</time>
      </trkpt>
      <trkpt lat="43.60382" lon="3.68642">
        <ele>134.7</ele>
        <time>2010-11-28T09:55:53Z</time>
      </trkpt>
      <trkpt lat="43.60381" lon="3.6864">
        <ele>135.1</ele>
        <time>2010-11-28T09:55:54Z</time>
      </trkpt>
      <trkpt lat="43.60376" lon="3.68621">
        <ele>135.9</ele>
        <time>2010-11-28T09:56:02Z</time>
      </trkpt>
      <trkpt lat="43.60371" lon="3.68611">
        <ele>137.1</ele>
        <time>2010-11-28T09:56:07Z</time>
      </trkpt>
      <trkpt lat="43.60366" lon="3.68604">
        <ele>137.7</ele>
        <time>2010-11-28T09:56:11Z</time>
      </trkpt>
      <trkpt lat="43.6036" lon="3.68596">
        <ele>138.2</ele>
        <time>2010-11-28T09:56:15Z</time>
      </trkpt>
      <trkpt lat="43.60355" lon="3.68588">
        <ele>139</ele>
        <time>2010-11-28T09:56:19Z</time>
      </trkpt>
      <trkpt lat="43.6035" lon="3.68579">
        <ele>139.1</ele>
        <time>2010-11-28T09:56:23Z</time>
      </trkpt>
      <trkpt lat="43.60346" lon="3.6857">
        <ele>139.7</ele>
        <time>2010-11-28T09:56:27Z</time>
      </trkpt>
      <trkpt lat="43.60341" lon="3.68561">
        <ele>140.3</ele>
        <time>2010-11-28T09:56:31Z</time>
      </trkpt>
      <trkpt lat="43.60337" lon="3.68552">
        <ele>140.7</ele>
        <time>2010-11-28T09:56:35Z</time>
      </trkpt>
      <trkpt lat="43.60333" lon="3.68542">
        <ele>141.4</ele>
        <time>2010-11-28T09:56:39Z</time>
      </trkpt>
      <trkpt lat="43.60328" lon="3.68533">
        <ele>141.7</ele>
        <time>2010-11-28T09:56:43Z</time>
      </trkpt>
      <trkpt lat="43.60325" lon="3.68523">
        <ele>141.5</ele>
        <time>2010-11-28T09:56:47Z</time>
      </trkpt>
      <trkpt lat="43.60321" lon="3.68514">
        <ele>141.4</ele>
        <time>2010-11-28T09:56:51Z</time>
      </trkpt>
      <trkpt lat="43.60316" lon="3.68505">
        <ele>142</ele>
        <time>2010-11-28T09:56:55Z</time>
      </trkpt>
      <trkpt lat="43.60315" lon="3.68503">
        <ele>142.4</ele>
        <time>2010-11-28T09:56:56Z</time>
      </trkpt>
      <trkpt lat="43.60303" lon="3.68491">
        <ele>143.8</ele>
        <time>2010-11-28T09:57:04Z</time>
      </trkpt>
      <trkpt lat="43.60296" lon="3.68485">
        <ele>144.8</ele>
        <time>2010-11-28T09:57:09Z</time>
      </trkpt>
      <trkpt lat="43.60288" lon="3.68482">
        <ele>145.3</ele>
        <time>2010-11-28T09:57:14Z</time>
      </trkpt>
      <trkpt lat="43.6028" lon="3.68483">
        <ele>146.7</ele>
        <time>2010-11-28T09:57:19Z</time>
      </trkpt>
      <trkpt lat="43.60278" lon="3.68493">
        <ele>147.5</ele>
        <time>2010-11-28T09:57:25Z</time>
      </trkpt>
      <trkpt lat="43.60279" lon="3.68503">
        <ele>147.9</ele>
        <time>2010-11-28T09:57:29Z</time>
      </trkpt>
      <trkpt lat="43.60282" lon="3.68515">
        <ele>148.2</ele>
        <time>2010-11-28T09:57:33Z</time>
      </trkpt>
      <trkpt lat="43.60282" lon="3.68524">
        <ele>148.1</ele>
        <time>2010-11-28T09:57:36Z</time>
      </trkpt>
      <trkpt lat="43.60283" lon="3.68535">
        <ele>149</ele>
        <time>2010-11-28T09:57:39Z</time>
      </trkpt>
      <trkpt lat="43.60284" lon="3.68544">
        <ele>149</ele>
        <time>2010-11-28T09:57:41Z</time>
      </trkpt>
      <trkpt lat="43.60285" lon="3.68552">
        <ele>148.9</ele>
        <time>2010-11-28T09:57:43Z</time>
      </trkpt>
      <trkpt lat="43.60283" lon="3.68561">
        <ele>148.8</ele>
        <time>2010-11-28T09:57:45Z</time>
      </trkpt>
      <trkpt lat="43.6028" lon="3.68569">
        <ele>148.9</ele>
        <time>2010-11-28T09:57:47Z</time>
      </trkpt>
      <trkpt lat="43.60276" lon="3.68576">
        <ele>149</ele>
        <time>2010-11-28T09:57:49Z</time>
      </trkpt>
      <trkpt lat="43.60272" lon="3.68584">
        <ele>149.2</ele>
        <time>2010-11-28T09:57:51Z</time>
      </trkpt>
      <trkpt lat="43.60266" lon="3.68592">
        <ele>149.1</ele>
        <time>2010-11-28T09:57:53Z</time>
      </trkpt>
      <trkpt lat="43.6026" lon="3.68594">
        <ele>148.8</ele>
        <time>2010-11-28T09:57:55Z</time>
      </trkpt>
      <trkpt lat="43.60254" lon="3.68592">
        <ele>148.2</ele>
        <time>2010-11-28T09:57:57Z</time>
      </trkpt>
      <trkpt lat="43.60251" lon="3.68589">
        <ele>148.1</ele>
        <time>2010-11-28T09:57:58Z</time>
      </trkpt>
      <trkpt lat="43.60242" lon="3.68584">
        <ele>147.5</ele>
        <time>2010-11-28T09:58:01Z</time>
      </trkpt>
      <trkpt lat="43.60236" lon="3.6858">
        <ele>147.8</ele>
        <time>2010-11-28T09:58:03Z</time>
      </trkpt>
      <trkpt lat="43.6023" lon="3.68576">
        <ele>148.2</ele>
        <time>2010-11-28T09:58:05Z</time>
      </trkpt>
      <trkpt lat="43.60223" lon="3.68575">
        <ele>148.5</ele>
        <time>2010-11-28T09:58:07Z</time>
      </trkpt>
      <trkpt lat="43.60216" lon="3.68575">
        <ele>148.4</ele>
        <time>2010-11-28T09:58:09Z</time>
      </trkpt>
      <trkpt lat="43.60209" lon="3.68577">
        <ele>148.2</ele>
        <time>2010-11-28T09:58:11Z</time>
      </trkpt>
      <trkpt lat="43.60201" lon="3.68578">
        <ele>147.9</ele>
        <time>2010-11-28T09:58:13Z</time>
      </trkpt>
      <trkpt lat="43.60193" lon="3.68579">
        <ele>147.9</ele>
        <time>2010-11-28T09:58:15Z</time>
      </trkpt>
      <trkpt lat="43.60185" lon="3.6858">
        <ele>148</ele>
        <time>2010-11-28T09:58:17Z</time>
      </trkpt>
      <trkpt lat="43.60178" lon="3.68582">
        <ele>148</ele>
        <time>2010-11-28T09:58:19Z</time>
      </trkpt>
      <trkpt lat="43.60172" lon="3.68585">
        <ele>148</ele>
        <time>2010-11-28T09:58:21Z</time>
      </trkpt>
      <trkpt lat="43.60167" lon="3.68591">
        <ele>148</ele>
        <time>2010-11-28T09:58:23Z</time>
      </trkpt>
      <trkpt lat="43.60162" lon="3.68598">
        <ele>148.2</ele>
        <time>2010-11-28T09:58:25Z</time>
      </trkpt>
      <trkpt lat="43.60158" lon="3.68606">
        <ele>148.5</ele>
        <time>2010-11-28T09:58:27Z</time>
      </trkpt>
      <trkpt lat="43.60153" lon="3.68614">
        <ele>147.7</ele>
        <time>2010-11-28T09:58:29Z</time>
      </trkpt>
      <trkpt lat="43.60146" lon="3.6862">
        <ele>147.2</ele>
        <time>2010-11-28T09:58:31Z</time>
      </trkpt>
      <trkpt lat="43.60139" lon="3.68625">
        <ele>146.9</ele>
        <time>2010-11-28T09:58:33Z</time>
      </trkpt>
      <trkpt lat="43.60133" lon="3.68632">
        <ele>146.7</ele>
        <time>2010-11-28T09:58:35Z</time>
      </trkpt>
      <trkpt lat="43.60125" lon="3.68635">
        <ele>146.3</ele>
        <time>2010-11-28T09:58:37Z</time>
      </trkpt>
      <trkpt lat="43.60118" lon="3.68637">
        <ele>146</ele>
        <time>2010-11-28T09:58:39Z</time>
      </trkpt>
      <trkpt lat="43.6011" lon="3.68638">
        <ele>146.1</ele>
        <time>2010-11-28T09:58:41Z</time>
      </trkpt>
      <trkpt lat="43.60104" lon="3.68638">
        <ele>146.2</ele>
        <time>2010-11-28T09:58:43Z</time>
      </trkpt>
      <trkpt lat="43.60098" lon="3.68639">
        <ele>146.7</ele>
        <time>2010-11-28T09:58:45Z</time>
      </trkpt>
      <trkpt lat="43.60091" lon="3.6864">
        <ele>147.1</ele>
        <time>2010-11-28T09:58:47Z</time>
      </trkpt>
      <trkpt lat="43.60085" lon="3.6864">
        <ele>147.4</ele>
        <time>2010-11-28T09:58:49Z</time>
      </trkpt>
      <trkpt lat="43.60078" lon="3.6864">
        <ele>147.8</ele>
        <time>2010-11-28T09:58:51Z</time>
      </trkpt>
      <trkpt lat="43.60072" lon="3.68639">
        <ele>148.2</ele>
        <time>2010-11-28T09:58:53Z</time>
      </trkpt>
      <trkpt lat="43.60065" lon="3.6864">
        <ele>148.6</ele>
        <time>2010-11-28T09:58:55Z</time>
      </trkpt>
      <trkpt lat="43.60058" lon="3.68642">
        <ele>148.7</ele>
        <time>2010-11-28T09:58:57Z</time>
      </trkpt>
      <trkpt lat="43.60051" lon="3.68644">
        <ele>148.8</ele>
        <time>2010-11-28T09:58:59Z</time>
      </trkpt>
      <trkpt lat="43.60047" lon="3.68646">
        <ele>148.8</ele>
        <time>2010-11-28T09:59:00Z</time>
      </trkpt>
      <trkpt lat="43.60038" lon="3.68652">
        <ele>149.4</ele>
        <time>2010-11-28T09:59:04Z</time>
      </trkpt>
      <trkpt lat="43.6003" lon="3.68655">
        <ele>149.7</ele>
        <time>2010-11-28T09:59:09Z</time>
      </trkpt>
      <trkpt lat="43.60022" lon="3.68659">
        <ele>151.6</ele>
        <time>2010-11-28T09:59:15Z</time>
      </trkpt>
      <trkpt lat="43.60014" lon="3.68663">
        <ele>153.2</ele>
        <time>2010-11-28T09:59:22Z</time>
      </trkpt>
      <trkpt lat="43.60006" lon="3.68666">
        <ele>155</ele>
        <time>2010-11-28T09:59:29Z</time>
      </trkpt>
      <trkpt lat="43.59998" lon="3.68667">
        <ele>157.3</ele>
        <time>2010-11-28T09:59:36Z</time>
      </trkpt>
      <trkpt lat="43.5999" lon="3.68668">
        <ele>158.2</ele>
        <time>2010-11-28T09:59:42Z</time>
      </trkpt>
      <trkpt lat="43.59982" lon="3.68667">
        <ele>161.7</ele>
        <time>2010-11-28T09:59:53Z</time>
      </trkpt>
      <trkpt lat="43.59974" lon="3.68674">
        <ele>162.3</ele>
        <time>2010-11-28T10:00:03Z</time>
      </trkpt>
      <trkpt lat="43.59974" lon="3.68675">
        <ele>162.9</ele>
        <time>2010-11-28T10:00:04Z</time>
      </trkpt>
      <trkpt lat="43.59969" lon="3.68695">
        <ele>164</ele>
        <time>2010-11-28T10:00:24Z</time>
      </trkpt>
      <trkpt lat="43.59967" lon="3.68705">
        <ele>164.7</ele>
        <time>2010-11-28T10:00:29Z</time>
      </trkpt>
      <trkpt lat="43.59964" lon="3.68715">
        <ele>165.4</ele>
        <time>2010-11-28T10:00:34Z</time>
      </trkpt>
      <trkpt lat="43.5996" lon="3.68724">
        <ele>166.9</ele>
        <time>2010-11-28T10:00:39Z</time>
      </trkpt>
      <trkpt lat="43.59954" lon="3.68732">
        <ele>167.1</ele>
        <time>2010-11-28T10:00:44Z</time>
      </trkpt>
      <trkpt lat="43.59949" lon="3.6874">
        <ele>168.3</ele>
        <time>2010-11-28T10:00:49Z</time>
      </trkpt>
      <trkpt lat="43.59943" lon="3.68749">
        <ele>169</ele>
        <time>2010-11-28T10:00:54Z</time>
      </trkpt>
      <trkpt lat="43.59936" lon="3.68756">
        <ele>169.2</ele>
        <time>2010-11-28T10:00:59Z</time>
      </trkpt>
      <trkpt lat="43.5993" lon="3.68762">
        <ele>170.3</ele>
        <time>2010-11-28T10:01:03Z</time>
      </trkpt>
      <trkpt lat="43.59924" lon="3.68768">
        <ele>170.3</ele>
        <time>2010-11-28T10:01:07Z</time>
      </trkpt>
      <trkpt lat="43.59922" lon="3.68769">
        <ele>170.5</ele>
        <time>2010-11-28T10:01:08Z</time>
      </trkpt>
      <trkpt lat="43.5991" lon="3.68778">
        <ele>172</ele>
        <time>2010-11-28T10:01:15Z</time>
      </trkpt>
      <trkpt lat="43.59903" lon="3.68784">
        <ele>172.4</ele>
        <time>2010-11-28T10:01:19Z</time>
      </trkpt>
      <trkpt lat="43.59897" lon="3.6879">
        <ele>172.8</ele>
        <time>2010-11-28T10:01:22Z</time>
      </trkpt>
      <trkpt lat="43.5989" lon="3.68798">
        <ele>173.4</ele>
        <time>2010-11-28T10:01:25Z</time>
      </trkpt>
      <trkpt lat="43.59885" lon="3.68803">
        <ele>173</ele>
        <time>2010-11-28T10:01:27Z</time>
      </trkpt>
      <trkpt lat="43.5988" lon="3.68807">
        <ele>172.8</ele>
        <time>2010-11-28T10:01:29Z</time>
      </trkpt>
      <trkpt lat="43.59874" lon="3.6881">
        <ele>173</ele>
        <time>2010-11-28T10:01:31Z</time>
      </trkpt>
      <trkpt lat="43.59867" lon="3.68811">
        <ele>173.3</ele>
        <time>2010-11-28T10:01:33Z</time>
      </trkpt>
      <trkpt lat="43.5986" lon="3.68814">
        <ele>173.6</ele>
        <time>2010-11-28T10:01:35Z</time>
      </trkpt>
      <trkpt lat="43.59853" lon="3.68817">
        <ele>173.6</ele>
        <time>2010-11-28T10:01:37Z</time>
      </trkpt>
      <trkpt lat="43.59845" lon="3.68818">
        <ele>173.4</ele>
        <time>2010-11-28T10:01:39Z</time>
      </trkpt>
      <trkpt lat="43.59837" lon="3.68818">
        <ele>173.1</ele>
        <time>2010-11-28T10:01:41Z</time>
      </trkpt>
      <trkpt lat="43.59829" lon="3.68816">
        <ele>172.4</ele>
        <time>2010-11-28T10:01:43Z</time>
      </trkpt>
      <trkpt lat="43.59821" lon="3.68812">
        <ele>172.1</ele>
        <time>2010-11-28T10:01:45Z</time>
      </trkpt>
      <trkpt lat="43.59813" lon="3.68807">
        <ele>171.8</ele>
        <time>2010-11-28T10:01:47Z</time>
      </trkpt>
      <trkpt lat="43.59808" lon="3.68805">
        <ele>171.7</ele>
        <time>2010-11-28T10:01:48Z</time>
      </trkpt>
      <trkpt lat="43.59804" lon="3.68801">
        <ele>171.4</ele>
        <time>2010-11-28T10:01:49Z</time>
      </trkpt>
      <trkpt lat="43.598" lon="3.68797">
        <ele>171.2</ele>
        <time>2010-11-28T10:01:50Z</time>
      </trkpt>
      <trkpt lat="43.59795" lon="3.68794">
        <ele>171</ele>
        <time>2010-11-28T10:01:51Z</time>
      </trkpt>
      <trkpt lat="43.59791" lon="3.6879">
        <ele>170.8</ele>
        <time>2010-11-28T10:01:52Z</time>
      </trkpt>
      <trkpt lat="43.59786" lon="3.68788">
        <ele>170.7</ele>
        <time>2010-11-28T10:01:53Z</time>
      </trkpt>
      <trkpt lat="43.59782" lon="3.68785">
        <ele>170.6</ele>
        <time>2010-11-28T10:01:54Z</time>
      </trkpt>
      <trkpt lat="43.59777" lon="3.68783">
        <ele>170</ele>
        <time>2010-11-28T10:01:55Z</time>
      </trkpt>
      <trkpt lat="43.59772" lon="3.6878">
        <ele>169.6</ele>
        <time>2010-11-28T10:01:56Z</time>
      </trkpt>
      <trkpt lat="43.59767" lon="3.68777">
        <ele>169.3</ele>
        <time>2010-11-28T10:01:57Z</time>
      </trkpt>
      <trkpt lat="43.59761" lon="3.68774">
        <ele>168.9</ele>
        <time>2010-11-28T10:01:58Z</time>
      </trkpt>
      <trkpt lat="43.59756" lon="3.68771">
        <ele>168.5</ele>
        <time>2010-11-28T10:01:59Z</time>
      </trkpt>
      <trkpt lat="43.59752" lon="3.68767">
        <ele>168.2</ele>
        <time>2010-11-28T10:02:00Z</time>
      </trkpt>
      <trkpt lat="43.59745" lon="3.68762">
        <ele>167.9</ele>
        <time>2010-11-28T10:02:02Z</time>
      </trkpt>
      <trkpt lat="43.59736" lon="3.68762">
        <ele>168.6</ele>
        <time>2010-11-28T10:02:07Z</time>
      </trkpt>
      <trkpt lat="43.59729" lon="3.68765">
        <ele>170</ele>
        <time>2010-11-28T10:02:11Z</time>
      </trkpt>
      <trkpt lat="43.59726" lon="3.68767">
        <ele>170.5</ele>
        <time>2010-11-28T10:02:12Z</time>
      </trkpt>
      <trkpt lat="43.59714" lon="3.68772">
        <ele>172.1</ele>
        <time>2010-11-28T10:02:18Z</time>
      </trkpt>
      <trkpt lat="43.59707" lon="3.68775">
        <ele>172.7</ele>
        <time>2010-11-28T10:02:21Z</time>
      </trkpt>
      <trkpt lat="43.59699" lon="3.68778">
        <ele>173.3</ele>
        <time>2010-11-28T10:02:25Z</time>
      </trkpt>
      <trkpt lat="43.59691" lon="3.6878">
        <ele>174.5</ele>
        <time>2010-11-28T10:02:29Z</time>
      </trkpt>
      <trkpt lat="43.59684" lon="3.68783">
        <ele>175</ele>
        <time>2010-11-28T10:02:32Z</time>
      </trkpt>
      <trkpt lat="43.59676" lon="3.68785">
        <ele>174.7</ele>
        <time>2010-11-28T10:02:35Z</time>
      </trkpt>
      <trkpt lat="43.5967" lon="3.68787">
        <ele>174.3</ele>
        <time>2010-11-28T10:02:38Z</time>
      </trkpt>
      <trkpt lat="43.59661" lon="3.68787">
        <ele>173.9</ele>
        <time>2010-11-28T10:02:42Z</time>
      </trkpt>
      <trkpt lat="43.59653" lon="3.68788">
        <ele>173.4</ele>
        <time>2010-11-28T10:02:57Z</time>
      </trkpt>
      <trkpt lat="43.59651" lon="3.688">
        <ele>173.8</ele>
        <time>2010-11-28T10:03:06Z</time>
      </trkpt>
      <trkpt lat="43.59644" lon="3.68808">
        <ele>172.8</ele>
        <time>2010-11-28T10:03:14Z</time>
      </trkpt>
      <trkpt lat="43.59644" lon="3.68808">
        <ele>172.5</ele>
        <time>2010-11-28T10:03:15Z</time>
      </trkpt>
      <trkpt lat="43.59655" lon="3.68789">
        <ele>173.3</ele>
        <time>2010-11-28T10:03:34Z</time>
      </trkpt>
      <trkpt lat="43.59648" lon="3.68781">
        <ele>174.1</ele>
        <time>2010-11-28T10:04:22Z</time>
      </trkpt>
      <trkpt lat="43.59647" lon="3.6878">
        <ele>174.2</ele>
        <time>2010-11-28T10:04:23Z</time>
      </trkpt>
      <trkpt lat="43.59636" lon="3.68771">
        <ele>174.8</ele>
        <time>2010-11-28T10:04:29Z</time>
      </trkpt>
      <trkpt lat="43.59629" lon="3.68766">
        <ele>174.6</ele>
        <time>2010-11-28T10:04:32Z</time>
      </trkpt>
      <trkpt lat="43.59622" lon="3.68762">
        <ele>174.4</ele>
        <time>2010-11-28T10:04:35Z</time>
      </trkpt>
      <trkpt lat="43.59616" lon="3.68757">
        <ele>174.5</ele>
        <time>2010-11-28T10:04:38Z</time>
      </trkpt>
      <trkpt lat="43.5961" lon="3.68753">
        <ele>174.6</ele>
        <time>2010-11-28T10:04:41Z</time>
      </trkpt>
      <trkpt lat="43.59603" lon="3.68749">
        <ele>174.6</ele>
        <time>2010-11-28T10:04:44Z</time>
      </trkpt>
      <trkpt lat="43.59594" lon="3.68746">
        <ele>176.1</ele>
        <time>2010-11-28T10:04:48Z</time>
      </trkpt>
      <trkpt lat="43.59587" lon="3.68742">
        <ele>178.1</ele>
        <time>2010-11-28T10:04:53Z</time>
      </trkpt>
      <trkpt lat="43.59579" lon="3.68741">
        <ele>179.5</ele>
        <time>2010-11-28T10:04:59Z</time>
      </trkpt>
      <trkpt lat="43.59571" lon="3.68737">
        <ele>180.6</ele>
        <time>2010-11-28T10:05:04Z</time>
      </trkpt>
      <trkpt lat="43.59564" lon="3.68733">
        <ele>181.2</ele>
        <time>2010-11-28T10:05:09Z</time>
      </trkpt>
      <trkpt lat="43.59557" lon="3.68727">
        <ele>182.6</ele>
        <time>2010-11-28T10:05:14Z</time>
      </trkpt>
      <trkpt lat="43.5955" lon="3.68721">
        <ele>183.1</ele>
        <time>2010-11-28T10:05:19Z</time>
      </trkpt>
      <trkpt lat="43.59542" lon="3.68717">
        <ele>185</ele>
        <time>2010-11-28T10:05:25Z</time>
      </trkpt>
      <trkpt lat="43.59541" lon="3.68716">
        <ele>185.7</ele>
        <time>2010-11-28T10:05:26Z</time>
      </trkpt>
      <trkpt lat="43.59527" lon="3.68708">
        <ele>189.9</ele>
        <time>2010-11-28T10:05:39Z</time>
      </trkpt>
      <trkpt lat="43.59519" lon="3.68706">
        <ele>190.8</ele>
        <time>2010-11-28T10:05:45Z</time>
      </trkpt>
      <trkpt lat="43.5951" lon="3.68706">
        <ele>192.2</ele>
        <time>2010-11-28T10:05:51Z</time>
      </trkpt>
      <trkpt lat="43.59502" lon="3.68705">
        <ele>193.9</ele>
        <time>2010-11-28T10:05:56Z</time>
      </trkpt>
      <trkpt lat="43.59494" lon="3.68705">
        <ele>194.7</ele>
        <time>2010-11-28T10:06:01Z</time>
      </trkpt>
      <trkpt lat="43.59486" lon="3.68704">
        <ele>196.3</ele>
        <time>2010-11-28T10:06:06Z</time>
      </trkpt>
      <trkpt lat="43.59479" lon="3.68703">
        <ele>196.7</ele>
        <time>2010-11-28T10:06:10Z</time>
      </trkpt>
      <trkpt lat="43.59472" lon="3.68701">
        <ele>196.7</ele>
        <time>2010-11-28T10:06:13Z</time>
      </trkpt>
      <trkpt lat="43.59466" lon="3.68696">
        <ele>196.3</ele>
        <time>2010-11-28T10:06:16Z</time>
      </trkpt>
      <trkpt lat="43.59458" lon="3.68691">
        <ele>196.3</ele>
        <time>2010-11-28T10:06:19Z</time>
      </trkpt>
      <trkpt lat="43.5945" lon="3.68685">
        <ele>195.8</ele>
        <time>2010-11-28T10:06:22Z</time>
      </trkpt>
      <trkpt lat="43.59443" lon="3.68681">
        <ele>195.4</ele>
        <time>2010-11-28T10:06:25Z</time>
      </trkpt>
      <trkpt lat="43.59434" lon="3.68677">
        <ele>194.8</ele>
        <time>2010-11-28T10:06:30Z</time>
      </trkpt>
      <trkpt lat="43.59433" lon="3.68676">
        <ele>194.9</ele>
        <time>2010-11-28T10:06:31Z</time>
      </trkpt>
      <trkpt lat="43.5942" lon="3.68672">
        <ele>193.6</ele>
        <time>2010-11-28T10:06:37Z</time>
      </trkpt>
      <trkpt lat="43.59413" lon="3.6867">
        <ele>192.9</ele>
        <time>2010-11-28T10:06:40Z</time>
      </trkpt>
      <trkpt lat="43.59405" lon="3.6867">
        <ele>192.3</ele>
        <time>2010-11-28T10:06:43Z</time>
      </trkpt>
      <trkpt lat="43.59396" lon="3.68669">
        <ele>191.8</ele>
        <time>2010-11-28T10:06:46Z</time>
      </trkpt>
      <trkpt lat="43.5939" lon="3.68667">
        <ele>191.8</ele>
        <time>2010-11-28T10:06:48Z</time>
      </trkpt>
      <trkpt lat="43.59383" lon="3.68665">
        <ele>191.1</ele>
        <time>2010-11-28T10:06:50Z</time>
      </trkpt>
      <trkpt lat="43.59376" lon="3.6866">
        <ele>190.4</ele>
        <time>2010-11-28T10:06:52Z</time>
      </trkpt>
      <trkpt lat="43.5937" lon="3.68655">
        <ele>189.6</ele>
        <time>2010-11-28T10:06:54Z</time>
      </trkpt>
      <trkpt lat="43.59366" lon="3.68648">
        <ele>189.5</ele>
        <time>2010-11-28T10:06:56Z</time>
      </trkpt>
      <trkpt lat="43.59361" lon="3.68639">
        <ele>189.5</ele>
        <time>2010-11-28T10:06:59Z</time>
      </trkpt>
      <trkpt lat="43.59355" lon="3.68632">
        <ele>189.4</ele>
        <time>2010-11-28T10:07:02Z</time>
      </trkpt>
      <trkpt lat="43.59348" lon="3.68629">
        <ele>188.8</ele>
        <time>2010-11-28T10:07:05Z</time>
      </trkpt>
      <trkpt lat="43.59341" lon="3.68628">
        <ele>188.4</ele>
        <time>2010-11-28T10:07:07Z</time>
      </trkpt>
      <trkpt lat="43.59335" lon="3.6863">
        <ele>187.8</ele>
        <time>2010-11-28T10:07:09Z</time>
      </trkpt>
      <trkpt lat="43.59327" lon="3.68633">
        <ele>185.8</ele>
        <time>2010-11-28T10:07:12Z</time>
      </trkpt>
      <trkpt lat="43.59319" lon="3.68632">
        <ele>184.4</ele>
        <time>2010-11-28T10:07:15Z</time>
      </trkpt>
      <trkpt lat="43.59311" lon="3.68629">
        <ele>182.9</ele>
        <time>2010-11-28T10:07:18Z</time>
      </trkpt>
      <trkpt lat="43.59303" lon="3.68627">
        <ele>178.2</ele>
        <time>2010-11-28T10:08:19Z</time>
      </trkpt>
      <trkpt lat="43.59301" lon="3.68628">
        <ele>178.1</ele>
        <time>2010-11-28T10:08:20Z</time>
      </trkpt>
      <trkpt lat="43.59289" lon="3.68639">
        <ele>177.9</ele>
        <time>2010-11-28T10:09:22Z</time>
      </trkpt>
      <trkpt lat="43.59286" lon="3.6864">
        <ele>177.8</ele>
        <time>2010-11-28T10:09:23Z</time>
      </trkpt>
      <trkpt lat="43.59277" lon="3.68644">
        <ele>177.2</ele>
        <time>2010-11-28T10:09:26Z</time>
      </trkpt>
      <trkpt lat="43.5927" lon="3.68648">
        <ele>176.9</ele>
        <time>2010-11-28T10:09:28Z</time>
      </trkpt>
      <trkpt lat="43.59264" lon="3.68653">
        <ele>175.8</ele>
        <time>2010-11-28T10:09:30Z</time>
      </trkpt>
      <trkpt lat="43.59257" lon="3.68658">
        <ele>175.2</ele>
        <time>2010-11-28T10:09:32Z</time>
      </trkpt>
      <trkpt lat="43.59252" lon="3.68664">
        <ele>174.9</ele>
        <time>2010-11-28T10:09:34Z</time>
      </trkpt>
      <trkpt lat="43.59246" lon="3.6867">
        <ele>174.3</ele>
        <time>2010-11-28T10:09:36Z</time>
      </trkpt>
      <trkpt lat="43.59241" lon="3.68679">
        <ele>173.8</ele>
        <time>2010-11-28T10:09:38Z</time>
      </trkpt>
      <trkpt lat="43.59236" lon="3.68688">
        <ele>173.3</ele>
        <time>2010-11-28T10:09:40Z</time>
      </trkpt>
      <trkpt lat="43.59234" lon="3.68694">
        <ele>172.9</ele>
        <time>2010-11-28T10:09:41Z</time>
      </trkpt>
      <trkpt lat="43.59231" lon="3.687">
        <ele>172.5</ele>
        <time>2010-11-28T10:09:42Z</time>
      </trkpt>
      <trkpt lat="43.59229" lon="3.68706">
        <ele>172.3</ele>
        <time>2010-11-28T10:09:43Z</time>
      </trkpt>
      <trkpt lat="43.59227" lon="3.68713">
        <ele>172.1</ele>
        <time>2010-11-28T10:09:44Z</time>
      </trkpt>
      <trkpt lat="43.59225" lon="3.68721">
        <ele>171.8</ele>
        <time>2010-11-28T10:09:45Z</time>
      </trkpt>
      <trkpt lat="43.59223" lon="3.68729">
        <ele>171.5</ele>
        <time>2010-11-28T10:09:46Z</time>
      </trkpt>
      <trkpt lat="43.59222" lon="3.68737">
        <ele>171.3</ele>
        <time>2010-11-28T10:09:47Z</time>
      </trkpt>
      <trkpt lat="43.59221" lon="3.68746">
        <ele>170.9</ele>
        <time>2010-11-28T10:09:48Z</time>
      </trkpt>
      <trkpt lat="43.5922" lon="3.68755">
        <ele>170.6</ele>
        <time>2010-11-28T10:09:49Z</time>
      </trkpt>
      <trkpt lat="43.5922" lon="3.68762">
        <ele>170.4</ele>
        <time>2010-11-28T10:09:50Z</time>
      </trkpt>
      <trkpt lat="43.59219" lon="3.6877">
        <ele>170.1</ele>
        <time>2010-11-28T10:09:51Z</time>
      </trkpt>
      <trkpt lat="43.59219" lon="3.68776">
        <ele>169.9</ele>
        <time>2010-11-28T10:09:52Z</time>
      </trkpt>
      <trkpt lat="43.59219" lon="3.68789">
        <ele>169</ele>
        <time>2010-11-28T10:09:54Z</time>
      </trkpt>
      <trkpt lat="43.5922" lon="3.68795">
        <ele>168.5</ele>
        <time>2010-11-28T10:09:55Z</time>
      </trkpt>
      <trkpt lat="43.5922" lon="3.68802">
        <ele>168.1</ele>
        <time>2010-11-28T10:09:56Z</time>
      </trkpt>
      <trkpt lat="43.59221" lon="3.68809">
        <ele>167.1</ele>
        <time>2010-11-28T10:09:57Z</time>
      </trkpt>
      <trkpt lat="43.59221" lon="3.68816">
        <ele>166.3</ele>
        <time>2010-11-28T10:09:58Z</time>
      </trkpt>
      <trkpt lat="43.59219" lon="3.68827">
        <ele>165.3</ele>
        <time>2010-11-28T10:10:00Z</time>
      </trkpt>
      <trkpt lat="43.59212" lon="3.68832">
        <ele>164.6</ele>
        <time>2010-11-28T10:10:02Z</time>
      </trkpt>
      <trkpt lat="43.59205" lon="3.68829">
        <ele>164</ele>
        <time>2010-11-28T10:10:04Z</time>
      </trkpt>
      <trkpt lat="43.59202" lon="3.68824">
        <ele>163.7</ele>
        <time>2010-11-28T10:10:05Z</time>
      </trkpt>
      <trkpt lat="43.59199" lon="3.68819">
        <ele>163.5</ele>
        <time>2010-11-28T10:10:06Z</time>
      </trkpt>
      <trkpt lat="43.59197" lon="3.68812">
        <ele>163</ele>
        <time>2010-11-28T10:10:07Z</time>
      </trkpt>
      <trkpt lat="43.59196" lon="3.68805">
        <ele>162.6</ele>
        <time>2010-11-28T10:10:08Z</time>
      </trkpt>
      <trkpt lat="43.59194" lon="3.68797">
        <ele>162.3</ele>
        <time>2010-11-28T10:10:09Z</time>
      </trkpt>
      <trkpt lat="43.59192" lon="3.6879">
        <ele>161.6</ele>
        <time>2010-11-28T10:10:10Z</time>
      </trkpt>
      <trkpt lat="43.5919" lon="3.68784">
        <ele>161.1</ele>
        <time>2010-11-28T10:10:11Z</time>
      </trkpt>
      <trkpt lat="43.59186" lon="3.68774">
        <ele>159.8</ele>
        <time>2010-11-28T10:10:13Z</time>
      </trkpt>
      <trkpt lat="43.59183" lon="3.68766">
        <ele>158.7</ele>
        <time>2010-11-28T10:10:15Z</time>
      </trkpt>
      <trkpt lat="43.59179" lon="3.68756">
        <ele>157.9</ele>
        <time>2010-11-28T10:10:17Z</time>
      </trkpt>
      <trkpt lat="43.59177" lon="3.68751">
        <ele>157.7</ele>
        <time>2010-11-28T10:10:18Z</time>
      </trkpt>
      <trkpt lat="43.59174" lon="3.68746">
        <ele>157.4</ele>
        <time>2010-11-28T10:10:19Z</time>
      </trkpt>
      <trkpt lat="43.59169" lon="3.68736">
        <ele>156.7</ele>
        <time>2010-11-28T10:10:21Z</time>
      </trkpt>
      <trkpt lat="43.59166" lon="3.6873">
        <ele>156.5</ele>
        <time>2010-11-28T10:10:22Z</time>
      </trkpt>
      <trkpt lat="43.59164" lon="3.68724">
        <ele>156.3</ele>
        <time>2010-11-28T10:10:23Z</time>
      </trkpt>
      <trkpt lat="43.59162" lon="3.68718">
        <ele>156.1</ele>
        <time>2010-11-28T10:10:24Z</time>
      </trkpt>
      <trkpt lat="43.59159" lon="3.68712">
        <ele>156</ele>
        <time>2010-11-28T10:10:25Z</time>
      </trkpt>
      <trkpt lat="43.59157" lon="3.68706">
        <ele>155.6</ele>
        <time>2010-11-28T10:10:26Z</time>
      </trkpt>
      <trkpt lat="43.59155" lon="3.68699">
        <ele>155.2</ele>
        <time>2010-11-28T10:10:27Z</time>
      </trkpt>
      <trkpt lat="43.59153" lon="3.68692">
        <ele>155</ele>
        <time>2010-11-28T10:10:28Z</time>
      </trkpt>
      <trkpt lat="43.59152" lon="3.68685">
        <ele>154.7</ele>
        <time>2010-11-28T10:10:29Z</time>
      </trkpt>
      <trkpt lat="43.59152" lon="3.68678">
        <ele>154.4</ele>
        <time>2010-11-28T10:10:30Z</time>
      </trkpt>
      <trkpt lat="43.59152" lon="3.68671">
        <ele>154.3</ele>
        <time>2010-11-28T10:10:31Z</time>
      </trkpt>
      <trkpt lat="43.59152" lon="3.68664">
        <ele>153.7</ele>
        <time>2010-11-28T10:10:32Z</time>
      </trkpt>
      <trkpt lat="43.59152" lon="3.68657">
        <ele>153.3</ele>
        <time>2010-11-28T10:10:33Z</time>
      </trkpt>
      <trkpt lat="43.59151" lon="3.6865">
        <ele>152.9</ele>
        <time>2010-11-28T10:10:34Z</time>
      </trkpt>
      <trkpt lat="43.59148" lon="3.68644">
        <ele>152.7</ele>
        <time>2010-11-28T10:10:35Z</time>
      </trkpt>
      <trkpt lat="43.59144" lon="3.6864">
        <ele>151.9</ele>
        <time>2010-11-28T10:10:36Z</time>
      </trkpt>
      <trkpt lat="43.59139" lon="3.68636">
        <ele>151.4</ele>
        <time>2010-11-28T10:10:37Z</time>
      </trkpt>
      <trkpt lat="43.59134" lon="3.68633">
        <ele>150.9</ele>
        <time>2010-11-28T10:10:38Z</time>
      </trkpt>
      <trkpt lat="43.59129" lon="3.6863">
        <ele>150.7</ele>
        <time>2010-11-28T10:10:39Z</time>
      </trkpt>
      <trkpt lat="43.59124" lon="3.68626">
        <ele>150.6</ele>
        <time>2010-11-28T10:10:40Z</time>
      </trkpt>
      <trkpt lat="43.59119" lon="3.68623">
        <ele>150.5</ele>
        <time>2010-11-28T10:10:41Z</time>
      </trkpt>
      <trkpt lat="43.59115" lon="3.68619">
        <ele>149.8</ele>
        <time>2010-11-28T10:10:42Z</time>
      </trkpt>
      <trkpt lat="43.59109" lon="3.68614">
        <ele>149.3</ele>
        <time>2010-11-28T10:10:43Z</time>
      </trkpt>
      <trkpt lat="43.59104" lon="3.6861">
        <ele>149</ele>
        <time>2010-11-28T10:10:44Z</time>
      </trkpt>
      <trkpt lat="43.59098" lon="3.68605">
        <ele>148.2</ele>
        <time>2010-11-28T10:10:45Z</time>
      </trkpt>
      <trkpt lat="43.59093" lon="3.68599">
        <ele>147.6</ele>
        <time>2010-11-28T10:10:46Z</time>
      </trkpt>
      <trkpt lat="43.59087" lon="3.68593">
        <ele>147.2</ele>
        <time>2010-11-28T10:10:47Z</time>
      </trkpt>
      <trkpt lat="43.59082" lon="3.68587">
        <ele>147</ele>
        <time>2010-11-28T10:10:48Z</time>
      </trkpt>
      <trkpt lat="43.59076" lon="3.6858">
        <ele>146.8</ele>
        <time>2010-11-28T10:10:49Z</time>
      </trkpt>
      <trkpt lat="43.59071" lon="3.68574">
        <ele>146.6</ele>
        <time>2010-11-28T10:10:50Z</time>
      </trkpt>
      <trkpt lat="43.59065" lon="3.68567">
        <ele>146.5</ele>
        <time>2010-11-28T10:10:51Z</time>
      </trkpt>
      <trkpt lat="43.5906" lon="3.68562">
        <ele>145.6</ele>
        <time>2010-11-28T10:10:52Z</time>
      </trkpt>
      <trkpt lat="43.59055" lon="3.68558">
        <ele>144.9</ele>
        <time>2010-11-28T10:10:53Z</time>
      </trkpt>
      <trkpt lat="43.59051" lon="3.68555">
        <ele>144.4</ele>
        <time>2010-11-28T10:10:54Z</time>
      </trkpt>
      <trkpt lat="43.59043" lon="3.68552">
        <ele>143.5</ele>
        <time>2010-11-28T10:10:56Z</time>
      </trkpt>
      <trkpt lat="43.59035" lon="3.6855">
        <ele>142.8</ele>
        <time>2010-11-28T10:10:58Z</time>
      </trkpt>
      <trkpt lat="43.5903" lon="3.68549">
        <ele>142.4</ele>
        <time>2010-11-28T10:10:59Z</time>
      </trkpt>
      <trkpt lat="43.59025" lon="3.68548">
        <ele>142.2</ele>
        <time>2010-11-28T10:11:00Z</time>
      </trkpt>
      <trkpt lat="43.5902" lon="3.68548">
        <ele>141.8</ele>
        <time>2010-11-28T10:11:01Z</time>
      </trkpt>
      <trkpt lat="43.59014" lon="3.68547">
        <ele>141.5</ele>
        <time>2010-11-28T10:11:02Z</time>
      </trkpt>
      <trkpt lat="43.59008" lon="3.68547">
        <ele>141.3</ele>
        <time>2010-11-28T10:11:03Z</time>
      </trkpt>
      <trkpt lat="43.59003" lon="3.68546">
        <ele>141</ele>
        <time>2010-11-28T10:11:04Z</time>
      </trkpt>
      <trkpt lat="43.58997" lon="3.68546">
        <ele>140.8</ele>
        <time>2010-11-28T10:11:05Z</time>
      </trkpt>
      <trkpt lat="43.58991" lon="3.68547">
        <ele>140.6</ele>
        <time>2010-11-28T10:11:06Z</time>
      </trkpt>
      <trkpt lat="43.58985" lon="3.68549">
        <ele>140.5</ele>
        <time>2010-11-28T10:11:07Z</time>
      </trkpt>
      <trkpt lat="43.58979" lon="3.68551">
        <ele>139.6</ele>
        <time>2010-11-28T10:11:08Z</time>
      </trkpt>
      <trkpt lat="43.58972" lon="3.68554">
        <ele>139</ele>
        <time>2010-11-28T10:11:09Z</time>
      </trkpt>
      <trkpt lat="43.58966" lon="3.68557">
        <ele>138.5</ele>
        <time>2010-11-28T10:11:10Z</time>
      </trkpt>
      <trkpt lat="43.5896" lon="3.68561">
        <ele>138.1</ele>
        <time>2010-11-28T10:11:11Z</time>
      </trkpt>
      <trkpt lat="43.58954" lon="3.68564">
        <ele>137.7</ele>
        <time>2010-11-28T10:11:12Z</time>
      </trkpt>
      <trkpt lat="43.58948" lon="3.68568">
        <ele>137.5</ele>
        <time>2010-11-28T10:11:13Z</time>
      </trkpt>
      <trkpt lat="43.58941" lon="3.68571">
        <ele>137.3</ele>
        <time>2010-11-28T10:11:14Z</time>
      </trkpt>
      <trkpt lat="43.58935" lon="3.68575">
        <ele>137.1</ele>
        <time>2010-11-28T10:11:15Z</time>
      </trkpt>
      <trkpt lat="43.58928" lon="3.68579">
        <ele>137</ele>
        <time>2010-11-28T10:11:16Z</time>
      </trkpt>
      <trkpt lat="43.58922" lon="3.68582">
        <ele>136.6</ele>
        <time>2010-11-28T10:11:17Z</time>
      </trkpt>
      <trkpt lat="43.58915" lon="3.68586">
        <ele>136.3</ele>
        <time>2010-11-28T10:11:18Z</time>
      </trkpt>
      <trkpt lat="43.58908" lon="3.68589">
        <ele>136.1</ele>
        <time>2010-11-28T10:11:19Z</time>
      </trkpt>
      <trkpt lat="43.58901" lon="3.68592">
        <ele>135.3</ele>
        <time>2010-11-28T10:11:20Z</time>
      </trkpt>
      <trkpt lat="43.58894" lon="3.68595">
        <ele>134.7</ele>
        <time>2010-11-28T10:11:21Z</time>
      </trkpt>
      <trkpt lat="43.58887" lon="3.68597">
        <ele>134.3</ele>
        <time>2010-11-28T10:11:22Z</time>
      </trkpt>
      <trkpt lat="43.5888" lon="3.686">
        <ele>134</ele>
        <time>2010-11-28T10:11:23Z</time>
      </trkpt>
      <trkpt lat="43.58873" lon="3.68602">
        <ele>133.6</ele>
        <time>2010-11-28T10:11:24Z</time>
      </trkpt>
      <trkpt lat="43.58865" lon="3.68604">
        <ele>133.4</ele>
        <time>2010-11-28T10:11:25Z</time>
      </trkpt>
      <trkpt lat="43.58858" lon="3.68606">
        <ele>133.2</ele>
        <time>2010-11-28T10:11:26Z</time>
      </trkpt>
      <trkpt lat="43.5885" lon="3.68607">
        <ele>132.7</ele>
        <time>2010-11-28T10:11:27Z</time>
      </trkpt>
      <trkpt lat="43.58843" lon="3.6861">
        <ele>132.3</ele>
        <time>2010-11-28T10:11:28Z</time>
      </trkpt>
      <trkpt lat="43.58835" lon="3.68612">
        <ele>132.1</ele>
        <time>2010-11-28T10:11:29Z</time>
      </trkpt>
      <trkpt lat="43.58827" lon="3.68612">
        <ele>131.6</ele>
        <time>2010-11-28T10:11:30Z</time>
      </trkpt>
      <trkpt lat="43.58819" lon="3.68611">
        <ele>131.3</ele>
        <time>2010-11-28T10:11:31Z</time>
      </trkpt>
      <trkpt lat="43.58812" lon="3.68608">
        <ele>131</ele>
        <time>2010-11-28T10:11:32Z</time>
      </trkpt>
      <trkpt lat="43.58807" lon="3.68603">
        <ele>130.5</ele>
        <time>2010-11-28T10:11:33Z</time>
      </trkpt>
      <trkpt lat="43.58804" lon="3.68597">
        <ele>130.1</ele>
        <time>2010-11-28T10:11:34Z</time>
      </trkpt>
      <trkpt lat="43.58802" lon="3.68589">
        <ele>129.7</ele>
        <time>2010-11-28T10:11:35Z</time>
      </trkpt>
      <trkpt lat="43.58801" lon="3.68581">
        <ele>128.9</ele>
        <time>2010-11-28T10:11:36Z</time>
      </trkpt>
      <trkpt lat="43.58801" lon="3.68573">
        <ele>128.3</ele>
        <time>2010-11-28T10:11:37Z</time>
      </trkpt>
      <trkpt lat="43.58801" lon="3.68564">
        <ele>127.8</ele>
        <time>2010-11-28T10:11:38Z</time>
      </trkpt>
      <trkpt lat="43.588" lon="3.68557">
        <ele>127.5</ele>
        <time>2010-11-28T10:11:39Z</time>
      </trkpt>
      <trkpt lat="43.588" lon="3.6855">
        <ele>127.2</ele>
        <time>2010-11-28T10:11:40Z</time>
      </trkpt>
      <trkpt lat="43.588" lon="3.68542">
        <ele>127</ele>
        <time>2010-11-28T10:11:41Z</time>
      </trkpt>
      <trkpt lat="43.588" lon="3.68535">
        <ele>126.9</ele>
        <time>2010-11-28T10:11:42Z</time>
      </trkpt>
      <trkpt lat="43.58799" lon="3.68527">
        <ele>126.7</ele>
        <time>2010-11-28T10:11:43Z</time>
      </trkpt>
      <trkpt lat="43.58799" lon="3.6852">
        <ele>126.6</ele>
        <time>2010-11-28T10:11:44Z</time>
      </trkpt>
      <trkpt lat="43.58798" lon="3.68512">
        <ele>126.4</ele>
        <time>2010-11-28T10:11:45Z</time>
      </trkpt>
      <trkpt lat="43.58798" lon="3.68504">
        <ele>126.1</ele>
        <time>2010-11-28T10:11:46Z</time>
      </trkpt>
      <trkpt lat="43.58797" lon="3.68496">
        <ele>125.9</ele>
        <time>2010-11-28T10:11:47Z</time>
      </trkpt>
      <trkpt lat="43.58797" lon="3.68488">
        <ele>125.7</ele>
        <time>2010-11-28T10:11:48Z</time>
      </trkpt>
      <trkpt lat="43.58797" lon="3.6848">
        <ele>125.3</ele>
        <time>2010-11-28T10:11:49Z</time>
      </trkpt>
      <trkpt lat="43.58797" lon="3.68471">
        <ele>124.9</ele>
        <time>2010-11-28T10:11:50Z</time>
      </trkpt>
      <trkpt lat="43.58796" lon="3.68463">
        <ele>124.7</ele>
        <time>2010-11-28T10:11:51Z</time>
      </trkpt>
      <trkpt lat="43.58796" lon="3.68454">
        <ele>124.1</ele>
        <time>2010-11-28T10:11:52Z</time>
      </trkpt>
      <trkpt lat="43.58796" lon="3.68445">
        <ele>123.7</ele>
        <time>2010-11-28T10:11:53Z</time>
      </trkpt>
      <trkpt lat="43.58795" lon="3.68436">
        <ele>123.3</ele>
        <time>2010-11-28T10:11:54Z</time>
      </trkpt>
      <trkpt lat="43.58794" lon="3.68428">
        <ele>122.5</ele>
        <time>2010-11-28T10:11:55Z</time>
      </trkpt>
      <trkpt lat="43.58792" lon="3.68421">
        <ele>121.8</ele>
        <time>2010-11-28T10:11:56Z</time>
      </trkpt>
      <trkpt lat="43.58784" lon="3.68415">
        <ele>121</ele>
        <time>2010-11-28T10:11:58Z</time>
      </trkpt>
      <trkpt lat="43.58778" lon="3.68423">
        <ele>118.8</ele>
        <time>2010-11-28T10:12:02Z</time>
      </trkpt>
      <trkpt lat="43.58774" lon="3.68431">
        <ele>118.5</ele>
        <time>2010-11-28T10:12:05Z</time>
      </trkpt>
      <trkpt lat="43.5877" lon="3.6844">
        <ele>119.1</ele>
        <time>2010-11-28T10:12:08Z</time>
      </trkpt>
      <trkpt lat="43.58767" lon="3.6845">
        <ele>119.7</ele>
        <time>2010-11-28T10:12:11Z</time>
      </trkpt>
      <trkpt lat="43.58763" lon="3.6846">
        <ele>119.8</ele>
        <time>2010-11-28T10:12:14Z</time>
      </trkpt>
      <trkpt lat="43.58758" lon="3.68469">
        <ele>120.3</ele>
        <time>2010-11-28T10:12:17Z</time>
      </trkpt>
      <trkpt lat="43.58751" lon="3.68476">
        <ele>121.1</ele>
        <time>2010-11-28T10:12:20Z</time>
      </trkpt>
      <trkpt lat="43.58744" lon="3.68481">
        <ele>121.5</ele>
        <time>2010-11-28T10:12:23Z</time>
      </trkpt>
      <trkpt lat="43.58736" lon="3.68483">
        <ele>122.3</ele>
        <time>2010-11-28T10:12:26Z</time>
      </trkpt>
      <trkpt lat="43.58733" lon="3.68483">
        <ele>122.5</ele>
        <time>2010-11-28T10:12:27Z</time>
      </trkpt>
      <trkpt lat="43.58721" lon="3.68482">
        <ele>123.1</ele>
        <time>2010-11-28T10:12:31Z</time>
      </trkpt>
      <trkpt lat="43.58713" lon="3.68479">
        <ele>123.7</ele>
        <time>2010-11-28T10:12:34Z</time>
      </trkpt>
      <trkpt lat="43.58705" lon="3.68476">
        <ele>124.4</ele>
        <time>2010-11-28T10:12:37Z</time>
      </trkpt>
      <trkpt lat="43.58697" lon="3.68473">
        <ele>125.2</ele>
        <time>2010-11-28T10:12:40Z</time>
      </trkpt>
      <trkpt lat="43.58689" lon="3.68471">
        <ele>125.5</ele>
        <time>2010-11-28T10:12:43Z</time>
      </trkpt>
      <trkpt lat="43.5868" lon="3.6847">
        <ele>125.1</ele>
        <time>2010-11-28T10:12:46Z</time>
      </trkpt>
      <trkpt lat="43.58674" lon="3.68477">
        <ele>125.4</ele>
        <time>2010-11-28T10:12:49Z</time>
      </trkpt>
      <trkpt lat="43.58676" lon="3.68489">
        <ele>126.8</ele>
        <time>2010-11-28T10:12:53Z</time>
      </trkpt>
      <trkpt lat="43.58681" lon="3.68497">
        <ele>127.6</ele>
        <time>2010-11-28T10:12:56Z</time>
      </trkpt>
      <trkpt lat="43.58686" lon="3.68505">
        <ele>128.3</ele>
        <time>2010-11-28T10:12:59Z</time>
      </trkpt>
      <trkpt lat="43.58691" lon="3.68515">
        <ele>128.6</ele>
        <time>2010-11-28T10:13:02Z</time>
      </trkpt>
      <trkpt lat="43.58696" lon="3.68524">
        <ele>128.2</ele>
        <time>2010-11-28T10:13:05Z</time>
      </trkpt>
      <trkpt lat="43.58699" lon="3.68532">
        <ele>128.4</ele>
        <time>2010-11-28T10:13:07Z</time>
      </trkpt>
      <trkpt lat="43.58701" lon="3.6854">
        <ele>128.9</ele>
        <time>2010-11-28T10:13:09Z</time>
      </trkpt>
      <trkpt lat="43.58702" lon="3.68548">
        <ele>129.4</ele>
        <time>2010-11-28T10:13:11Z</time>
      </trkpt>
      <trkpt lat="43.58701" lon="3.68557">
        <ele>129.7</ele>
        <time>2010-11-28T10:13:13Z</time>
      </trkpt>
      <trkpt lat="43.58697" lon="3.68569">
        <ele>130</ele>
        <time>2010-11-28T10:13:16Z</time>
      </trkpt>
      <trkpt lat="43.58692" lon="3.68578">
        <ele>130</ele>
        <time>2010-11-28T10:13:19Z</time>
      </trkpt>
      <trkpt lat="43.58687" lon="3.68586">
        <ele>130.5</ele>
        <time>2010-11-28T10:13:22Z</time>
      </trkpt>
      <trkpt lat="43.58681" lon="3.68594">
        <ele>131.1</ele>
        <time>2010-11-28T10:13:25Z</time>
      </trkpt>
      <trkpt lat="43.58675" lon="3.68601">
        <ele>132</ele>
        <time>2010-11-28T10:13:28Z</time>
      </trkpt>
      <trkpt lat="43.58672" lon="3.68603">
        <ele>132.6</ele>
        <time>2010-11-28T10:13:29Z</time>
      </trkpt>
      <trkpt lat="43.58664" lon="3.68615">
        <ele>132.7</ele>
        <time>2010-11-28T10:13:33Z</time>
      </trkpt>
      <trkpt lat="43.58662" lon="3.68626">
        <ele>133</ele>
        <time>2010-11-28T10:13:35Z</time>
      </trkpt>
      <trkpt lat="43.58663" lon="3.68637">
        <ele>133.2</ele>
        <time>2010-11-28T10:13:37Z</time>
      </trkpt>
      <trkpt lat="43.58666" lon="3.68646">
        <ele>132.9</ele>
        <time>2010-11-28T10:13:39Z</time>
      </trkpt>
      <trkpt lat="43.5867" lon="3.68654">
        <ele>133.1</ele>
        <time>2010-11-28T10:13:41Z</time>
      </trkpt>
      <trkpt lat="43.58673" lon="3.68662">
        <ele>133.4</ele>
        <time>2010-11-28T10:13:43Z</time>
      </trkpt>
      <trkpt lat="43.58677" lon="3.6867">
        <ele>133.8</ele>
        <time>2010-11-28T10:13:46Z</time>
      </trkpt>
      <trkpt lat="43.58679" lon="3.68679">
        <ele>133.9</ele>
        <time>2010-11-28T10:13:49Z</time>
      </trkpt>
      <trkpt lat="43.58681" lon="3.68689">
        <ele>135.4</ele>
        <time>2010-11-28T10:13:52Z</time>
      </trkpt>
      <trkpt lat="43.58681" lon="3.68699">
        <ele>136.7</ele>
        <time>2010-11-28T10:13:55Z</time>
      </trkpt>
      <trkpt lat="43.5868" lon="3.68709">
        <ele>137.7</ele>
        <time>2010-11-28T10:13:58Z</time>
      </trkpt>
      <trkpt lat="43.58679" lon="3.68718">
        <ele>138.9</ele>
        <time>2010-11-28T10:14:01Z</time>
      </trkpt>
      <trkpt lat="43.58677" lon="3.68727">
        <ele>139.3</ele>
        <time>2010-11-28T10:14:04Z</time>
      </trkpt>
      <trkpt lat="43.58675" lon="3.68739">
        <ele>140.3</ele>
        <time>2010-11-28T10:14:08Z</time>
      </trkpt>
      <trkpt lat="43.58673" lon="3.6875">
        <ele>140.8</ele>
        <time>2010-11-28T10:14:12Z</time>
      </trkpt>
      <trkpt lat="43.58672" lon="3.68762">
        <ele>141.6</ele>
        <time>2010-11-28T10:14:16Z</time>
      </trkpt>
      <trkpt lat="43.58671" lon="3.68772">
        <ele>142</ele>
        <time>2010-11-28T10:14:19Z</time>
      </trkpt>
      <trkpt lat="43.58669" lon="3.68783">
        <ele>142.9</ele>
        <time>2010-11-28T10:14:22Z</time>
      </trkpt>
      <trkpt lat="43.58665" lon="3.68793">
        <ele>143.9</ele>
        <time>2010-11-28T10:14:25Z</time>
      </trkpt>
      <trkpt lat="43.5866" lon="3.68801">
        <ele>144.2</ele>
        <time>2010-11-28T10:14:28Z</time>
      </trkpt>
      <trkpt lat="43.58653" lon="3.68807">
        <ele>144.4</ele>
        <time>2010-11-28T10:14:31Z</time>
      </trkpt>
      <trkpt lat="43.5865" lon="3.68808">
        <ele>144.4</ele>
        <time>2010-11-28T10:14:32Z</time>
      </trkpt>
      <trkpt lat="43.58638" lon="3.68812">
        <ele>145.7</ele>
        <time>2010-11-28T10:14:37Z</time>
      </trkpt>
      <trkpt lat="43.58631" lon="3.68817">
        <ele>145.4</ele>
        <time>2010-11-28T10:14:40Z</time>
      </trkpt>
      <trkpt lat="43.58627" lon="3.68826">
        <ele>145.4</ele>
        <time>2010-11-28T10:14:43Z</time>
      </trkpt>
      <trkpt lat="43.58625" lon="3.68835">
        <ele>146.1</ele>
        <time>2010-11-28T10:14:46Z</time>
      </trkpt>
      <trkpt lat="43.58624" lon="3.68846">
        <ele>146.7</ele>
        <time>2010-11-28T10:14:49Z</time>
      </trkpt>
      <trkpt lat="43.58625" lon="3.68856">
        <ele>147</ele>
        <time>2010-11-28T10:14:52Z</time>
      </trkpt>
      <trkpt lat="43.58627" lon="3.68865">
        <ele>147.5</ele>
        <time>2010-11-28T10:14:55Z</time>
      </trkpt>
      <trkpt lat="43.58633" lon="3.68874">
        <ele>148.9</ele>
        <time>2010-11-28T10:14:59Z</time>
      </trkpt>
      <trkpt lat="43.5864" lon="3.68878">
        <ele>149.4</ele>
        <time>2010-11-28T10:15:03Z</time>
      </trkpt>
      <trkpt lat="43.58649" lon="3.6888">
        <ele>150.8</ele>
        <time>2010-11-28T10:15:07Z</time>
      </trkpt>
      <trkpt lat="43.58657" lon="3.68884">
        <ele>152.3</ele>
        <time>2010-11-28T10:15:11Z</time>
      </trkpt>
      <trkpt lat="43.58663" lon="3.6889">
        <ele>152.4</ele>
        <time>2010-11-28T10:15:14Z</time>
      </trkpt>
      <trkpt lat="43.58666" lon="3.68899">
        <ele>152.4</ele>
        <time>2010-11-28T10:15:17Z</time>
      </trkpt>
      <trkpt lat="43.58668" lon="3.68909">
        <ele>152.8</ele>
        <time>2010-11-28T10:15:20Z</time>
      </trkpt>
      <trkpt lat="43.58667" lon="3.68918">
        <ele>153.5</ele>
        <time>2010-11-28T10:15:23Z</time>
      </trkpt>
      <trkpt lat="43.58666" lon="3.68928">
        <ele>154</ele>
        <time>2010-11-28T10:15:26Z</time>
      </trkpt>
      <trkpt lat="43.58663" lon="3.68937">
        <ele>154.1</ele>
        <time>2010-11-28T10:15:29Z</time>
      </trkpt>
      <trkpt lat="43.5866" lon="3.68946">
        <ele>154.5</ele>
        <time>2010-11-28T10:15:32Z</time>
      </trkpt>
      <trkpt lat="43.58659" lon="3.68949">
        <ele>154.6</ele>
        <time>2010-11-28T10:15:33Z</time>
      </trkpt>
      <trkpt lat="43.58652" lon="3.68963">
        <ele>156.1</ele>
        <time>2010-11-28T10:15:38Z</time>
      </trkpt>
      <trkpt lat="43.58646" lon="3.68972">
        <ele>155.7</ele>
        <time>2010-11-28T10:15:41Z</time>
      </trkpt>
      <trkpt lat="43.5864" lon="3.68979">
        <ele>156.4</ele>
        <time>2010-11-28T10:15:44Z</time>
      </trkpt>
      <trkpt lat="43.58633" lon="3.68985">
        <ele>156.9</ele>
        <time>2010-11-28T10:15:47Z</time>
      </trkpt>
      <trkpt lat="43.58625" lon="3.6899">
        <ele>157.6</ele>
        <time>2010-11-28T10:15:50Z</time>
      </trkpt>
      <trkpt lat="43.58618" lon="3.68994">
        <ele>157.3</ele>
        <time>2010-11-28T10:15:53Z</time>
      </trkpt>
      <trkpt lat="43.58611" lon="3.68998">
        <ele>157.5</ele>
        <time>2010-11-28T10:15:56Z</time>
      </trkpt>
      <trkpt lat="43.58605" lon="3.69002">
        <ele>157.5</ele>
        <time>2010-11-28T10:15:59Z</time>
      </trkpt>
      <trkpt lat="43.58598" lon="3.69007">
        <ele>157.3</ele>
        <time>2010-11-28T10:16:02Z</time>
      </trkpt>
      <trkpt lat="43.58592" lon="3.69012">
        <ele>158.3</ele>
        <time>2010-11-28T10:16:05Z</time>
      </trkpt>
      <trkpt lat="43.58585" lon="3.69016">
        <ele>159.4</ele>
        <time>2010-11-28T10:16:08Z</time>
      </trkpt>
      <trkpt lat="43.58577" lon="3.6902">
        <ele>159.1</ele>
        <time>2010-11-28T10:16:11Z</time>
      </trkpt>
      <trkpt lat="43.58569" lon="3.69025">
        <ele>159.1</ele>
        <time>2010-11-28T10:16:15Z</time>
      </trkpt>
      <trkpt lat="43.58562" lon="3.69029">
        <ele>159</ele>
        <time>2010-11-28T10:16:19Z</time>
      </trkpt>
      <trkpt lat="43.58554" lon="3.69033">
        <ele>159.6</ele>
        <time>2010-11-28T10:16:23Z</time>
      </trkpt>
      <trkpt lat="43.58547" lon="3.69039">
        <ele>159.3</ele>
        <time>2010-11-28T10:16:27Z</time>
      </trkpt>
      <trkpt lat="43.58539" lon="3.69044">
        <ele>159.1</ele>
        <time>2010-11-28T10:16:31Z</time>
      </trkpt>
      <trkpt lat="43.58533" lon="3.69051">
        <ele>158.5</ele>
        <time>2010-11-28T10:16:35Z</time>
      </trkpt>
      <trkpt lat="43.58531" lon="3.69052">
        <ele>158.5</ele>
        <time>2010-11-28T10:16:36Z</time>
      </trkpt>
      <trkpt lat="43.58519" lon="3.69064">
        <ele>158.6</ele>
        <time>2010-11-28T10:16:42Z</time>
      </trkpt>
      <trkpt lat="43.58511" lon="3.69071">
        <ele>158.1</ele>
        <time>2010-11-28T10:16:45Z</time>
      </trkpt>
      <trkpt lat="43.58507" lon="3.69077">
        <ele>158.1</ele>
        <time>2010-11-28T10:16:47Z</time>
      </trkpt>
      <trkpt lat="43.58502" lon="3.69083">
        <ele>157.7</ele>
        <time>2010-11-28T10:16:49Z</time>
      </trkpt>
      <trkpt lat="43.58498" lon="3.6909">
        <ele>157.1</ele>
        <time>2010-11-28T10:16:51Z</time>
      </trkpt>
      <trkpt lat="43.58494" lon="3.69098">
        <ele>156.6</ele>
        <time>2010-11-28T10:16:53Z</time>
      </trkpt>
      <trkpt lat="43.5849" lon="3.69107">
        <ele>156.3</ele>
        <time>2010-11-28T10:16:55Z</time>
      </trkpt>
      <trkpt lat="43.58485" lon="3.69116">
        <ele>156</ele>
        <time>2010-11-28T10:16:57Z</time>
      </trkpt>
      <trkpt lat="43.58483" lon="3.69122">
        <ele>155.9</ele>
        <time>2010-11-28T10:16:58Z</time>
      </trkpt>
      <trkpt lat="43.58481" lon="3.69128">
        <ele>155.5</ele>
        <time>2010-11-28T10:16:59Z</time>
      </trkpt>
      <trkpt lat="43.58479" lon="3.69134">
        <ele>155.2</ele>
        <time>2010-11-28T10:17:00Z</time>
      </trkpt>
      <trkpt lat="43.58477" lon="3.69141">
        <ele>155</ele>
        <time>2010-11-28T10:17:01Z</time>
      </trkpt>
      <trkpt lat="43.58476" lon="3.69148">
        <ele>154.9</ele>
        <time>2010-11-28T10:17:02Z</time>
      </trkpt>
      <trkpt lat="43.58474" lon="3.69155">
        <ele>154.9</ele>
        <time>2010-11-28T10:17:03Z</time>
      </trkpt>
      <trkpt lat="43.58472" lon="3.69162">
        <ele>154.9</ele>
        <time>2010-11-28T10:17:04Z</time>
      </trkpt>
      <trkpt lat="43.58469" lon="3.6917">
        <ele>154.2</ele>
        <time>2010-11-28T10:17:05Z</time>
      </trkpt>
      <trkpt lat="43.58467" lon="3.69178">
        <ele>153.6</ele>
        <time>2010-11-28T10:17:06Z</time>
      </trkpt>
      <trkpt lat="43.58465" lon="3.69186">
        <ele>153.2</ele>
        <time>2010-11-28T10:17:07Z</time>
      </trkpt>
      <trkpt lat="43.58463" lon="3.69194">
        <ele>152.5</ele>
        <time>2010-11-28T10:17:08Z</time>
      </trkpt>
      <trkpt lat="43.5846" lon="3.69203">
        <ele>152</ele>
        <time>2010-11-28T10:17:09Z</time>
      </trkpt>
      <trkpt lat="43.58458" lon="3.69213">
        <ele>151.6</ele>
        <time>2010-11-28T10:17:10Z</time>
      </trkpt>
      <trkpt lat="43.58456" lon="3.69223">
        <ele>151.3</ele>
        <time>2010-11-28T10:17:11Z</time>
      </trkpt>
      <trkpt lat="43.58454" lon="3.69233">
        <ele>150.8</ele>
        <time>2010-11-28T10:17:12Z</time>
      </trkpt>
      <trkpt lat="43.58452" lon="3.69242">
        <ele>150.5</ele>
        <time>2010-11-28T10:17:13Z</time>
      </trkpt>
      <trkpt lat="43.58449" lon="3.69251">
        <ele>150.2</ele>
        <time>2010-11-28T10:17:14Z</time>
      </trkpt>
      <trkpt lat="43.58446" lon="3.6926">
        <ele>149.3</ele>
        <time>2010-11-28T10:17:15Z</time>
      </trkpt>
      <trkpt lat="43.58442" lon="3.69267">
        <ele>148.7</ele>
        <time>2010-11-28T10:17:16Z</time>
      </trkpt>
      <trkpt lat="43.58437" lon="3.69274">
        <ele>148.2</ele>
        <time>2010-11-28T10:17:17Z</time>
      </trkpt>
      <trkpt lat="43.58431" lon="3.6928">
        <ele>147.4</ele>
        <time>2010-11-28T10:17:18Z</time>
      </trkpt>
      <trkpt lat="43.58426" lon="3.69286">
        <ele>146.8</ele>
        <time>2010-11-28T10:17:19Z</time>
      </trkpt>
      <trkpt lat="43.58421" lon="3.69293">
        <ele>146.4</ele>
        <time>2010-11-28T10:17:20Z</time>
      </trkpt>
      <trkpt lat="43.58417" lon="3.693">
        <ele>146.3</ele>
        <time>2010-11-28T10:17:21Z</time>
      </trkpt>
      <trkpt lat="43.58413" lon="3.69307">
        <ele>146.1</ele>
        <time>2010-11-28T10:17:22Z</time>
      </trkpt>
      <trkpt lat="43.58409" lon="3.69313">
        <ele>146.1</ele>
        <time>2010-11-28T10:17:23Z</time>
      </trkpt>
      <trkpt lat="43.58405" lon="3.69319">
        <ele>145.6</ele>
        <time>2010-11-28T10:17:24Z</time>
      </trkpt>
      <trkpt lat="43.584" lon="3.69324">
        <ele>145.3</ele>
        <time>2010-11-28T10:17:25Z</time>
      </trkpt>
      <trkpt lat="43.58395" lon="3.69328">
        <ele>145</ele>
        <time>2010-11-28T10:17:26Z</time>
      </trkpt>
      <trkpt lat="43.5839" lon="3.69331">
        <ele>144.9</ele>
        <time>2010-11-28T10:17:27Z</time>
      </trkpt>
      <trkpt lat="43.58385" lon="3.69333">
        <ele>144.4</ele>
        <time>2010-11-28T10:17:28Z</time>
      </trkpt>
      <trkpt lat="43.5838" lon="3.69337">
        <ele>144.1</ele>
        <time>2010-11-28T10:17:29Z</time>
      </trkpt>
      <trkpt lat="43.58375" lon="3.69341">
        <ele>143.8</ele>
        <time>2010-11-28T10:17:30Z</time>
      </trkpt>
      <trkpt lat="43.58371" lon="3.69346">
        <ele>143.9</ele>
        <time>2010-11-28T10:17:31Z</time>
      </trkpt>
      <trkpt lat="43.58366" lon="3.69351">
        <ele>144.1</ele>
        <time>2010-11-28T10:17:32Z</time>
      </trkpt>
      <trkpt lat="43.58361" lon="3.69355">
        <ele>144.1</ele>
        <time>2010-11-28T10:17:33Z</time>
      </trkpt>
      <trkpt lat="43.58355" lon="3.6936">
        <ele>143.7</ele>
        <time>2010-11-28T10:17:34Z</time>
      </trkpt>
      <trkpt lat="43.58349" lon="3.69364">
        <ele>143.4</ele>
        <time>2010-11-28T10:17:35Z</time>
      </trkpt>
      <trkpt lat="43.58343" lon="3.69368">
        <ele>143.2</ele>
        <time>2010-11-28T10:17:36Z</time>
      </trkpt>
      <trkpt lat="43.58338" lon="3.69373">
        <ele>143</ele>
        <time>2010-11-28T10:17:37Z</time>
      </trkpt>
      <trkpt lat="43.58331" lon="3.69377">
        <ele>142.9</ele>
        <time>2010-11-28T10:17:38Z</time>
      </trkpt>
      <trkpt lat="43.58325" lon="3.69383">
        <ele>142.7</ele>
        <time>2010-11-28T10:17:39Z</time>
      </trkpt>
      <trkpt lat="43.5832" lon="3.69389">
        <ele>142</ele>
        <time>2010-11-28T10:17:40Z</time>
      </trkpt>
      <trkpt lat="43.58314" lon="3.69397">
        <ele>141.4</ele>
        <time>2010-11-28T10:17:41Z</time>
      </trkpt>
      <trkpt lat="43.5831" lon="3.69406">
        <ele>141</ele>
        <time>2010-11-28T10:17:42Z</time>
      </trkpt>
      <trkpt lat="43.58306" lon="3.69416">
        <ele>140.1</ele>
        <time>2010-11-28T10:17:43Z</time>
      </trkpt>
      <trkpt lat="43.58303" lon="3.69427">
        <ele>139.4</ele>
        <time>2010-11-28T10:17:44Z</time>
      </trkpt>
      <trkpt lat="43.583" lon="3.69438">
        <ele>138.8</ele>
        <time>2010-11-28T10:17:45Z</time>
      </trkpt>
      <trkpt lat="43.58297" lon="3.6945">
        <ele>138.4</ele>
        <time>2010-11-28T10:17:46Z</time>
      </trkpt>
      <trkpt lat="43.58294" lon="3.69462">
        <ele>138.2</ele>
        <time>2010-11-28T10:17:47Z</time>
      </trkpt>
      <trkpt lat="43.58291" lon="3.69474">
        <ele>138.1</ele>
        <time>2010-11-28T10:17:48Z</time>
      </trkpt>
      <trkpt lat="43.58287" lon="3.69487">
        <ele>138</ele>
        <time>2010-11-28T10:17:49Z</time>
      </trkpt>
      <trkpt lat="43.58281" lon="3.69498">
        <ele>136.9</ele>
        <time>2010-11-28T10:17:50Z</time>
      </trkpt>
      <trkpt lat="43.58275" lon="3.69508">
        <ele>136.1</ele>
        <time>2010-11-28T10:17:51Z</time>
      </trkpt>
      <trkpt lat="43.58269" lon="3.69518">
        <ele>135.5</ele>
        <time>2010-11-28T10:17:52Z</time>
      </trkpt>
      <trkpt lat="43.58263" lon="3.69529">
        <ele>134.2</ele>
        <time>2010-11-28T10:17:53Z</time>
      </trkpt>
      <trkpt lat="43.58257" lon="3.69539">
        <ele>133.2</ele>
        <time>2010-11-28T10:17:54Z</time>
      </trkpt>
      <trkpt lat="43.58252" lon="3.69549">
        <ele>132.5</ele>
        <time>2010-11-28T10:17:55Z</time>
      </trkpt>
      <trkpt lat="43.58247" lon="3.6956">
        <ele>131.9</ele>
        <time>2010-11-28T10:17:56Z</time>
      </trkpt>
      <trkpt lat="43.58241" lon="3.69569">
        <ele>131.5</ele>
        <time>2010-11-28T10:17:57Z</time>
      </trkpt>
      <trkpt lat="43.58236" lon="3.69579">
        <ele>131.2</ele>
        <time>2010-11-28T10:17:58Z</time>
      </trkpt>
      <trkpt lat="43.58231" lon="3.69588">
        <ele>130.8</ele>
        <time>2010-11-28T10:17:59Z</time>
      </trkpt>
      <trkpt lat="43.58225" lon="3.69597">
        <ele>130.5</ele>
        <time>2010-11-28T10:18:00Z</time>
      </trkpt>
      <trkpt lat="43.5822" lon="3.69606">
        <ele>130.3</ele>
        <time>2010-11-28T10:18:01Z</time>
      </trkpt>
      <trkpt lat="43.58215" lon="3.69614">
        <ele>130.2</ele>
        <time>2010-11-28T10:18:02Z</time>
      </trkpt>
      <trkpt lat="43.5821" lon="3.69621">
        <ele>129.4</ele>
        <time>2010-11-28T10:18:03Z</time>
      </trkpt>
      <trkpt lat="43.58205" lon="3.69629">
        <ele>128.8</ele>
        <time>2010-11-28T10:18:04Z</time>
      </trkpt>
      <trkpt lat="43.58201" lon="3.69637">
        <ele>128.4</ele>
        <time>2010-11-28T10:18:05Z</time>
      </trkpt>
      <trkpt lat="43.58197" lon="3.69644">
        <ele>128.2</ele>
        <time>2010-11-28T10:18:06Z</time>
      </trkpt>
      <trkpt lat="43.58193" lon="3.6965">
        <ele>128</ele>
        <time>2010-11-28T10:18:07Z</time>
      </trkpt>
      <trkpt lat="43.58188" lon="3.69655">
        <ele>127.8</ele>
        <time>2010-11-28T10:18:08Z</time>
      </trkpt>
      <trkpt lat="43.58184" lon="3.6966">
        <ele>127.8</ele>
        <time>2010-11-28T10:18:09Z</time>
      </trkpt>
      <trkpt lat="43.58179" lon="3.69664">
        <ele>127.8</ele>
        <time>2010-11-28T10:18:10Z</time>
      </trkpt>
      <trkpt lat="43.58174" lon="3.69667">
        <ele>127.8</ele>
        <time>2010-11-28T10:18:11Z</time>
      </trkpt>
      <trkpt lat="43.5817" lon="3.6967">
        <ele>128</ele>
        <time>2010-11-28T10:18:12Z</time>
      </trkpt>
      <trkpt lat="43.58165" lon="3.69671">
        <ele>128.2</ele>
        <time>2010-11-28T10:18:13Z</time>
      </trkpt>
      <trkpt lat="43.5816" lon="3.69672">
        <ele>128.3</ele>
        <time>2010-11-28T10:18:14Z</time>
      </trkpt>
      <trkpt lat="43.58155" lon="3.69673">
        <ele>128.5</ele>
        <time>2010-11-28T10:18:15Z</time>
      </trkpt>
      <trkpt lat="43.5815" lon="3.69675">
        <ele>128.7</ele>
        <time>2010-11-28T10:18:16Z</time>
      </trkpt>
      <trkpt lat="43.58146" lon="3.69676">
        <ele>128.8</ele>
        <time>2010-11-28T10:18:17Z</time>
      </trkpt>
      <trkpt lat="43.58141" lon="3.69679">
        <ele>128.9</ele>
        <time>2010-11-28T10:18:18Z</time>
      </trkpt>
      <trkpt lat="43.58137" lon="3.69682">
        <ele>128.7</ele>
        <time>2010-11-28T10:18:19Z</time>
      </trkpt>
      <trkpt lat="43.58133" lon="3.69686">
        <ele>128.5</ele>
        <time>2010-11-28T10:18:20Z</time>
      </trkpt>
      <trkpt lat="43.58129" lon="3.6969">
        <ele>128.4</ele>
        <time>2010-11-28T10:18:21Z</time>
      </trkpt>
      <trkpt lat="43.58125" lon="3.69694">
        <ele>128.4</ele>
        <time>2010-11-28T10:18:22Z</time>
      </trkpt>
      <trkpt lat="43.58121" lon="3.69698">
        <ele>128.4</ele>
        <time>2010-11-28T10:18:23Z</time>
      </trkpt>
      <trkpt lat="43.58114" lon="3.69705">
        <ele>128.5</ele>
        <time>2010-11-28T10:18:25Z</time>
      </trkpt>
      <trkpt lat="43.58106" lon="3.69711">
        <ele>128.5</ele>
        <time>2010-11-28T10:18:27Z</time>
      </trkpt>
      <trkpt lat="43.58099" lon="3.69715">
        <ele>128.7</ele>
        <time>2010-11-28T10:18:29Z</time>
      </trkpt>
      <trkpt lat="43.58093" lon="3.69719">
        <ele>128.8</ele>
        <time>2010-11-28T10:18:31Z</time>
      </trkpt>
      <trkpt lat="43.58086" lon="3.69721">
        <ele>128.9</ele>
        <time>2010-11-28T10:18:33Z</time>
      </trkpt>
      <trkpt lat="43.58079" lon="3.69724">
        <ele>129.2</ele>
        <time>2010-11-28T10:18:35Z</time>
      </trkpt>
      <trkpt lat="43.58071" lon="3.69728">
        <ele>129.5</ele>
        <time>2010-11-28T10:18:37Z</time>
      </trkpt>
      <trkpt lat="43.58066" lon="3.6973">
        <ele>129.9</ele>
        <time>2010-11-28T10:18:38Z</time>
      </trkpt>
      <trkpt lat="43.58062" lon="3.69732">
        <ele>130.2</ele>
        <time>2010-11-28T10:18:39Z</time>
      </trkpt>
      <trkpt lat="43.58057" lon="3.69734">
        <ele>130.4</ele>
        <time>2010-11-28T10:18:40Z</time>
      </trkpt>
      <trkpt lat="43.58053" lon="3.69737">
        <ele>130.1</ele>
        <time>2010-11-28T10:18:41Z</time>
      </trkpt>
      <trkpt lat="43.58048" lon="3.6974">
        <ele>129.9</ele>
        <time>2010-11-28T10:18:42Z</time>
      </trkpt>
      <trkpt lat="43.58044" lon="3.69743">
        <ele>129.8</ele>
        <time>2010-11-28T10:18:43Z</time>
      </trkpt>
      <trkpt lat="43.5804" lon="3.69747">
        <ele>129.8</ele>
        <time>2010-11-28T10:18:44Z</time>
      </trkpt>
      <trkpt lat="43.58036" lon="3.69751">
        <ele>129.8</ele>
        <time>2010-11-28T10:18:45Z</time>
      </trkpt>
      <trkpt lat="43.58032" lon="3.69755">
        <ele>129.8</ele>
        <time>2010-11-28T10:18:46Z</time>
      </trkpt>
      <trkpt lat="43.58029" lon="3.6976">
        <ele>129.8</ele>
        <time>2010-11-28T10:18:47Z</time>
      </trkpt>
      <trkpt lat="43.58023" lon="3.69769">
        <ele>129.7</ele>
        <time>2010-11-28T10:18:49Z</time>
      </trkpt>
      <trkpt lat="43.58018" lon="3.69777">
        <ele>129.7</ele>
        <time>2010-11-28T10:18:51Z</time>
      </trkpt>
      <trkpt lat="43.58012" lon="3.69785">
        <ele>129.7</ele>
        <time>2010-11-28T10:18:53Z</time>
      </trkpt>
      <trkpt lat="43.58006" lon="3.69791">
        <ele>129.8</ele>
        <time>2010-11-28T10:18:55Z</time>
      </trkpt>
      <trkpt lat="43.58" lon="3.69796">
        <ele>130.3</ele>
        <time>2010-11-28T10:18:57Z</time>
      </trkpt>
      <trkpt lat="43.57994" lon="3.69802">
        <ele>130.8</ele>
        <time>2010-11-28T10:18:59Z</time>
      </trkpt>
      <trkpt lat="43.57988" lon="3.6981">
        <ele>130.9</ele>
        <time>2010-11-28T10:19:01Z</time>
      </trkpt>
      <trkpt lat="43.57983" lon="3.69818">
        <ele>131.5</ele>
        <time>2010-11-28T10:19:03Z</time>
      </trkpt>
      <trkpt lat="43.57979" lon="3.69827">
        <ele>132.2</ele>
        <time>2010-11-28T10:19:05Z</time>
      </trkpt>
      <trkpt lat="43.57974" lon="3.69836">
        <ele>132.7</ele>
        <time>2010-11-28T10:19:07Z</time>
      </trkpt>
      <trkpt lat="43.57969" lon="3.69845">
        <ele>133</ele>
        <time>2010-11-28T10:19:09Z</time>
      </trkpt>
      <trkpt lat="43.57963" lon="3.69855">
        <ele>133.3</ele>
        <time>2010-11-28T10:19:11Z</time>
      </trkpt>
      <trkpt lat="43.57959" lon="3.69865">
        <ele>133.4</ele>
        <time>2010-11-28T10:19:13Z</time>
      </trkpt>
      <trkpt lat="43.57955" lon="3.69875">
        <ele>133.5</ele>
        <time>2010-11-28T10:19:15Z</time>
      </trkpt>
      <trkpt lat="43.57951" lon="3.69884">
        <ele>133.6</ele>
        <time>2010-11-28T10:19:17Z</time>
      </trkpt>
      <trkpt lat="43.57947" lon="3.69894">
        <ele>133.5</ele>
        <time>2010-11-28T10:19:20Z</time>
      </trkpt>
      <trkpt lat="43.57944" lon="3.69904">
        <ele>134</ele>
        <time>2010-11-28T10:19:23Z</time>
      </trkpt>
      <trkpt lat="43.57942" lon="3.69915">
        <ele>134.4</ele>
        <time>2010-11-28T10:19:26Z</time>
      </trkpt>
      <trkpt lat="43.57942" lon="3.69926">
        <ele>134.3</ele>
        <time>2010-11-28T10:19:30Z</time>
      </trkpt>
      <trkpt lat="43.57947" lon="3.69936">
        <ele>133.5</ele>
        <time>2010-11-28T10:19:59Z</time>
      </trkpt>
      <trkpt lat="43.57947" lon="3.69936">
        <ele>133.4</ele>
        <time>2010-11-28T10:20:00Z</time>
      </trkpt>
      <trkpt lat="43.57949" lon="3.69959">
        <ele>132.9</ele>
        <time>2010-11-28T10:20:57Z</time>
      </trkpt>
      <trkpt lat="43.5795" lon="3.69969">
        <ele>133.9</ele>
        <time>2010-11-28T10:21:00Z</time>
      </trkpt>
      <trkpt lat="43.5795" lon="3.69972">
        <ele>134.2</ele>
        <time>2010-11-28T10:21:01Z</time>
      </trkpt>
      <trkpt lat="43.5795" lon="3.6999">
        <ele>134.7</ele>
        <time>2010-11-28T10:21:06Z</time>
      </trkpt>
      <trkpt lat="43.57949" lon="3.70001">
        <ele>135</ele>
        <time>2010-11-28T10:21:09Z</time>
      </trkpt>
      <trkpt lat="43.57948" lon="3.70012">
        <ele>135.8</ele>
        <time>2010-11-28T10:21:12Z</time>
      </trkpt>
      <trkpt lat="43.57946" lon="3.70022">
        <ele>136</ele>
        <time>2010-11-28T10:21:15Z</time>
      </trkpt>
      <trkpt lat="43.57945" lon="3.70032">
        <ele>136.4</ele>
        <time>2010-11-28T10:21:18Z</time>
      </trkpt>
      <trkpt lat="43.57944" lon="3.70043">
        <ele>136.9</ele>
        <time>2010-11-28T10:21:21Z</time>
      </trkpt>
      <trkpt lat="43.57944" lon="3.70054">
        <ele>137.4</ele>
        <time>2010-11-28T10:21:24Z</time>
      </trkpt>
      <trkpt lat="43.57945" lon="3.70064">
        <ele>137.9</ele>
        <time>2010-11-28T10:21:27Z</time>
      </trkpt>
      <trkpt lat="43.57945" lon="3.70075">
        <ele>138.3</ele>
        <time>2010-11-28T10:21:30Z</time>
      </trkpt>
      <trkpt lat="43.57947" lon="3.70086">
        <ele>138.9</ele>
        <time>2010-11-28T10:21:33Z</time>
      </trkpt>
      <trkpt lat="43.57949" lon="3.70097">
        <ele>139.5</ele>
        <time>2010-11-28T10:21:36Z</time>
      </trkpt>
      <trkpt lat="43.57951" lon="3.70108">
        <ele>140.4</ele>
        <time>2010-11-28T10:21:39Z</time>
      </trkpt>
      <trkpt lat="43.57955" lon="3.70119">
        <ele>141</ele>
        <time>2010-11-28T10:21:42Z</time>
      </trkpt>
      <trkpt lat="43.57958" lon="3.7013">
        <ele>140.3</ele>
        <time>2010-11-28T10:21:45Z</time>
      </trkpt>
      <trkpt lat="43.57963" lon="3.7014">
        <ele>140.3</ele>
        <time>2010-11-28T10:21:48Z</time>
      </trkpt>
      <trkpt lat="43.57966" lon="3.70147">
        <ele>140.7</ele>
        <time>2010-11-28T10:21:50Z</time>
      </trkpt>
      <trkpt lat="43.57969" lon="3.70155">
        <ele>140.9</ele>
        <time>2010-11-28T10:21:52Z</time>
      </trkpt>
      <trkpt lat="43.57971" lon="3.70163">
        <ele>141</ele>
        <time>2010-11-28T10:21:54Z</time>
      </trkpt>
      <trkpt lat="43.57974" lon="3.70171">
        <ele>141</ele>
        <time>2010-11-28T10:21:56Z</time>
      </trkpt>
      <trkpt lat="43.57977" lon="3.70179">
        <ele>141</ele>
        <time>2010-11-28T10:21:58Z</time>
      </trkpt>
      <trkpt lat="43.57979" lon="3.70187">
        <ele>140.8</ele>
        <time>2010-11-28T10:22:00Z</time>
      </trkpt>
      <trkpt lat="43.57982" lon="3.70194">
        <ele>140.9</ele>
        <time>2010-11-28T10:22:02Z</time>
      </trkpt>
      <trkpt lat="43.57983" lon="3.70198">
        <ele>141</ele>
        <time>2010-11-28T10:22:03Z</time>
      </trkpt>
      <trkpt lat="43.57986" lon="3.7021">
        <ele>140.7</ele>
        <time>2010-11-28T10:22:06Z</time>
      </trkpt>
      <trkpt lat="43.57989" lon="3.70219">
        <ele>140.7</ele>
        <time>2010-11-28T10:22:08Z</time>
      </trkpt>
      <trkpt lat="43.57991" lon="3.70227">
        <ele>140.9</ele>
        <time>2010-11-28T10:22:10Z</time>
      </trkpt>
      <trkpt lat="43.57992" lon="3.70235">
        <ele>140.9</ele>
        <time>2010-11-28T10:22:12Z</time>
      </trkpt>
      <trkpt lat="43.57994" lon="3.70244">
        <ele>140.8</ele>
        <time>2010-11-28T10:22:14Z</time>
      </trkpt>
      <trkpt lat="43.57995" lon="3.70253">
        <ele>140.6</ele>
        <time>2010-11-28T10:22:16Z</time>
      </trkpt>
      <trkpt lat="43.57995" lon="3.70261">
        <ele>140.3</ele>
        <time>2010-11-28T10:22:18Z</time>
      </trkpt>
      <trkpt lat="43.57995" lon="3.70271">
        <ele>139.9</ele>
        <time>2010-11-28T10:22:20Z</time>
      </trkpt>
      <trkpt lat="43.57993" lon="3.70281">
        <ele>139.3</ele>
        <time>2010-11-28T10:22:22Z</time>
      </trkpt>
      <trkpt lat="43.57991" lon="3.70292">
        <ele>138.7</ele>
        <time>2010-11-28T10:22:24Z</time>
      </trkpt>
      <trkpt lat="43.57987" lon="3.70303">
        <ele>138</ele>
        <time>2010-11-28T10:22:26Z</time>
      </trkpt>
      <trkpt lat="43.57986" lon="3.70309">
        <ele>137.8</ele>
        <time>2010-11-28T10:22:27Z</time>
      </trkpt>
      <trkpt lat="43.57984" lon="3.70316">
        <ele>137.4</ele>
        <time>2010-11-28T10:22:28Z</time>
      </trkpt>
      <trkpt lat="43.57983" lon="3.70322">
        <ele>137</ele>
        <time>2010-11-28T10:22:29Z</time>
      </trkpt>
      <trkpt lat="43.57981" lon="3.70327">
        <ele>136.8</ele>
        <time>2010-11-28T10:22:30Z</time>
      </trkpt>
      <trkpt lat="43.57979" lon="3.70333">
        <ele>136.2</ele>
        <time>2010-11-28T10:22:31Z</time>
      </trkpt>
      <trkpt lat="43.57976" lon="3.70338">
        <ele>135.8</ele>
        <time>2010-11-28T10:22:32Z</time>
      </trkpt>
      <trkpt lat="43.57974" lon="3.70344">
        <ele>135.5</ele>
        <time>2010-11-28T10:22:33Z</time>
      </trkpt>
      <trkpt lat="43.57972" lon="3.70351">
        <ele>134.5</ele>
        <time>2010-11-28T10:22:34Z</time>
      </trkpt>
      <trkpt lat="43.5797" lon="3.70358">
        <ele>133.8</ele>
        <time>2010-11-28T10:22:35Z</time>
      </trkpt>
      <trkpt lat="43.57968" lon="3.70364">
        <ele>133.3</ele>
        <time>2010-11-28T10:22:36Z</time>
      </trkpt>
      <trkpt lat="43.57966" lon="3.70372">
        <ele>132.2</ele>
        <time>2010-11-28T10:22:37Z</time>
      </trkpt>
      <trkpt lat="43.57964" lon="3.70379">
        <ele>131.5</ele>
        <time>2010-11-28T10:22:38Z</time>
      </trkpt>
      <trkpt lat="43.57962" lon="3.70386">
        <ele>130.9</ele>
        <time>2010-11-28T10:22:39Z</time>
      </trkpt>
      <trkpt lat="43.5796" lon="3.70394">
        <ele>130</ele>
        <time>2010-11-28T10:22:40Z</time>
      </trkpt>
      <trkpt lat="43.57958" lon="3.70402">
        <ele>129.4</ele>
        <time>2010-11-28T10:22:41Z</time>
      </trkpt>
      <trkpt lat="43.57955" lon="3.70409">
        <ele>128.9</ele>
        <time>2010-11-28T10:22:42Z</time>
      </trkpt>
      <trkpt lat="43.57953" lon="3.70417">
        <ele>128.5</ele>
        <time>2010-11-28T10:22:43Z</time>
      </trkpt>
      <trkpt lat="43.5795" lon="3.70424">
        <ele>128.1</ele>
        <time>2010-11-28T10:22:44Z</time>
      </trkpt>
      <trkpt lat="43.57947" lon="3.70431">
        <ele>127.7</ele>
        <time>2010-11-28T10:22:45Z</time>
      </trkpt>
      <trkpt lat="43.57944" lon="3.70437">
        <ele>127.4</ele>
        <time>2010-11-28T10:22:46Z</time>
      </trkpt>
      <trkpt lat="43.57941" lon="3.70443">
        <ele>126.9</ele>
        <time>2010-11-28T10:22:47Z</time>
      </trkpt>
      <trkpt lat="43.57938" lon="3.70449">
        <ele>126.5</ele>
        <time>2010-11-28T10:22:48Z</time>
      </trkpt>
      <trkpt lat="43.57934" lon="3.70454">
        <ele>126.3</ele>
        <time>2010-11-28T10:22:49Z</time>
      </trkpt>
      <trkpt lat="43.57931" lon="3.70459">
        <ele>125.5</ele>
        <time>2010-11-28T10:22:50Z</time>
      </trkpt>
      <trkpt lat="43.57928" lon="3.70465">
        <ele>125</ele>
        <time>2010-11-28T10:22:51Z</time>
      </trkpt>
      <trkpt lat="43.57925" lon="3.7047">
        <ele>124.6</ele>
        <time>2010-11-28T10:22:52Z</time>
      </trkpt>
      <trkpt lat="43.57923" lon="3.70476">
        <ele>124.2</ele>
        <time>2010-11-28T10:22:53Z</time>
      </trkpt>
      <trkpt lat="43.5792" lon="3.70488">
        <ele>123.8</ele>
        <time>2010-11-28T10:22:55Z</time>
      </trkpt>
      <trkpt lat="43.57919" lon="3.70499">
        <ele>124</ele>
        <time>2010-11-28T10:22:57Z</time>
      </trkpt>
      <trkpt lat="43.57918" lon="3.7051">
        <ele>124.1</ele>
        <time>2010-11-28T10:22:59Z</time>
      </trkpt>
      <trkpt lat="43.57916" lon="3.70521">
        <ele>123.4</ele>
        <time>2010-11-28T10:23:01Z</time>
      </trkpt>
      <trkpt lat="43.57915" lon="3.70533">
        <ele>123.2</ele>
        <time>2010-11-28T10:23:03Z</time>
      </trkpt>
      <trkpt lat="43.57915" lon="3.70539">
        <ele>123.2</ele>
        <time>2010-11-28T10:23:04Z</time>
      </trkpt>
      <trkpt lat="43.57914" lon="3.70556">
        <ele>123.1</ele>
        <time>2010-11-28T10:23:07Z</time>
      </trkpt>
      <trkpt lat="43.57915" lon="3.70568">
        <ele>122.8</ele>
        <time>2010-11-28T10:23:09Z</time>
      </trkpt>
      <trkpt lat="43.57917" lon="3.7058">
        <ele>122.3</ele>
        <time>2010-11-28T10:23:11Z</time>
      </trkpt>
      <trkpt lat="43.57919" lon="3.70592">
        <ele>121.4</ele>
        <time>2010-11-28T10:23:13Z</time>
      </trkpt>
      <trkpt lat="43.5792" lon="3.70598">
        <ele>121.1</ele>
        <time>2010-11-28T10:23:14Z</time>
      </trkpt>
      <trkpt lat="43.57921" lon="3.70604">
        <ele>121.3</ele>
        <time>2010-11-28T10:23:15Z</time>
      </trkpt>
      <trkpt lat="43.57923" lon="3.70616">
        <ele>121.5</ele>
        <time>2010-11-28T10:23:17Z</time>
      </trkpt>
      <trkpt lat="43.57925" lon="3.70628">
        <ele>121.5</ele>
        <time>2010-11-28T10:23:19Z</time>
      </trkpt>
      <trkpt lat="43.57926" lon="3.70639">
        <ele>121.4</ele>
        <time>2010-11-28T10:23:21Z</time>
      </trkpt>
      <trkpt lat="43.57926" lon="3.7065">
        <ele>120.6</ele>
        <time>2010-11-28T10:23:23Z</time>
      </trkpt>
      <trkpt lat="43.57928" lon="3.70661">
        <ele>119.9</ele>
        <time>2010-11-28T10:23:25Z</time>
      </trkpt>
      <trkpt lat="43.5793" lon="3.70672">
        <ele>119.3</ele>
        <time>2010-11-28T10:23:27Z</time>
      </trkpt>
      <trkpt lat="43.57931" lon="3.70684">
        <ele>118.8</ele>
        <time>2010-11-28T10:23:29Z</time>
      </trkpt>
      <trkpt lat="43.57932" lon="3.7069">
        <ele>118.7</ele>
        <time>2010-11-28T10:23:30Z</time>
      </trkpt>
      <trkpt lat="43.57933" lon="3.70697">
        <ele>117.9</ele>
        <time>2010-11-28T10:23:31Z</time>
      </trkpt>
      <trkpt lat="43.57935" lon="3.70703">
        <ele>117.3</ele>
        <time>2010-11-28T10:23:32Z</time>
      </trkpt>
      <trkpt lat="43.57936" lon="3.7071">
        <ele>116.9</ele>
        <time>2010-11-28T10:23:33Z</time>
      </trkpt>
      <trkpt lat="43.57938" lon="3.70716">
        <ele>116.6</ele>
        <time>2010-11-28T10:23:34Z</time>
      </trkpt>
      <trkpt lat="43.5794" lon="3.70723">
        <ele>115.9</ele>
        <time>2010-11-28T10:23:35Z</time>
      </trkpt>
      <trkpt lat="43.57941" lon="3.70731">
        <ele>115.4</ele>
        <time>2010-11-28T10:23:36Z</time>
      </trkpt>
      <trkpt lat="43.57943" lon="3.70738">
        <ele>115</ele>
        <time>2010-11-28T10:23:37Z</time>
      </trkpt>
      <trkpt lat="43.57945" lon="3.70745">
        <ele>114.9</ele>
        <time>2010-11-28T10:23:38Z</time>
      </trkpt>
      <trkpt lat="43.57947" lon="3.70752">
        <ele>114.9</ele>
        <time>2010-11-28T10:23:39Z</time>
      </trkpt>
      <trkpt lat="43.5795" lon="3.70758">
        <ele>114.8</ele>
        <time>2010-11-28T10:23:40Z</time>
      </trkpt>
      <trkpt lat="43.57953" lon="3.70765">
        <ele>114</ele>
        <time>2010-11-28T10:23:41Z</time>
      </trkpt>
      <trkpt lat="43.57956" lon="3.70772">
        <ele>113.4</ele>
        <time>2010-11-28T10:23:42Z</time>
      </trkpt>
      <trkpt lat="43.57959" lon="3.70779">
        <ele>113</ele>
        <time>2010-11-28T10:23:43Z</time>
      </trkpt>
      <trkpt lat="43.57962" lon="3.70786">
        <ele>112.2</ele>
        <time>2010-11-28T10:23:44Z</time>
      </trkpt>
      <trkpt lat="43.57965" lon="3.70793">
        <ele>111.6</ele>
        <time>2010-11-28T10:23:45Z</time>
      </trkpt>
      <trkpt lat="43.57968" lon="3.70801">
        <ele>111.1</ele>
        <time>2010-11-28T10:23:46Z</time>
      </trkpt>
      <trkpt lat="43.57971" lon="3.70809">
        <ele>110.3</ele>
        <time>2010-11-28T10:23:47Z</time>
      </trkpt>
      <trkpt lat="43.57974" lon="3.70817">
        <ele>109.7</ele>
        <time>2010-11-28T10:23:48Z</time>
      </trkpt>
      <trkpt lat="43.57976" lon="3.70825">
        <ele>109.3</ele>
        <time>2010-11-28T10:23:49Z</time>
      </trkpt>
      <trkpt lat="43.5798" lon="3.70833">
        <ele>108.9</ele>
        <time>2010-11-28T10:23:50Z</time>
      </trkpt>
      <trkpt lat="43.57983" lon="3.70841">
        <ele>108.2</ele>
        <time>2010-11-28T10:23:51Z</time>
      </trkpt>
      <trkpt lat="43.57986" lon="3.70849">
        <ele>107.6</ele>
        <time>2010-11-28T10:23:52Z</time>
      </trkpt>
      <trkpt lat="43.57989" lon="3.70858">
        <ele>107.2</ele>
        <time>2010-11-28T10:23:53Z</time>
      </trkpt>
      <trkpt lat="43.57992" lon="3.70866">
        <ele>106.4</ele>
        <time>2010-11-28T10:23:54Z</time>
      </trkpt>
      <trkpt lat="43.57996" lon="3.70873">
        <ele>105.8</ele>
        <time>2010-11-28T10:23:55Z</time>
      </trkpt>
      <trkpt lat="43.57999" lon="3.70881">
        <ele>105.4</ele>
        <time>2010-11-28T10:23:56Z</time>
      </trkpt>
      <trkpt lat="43.58002" lon="3.70889">
        <ele>104.8</ele>
        <time>2010-11-28T10:23:57Z</time>
      </trkpt>
      <trkpt lat="43.58004" lon="3.70896">
        <ele>104.3</ele>
        <time>2010-11-28T10:23:58Z</time>
      </trkpt>
      <trkpt lat="43.58007" lon="3.70904">
        <ele>103.9</ele>
        <time>2010-11-28T10:23:59Z</time>
      </trkpt>
      <trkpt lat="43.58009" lon="3.70912">
        <ele>103.5</ele>
        <time>2010-11-28T10:24:00Z</time>
      </trkpt>
      <trkpt lat="43.58011" lon="3.70919">
        <ele>103.2</ele>
        <time>2010-11-28T10:24:01Z</time>
      </trkpt>
      <trkpt lat="43.58013" lon="3.70926">
        <ele>102.9</ele>
        <time>2010-11-28T10:24:02Z</time>
      </trkpt>
      <trkpt lat="43.58015" lon="3.70933">
        <ele>102.5</ele>
        <time>2010-11-28T10:24:03Z</time>
      </trkpt>
      <trkpt lat="43.58017" lon="3.70941">
        <ele>102.1</ele>
        <time>2010-11-28T10:24:04Z</time>
      </trkpt>
      <trkpt lat="43.58018" lon="3.70948">
        <ele>101.9</ele>
        <time>2010-11-28T10:24:05Z</time>
      </trkpt>
      <trkpt lat="43.5802" lon="3.70955">
        <ele>101.7</ele>
        <time>2010-11-28T10:24:06Z</time>
      </trkpt>
      <trkpt lat="43.58021" lon="3.70963">
        <ele>101.2</ele>
        <time>2010-11-28T10:24:07Z</time>
      </trkpt>
      <trkpt lat="43.58023" lon="3.7097">
        <ele>100.8</ele>
        <time>2010-11-28T10:24:08Z</time>
      </trkpt>
      <trkpt lat="43.58025" lon="3.70977">
        <ele>100.5</ele>
        <time>2010-11-28T10:24:09Z</time>
      </trkpt>
      <trkpt lat="43.58028" lon="3.70984">
        <ele>99.9</ele>
        <time>2010-11-28T10:24:10Z</time>
      </trkpt>
      <trkpt lat="43.5803" lon="3.70991">
        <ele>99.5</ele>
        <time>2010-11-28T10:24:11Z</time>
      </trkpt>
      <trkpt lat="43.58032" lon="3.70998">
        <ele>99.2</ele>
        <time>2010-11-28T10:24:12Z</time>
      </trkpt>
      <trkpt lat="43.58034" lon="3.71005">
        <ele>98.8</ele>
        <time>2010-11-28T10:24:13Z</time>
      </trkpt>
      <trkpt lat="43.58036" lon="3.71013">
        <ele>98.4</ele>
        <time>2010-11-28T10:24:14Z</time>
      </trkpt>
      <trkpt lat="43.58037" lon="3.71021">
        <ele>98.2</ele>
        <time>2010-11-28T10:24:15Z</time>
      </trkpt>
      <trkpt lat="43.58039" lon="3.71029">
        <ele>97.9</ele>
        <time>2010-11-28T10:24:16Z</time>
      </trkpt>
      <trkpt lat="43.58041" lon="3.71036">
        <ele>97.7</ele>
        <time>2010-11-28T10:24:17Z</time>
      </trkpt>
      <trkpt lat="43.58043" lon="3.71044">
        <ele>97.6</ele>
        <time>2010-11-28T10:24:18Z</time>
      </trkpt>
      <trkpt lat="43.58045" lon="3.71052">
        <ele>97</ele>
        <time>2010-11-28T10:24:19Z</time>
      </trkpt>
      <trkpt lat="43.58046" lon="3.71059">
        <ele>96.5</ele>
        <time>2010-11-28T10:24:20Z</time>
      </trkpt>
      <trkpt lat="43.58048" lon="3.71067">
        <ele>96.2</ele>
        <time>2010-11-28T10:24:21Z</time>
      </trkpt>
      <trkpt lat="43.5805" lon="3.71074">
        <ele>96</ele>
        <time>2010-11-28T10:24:22Z</time>
      </trkpt>
      <trkpt lat="43.58052" lon="3.71081">
        <ele>95.5</ele>
        <time>2010-11-28T10:24:23Z</time>
      </trkpt>
      <trkpt lat="43.58054" lon="3.71089">
        <ele>95.2</ele>
        <time>2010-11-28T10:24:24Z</time>
      </trkpt>
      <trkpt lat="43.58056" lon="3.71096">
        <ele>94.9</ele>
        <time>2010-11-28T10:24:25Z</time>
      </trkpt>
      <trkpt lat="43.58059" lon="3.71104">
        <ele>94.2</ele>
        <time>2010-11-28T10:24:26Z</time>
      </trkpt>
      <trkpt lat="43.58062" lon="3.71111">
        <ele>93.6</ele>
        <time>2010-11-28T10:24:27Z</time>
      </trkpt>
      <trkpt lat="43.58066" lon="3.71117">
        <ele>93.2</ele>
        <time>2010-11-28T10:24:28Z</time>
      </trkpt>
      <trkpt lat="43.5807" lon="3.71122">
        <ele>92.7</ele>
        <time>2010-11-28T10:24:29Z</time>
      </trkpt>
      <trkpt lat="43.58073" lon="3.71128">
        <ele>92.4</ele>
        <time>2010-11-28T10:24:30Z</time>
      </trkpt>
      <trkpt lat="43.58075" lon="3.71134">
        <ele>92.2</ele>
        <time>2010-11-28T10:24:31Z</time>
      </trkpt>
      <trkpt lat="43.58077" lon="3.71141">
        <ele>91</ele>
        <time>2010-11-28T10:24:32Z</time>
      </trkpt>
      <trkpt lat="43.58079" lon="3.71148">
        <ele>90.1</ele>
        <time>2010-11-28T10:24:33Z</time>
      </trkpt>
      <trkpt lat="43.5808" lon="3.71155">
        <ele>89.5</ele>
        <time>2010-11-28T10:24:34Z</time>
      </trkpt>
      <trkpt lat="43.58081" lon="3.71163">
        <ele>88.8</ele>
        <time>2010-11-28T10:24:35Z</time>
      </trkpt>
      <trkpt lat="43.58081" lon="3.7117">
        <ele>88.2</ele>
        <time>2010-11-28T10:24:36Z</time>
      </trkpt>
      <trkpt lat="43.58081" lon="3.71178">
        <ele>87.9</ele>
        <time>2010-11-28T10:24:37Z</time>
      </trkpt>
      <trkpt lat="43.58081" lon="3.71185">
        <ele>87.6</ele>
        <time>2010-11-28T10:24:38Z</time>
      </trkpt>
      <trkpt lat="43.58081" lon="3.71194">
        <ele>86.6</ele>
        <time>2010-11-28T10:24:39Z</time>
      </trkpt>
      <trkpt lat="43.58082" lon="3.71201">
        <ele>85.9</ele>
        <time>2010-11-28T10:24:40Z</time>
      </trkpt>
      <trkpt lat="43.58083" lon="3.71209">
        <ele>85.3</ele>
        <time>2010-11-28T10:24:41Z</time>
      </trkpt>
      <trkpt lat="43.58084" lon="3.71216">
        <ele>84.4</ele>
        <time>2010-11-28T10:24:42Z</time>
      </trkpt>
      <trkpt lat="43.58084" lon="3.71224">
        <ele>83.6</ele>
        <time>2010-11-28T10:24:43Z</time>
      </trkpt>
      <trkpt lat="43.58084" lon="3.71231">
        <ele>83.1</ele>
        <time>2010-11-28T10:24:44Z</time>
      </trkpt>
      <trkpt lat="43.58085" lon="3.7124">
        <ele>81.9</ele>
        <time>2010-11-28T10:24:45Z</time>
      </trkpt>
      <trkpt lat="43.58086" lon="3.71248">
        <ele>81</ele>
        <time>2010-11-28T10:24:46Z</time>
      </trkpt>
      <trkpt lat="43.58088" lon="3.71255">
        <ele>80.4</ele>
        <time>2010-11-28T10:24:47Z</time>
      </trkpt>
      <trkpt lat="43.58093" lon="3.71265">
        <ele>78.5</ele>
        <time>2010-11-28T10:24:49Z</time>
      </trkpt>
      <trkpt lat="43.58102" lon="3.71267">
        <ele>76.9</ele>
        <time>2010-11-28T10:24:51Z</time>
      </trkpt>
      <trkpt lat="43.58106" lon="3.71265">
        <ele>76.2</ele>
        <time>2010-11-28T10:24:52Z</time>
      </trkpt>
      <trkpt lat="43.58113" lon="3.71257">
        <ele>75.2</ele>
        <time>2010-11-28T10:24:54Z</time>
      </trkpt>
      <trkpt lat="43.58116" lon="3.71247">
        <ele>74.3</ele>
        <time>2010-11-28T10:24:56Z</time>
      </trkpt>
      <trkpt lat="43.58118" lon="3.71237">
        <ele>73.8</ele>
        <time>2010-11-28T10:24:58Z</time>
      </trkpt>
      <trkpt lat="43.58119" lon="3.71228">
        <ele>73.4</ele>
        <time>2010-11-28T10:25:00Z</time>
      </trkpt>
      <trkpt lat="43.58119" lon="3.71216">
        <ele>72.9</ele>
        <time>2010-11-28T10:25:03Z</time>
      </trkpt>
      <trkpt lat="43.58117" lon="3.71205">
        <ele>72.2</ele>
        <time>2010-11-28T10:25:06Z</time>
      </trkpt>
      <trkpt lat="43.58116" lon="3.71201">
        <ele>72.1</ele>
        <time>2010-11-28T10:25:07Z</time>
      </trkpt>
      <trkpt lat="43.58114" lon="3.71184">
        <ele>72.1</ele>
        <time>2010-11-28T10:25:11Z</time>
      </trkpt>
      <trkpt lat="43.58113" lon="3.71175">
        <ele>72.6</ele>
        <time>2010-11-28T10:25:13Z</time>
      </trkpt>
      <trkpt lat="43.58113" lon="3.71162">
        <ele>72.6</ele>
        <time>2010-11-28T10:25:16Z</time>
      </trkpt>
      <trkpt lat="43.58113" lon="3.71151">
        <ele>72.7</ele>
        <time>2010-11-28T10:25:22Z</time>
      </trkpt>
      <trkpt lat="43.58112" lon="3.7114">
        <ele>72.8</ele>
        <time>2010-11-28T10:25:28Z</time>
      </trkpt>
      <trkpt lat="43.58112" lon="3.71129">
        <ele>72.1</ele>
        <time>2010-11-28T10:25:34Z</time>
      </trkpt>
      <trkpt lat="43.58111" lon="3.71117">
        <ele>72.9</ele>
        <time>2010-11-28T10:25:40Z</time>
      </trkpt>
      <trkpt lat="43.5811" lon="3.71106">
        <ele>72.1</ele>
        <time>2010-11-28T10:25:46Z</time>
      </trkpt>
      <trkpt lat="43.58109" lon="3.71094">
        <ele>72.6</ele>
        <time>2010-11-28T10:25:53Z</time>
      </trkpt>
      <trkpt lat="43.58107" lon="3.71084">
        <ele>72.7</ele>
        <time>2010-11-28T10:25:59Z</time>
      </trkpt>
      <trkpt lat="43.58107" lon="3.71072">
        <ele>71.6</ele>
        <time>2010-11-28T10:26:05Z</time>
      </trkpt>
      <trkpt lat="43.58106" lon="3.7106">
        <ele>72.9</ele>
        <time>2010-11-28T10:26:12Z</time>
      </trkpt>
      <trkpt lat="43.58105" lon="3.71059">
        <ele>73</ele>
        <time>2010-11-28T10:26:13Z</time>
      </trkpt>
      <trkpt lat="43.58105" lon="3.71036">
        <ele>73</ele>
        <time>2010-11-28T10:26:25Z</time>
      </trkpt>
      <trkpt lat="43.58105" lon="3.71025">
        <ele>72.7</ele>
        <time>2010-11-28T10:26:31Z</time>
      </trkpt>
      <trkpt lat="43.58105" lon="3.71013">
        <ele>72.4</ele>
        <time>2010-11-28T10:26:38Z</time>
      </trkpt>
      <trkpt lat="43.58105" lon="3.71001">
        <ele>73.2</ele>
        <time>2010-11-28T10:26:46Z</time>
      </trkpt>
      <trkpt lat="43.58103" lon="3.7099">
        <ele>73.8</ele>
        <time>2010-11-28T10:27:48Z</time>
      </trkpt>
      <trkpt lat="43.58103" lon="3.70988">
        <ele>73.8</ele>
        <time>2010-11-28T10:27:49Z</time>
      </trkpt>
      <trkpt lat="43.58101" lon="3.70969">
        <ele>74.3</ele>
        <time>2010-11-28T10:27:56Z</time>
      </trkpt>
      <trkpt lat="43.581" lon="3.70959">
        <ele>74.5</ele>
        <time>2010-11-28T10:27:59Z</time>
      </trkpt>
      <trkpt lat="43.58098" lon="3.7095">
        <ele>74.8</ele>
        <time>2010-11-28T10:28:02Z</time>
      </trkpt>
      <trkpt lat="43.58096" lon="3.7094">
        <ele>74.8</ele>
        <time>2010-11-28T10:28:05Z</time>
      </trkpt>
      <trkpt lat="43.58093" lon="3.70928">
        <ele>75</ele>
        <time>2010-11-28T10:28:09Z</time>
      </trkpt>
      <trkpt lat="43.58091" lon="3.70919">
        <ele>75.3</ele>
        <time>2010-11-28T10:28:12Z</time>
      </trkpt>
      <trkpt lat="43.5809" lon="3.70907">
        <ele>75.6</ele>
        <time>2010-11-28T10:28:16Z</time>
      </trkpt>
      <trkpt lat="43.58092" lon="3.70896">
        <ele>75.9</ele>
        <time>2010-11-28T10:28:20Z</time>
      </trkpt>
      <trkpt lat="43.58092" lon="3.70884">
        <ele>77.3</ele>
        <time>2010-11-28T10:28:25Z</time>
      </trkpt>
      <trkpt lat="43.58091" lon="3.70872">
        <ele>78</ele>
        <time>2010-11-28T10:28:30Z</time>
      </trkpt>
      <trkpt lat="43.5809" lon="3.70861">
        <ele>79.4</ele>
        <time>2010-11-28T10:28:35Z</time>
      </trkpt>
      <trkpt lat="43.58089" lon="3.7085">
        <ele>80.3</ele>
        <time>2010-11-28T10:28:52Z</time>
      </trkpt>
      <trkpt lat="43.58089" lon="3.70849">
        <ele>80.2</ele>
        <time>2010-11-28T10:28:53Z</time>
      </trkpt>
      <trkpt lat="43.5809" lon="3.70827">
        <ele>83.2</ele>
        <time>2010-11-28T10:29:15Z</time>
      </trkpt>
      <trkpt lat="43.58093" lon="3.70815">
        <ele>84.7</ele>
        <time>2010-11-28T10:29:24Z</time>
      </trkpt>
      <trkpt lat="43.58094" lon="3.70805">
        <ele>85.9</ele>
        <time>2010-11-28T10:29:30Z</time>
      </trkpt>
      <trkpt lat="43.58096" lon="3.70794">
        <ele>87.1</ele>
        <time>2010-11-28T10:29:36Z</time>
      </trkpt>
      <trkpt lat="43.58101" lon="3.70785">
        <ele>87.7</ele>
        <time>2010-11-28T10:29:41Z</time>
      </trkpt>
      <trkpt lat="43.58105" lon="3.70775">
        <ele>88.7</ele>
        <time>2010-11-28T10:29:46Z</time>
      </trkpt>
      <trkpt lat="43.58105" lon="3.70763">
        <ele>90</ele>
        <time>2010-11-28T10:29:52Z</time>
      </trkpt>
      <trkpt lat="43.58106" lon="3.70752">
        <ele>91.3</ele>
        <time>2010-11-28T10:29:58Z</time>
      </trkpt>
      <trkpt lat="43.58106" lon="3.7075">
        <ele>91.2</ele>
        <time>2010-11-28T10:29:59Z</time>
      </trkpt>
      <trkpt lat="43.58108" lon="3.70729">
        <ele>93.8</ele>
        <time>2010-11-28T10:30:11Z</time>
      </trkpt>
      <trkpt lat="43.58111" lon="3.70718">
        <ele>95.4</ele>
        <time>2010-11-28T10:30:19Z</time>
      </trkpt>
      <trkpt lat="43.58115" lon="3.70709">
        <ele>96.1</ele>
        <time>2010-11-28T10:30:50Z</time>
      </trkpt>
      <trkpt lat="43.58122" lon="3.70702">
        <ele>96.1</ele>
        <time>2010-11-28T10:30:57Z</time>
      </trkpt>
      <trkpt lat="43.58129" lon="3.70696">
        <ele>98</ele>
        <time>2010-11-28T10:31:04Z</time>
      </trkpt>
      <trkpt lat="43.5813" lon="3.70695">
        <ele>98.3</ele>
        <time>2010-11-28T10:31:05Z</time>
      </trkpt>
      <trkpt lat="43.58144" lon="3.70683">
        <ele>102.3</ele>
        <time>2010-11-28T10:31:20Z</time>
      </trkpt>
      <trkpt lat="43.58152" lon="3.70679">
        <ele>103.5</ele>
        <time>2010-11-28T10:31:30Z</time>
      </trkpt>
      <trkpt lat="43.58159" lon="3.70674">
        <ele>104.2</ele>
        <time>2010-11-28T10:31:36Z</time>
      </trkpt>
      <trkpt lat="43.58166" lon="3.70667">
        <ele>105</ele>
        <time>2010-11-28T10:31:42Z</time>
      </trkpt>
      <trkpt lat="43.58174" lon="3.70663">
        <ele>106.5</ele>
        <time>2010-11-28T10:31:48Z</time>
      </trkpt>
      <trkpt lat="43.58181" lon="3.7066">
        <ele>106.8</ele>
        <time>2010-11-28T10:31:54Z</time>
      </trkpt>
      <trkpt lat="43.58189" lon="3.70656">
        <ele>108.1</ele>
        <time>2010-11-28T10:32:00Z</time>
      </trkpt>
      <trkpt lat="43.58197" lon="3.70651">
        <ele>108.7</ele>
        <time>2010-11-28T10:32:55Z</time>
      </trkpt>
      <trkpt lat="43.58197" lon="3.70651">
        <ele>108.6</ele>
        <time>2010-11-28T10:32:56Z</time>
      </trkpt>
      <trkpt lat="43.58212" lon="3.70648">
        <ele>111.3</ele>
        <time>2010-11-28T10:33:14Z</time>
      </trkpt>
      <trkpt lat="43.5822" lon="3.70646">
        <ele>112.6</ele>
        <time>2010-11-28T10:33:19Z</time>
      </trkpt>
      <trkpt lat="43.58228" lon="3.70645">
        <ele>113.8</ele>
        <time>2010-11-28T10:33:24Z</time>
      </trkpt>
      <trkpt lat="43.58236" lon="3.70643">
        <ele>114.2</ele>
        <time>2010-11-28T10:33:29Z</time>
      </trkpt>
      <trkpt lat="43.58244" lon="3.70644">
        <ele>114.2</ele>
        <time>2010-11-28T10:33:34Z</time>
      </trkpt>
      <trkpt lat="43.58252" lon="3.70644">
        <ele>115.2</ele>
        <time>2010-11-28T10:33:39Z</time>
      </trkpt>
      <trkpt lat="43.58261" lon="3.70645">
        <ele>115.9</ele>
        <time>2010-11-28T10:33:44Z</time>
      </trkpt>
      <trkpt lat="43.58269" lon="3.70646">
        <ele>116.4</ele>
        <time>2010-11-28T10:33:49Z</time>
      </trkpt>
      <trkpt lat="43.58276" lon="3.70647">
        <ele>117.2</ele>
        <time>2010-11-28T10:33:54Z</time>
      </trkpt>
      <trkpt lat="43.58284" lon="3.70649">
        <ele>119.3</ele>
        <time>2010-11-28T10:33:59Z</time>
      </trkpt>
      <trkpt lat="43.58285" lon="3.70649">
        <ele>119.2</ele>
        <time>2010-11-28T10:34:00Z</time>
      </trkpt>
      <trkpt lat="43.58299" lon="3.70651">
        <ele>121.3</ele>
        <time>2010-11-28T10:34:09Z</time>
      </trkpt>
      <trkpt lat="43.58307" lon="3.70652">
        <ele>121.5</ele>
        <time>2010-11-28T10:34:14Z</time>
      </trkpt>
      <trkpt lat="43.58314" lon="3.70653">
        <ele>122.3</ele>
        <time>2010-11-28T10:34:19Z</time>
      </trkpt>
      <trkpt lat="43.58322" lon="3.70655">
        <ele>122.8</ele>
        <time>2010-11-28T10:34:24Z</time>
      </trkpt>
      <trkpt lat="43.58329" lon="3.70657">
        <ele>123.8</ele>
        <time>2010-11-28T10:34:29Z</time>
      </trkpt>
      <trkpt lat="43.58337" lon="3.7066">
        <ele>124.1</ele>
        <time>2010-11-28T10:34:34Z</time>
      </trkpt>
      <trkpt lat="43.58346" lon="3.70662">
        <ele>125.6</ele>
        <time>2010-11-28T10:34:40Z</time>
      </trkpt>
      <trkpt lat="43.58355" lon="3.70664">
        <ele>127.3</ele>
        <time>2010-11-28T10:34:46Z</time>
      </trkpt>
      <trkpt lat="43.58363" lon="3.70664">
        <ele>127.7</ele>
        <time>2010-11-28T10:34:51Z</time>
      </trkpt>
      <trkpt lat="43.58372" lon="3.70664">
        <ele>127.8</ele>
        <time>2010-11-28T10:34:57Z</time>
      </trkpt>
      <trkpt lat="43.58379" lon="3.70664">
        <ele>129.4</ele>
        <time>2010-11-28T10:35:02Z</time>
      </trkpt>
      <trkpt lat="43.58381" lon="3.70665">
        <ele>129.7</ele>
        <time>2010-11-28T10:35:03Z</time>
      </trkpt>
      <trkpt lat="43.58396" lon="3.70665">
        <ele>131.1</ele>
        <time>2010-11-28T10:35:12Z</time>
      </trkpt>
      <trkpt lat="43.58405" lon="3.70666">
        <ele>131.6</ele>
        <time>2010-11-28T10:35:17Z</time>
      </trkpt>
      <trkpt lat="43.58413" lon="3.70666">
        <ele>132.4</ele>
        <time>2010-11-28T10:35:21Z</time>
      </trkpt>
      <trkpt lat="43.5842" lon="3.70667">
        <ele>132.7</ele>
        <time>2010-11-28T10:35:24Z</time>
      </trkpt>
      <trkpt lat="43.58427" lon="3.70667">
        <ele>132.7</ele>
        <time>2010-11-28T10:35:27Z</time>
      </trkpt>
      <trkpt lat="43.58434" lon="3.70668">
        <ele>132.9</ele>
        <time>2010-11-28T10:35:30Z</time>
      </trkpt>
      <trkpt lat="43.5844" lon="3.70669">
        <ele>133.4</ele>
        <time>2010-11-28T10:35:33Z</time>
      </trkpt>
      <trkpt lat="43.58448" lon="3.7067">
        <ele>133.3</ele>
        <time>2010-11-28T10:35:36Z</time>
      </trkpt>
      <trkpt lat="43.58454" lon="3.70674">
        <ele>133</ele>
        <time>2010-11-28T10:35:39Z</time>
      </trkpt>
      <trkpt lat="43.5846" lon="3.70682">
        <ele>133.4</ele>
        <time>2010-11-28T10:35:43Z</time>
      </trkpt>
      <trkpt lat="43.5846" lon="3.70693">
        <ele>133.8</ele>
        <time>2010-11-28T10:40:51Z</time>
      </trkpt>
      <trkpt lat="43.5846" lon="3.70695">
        <ele>133.9</ele>
        <time>2010-11-28T10:40:52Z</time>
      </trkpt>
      <trkpt lat="43.58464" lon="3.70713">
        <ele>135.1</ele>
        <time>2010-11-28T10:41:00Z</time>
      </trkpt>
      <trkpt lat="43.58467" lon="3.70724">
        <ele>135.1</ele>
        <time>2010-11-28T10:41:04Z</time>
      </trkpt>
      <trkpt lat="43.58472" lon="3.70732">
        <ele>133.8</ele>
        <time>2010-11-28T10:41:07Z</time>
      </trkpt>
      <trkpt lat="43.58478" lon="3.70738">
        <ele>134.4</ele>
        <time>2010-11-28T10:41:10Z</time>
      </trkpt>
      <trkpt lat="43.58484" lon="3.70747">
        <ele>134.1</ele>
        <time>2010-11-28T10:41:13Z</time>
      </trkpt>
      <trkpt lat="43.58488" lon="3.70757">
        <ele>134</ele>
        <time>2010-11-28T10:41:16Z</time>
      </trkpt>
      <trkpt lat="43.58493" lon="3.70767">
        <ele>133.8</ele>
        <time>2010-11-28T10:41:19Z</time>
      </trkpt>
      <trkpt lat="43.58498" lon="3.70771">
        <ele>133.9</ele>
        <time>2010-11-28T10:41:21Z</time>
      </trkpt>
      <trkpt lat="43.58504" lon="3.70774">
        <ele>134.1</ele>
        <time>2010-11-28T10:41:23Z</time>
      </trkpt>
      <trkpt lat="43.58512" lon="3.70779">
        <ele>131.8</ele>
        <time>2010-11-28T10:41:32Z</time>
      </trkpt>
      <trkpt lat="43.58517" lon="3.7077">
        <ele>132.1</ele>
        <time>2010-11-28T10:41:39Z</time>
      </trkpt>
      <trkpt lat="43.58521" lon="3.70759">
        <ele>132.8</ele>
        <time>2010-11-28T10:41:44Z</time>
      </trkpt>
      <trkpt lat="43.58525" lon="3.70751">
        <ele>132.9</ele>
        <time>2010-11-28T10:41:48Z</time>
      </trkpt>
      <trkpt lat="43.58531" lon="3.70745">
        <ele>133.7</ele>
        <time>2010-11-28T10:41:52Z</time>
      </trkpt>
      <trkpt lat="43.58533" lon="3.70744">
        <ele>133.7</ele>
        <time>2010-11-28T10:41:53Z</time>
      </trkpt>
      <trkpt lat="43.58545" lon="3.70738">
        <ele>133.7</ele>
        <time>2010-11-28T10:42:00Z</time>
      </trkpt>
      <trkpt lat="43.58553" lon="3.70736">
        <ele>134.4</ele>
        <time>2010-11-28T10:42:04Z</time>
      </trkpt>
      <trkpt lat="43.5856" lon="3.70733">
        <ele>134.9</ele>
        <time>2010-11-28T10:42:08Z</time>
      </trkpt>
      <trkpt lat="43.58568" lon="3.70733">
        <ele>136</ele>
        <time>2010-11-28T10:42:12Z</time>
      </trkpt>
      <trkpt lat="43.58575" lon="3.70734">
        <ele>135.8</ele>
        <time>2010-11-28T10:42:16Z</time>
      </trkpt>
      <trkpt lat="43.58583" lon="3.70736">
        <ele>136.8</ele>
        <time>2010-11-28T10:42:20Z</time>
      </trkpt>
      <trkpt lat="43.58591" lon="3.70736">
        <ele>137.4</ele>
        <time>2010-11-28T10:42:25Z</time>
      </trkpt>
      <trkpt lat="43.58599" lon="3.70733">
        <ele>137.9</ele>
        <time>2010-11-28T10:42:30Z</time>
      </trkpt>
      <trkpt lat="43.58606" lon="3.70726">
        <ele>138.7</ele>
        <time>2010-11-28T10:42:35Z</time>
      </trkpt>
      <trkpt lat="43.58611" lon="3.70735">
        <ele>138.8</ele>
        <time>2010-11-28T10:42:44Z</time>
      </trkpt>
      <trkpt lat="43.58611" lon="3.70745">
        <ele>138.8</ele>
        <time>2010-11-28T10:42:48Z</time>
      </trkpt>
      <trkpt lat="43.5861" lon="3.70755">
        <ele>138.7</ele>
        <time>2010-11-28T10:42:51Z</time>
      </trkpt>
      <trkpt lat="43.58609" lon="3.70765">
        <ele>138.8</ele>
        <time>2010-11-28T10:42:54Z</time>
      </trkpt>
      <trkpt lat="43.58609" lon="3.70768">
        <ele>138.9</ele>
        <time>2010-11-28T10:42:55Z</time>
      </trkpt>
      <trkpt lat="43.58608" lon="3.70784">
        <ele>138.9</ele>
        <time>2010-11-28T10:42:59Z</time>
      </trkpt>
      <trkpt lat="43.58607" lon="3.70792">
        <ele>139.2</ele>
        <time>2010-11-28T10:43:01Z</time>
      </trkpt>
      <trkpt lat="43.58606" lon="3.70801">
        <ele>139.1</ele>
        <time>2010-11-28T10:43:03Z</time>
      </trkpt>
      <trkpt lat="43.58605" lon="3.7081">
        <ele>138.9</ele>
        <time>2010-11-28T10:43:05Z</time>
      </trkpt>
      <trkpt lat="43.58605" lon="3.7082">
        <ele>138.6</ele>
        <time>2010-11-28T10:43:07Z</time>
      </trkpt>
      <trkpt lat="43.58604" lon="3.70831">
        <ele>138.4</ele>
        <time>2010-11-28T10:43:09Z</time>
      </trkpt>
      <trkpt lat="43.58603" lon="3.70842">
        <ele>137.9</ele>
        <time>2010-11-28T10:43:11Z</time>
      </trkpt>
      <trkpt lat="43.58604" lon="3.70853">
        <ele>137.7</ele>
        <time>2010-11-28T10:43:13Z</time>
      </trkpt>
      <trkpt lat="43.58604" lon="3.70865">
        <ele>137.6</ele>
        <time>2010-11-28T10:43:15Z</time>
      </trkpt>
      <trkpt lat="43.58604" lon="3.70871">
        <ele>137.2</ele>
        <time>2010-11-28T10:43:16Z</time>
      </trkpt>
      <trkpt lat="43.58605" lon="3.70878">
        <ele>136.8</ele>
        <time>2010-11-28T10:43:17Z</time>
      </trkpt>
      <trkpt lat="43.58605" lon="3.70884">
        <ele>136.5</ele>
        <time>2010-11-28T10:43:18Z</time>
      </trkpt>
      <trkpt lat="43.58605" lon="3.70891">
        <ele>136.3</ele>
        <time>2010-11-28T10:43:19Z</time>
      </trkpt>
      <trkpt lat="43.58605" lon="3.70899">
        <ele>136.1</ele>
        <time>2010-11-28T10:43:20Z</time>
      </trkpt>
      <trkpt lat="43.58605" lon="3.70906">
        <ele>136</ele>
        <time>2010-11-28T10:43:21Z</time>
      </trkpt>
      <trkpt lat="43.58605" lon="3.70914">
        <ele>135.7</ele>
        <time>2010-11-28T10:43:22Z</time>
      </trkpt>
      <trkpt lat="43.58605" lon="3.70922">
        <ele>135.4</ele>
        <time>2010-11-28T10:43:23Z</time>
      </trkpt>
      <trkpt lat="43.58604" lon="3.7093">
        <ele>135.2</ele>
        <time>2010-11-28T10:43:24Z</time>
      </trkpt>
      <trkpt lat="43.58604" lon="3.70939">
        <ele>134.8</ele>
        <time>2010-11-28T10:43:25Z</time>
      </trkpt>
      <trkpt lat="43.58603" lon="3.70948">
        <ele>134.6</ele>
        <time>2010-11-28T10:43:26Z</time>
      </trkpt>
      <trkpt lat="43.58603" lon="3.70957">
        <ele>134.4</ele>
        <time>2010-11-28T10:43:27Z</time>
      </trkpt>
      <trkpt lat="43.58603" lon="3.70966">
        <ele>134.2</ele>
        <time>2010-11-28T10:43:28Z</time>
      </trkpt>
      <trkpt lat="43.58603" lon="3.70975">
        <ele>133.9</ele>
        <time>2010-11-28T10:43:29Z</time>
      </trkpt>
      <trkpt lat="43.58603" lon="3.70984">
        <ele>133.7</ele>
        <time>2010-11-28T10:43:30Z</time>
      </trkpt>
      <trkpt lat="43.58604" lon="3.70992">
        <ele>133.5</ele>
        <time>2010-11-28T10:43:31Z</time>
      </trkpt>
      <trkpt lat="43.58605" lon="3.71001">
        <ele>133.2</ele>
        <time>2010-11-28T10:43:32Z</time>
      </trkpt>
      <trkpt lat="43.58605" lon="3.7101">
        <ele>133.1</ele>
        <time>2010-11-28T10:43:33Z</time>
      </trkpt>
      <trkpt lat="43.58606" lon="3.71019">
        <ele>132.9</ele>
        <time>2010-11-28T10:43:34Z</time>
      </trkpt>
      <trkpt lat="43.58606" lon="3.71028">
        <ele>132.1</ele>
        <time>2010-11-28T10:43:35Z</time>
      </trkpt>
      <trkpt lat="43.58606" lon="3.71037">
        <ele>131.5</ele>
        <time>2010-11-28T10:43:36Z</time>
      </trkpt>
      <trkpt lat="43.58605" lon="3.71046">
        <ele>131.1</ele>
        <time>2010-11-28T10:43:37Z</time>
      </trkpt>
      <trkpt lat="43.58604" lon="3.71055">
        <ele>130.6</ele>
        <time>2010-11-28T10:43:38Z</time>
      </trkpt>
      <trkpt lat="43.58604" lon="3.71064">
        <ele>130.2</ele>
        <time>2010-11-28T10:43:39Z</time>
      </trkpt>
      <trkpt lat="43.58603" lon="3.71073">
        <ele>129.9</ele>
        <time>2010-11-28T10:43:40Z</time>
      </trkpt>
      <trkpt lat="43.58603" lon="3.71082">
        <ele>129.7</ele>
        <time>2010-11-28T10:43:41Z</time>
      </trkpt>
      <trkpt lat="43.58603" lon="3.71091">
        <ele>129.4</ele>
        <time>2010-11-28T10:43:42Z</time>
      </trkpt>
      <trkpt lat="43.58603" lon="3.711">
        <ele>129.2</ele>
        <time>2010-11-28T10:43:43Z</time>
      </trkpt>
      <trkpt lat="43.58602" lon="3.71109">
        <ele>129.1</ele>
        <time>2010-11-28T10:43:44Z</time>
      </trkpt>
      <trkpt lat="43.58602" lon="3.71118">
        <ele>129</ele>
        <time>2010-11-28T10:43:45Z</time>
      </trkpt>
      <trkpt lat="43.58602" lon="3.71127">
        <ele>128.9</ele>
        <time>2010-11-28T10:43:46Z</time>
      </trkpt>
      <trkpt lat="43.58602" lon="3.71135">
        <ele>128.8</ele>
        <time>2010-11-28T10:43:47Z</time>
      </trkpt>
      <trkpt lat="43.58601" lon="3.71144">
        <ele>128.6</ele>
        <time>2010-11-28T10:43:48Z</time>
      </trkpt>
      <trkpt lat="43.58602" lon="3.71152">
        <ele>128.4</ele>
        <time>2010-11-28T10:43:49Z</time>
      </trkpt>
      <trkpt lat="43.58602" lon="3.7116">
        <ele>128.2</ele>
        <time>2010-11-28T10:43:50Z</time>
      </trkpt>
      <trkpt lat="43.58603" lon="3.71168">
        <ele>128.2</ele>
        <time>2010-11-28T10:43:51Z</time>
      </trkpt>
      <trkpt lat="43.58603" lon="3.71175">
        <ele>128.2</ele>
        <time>2010-11-28T10:43:52Z</time>
      </trkpt>
      <trkpt lat="43.58603" lon="3.71183">
        <ele>128.2</ele>
        <time>2010-11-28T10:43:53Z</time>
      </trkpt>
      <trkpt lat="43.58604" lon="3.7119">
        <ele>128.5</ele>
        <time>2010-11-28T10:43:54Z</time>
      </trkpt>
      <trkpt lat="43.58604" lon="3.71198">
        <ele>128.7</ele>
        <time>2010-11-28T10:43:55Z</time>
      </trkpt>
      <trkpt lat="43.58604" lon="3.71205">
        <ele>128.8</ele>
        <time>2010-11-28T10:43:56Z</time>
      </trkpt>
      <trkpt lat="43.58603" lon="3.71213">
        <ele>128.9</ele>
        <time>2010-11-28T10:43:57Z</time>
      </trkpt>
      <trkpt lat="43.58602" lon="3.7122">
        <ele>129</ele>
        <time>2010-11-28T10:43:58Z</time>
      </trkpt>
      <trkpt lat="43.58599" lon="3.71227">
        <ele>129</ele>
        <time>2010-11-28T10:43:59Z</time>
      </trkpt>
      <trkpt lat="43.58595" lon="3.71232">
        <ele>129.1</ele>
        <time>2010-11-28T10:44:00Z</time>
      </trkpt>
      <trkpt lat="43.5859" lon="3.71236">
        <ele>128.7</ele>
        <time>2010-11-28T10:44:01Z</time>
      </trkpt>
      <trkpt lat="43.58585" lon="3.71238">
        <ele>128.4</ele>
        <time>2010-11-28T10:44:02Z</time>
      </trkpt>
      <trkpt lat="43.58579" lon="3.71239">
        <ele>128.1</ele>
        <time>2010-11-28T10:44:03Z</time>
      </trkpt>
      <trkpt lat="43.58574" lon="3.71239">
        <ele>127.7</ele>
        <time>2010-11-28T10:44:04Z</time>
      </trkpt>
      <trkpt lat="43.58568" lon="3.7124">
        <ele>127.4</ele>
        <time>2010-11-28T10:44:05Z</time>
      </trkpt>
      <trkpt lat="43.58562" lon="3.71242">
        <ele>127.1</ele>
        <time>2010-11-28T10:44:06Z</time>
      </trkpt>
      <trkpt lat="43.58556" lon="3.71243">
        <ele>127</ele>
        <time>2010-11-28T10:44:07Z</time>
      </trkpt>
      <trkpt lat="43.58549" lon="3.71244">
        <ele>126.9</ele>
        <time>2010-11-28T10:44:08Z</time>
      </trkpt>
      <trkpt lat="43.58543" lon="3.71246">
        <ele>126.8</ele>
        <time>2010-11-28T10:44:09Z</time>
      </trkpt>
      <trkpt lat="43.58537" lon="3.71247">
        <ele>126.8</ele>
        <time>2010-11-28T10:44:10Z</time>
      </trkpt>
      <trkpt lat="43.58531" lon="3.71249">
        <ele>126.8</ele>
        <time>2010-11-28T10:44:11Z</time>
      </trkpt>
      <trkpt lat="43.58524" lon="3.71251">
        <ele>126.7</ele>
        <time>2010-11-28T10:44:12Z</time>
      </trkpt>
      <trkpt lat="43.58518" lon="3.71254">
        <ele>126.4</ele>
        <time>2010-11-28T10:44:13Z</time>
      </trkpt>
      <trkpt lat="43.58512" lon="3.71256">
        <ele>126.1</ele>
        <time>2010-11-28T10:44:14Z</time>
      </trkpt>
      <trkpt lat="43.58506" lon="3.71259">
        <ele>126</ele>
        <time>2010-11-28T10:44:15Z</time>
      </trkpt>
      <trkpt lat="43.58501" lon="3.71263">
        <ele>125.8</ele>
        <time>2010-11-28T10:44:16Z</time>
      </trkpt>
      <trkpt lat="43.58495" lon="3.71268">
        <ele>125.6</ele>
        <time>2010-11-28T10:44:17Z</time>
      </trkpt>
      <trkpt lat="43.58491" lon="3.71273">
        <ele>125.5</ele>
        <time>2010-11-28T10:44:18Z</time>
      </trkpt>
      <trkpt lat="43.58487" lon="3.7128">
        <ele>125.3</ele>
        <time>2010-11-28T10:44:19Z</time>
      </trkpt>
      <trkpt lat="43.58485" lon="3.71287">
        <ele>125.2</ele>
        <time>2010-11-28T10:44:20Z</time>
      </trkpt>
      <trkpt lat="43.58484" lon="3.71295">
        <ele>125</ele>
        <time>2010-11-28T10:44:21Z</time>
      </trkpt>
      <trkpt lat="43.58483" lon="3.71303">
        <ele>125</ele>
        <time>2010-11-28T10:44:22Z</time>
      </trkpt>
      <trkpt lat="43.58483" lon="3.71311">
        <ele>125</ele>
        <time>2010-11-28T10:44:23Z</time>
      </trkpt>
      <trkpt lat="43.58482" lon="3.71319">
        <ele>125</ele>
        <time>2010-11-28T10:44:24Z</time>
      </trkpt>
      <trkpt lat="43.58482" lon="3.71327">
        <ele>125</ele>
        <time>2010-11-28T10:44:25Z</time>
      </trkpt>
      <trkpt lat="43.58481" lon="3.71334">
        <ele>124.7</ele>
        <time>2010-11-28T10:44:26Z</time>
      </trkpt>
      <trkpt lat="43.58481" lon="3.71342">
        <ele>124.5</ele>
        <time>2010-11-28T10:44:27Z</time>
      </trkpt>
      <trkpt lat="43.5848" lon="3.7135">
        <ele>124.3</ele>
        <time>2010-11-28T10:44:28Z</time>
      </trkpt>
      <trkpt lat="43.5848" lon="3.71357">
        <ele>124.7</ele>
        <time>2010-11-28T10:44:29Z</time>
      </trkpt>
      <trkpt lat="43.58479" lon="3.71365">
        <ele>124.9</ele>
        <time>2010-11-28T10:44:30Z</time>
      </trkpt>
      <trkpt lat="43.58479" lon="3.71373">
        <ele>125.1</ele>
        <time>2010-11-28T10:44:31Z</time>
      </trkpt>
      <trkpt lat="43.58479" lon="3.71381">
        <ele>125.2</ele>
        <time>2010-11-28T10:44:32Z</time>
      </trkpt>
      <trkpt lat="43.58479" lon="3.71388">
        <ele>124.7</ele>
        <time>2010-11-28T10:44:33Z</time>
      </trkpt>
      <trkpt lat="43.58479" lon="3.71396">
        <ele>124.3</ele>
        <time>2010-11-28T10:44:34Z</time>
      </trkpt>
      <trkpt lat="43.58478" lon="3.71403">
        <ele>124.1</ele>
        <time>2010-11-28T10:44:35Z</time>
      </trkpt>
      <trkpt lat="43.58478" lon="3.71411">
        <ele>124</ele>
        <time>2010-11-28T10:44:36Z</time>
      </trkpt>
      <trkpt lat="43.58478" lon="3.71419">
        <ele>124</ele>
        <time>2010-11-28T10:44:37Z</time>
      </trkpt>
      <trkpt lat="43.58478" lon="3.71426">
        <ele>124</ele>
        <time>2010-11-28T10:44:38Z</time>
      </trkpt>
      <trkpt lat="43.58478" lon="3.71434">
        <ele>123.6</ele>
        <time>2010-11-28T10:44:39Z</time>
      </trkpt>
      <trkpt lat="43.58478" lon="3.71442">
        <ele>123.4</ele>
        <time>2010-11-28T10:44:40Z</time>
      </trkpt>
      <trkpt lat="43.58478" lon="3.71449">
        <ele>123.2</ele>
        <time>2010-11-28T10:44:41Z</time>
      </trkpt>
      <trkpt lat="43.58478" lon="3.71457">
        <ele>123</ele>
        <time>2010-11-28T10:44:42Z</time>
      </trkpt>
      <trkpt lat="43.58478" lon="3.71465">
        <ele>122.8</ele>
        <time>2010-11-28T10:44:43Z</time>
      </trkpt>
      <trkpt lat="43.58478" lon="3.71474">
        <ele>122.7</ele>
        <time>2010-11-28T10:44:44Z</time>
      </trkpt>
      <trkpt lat="43.58478" lon="3.71482">
        <ele>122.9</ele>
        <time>2010-11-28T10:44:45Z</time>
      </trkpt>
      <trkpt lat="43.58478" lon="3.7149">
        <ele>122.9</ele>
        <time>2010-11-28T10:44:46Z</time>
      </trkpt>
      <trkpt lat="43.58478" lon="3.71497">
        <ele>123</ele>
        <time>2010-11-28T10:44:47Z</time>
      </trkpt>
      <trkpt lat="43.58478" lon="3.71505">
        <ele>123.1</ele>
        <time>2010-11-28T10:44:48Z</time>
      </trkpt>
      <trkpt lat="43.58478" lon="3.71513">
        <ele>122.7</ele>
        <time>2010-11-28T10:44:49Z</time>
      </trkpt>
      <trkpt lat="43.58478" lon="3.71521">
        <ele>122.4</ele>
        <time>2010-11-28T10:44:50Z</time>
      </trkpt>
      <trkpt lat="43.58478" lon="3.71528">
        <ele>122.2</ele>
        <time>2010-11-28T10:44:51Z</time>
      </trkpt>
      <trkpt lat="43.58478" lon="3.71536">
        <ele>122.2</ele>
        <time>2010-11-28T10:44:52Z</time>
      </trkpt>
      <trkpt lat="43.58478" lon="3.71543">
        <ele>122.1</ele>
        <time>2010-11-28T10:44:53Z</time>
      </trkpt>
      <trkpt lat="43.58478" lon="3.7155">
        <ele>122</ele>
        <time>2010-11-28T10:44:54Z</time>
      </trkpt>
      <trkpt lat="43.58477" lon="3.71557">
        <ele>121.9</ele>
        <time>2010-11-28T10:44:55Z</time>
      </trkpt>
      <trkpt lat="43.58477" lon="3.71564">
        <ele>121.8</ele>
        <time>2010-11-28T10:44:56Z</time>
      </trkpt>
      <trkpt lat="43.58477" lon="3.7157">
        <ele>121.7</ele>
        <time>2010-11-28T10:44:57Z</time>
      </trkpt>
      <trkpt lat="43.58477" lon="3.71577">
        <ele>121.9</ele>
        <time>2010-11-28T10:44:58Z</time>
      </trkpt>
      <trkpt lat="43.58477" lon="3.71584">
        <ele>121.9</ele>
        <time>2010-11-28T10:44:59Z</time>
      </trkpt>
      <trkpt lat="43.58477" lon="3.71591">
        <ele>122</ele>
        <time>2010-11-28T10:45:00Z</time>
      </trkpt>
      <trkpt lat="43.58477" lon="3.71597">
        <ele>122.3</ele>
        <time>2010-11-28T10:45:01Z</time>
      </trkpt>
      <trkpt lat="43.58477" lon="3.71604">
        <ele>122.6</ele>
        <time>2010-11-28T10:45:02Z</time>
      </trkpt>
      <trkpt lat="43.58477" lon="3.71611">
        <ele>122.8</ele>
        <time>2010-11-28T10:45:03Z</time>
      </trkpt>
      <trkpt lat="43.58476" lon="3.71618">
        <ele>122.7</ele>
        <time>2010-11-28T10:45:04Z</time>
      </trkpt>
      <trkpt lat="43.58476" lon="3.71624">
        <ele>122.6</ele>
        <time>2010-11-28T10:45:05Z</time>
      </trkpt>
      <trkpt lat="43.58476" lon="3.71631">
        <ele>122.5</ele>
        <time>2010-11-28T10:45:06Z</time>
      </trkpt>
      <trkpt lat="43.58476" lon="3.71638">
        <ele>122.5</ele>
        <time>2010-11-28T10:45:07Z</time>
      </trkpt>
      <trkpt lat="43.58476" lon="3.71645">
        <ele>121.7</ele>
        <time>2010-11-28T10:45:08Z</time>
      </trkpt>
      <trkpt lat="43.58476" lon="3.71652">
        <ele>121.2</ele>
        <time>2010-11-28T10:45:09Z</time>
      </trkpt>
      <trkpt lat="43.58475" lon="3.71659">
        <ele>120.7</ele>
        <time>2010-11-28T10:45:10Z</time>
      </trkpt>
      <trkpt lat="43.58475" lon="3.71667">
        <ele>121</ele>
        <time>2010-11-28T10:45:11Z</time>
      </trkpt>
      <trkpt lat="43.58475" lon="3.71674">
        <ele>121.2</ele>
        <time>2010-11-28T10:45:12Z</time>
      </trkpt>
      <trkpt lat="43.58475" lon="3.71681">
        <ele>121.4</ele>
        <time>2010-11-28T10:45:13Z</time>
      </trkpt>
      <trkpt lat="43.58475" lon="3.71687">
        <ele>121.4</ele>
        <time>2010-11-28T10:45:14Z</time>
      </trkpt>
      <trkpt lat="43.58475" lon="3.71694">
        <ele>121.4</ele>
        <time>2010-11-28T10:45:15Z</time>
      </trkpt>
      <trkpt lat="43.58474" lon="3.71701">
        <ele>121.5</ele>
        <time>2010-11-28T10:45:16Z</time>
      </trkpt>
      <trkpt lat="43.58474" lon="3.71708">
        <ele>121.4</ele>
        <time>2010-11-28T10:45:17Z</time>
      </trkpt>
      <trkpt lat="43.58474" lon="3.71716">
        <ele>121.3</ele>
        <time>2010-11-28T10:45:18Z</time>
      </trkpt>
      <trkpt lat="43.58474" lon="3.71723">
        <ele>121.3</ele>
        <time>2010-11-28T10:45:19Z</time>
      </trkpt>
      <trkpt lat="43.58474" lon="3.71731">
        <ele>121.1</ele>
        <time>2010-11-28T10:45:20Z</time>
      </trkpt>
      <trkpt lat="43.58474" lon="3.71738">
        <ele>120.9</ele>
        <time>2010-11-28T10:45:21Z</time>
      </trkpt>
      <trkpt lat="43.58474" lon="3.71745">
        <ele>120.8</ele>
        <time>2010-11-28T10:45:22Z</time>
      </trkpt>
      <trkpt lat="43.58474" lon="3.71753">
        <ele>120.7</ele>
        <time>2010-11-28T10:45:23Z</time>
      </trkpt>
      <trkpt lat="43.58474" lon="3.7176">
        <ele>121</ele>
        <time>2010-11-28T10:45:24Z</time>
      </trkpt>
      <trkpt lat="43.58474" lon="3.71767">
        <ele>121.3</ele>
        <time>2010-11-28T10:45:25Z</time>
      </trkpt>
      <trkpt lat="43.58474" lon="3.71774">
        <ele>121.5</ele>
        <time>2010-11-28T10:45:26Z</time>
      </trkpt>
      <trkpt lat="43.58473" lon="3.71782">
        <ele>121.4</ele>
        <time>2010-11-28T10:45:27Z</time>
      </trkpt>
      <trkpt lat="43.58473" lon="3.71789">
        <ele>121.2</ele>
        <time>2010-11-28T10:45:28Z</time>
      </trkpt>
      <trkpt lat="43.58473" lon="3.71795">
        <ele>121.2</ele>
        <time>2010-11-28T10:45:29Z</time>
      </trkpt>
      <trkpt lat="43.58473" lon="3.71802">
        <ele>121.2</ele>
        <time>2010-11-28T10:45:30Z</time>
      </trkpt>
      <trkpt lat="43.58473" lon="3.71809">
        <ele>121.2</ele>
        <time>2010-11-28T10:45:31Z</time>
      </trkpt>
      <trkpt lat="43.58473" lon="3.71821">
        <ele>121.4</ele>
        <time>2010-11-28T10:45:33Z</time>
      </trkpt>
      <trkpt lat="43.58472" lon="3.71832">
        <ele>121.6</ele>
        <time>2010-11-28T10:45:35Z</time>
      </trkpt>
      <trkpt lat="43.58472" lon="3.71844">
        <ele>122.4</ele>
        <time>2010-11-28T10:45:37Z</time>
      </trkpt>
      <trkpt lat="43.58472" lon="3.71855">
        <ele>122.9</ele>
        <time>2010-11-28T10:45:39Z</time>
      </trkpt>
      <trkpt lat="43.58472" lon="3.71865">
        <ele>122.9</ele>
        <time>2010-11-28T10:45:41Z</time>
      </trkpt>
      <trkpt lat="43.58473" lon="3.71876">
        <ele>123</ele>
        <time>2010-11-28T10:45:43Z</time>
      </trkpt>
      <trkpt lat="43.58473" lon="3.71886">
        <ele>123</ele>
        <time>2010-11-28T10:45:45Z</time>
      </trkpt>
      <trkpt lat="43.58473" lon="3.71896">
        <ele>123</ele>
        <time>2010-11-28T10:45:47Z</time>
      </trkpt>
      <trkpt lat="43.58474" lon="3.71907">
        <ele>123.5</ele>
        <time>2010-11-28T10:45:49Z</time>
      </trkpt>
      <trkpt lat="43.58474" lon="3.71917">
        <ele>124.2</ele>
        <time>2010-11-28T10:45:51Z</time>
      </trkpt>
      <trkpt lat="43.58475" lon="3.71928">
        <ele>124.7</ele>
        <time>2010-11-28T10:45:53Z</time>
      </trkpt>
      <trkpt lat="43.58476" lon="3.71938">
        <ele>124.9</ele>
        <time>2010-11-28T10:45:55Z</time>
      </trkpt>
      <trkpt lat="43.58477" lon="3.71949">
        <ele>124.9</ele>
        <time>2010-11-28T10:45:57Z</time>
      </trkpt>
      <trkpt lat="43.58477" lon="3.71954">
        <ele>124.8</ele>
        <time>2010-11-28T10:45:58Z</time>
      </trkpt>
      <trkpt lat="43.58479" lon="3.7197">
        <ele>124.9</ele>
        <time>2010-11-28T10:46:01Z</time>
      </trkpt>
      <trkpt lat="43.5848" lon="3.7198">
        <ele>125.2</ele>
        <time>2010-11-28T10:46:03Z</time>
      </trkpt>
      <trkpt lat="43.58481" lon="3.7199">
        <ele>125.6</ele>
        <time>2010-11-28T10:46:05Z</time>
      </trkpt>
      <trkpt lat="43.58483" lon="3.72">
        <ele>126</ele>
        <time>2010-11-28T10:46:07Z</time>
      </trkpt>
      <trkpt lat="43.58485" lon="3.72009">
        <ele>126.5</ele>
        <time>2010-11-28T10:46:09Z</time>
      </trkpt>
      <trkpt lat="43.58486" lon="3.72018">
        <ele>126.7</ele>
        <time>2010-11-28T10:46:11Z</time>
      </trkpt>
      <trkpt lat="43.58488" lon="3.72028">
        <ele>126.9</ele>
        <time>2010-11-28T10:46:13Z</time>
      </trkpt>
      <trkpt lat="43.58491" lon="3.72037">
        <ele>126.9</ele>
        <time>2010-11-28T10:46:15Z</time>
      </trkpt>
      <trkpt lat="43.58492" lon="3.72047">
        <ele>126.8</ele>
        <time>2010-11-28T10:46:17Z</time>
      </trkpt>
      <trkpt lat="43.58494" lon="3.72056">
        <ele>127.5</ele>
        <time>2010-11-28T10:46:19Z</time>
      </trkpt>
      <trkpt lat="43.58495" lon="3.72066">
        <ele>127.8</ele>
        <time>2010-11-28T10:46:21Z</time>
      </trkpt>
      <trkpt lat="43.58497" lon="3.72076">
        <ele>127.9</ele>
        <time>2010-11-28T10:46:23Z</time>
      </trkpt>
      <trkpt lat="43.58497" lon="3.72086">
        <ele>128.5</ele>
        <time>2010-11-28T10:46:25Z</time>
      </trkpt>
      <trkpt lat="43.58498" lon="3.72096">
        <ele>128.9</ele>
        <time>2010-11-28T10:46:27Z</time>
      </trkpt>
      <trkpt lat="43.585" lon="3.72106">
        <ele>129.2</ele>
        <time>2010-11-28T10:46:29Z</time>
      </trkpt>
      <trkpt lat="43.58501" lon="3.72116">
        <ele>129.2</ele>
        <time>2010-11-28T10:46:31Z</time>
      </trkpt>
      <trkpt lat="43.58502" lon="3.72125">
        <ele>129</ele>
        <time>2010-11-28T10:46:33Z</time>
      </trkpt>
      <trkpt lat="43.58502" lon="3.72135">
        <ele>129.3</ele>
        <time>2010-11-28T10:46:35Z</time>
      </trkpt>
      <trkpt lat="43.58504" lon="3.72145">
        <ele>129.6</ele>
        <time>2010-11-28T10:46:37Z</time>
      </trkpt>
      <trkpt lat="43.58505" lon="3.72155">
        <ele>129.7</ele>
        <time>2010-11-28T10:46:39Z</time>
      </trkpt>
      <trkpt lat="43.58507" lon="3.72165">
        <ele>130</ele>
        <time>2010-11-28T10:46:41Z</time>
      </trkpt>
      <trkpt lat="43.58508" lon="3.72175">
        <ele>130.2</ele>
        <time>2010-11-28T10:46:43Z</time>
      </trkpt>
      <trkpt lat="43.58509" lon="3.72185">
        <ele>130.1</ele>
        <time>2010-11-28T10:46:45Z</time>
      </trkpt>
      <trkpt lat="43.5851" lon="3.72194">
        <ele>129.9</ele>
        <time>2010-11-28T10:46:47Z</time>
      </trkpt>
      <trkpt lat="43.58511" lon="3.72204">
        <ele>129.7</ele>
        <time>2010-11-28T10:46:49Z</time>
      </trkpt>
      <trkpt lat="43.58513" lon="3.72214">
        <ele>130.8</ele>
        <time>2010-11-28T10:46:51Z</time>
      </trkpt>
      <trkpt lat="43.58514" lon="3.72224">
        <ele>131</ele>
        <time>2010-11-28T10:46:53Z</time>
      </trkpt>
      <trkpt lat="43.58515" lon="3.72234">
        <ele>130.8</ele>
        <time>2010-11-28T10:46:55Z</time>
      </trkpt>
      <trkpt lat="43.58516" lon="3.72244">
        <ele>131.1</ele>
        <time>2010-11-28T10:46:57Z</time>
      </trkpt>
      <trkpt lat="43.58517" lon="3.72253">
        <ele>131.6</ele>
        <time>2010-11-28T10:46:59Z</time>
      </trkpt>
      <trkpt lat="43.58518" lon="3.72258">
        <ele>131.8</ele>
        <time>2010-11-28T10:47:00Z</time>
      </trkpt>
      <trkpt lat="43.58519" lon="3.72273">
        <ele>132.2</ele>
        <time>2010-11-28T10:47:03Z</time>
      </trkpt>
      <trkpt lat="43.58521" lon="3.72281">
        <ele>132.2</ele>
        <time>2010-11-28T10:47:05Z</time>
      </trkpt>
      <trkpt lat="43.58524" lon="3.72291">
        <ele>132.3</ele>
        <time>2010-11-28T10:47:08Z</time>
      </trkpt>
      <trkpt lat="43.58531" lon="3.72298">
        <ele>131.9</ele>
        <time>2010-11-28T10:47:12Z</time>
      </trkpt>
      <trkpt lat="43.58539" lon="3.72301">
        <ele>131.7</ele>
        <time>2010-11-28T10:47:20Z</time>
      </trkpt>
      <trkpt lat="43.58546" lon="3.72309">
        <ele>131.8</ele>
        <time>2010-11-28T10:50:12Z</time>
      </trkpt>
      <trkpt lat="43.58546" lon="3.72311">
        <ele>131.6</ele>
        <time>2010-11-28T10:50:13Z</time>
      </trkpt>
      <trkpt lat="43.58546" lon="3.7233">
        <ele>131.9</ele>
        <time>2010-11-28T10:50:21Z</time>
      </trkpt>
      <trkpt lat="43.5854" lon="3.72335">
        <ele>130.8</ele>
        <time>2010-11-28T10:50:24Z</time>
      </trkpt>
      <trkpt lat="43.58532" lon="3.72336">
        <ele>131</ele>
        <time>2010-11-28T10:50:27Z</time>
      </trkpt>
      <trkpt lat="43.58524" lon="3.72341">
        <ele>131.1</ele>
        <time>2010-11-28T10:50:30Z</time>
      </trkpt>
      <trkpt lat="43.58519" lon="3.72346">
        <ele>130.9</ele>
        <time>2010-11-28T10:50:32Z</time>
      </trkpt>
      <trkpt lat="43.58516" lon="3.72353">
        <ele>131.8</ele>
        <time>2010-11-28T10:50:34Z</time>
      </trkpt>
      <trkpt lat="43.58515" lon="3.72362">
        <ele>132.3</ele>
        <time>2010-11-28T10:50:36Z</time>
      </trkpt>
      <trkpt lat="43.58516" lon="3.72371">
        <ele>132</ele>
        <time>2010-11-28T10:50:38Z</time>
      </trkpt>
      <trkpt lat="43.58518" lon="3.72382">
        <ele>131.6</ele>
        <time>2010-11-28T10:50:41Z</time>
      </trkpt>
      <trkpt lat="43.58519" lon="3.7239">
        <ele>131.3</ele>
        <time>2010-11-28T10:50:43Z</time>
      </trkpt>
      <trkpt lat="43.58522" lon="3.72398">
        <ele>131.1</ele>
        <time>2010-11-28T10:50:45Z</time>
      </trkpt>
      <trkpt lat="43.58526" lon="3.72406">
        <ele>130.4</ele>
        <time>2010-11-28T10:50:47Z</time>
      </trkpt>
      <trkpt lat="43.58531" lon="3.72412">
        <ele>130</ele>
        <time>2010-11-28T10:50:49Z</time>
      </trkpt>
      <trkpt lat="43.58538" lon="3.72416">
        <ele>129.8</ele>
        <time>2010-11-28T10:50:51Z</time>
      </trkpt>
      <trkpt lat="43.58545" lon="3.72418">
        <ele>129.6</ele>
        <time>2010-11-28T10:50:53Z</time>
      </trkpt>
      <trkpt lat="43.58551" lon="3.72421">
        <ele>129.3</ele>
        <time>2010-11-28T10:50:55Z</time>
      </trkpt>
      <trkpt lat="43.58557" lon="3.72426">
        <ele>129.2</ele>
        <time>2010-11-28T10:50:57Z</time>
      </trkpt>
      <trkpt lat="43.58563" lon="3.72435">
        <ele>129.4</ele>
        <time>2010-11-28T10:51:00Z</time>
      </trkpt>
      <trkpt lat="43.58569" lon="3.72437">
        <ele>129.2</ele>
        <time>2010-11-28T10:51:02Z</time>
      </trkpt>
      <trkpt lat="43.58576" lon="3.72438">
        <ele>128.8</ele>
        <time>2010-11-28T10:51:04Z</time>
      </trkpt>
      <trkpt lat="43.58583" lon="3.72444">
        <ele>129</ele>
        <time>2010-11-28T10:51:09Z</time>
      </trkpt>
      <trkpt lat="43.58582" lon="3.72452">
        <ele>128.7</ele>
        <time>2010-11-28T10:51:11Z</time>
      </trkpt>
      <trkpt lat="43.58579" lon="3.72461">
        <ele>128.1</ele>
        <time>2010-11-28T10:51:13Z</time>
      </trkpt>
      <trkpt lat="43.58577" lon="3.7247">
        <ele>127.6</ele>
        <time>2010-11-28T10:51:15Z</time>
      </trkpt>
      <trkpt lat="43.58576" lon="3.72474">
        <ele>127.5</ele>
        <time>2010-11-28T10:51:16Z</time>
      </trkpt>
      <trkpt lat="43.58572" lon="3.72488">
        <ele>126.9</ele>
        <time>2010-11-28T10:51:19Z</time>
      </trkpt>
      <trkpt lat="43.58569" lon="3.72498">
        <ele>126.4</ele>
        <time>2010-11-28T10:51:21Z</time>
      </trkpt>
      <trkpt lat="43.58567" lon="3.72508">
        <ele>125.8</ele>
        <time>2010-11-28T10:51:23Z</time>
      </trkpt>
      <trkpt lat="43.58565" lon="3.72518">
        <ele>125.6</ele>
        <time>2010-11-28T10:51:25Z</time>
      </trkpt>
      <trkpt lat="43.58562" lon="3.72528">
        <ele>125.5</ele>
        <time>2010-11-28T10:51:27Z</time>
      </trkpt>
      <trkpt lat="43.58559" lon="3.72538">
        <ele>125.4</ele>
        <time>2010-11-28T10:51:29Z</time>
      </trkpt>
      <trkpt lat="43.58556" lon="3.72549">
        <ele>125.2</ele>
        <time>2010-11-28T10:51:31Z</time>
      </trkpt>
      <trkpt lat="43.58554" lon="3.7256">
        <ele>125</ele>
        <time>2010-11-28T10:51:33Z</time>
      </trkpt>
      <trkpt lat="43.58551" lon="3.72572">
        <ele>125.1</ele>
        <time>2010-11-28T10:51:35Z</time>
      </trkpt>
      <trkpt lat="43.58549" lon="3.72581">
        <ele>124.8</ele>
        <time>2010-11-28T10:51:37Z</time>
      </trkpt>
      <trkpt lat="43.5854" lon="3.72582">
        <ele>124</ele>
        <time>2010-11-28T10:51:46Z</time>
      </trkpt>
      <trkpt lat="43.58532" lon="3.72582">
        <ele>124.7</ele>
        <time>2010-11-28T10:51:51Z</time>
      </trkpt>
      <trkpt lat="43.58525" lon="3.72587">
        <ele>124.7</ele>
        <time>2010-11-28T10:51:54Z</time>
      </trkpt>
      <trkpt lat="43.5852" lon="3.72592">
        <ele>124.5</ele>
        <time>2010-11-28T10:51:56Z</time>
      </trkpt>
      <trkpt lat="43.58516" lon="3.72599">
        <ele>124.2</ele>
        <time>2010-11-28T10:51:58Z</time>
      </trkpt>
      <trkpt lat="43.58512" lon="3.72606">
        <ele>123.8</ele>
        <time>2010-11-28T10:52:00Z</time>
      </trkpt>
      <trkpt lat="43.58508" lon="3.72615">
        <ele>123.4</ele>
        <time>2010-11-28T10:52:02Z</time>
      </trkpt>
      <trkpt lat="43.58504" lon="3.72624">
        <ele>123.3</ele>
        <time>2010-11-28T10:52:04Z</time>
      </trkpt>
      <trkpt lat="43.58498" lon="3.72631">
        <ele>123.3</ele>
        <time>2010-11-28T10:52:07Z</time>
      </trkpt>
      <trkpt lat="43.5849" lon="3.72636">
        <ele>123</ele>
        <time>2010-11-28T10:52:10Z</time>
      </trkpt>
      <trkpt lat="43.58484" lon="3.72645">
        <ele>122.8</ele>
        <time>2010-11-28T10:52:13Z</time>
      </trkpt>
      <trkpt lat="43.5848" lon="3.72656">
        <ele>122.7</ele>
        <time>2010-11-28T10:52:16Z</time>
      </trkpt>
      <trkpt lat="43.58479" lon="3.7266">
        <ele>122.7</ele>
        <time>2010-11-28T10:52:17Z</time>
      </trkpt>
      <trkpt lat="43.58472" lon="3.72671">
        <ele>122.7</ele>
        <time>2010-11-28T10:52:20Z</time>
      </trkpt>
      <trkpt lat="43.58469" lon="3.72679">
        <ele>122.3</ele>
        <time>2010-11-28T10:52:22Z</time>
      </trkpt>
      <trkpt lat="43.58464" lon="3.72684">
        <ele>121.7</ele>
        <time>2010-11-28T10:52:24Z</time>
      </trkpt>
      <trkpt lat="43.58458" lon="3.72691">
        <ele>121.2</ele>
        <time>2010-11-28T10:52:26Z</time>
      </trkpt>
      <trkpt lat="43.58452" lon="3.72699">
        <ele>120.9</ele>
        <time>2010-11-28T10:52:28Z</time>
      </trkpt>
      <trkpt lat="43.58447" lon="3.72707">
        <ele>120.7</ele>
        <time>2010-11-28T10:52:30Z</time>
      </trkpt>
      <trkpt lat="43.58442" lon="3.72716">
        <ele>120.2</ele>
        <time>2010-11-28T10:52:32Z</time>
      </trkpt>
      <trkpt lat="43.58437" lon="3.72726">
        <ele>119.6</ele>
        <time>2010-11-28T10:52:34Z</time>
      </trkpt>
      <trkpt lat="43.58431" lon="3.72734">
        <ele>120.4</ele>
        <time>2010-11-28T10:52:36Z</time>
      </trkpt>
      <trkpt lat="43.58427" lon="3.72743">
        <ele>120.2</ele>
        <time>2010-11-28T10:52:38Z</time>
      </trkpt>
      <trkpt lat="43.5842" lon="3.72751">
        <ele>119.6</ele>
        <time>2010-11-28T10:52:40Z</time>
      </trkpt>
      <trkpt lat="43.58417" lon="3.72755">
        <ele>119.1</ele>
        <time>2010-11-28T10:52:41Z</time>
      </trkpt>
      <trkpt lat="43.58413" lon="3.7276">
        <ele>118.7</ele>
        <time>2010-11-28T10:52:42Z</time>
      </trkpt>
      <trkpt lat="43.5841" lon="3.72766">
        <ele>118.5</ele>
        <time>2010-11-28T10:52:43Z</time>
      </trkpt>
      <trkpt lat="43.58407" lon="3.72771">
        <ele>118.4</ele>
        <time>2010-11-28T10:52:44Z</time>
      </trkpt>
      <trkpt lat="43.58404" lon="3.72777">
        <ele>118.4</ele>
        <time>2010-11-28T10:52:45Z</time>
      </trkpt>
      <trkpt lat="43.58398" lon="3.72786">
        <ele>118.4</ele>
        <time>2010-11-28T10:52:47Z</time>
      </trkpt>
      <trkpt lat="43.58396" lon="3.72791">
        <ele>118</ele>
        <time>2010-11-28T10:52:48Z</time>
      </trkpt>
      <trkpt lat="43.58393" lon="3.72796">
        <ele>117.8</ele>
        <time>2010-11-28T10:52:49Z</time>
      </trkpt>
      <trkpt lat="43.58387" lon="3.72805">
        <ele>116.9</ele>
        <time>2010-11-28T10:52:51Z</time>
      </trkpt>
      <trkpt lat="43.5838" lon="3.72813">
        <ele>115.9</ele>
        <time>2010-11-28T10:52:53Z</time>
      </trkpt>
      <trkpt lat="43.58374" lon="3.72821">
        <ele>115.6</ele>
        <time>2010-11-28T10:52:55Z</time>
      </trkpt>
      <trkpt lat="43.58372" lon="3.72826">
        <ele>115.5</ele>
        <time>2010-11-28T10:52:56Z</time>
      </trkpt>
      <trkpt lat="43.58369" lon="3.72831">
        <ele>115</ele>
        <time>2010-11-28T10:52:57Z</time>
      </trkpt>
      <trkpt lat="43.58366" lon="3.72836">
        <ele>114.6</ele>
        <time>2010-11-28T10:52:58Z</time>
      </trkpt>
      <trkpt lat="43.58359" lon="3.72843">
        <ele>114.2</ele>
        <time>2010-11-28T10:53:00Z</time>
      </trkpt>
      <trkpt lat="43.58355" lon="3.7285">
        <ele>114</ele>
        <time>2010-11-28T10:53:02Z</time>
      </trkpt>
      <trkpt lat="43.58349" lon="3.7286">
        <ele>114.1</ele>
        <time>2010-11-28T10:53:06Z</time>
      </trkpt>
      <trkpt lat="43.58345" lon="3.72869">
        <ele>115.2</ele>
        <time>2010-11-28T10:53:09Z</time>
      </trkpt>
      <trkpt lat="43.5834" lon="3.72878">
        <ele>114.6</ele>
        <time>2010-11-28T10:53:13Z</time>
      </trkpt>
      <trkpt lat="43.58336" lon="3.72889">
        <ele>114.8</ele>
        <time>2010-11-28T10:53:45Z</time>
      </trkpt>
      <trkpt lat="43.58337" lon="3.7289">
        <ele>114.7</ele>
        <time>2010-11-28T10:53:46Z</time>
      </trkpt>
      <trkpt lat="43.58335" lon="3.7291">
        <ele>114.5</ele>
        <time>2010-11-28T10:53:53Z</time>
      </trkpt>
      <trkpt lat="43.5833" lon="3.72918">
        <ele>114.6</ele>
        <time>2010-11-28T10:53:56Z</time>
      </trkpt>
      <trkpt lat="43.58326" lon="3.72927">
        <ele>114.7</ele>
        <time>2010-11-28T10:54:00Z</time>
      </trkpt>
      <trkpt lat="43.58324" lon="3.72938">
        <ele>113.5</ele>
        <time>2010-11-28T10:54:07Z</time>
      </trkpt>
      <trkpt lat="43.58323" lon="3.72949">
        <ele>113.5</ele>
        <time>2010-11-28T10:54:12Z</time>
      </trkpt>
      <trkpt lat="43.58318" lon="3.72956">
        <ele>113.1</ele>
        <time>2010-11-28T10:54:15Z</time>
      </trkpt>
      <trkpt lat="43.58312" lon="3.72961">
        <ele>113.5</ele>
        <time>2010-11-28T10:54:18Z</time>
      </trkpt>
      <trkpt lat="43.58306" lon="3.72967">
        <ele>113.2</ele>
        <time>2010-11-28T10:54:21Z</time>
      </trkpt>
      <trkpt lat="43.583" lon="3.72973">
        <ele>112.9</ele>
        <time>2010-11-28T10:54:25Z</time>
      </trkpt>
      <trkpt lat="43.58296" lon="3.72981">
        <ele>112.7</ele>
        <time>2010-11-28T10:54:28Z</time>
      </trkpt>
      <trkpt lat="43.58292" lon="3.72992">
        <ele>112.1</ele>
        <time>2010-11-28T10:54:31Z</time>
      </trkpt>
      <trkpt lat="43.58293" lon="3.73001">
        <ele>111.4</ele>
        <time>2010-11-28T10:54:33Z</time>
      </trkpt>
      <trkpt lat="43.5829" lon="3.73011">
        <ele>110.2</ele>
        <time>2010-11-28T10:54:36Z</time>
      </trkpt>
      <trkpt lat="43.58287" lon="3.7302">
        <ele>109.2</ele>
        <time>2010-11-28T10:54:39Z</time>
      </trkpt>
      <trkpt lat="43.5828" lon="3.73025">
        <ele>108.1</ele>
        <time>2010-11-28T10:54:42Z</time>
      </trkpt>
      <trkpt lat="43.58273" lon="3.73032">
        <ele>107.3</ele>
        <time>2010-11-28T10:54:46Z</time>
      </trkpt>
      <trkpt lat="43.58268" lon="3.73039">
        <ele>107.4</ele>
        <time>2010-11-28T10:54:50Z</time>
      </trkpt>
      <trkpt lat="43.58267" lon="3.73042">
        <ele>107.4</ele>
        <time>2010-11-28T10:54:51Z</time>
      </trkpt>
      <trkpt lat="43.58258" lon="3.73056">
        <ele>106.9</ele>
        <time>2010-11-28T10:55:00Z</time>
      </trkpt>
      <trkpt lat="43.58252" lon="3.73064">
        <ele>106.8</ele>
        <time>2010-11-28T10:55:04Z</time>
      </trkpt>
      <trkpt lat="43.58249" lon="3.73075">
        <ele>106.3</ele>
        <time>2010-11-28T10:55:08Z</time>
      </trkpt>
      <trkpt lat="43.58245" lon="3.73084">
        <ele>106.2</ele>
        <time>2010-11-28T10:55:11Z</time>
      </trkpt>
      <trkpt lat="43.5824" lon="3.73093">
        <ele>106.6</ele>
        <time>2010-11-28T10:55:14Z</time>
      </trkpt>
      <trkpt lat="43.58237" lon="3.731">
        <ele>106.6</ele>
        <time>2010-11-28T10:55:16Z</time>
      </trkpt>
      <trkpt lat="43.58235" lon="3.73109">
        <ele>106.3</ele>
        <time>2010-11-28T10:55:18Z</time>
      </trkpt>
      <trkpt lat="43.58235" lon="3.7312">
        <ele>105.4</ele>
        <time>2010-11-28T10:55:21Z</time>
      </trkpt>
      <trkpt lat="43.58236" lon="3.73132">
        <ele>104.4</ele>
        <time>2010-11-28T10:55:24Z</time>
      </trkpt>
      <trkpt lat="43.58237" lon="3.73142">
        <ele>104.1</ele>
        <time>2010-11-28T10:55:26Z</time>
      </trkpt>
      <trkpt lat="43.58238" lon="3.73151">
        <ele>103</ele>
        <time>2010-11-28T10:55:28Z</time>
      </trkpt>
      <trkpt lat="43.5824" lon="3.73162">
        <ele>102.2</ele>
        <time>2010-11-28T10:55:31Z</time>
      </trkpt>
      <trkpt lat="43.58241" lon="3.73174">
        <ele>101.4</ele>
        <time>2010-11-28T10:55:34Z</time>
      </trkpt>
      <trkpt lat="43.58245" lon="3.73183">
        <ele>100.3</ele>
        <time>2010-11-28T10:55:37Z</time>
      </trkpt>
      <trkpt lat="43.58247" lon="3.73193">
        <ele>98.7</ele>
        <time>2010-11-28T10:55:40Z</time>
      </trkpt>
      <trkpt lat="43.58248" lon="3.73202">
        <ele>96.9</ele>
        <time>2010-11-28T10:55:43Z</time>
      </trkpt>
      <trkpt lat="43.58246" lon="3.73211">
        <ele>96.1</ele>
        <time>2010-11-28T10:55:45Z</time>
      </trkpt>
      <trkpt lat="43.58243" lon="3.73221">
        <ele>95.5</ele>
        <time>2010-11-28T10:55:47Z</time>
      </trkpt>
      <trkpt lat="43.58242" lon="3.73231">
        <ele>94.6</ele>
        <time>2010-11-28T10:55:49Z</time>
      </trkpt>
      <trkpt lat="43.58245" lon="3.73241">
        <ele>93.8</ele>
        <time>2010-11-28T10:55:51Z</time>
      </trkpt>
      <trkpt lat="43.58248" lon="3.73245">
        <ele>93.5</ele>
        <time>2010-11-28T10:55:52Z</time>
      </trkpt>
      <trkpt lat="43.58249" lon="3.7326">
        <ele>92.8</ele>
        <time>2010-11-28T10:55:56Z</time>
      </trkpt>
      <trkpt lat="43.58247" lon="3.7327">
        <ele>92.9</ele>
        <time>2010-11-28T10:55:59Z</time>
      </trkpt>
      <trkpt lat="43.58244" lon="3.73279">
        <ele>93.4</ele>
        <time>2010-11-28T10:56:02Z</time>
      </trkpt>
      <trkpt lat="43.5824" lon="3.73289">
        <ele>94.2</ele>
        <time>2010-11-28T10:56:06Z</time>
      </trkpt>
      <trkpt lat="43.58236" lon="3.73298">
        <ele>95.4</ele>
        <time>2010-11-28T10:56:10Z</time>
      </trkpt>
      <trkpt lat="43.58232" lon="3.73307">
        <ele>96</ele>
        <time>2010-11-28T10:56:14Z</time>
      </trkpt>
      <trkpt lat="43.58227" lon="3.73317">
        <ele>97.6</ele>
        <time>2010-11-28T10:56:18Z</time>
      </trkpt>
      <trkpt lat="43.58221" lon="3.73326">
        <ele>99.8</ele>
        <time>2010-11-28T10:56:25Z</time>
      </trkpt>
      <trkpt lat="43.58214" lon="3.73331">
        <ele>101.6</ele>
        <time>2010-11-28T10:56:33Z</time>
      </trkpt>
      <trkpt lat="43.58208" lon="3.73337">
        <ele>101.3</ele>
        <time>2010-11-28T10:56:37Z</time>
      </trkpt>
      <trkpt lat="43.58203" lon="3.73345">
        <ele>100.9</ele>
        <time>2010-11-28T10:56:41Z</time>
      </trkpt>
      <trkpt lat="43.58197" lon="3.73352">
        <ele>101.2</ele>
        <time>2010-11-28T10:56:45Z</time>
      </trkpt>
      <trkpt lat="43.58191" lon="3.73357">
        <ele>101.1</ele>
        <time>2010-11-28T10:56:49Z</time>
      </trkpt>
      <trkpt lat="43.58197" lon="3.73366">
        <ele>100.4</ele>
        <time>2010-11-28T10:57:03Z</time>
      </trkpt>
      <trkpt lat="43.58197" lon="3.73366">
        <ele>100.8</ele>
        <time>2010-11-28T10:57:04Z</time>
      </trkpt>
      <trkpt lat="43.58205" lon="3.73384">
        <ele>101.4</ele>
        <time>2010-11-28T10:57:13Z</time>
      </trkpt>
      <trkpt lat="43.58211" lon="3.73393">
        <ele>101</ele>
        <time>2010-11-28T10:57:16Z</time>
      </trkpt>
      <trkpt lat="43.58217" lon="3.73402">
        <ele>99.8</ele>
        <time>2010-11-28T10:57:19Z</time>
      </trkpt>
      <trkpt lat="43.58225" lon="3.73406">
        <ele>98.6</ele>
        <time>2010-11-28T10:57:22Z</time>
      </trkpt>
      <trkpt lat="43.58232" lon="3.73409">
        <ele>97.8</ele>
        <time>2010-11-28T10:57:25Z</time>
      </trkpt>
      <trkpt lat="43.58237" lon="3.73417">
        <ele>97.1</ele>
        <time>2010-11-28T10:57:28Z</time>
      </trkpt>
      <trkpt lat="43.5824" lon="3.73426">
        <ele>97</ele>
        <time>2010-11-28T10:57:30Z</time>
      </trkpt>
      <trkpt lat="43.58242" lon="3.73433">
        <ele>97</ele>
        <time>2010-11-28T10:57:31Z</time>
      </trkpt>
      <trkpt lat="43.58247" lon="3.73443">
        <ele>96</ele>
        <time>2010-11-28T10:57:34Z</time>
      </trkpt>
      <trkpt lat="43.58253" lon="3.73451">
        <ele>94.8</ele>
        <time>2010-11-28T10:57:38Z</time>
      </trkpt>
      <trkpt lat="43.5826" lon="3.73458">
        <ele>93.9</ele>
        <time>2010-11-28T10:57:41Z</time>
      </trkpt>
      <trkpt lat="43.58265" lon="3.73468">
        <ele>90</ele>
        <time>2010-11-28T10:58:07Z</time>
      </trkpt>
      <trkpt lat="43.58265" lon="3.73468">
        <ele>90.1</ele>
        <time>2010-11-28T10:58:08Z</time>
      </trkpt>
      <trkpt lat="43.58264" lon="3.7349">
        <ele>87.8</ele>
        <time>2010-11-28T10:58:22Z</time>
      </trkpt>
      <trkpt lat="43.58264" lon="3.73502">
        <ele>84.3</ele>
        <time>2010-11-28T10:59:10Z</time>
      </trkpt>
      <trkpt lat="43.58265" lon="3.73505">
        <ele>84.2</ele>
        <time>2010-11-28T10:59:11Z</time>
      </trkpt>
      <trkpt lat="43.58274" lon="3.73518">
        <ele>83.4</ele>
        <time>2010-11-28T10:59:16Z</time>
      </trkpt>
      <trkpt lat="43.5828" lon="3.73527">
        <ele>83.9</ele>
        <time>2010-11-28T10:59:20Z</time>
      </trkpt>
      <trkpt lat="43.58285" lon="3.73534">
        <ele>84</ele>
        <time>2010-11-28T10:59:23Z</time>
      </trkpt>
      <trkpt lat="43.58287" lon="3.73544">
        <ele>83.7</ele>
        <time>2010-11-28T10:59:26Z</time>
      </trkpt>
      <trkpt lat="43.58289" lon="3.73555">
        <ele>84.8</ele>
        <time>2010-11-28T10:59:29Z</time>
      </trkpt>
      <trkpt lat="43.58291" lon="3.73567">
        <ele>85</ele>
        <time>2010-11-28T10:59:32Z</time>
      </trkpt>
      <trkpt lat="43.5829" lon="3.73577">
        <ele>84.4</ele>
        <time>2010-11-28T10:59:34Z</time>
      </trkpt>
      <trkpt lat="43.58289" lon="3.73586">
        <ele>83.6</ele>
        <time>2010-11-28T10:59:36Z</time>
      </trkpt>
      <trkpt lat="43.58286" lon="3.73593">
        <ele>82.8</ele>
        <time>2010-11-28T10:59:38Z</time>
      </trkpt>
      <trkpt lat="43.58284" lon="3.73603">
        <ele>83</ele>
        <time>2010-11-28T10:59:40Z</time>
      </trkpt>
      <trkpt lat="43.58282" lon="3.73612">
        <ele>83</ele>
        <time>2010-11-28T10:59:42Z</time>
      </trkpt>
      <trkpt lat="43.5828" lon="3.73622">
        <ele>82.7</ele>
        <time>2010-11-28T10:59:44Z</time>
      </trkpt>
      <trkpt lat="43.58277" lon="3.73631">
        <ele>82.3</ele>
        <time>2010-11-28T10:59:46Z</time>
      </trkpt>
      <trkpt lat="43.58273" lon="3.73638">
        <ele>82</ele>
        <time>2010-11-28T10:59:48Z</time>
      </trkpt>
      <trkpt lat="43.58269" lon="3.73645">
        <ele>81.8</ele>
        <time>2010-11-28T10:59:50Z</time>
      </trkpt>
      <trkpt lat="43.58267" lon="3.73653">
        <ele>81.3</ele>
        <time>2010-11-28T10:59:52Z</time>
      </trkpt>
      <trkpt lat="43.58263" lon="3.73664">
        <ele>80.7</ele>
        <time>2010-11-28T10:59:55Z</time>
      </trkpt>
      <trkpt lat="43.58259" lon="3.73675">
        <ele>80.7</ele>
        <time>2010-11-28T10:59:58Z</time>
      </trkpt>
      <trkpt lat="43.58256" lon="3.73682">
        <ele>80.4</ele>
        <time>2010-11-28T11:00:00Z</time>
      </trkpt>
      <trkpt lat="43.5825" lon="3.7369">
        <ele>80.4</ele>
        <time>2010-11-28T11:00:03Z</time>
      </trkpt>
      <trkpt lat="43.58243" lon="3.73696">
        <ele>80.1</ele>
        <time>2010-11-28T11:00:06Z</time>
      </trkpt>
      <trkpt lat="43.58237" lon="3.73702">
        <ele>79.2</ele>
        <time>2010-11-28T11:00:10Z</time>
      </trkpt>
      <trkpt lat="43.58229" lon="3.73704">
        <ele>79.3</ele>
        <time>2010-11-28T11:00:13Z</time>
      </trkpt>
      <trkpt lat="43.58227" lon="3.73706">
        <ele>79.4</ele>
        <time>2010-11-28T11:00:14Z</time>
      </trkpt>
      <trkpt lat="43.58216" lon="3.73713">
        <ele>79</ele>
        <time>2010-11-28T11:00:18Z</time>
      </trkpt>
      <trkpt lat="43.5821" lon="3.73718">
        <ele>79.3</ele>
        <time>2010-11-28T11:00:20Z</time>
      </trkpt>
      <trkpt lat="43.58204" lon="3.73721">
        <ele>78.6</ele>
        <time>2010-11-28T11:00:22Z</time>
      </trkpt>
      <trkpt lat="43.58197" lon="3.73725">
        <ele>78.8</ele>
        <time>2010-11-28T11:00:24Z</time>
      </trkpt>
      <trkpt lat="43.58191" lon="3.7373">
        <ele>79.2</ele>
        <time>2010-11-28T11:00:26Z</time>
      </trkpt>
      <trkpt lat="43.58186" lon="3.73735">
        <ele>78.6</ele>
        <time>2010-11-28T11:00:28Z</time>
      </trkpt>
      <trkpt lat="43.5818" lon="3.7374">
        <ele>78.3</ele>
        <time>2010-11-28T11:00:30Z</time>
      </trkpt>
      <trkpt lat="43.58174" lon="3.73744">
        <ele>78.3</ele>
        <time>2010-11-28T11:00:32Z</time>
      </trkpt>
      <trkpt lat="43.58166" lon="3.7375">
        <ele>78.1</ele>
        <time>2010-11-28T11:00:36Z</time>
      </trkpt>
      <trkpt lat="43.58158" lon="3.73754">
        <ele>78.1</ele>
        <time>2010-11-28T11:00:42Z</time>
      </trkpt>
      <trkpt lat="43.58151" lon="3.73756">
        <ele>78.3</ele>
        <time>2010-11-28T11:00:45Z</time>
      </trkpt>
      <trkpt lat="43.58143" lon="3.73759">
        <ele>78.2</ele>
        <time>2010-11-28T11:00:48Z</time>
      </trkpt>
      <trkpt lat="43.58134" lon="3.73762">
        <ele>77.7</ele>
        <time>2010-11-28T11:00:51Z</time>
      </trkpt>
      <trkpt lat="43.58125" lon="3.73764">
        <ele>77.1</ele>
        <time>2010-11-28T11:00:54Z</time>
      </trkpt>
      <trkpt lat="43.58118" lon="3.73765">
        <ele>76.6</ele>
        <time>2010-11-28T11:00:57Z</time>
      </trkpt>
      <trkpt lat="43.58111" lon="3.73767">
        <ele>77.1</ele>
        <time>2010-11-28T11:01:00Z</time>
      </trkpt>
      <trkpt lat="43.58104" lon="3.73769">
        <ele>77</ele>
        <time>2010-11-28T11:01:03Z</time>
      </trkpt>
      <trkpt lat="43.58095" lon="3.73771">
        <ele>77.4</ele>
        <time>2010-11-28T11:01:06Z</time>
      </trkpt>
      <trkpt lat="43.58087" lon="3.73773">
        <ele>78</ele>
        <time>2010-11-28T11:01:09Z</time>
      </trkpt>
      <trkpt lat="43.58079" lon="3.73777">
        <ele>77.5</ele>
        <time>2010-11-28T11:01:12Z</time>
      </trkpt>
      <trkpt lat="43.58075" lon="3.73785">
        <ele>77</ele>
        <time>2010-11-28T11:01:14Z</time>
      </trkpt>
      <trkpt lat="43.58074" lon="3.73789">
        <ele>77.1</ele>
        <time>2010-11-28T11:01:15Z</time>
      </trkpt>
      <trkpt lat="43.58067" lon="3.73799">
        <ele>77.3</ele>
        <time>2010-11-28T11:01:18Z</time>
      </trkpt>
      <trkpt lat="43.5806" lon="3.73803">
        <ele>77.5</ele>
        <time>2010-11-28T11:01:20Z</time>
      </trkpt>
      <trkpt lat="43.58052" lon="3.73807">
        <ele>77.2</ele>
        <time>2010-11-28T11:01:22Z</time>
      </trkpt>
      <trkpt lat="43.58045" lon="3.73814">
        <ele>76.9</ele>
        <time>2010-11-28T11:01:24Z</time>
      </trkpt>
      <trkpt lat="43.58042" lon="3.73818">
        <ele>76.5</ele>
        <time>2010-11-28T11:01:25Z</time>
      </trkpt>
      <trkpt lat="43.58038" lon="3.73823">
        <ele>76.3</ele>
        <time>2010-11-28T11:01:26Z</time>
      </trkpt>
      <trkpt lat="43.58035" lon="3.73828">
        <ele>76.1</ele>
        <time>2010-11-28T11:01:27Z</time>
      </trkpt>
      <trkpt lat="43.58032" lon="3.73833">
        <ele>75.7</ele>
        <time>2010-11-28T11:01:28Z</time>
      </trkpt>
      <trkpt lat="43.58029" lon="3.73838">
        <ele>75.5</ele>
        <time>2010-11-28T11:01:29Z</time>
      </trkpt>
      <trkpt lat="43.58026" lon="3.73843">
        <ele>75.3</ele>
        <time>2010-11-28T11:01:30Z</time>
      </trkpt>
      <trkpt lat="43.58021" lon="3.73854">
        <ele>74.8</ele>
        <time>2010-11-28T11:01:32Z</time>
      </trkpt>
      <trkpt lat="43.58017" lon="3.73864">
        <ele>74.4</ele>
        <time>2010-11-28T11:01:34Z</time>
      </trkpt>
      <trkpt lat="43.58015" lon="3.7387">
        <ele>74.2</ele>
        <time>2010-11-28T11:01:35Z</time>
      </trkpt>
      <trkpt lat="43.58012" lon="3.73875">
        <ele>74</ele>
        <time>2010-11-28T11:01:36Z</time>
      </trkpt>
      <trkpt lat="43.5801" lon="3.73881">
        <ele>73.9</ele>
        <time>2010-11-28T11:01:37Z</time>
      </trkpt>
      <trkpt lat="43.58007" lon="3.73886">
        <ele>73.9</ele>
        <time>2010-11-28T11:01:38Z</time>
      </trkpt>
      <trkpt lat="43.58005" lon="3.73891">
        <ele>73.8</ele>
        <time>2010-11-28T11:01:39Z</time>
      </trkpt>
      <trkpt lat="43.58002" lon="3.73896">
        <ele>73.8</ele>
        <time>2010-11-28T11:01:40Z</time>
      </trkpt>
      <trkpt lat="43.58" lon="3.73901">
        <ele>73.7</ele>
        <time>2010-11-28T11:01:41Z</time>
      </trkpt>
      <trkpt lat="43.57997" lon="3.73907">
        <ele>73.7</ele>
        <time>2010-11-28T11:01:42Z</time>
      </trkpt>
      <trkpt lat="43.57995" lon="3.73913">
        <ele>73.6</ele>
        <time>2010-11-28T11:01:43Z</time>
      </trkpt>
      <trkpt lat="43.57993" lon="3.73918">
        <ele>73.6</ele>
        <time>2010-11-28T11:01:44Z</time>
      </trkpt>
      <trkpt lat="43.57991" lon="3.73924">
        <ele>73.6</ele>
        <time>2010-11-28T11:01:45Z</time>
      </trkpt>
      <trkpt lat="43.57989" lon="3.7393">
        <ele>73.6</ele>
        <time>2010-11-28T11:01:46Z</time>
      </trkpt>
      <trkpt lat="43.57987" lon="3.73936">
        <ele>73.5</ele>
        <time>2010-11-28T11:01:47Z</time>
      </trkpt>
      <trkpt lat="43.57984" lon="3.73941">
        <ele>73.5</ele>
        <time>2010-11-28T11:01:48Z</time>
      </trkpt>
      <trkpt lat="43.57982" lon="3.73947">
        <ele>73.4</ele>
        <time>2010-11-28T11:01:49Z</time>
      </trkpt>
      <trkpt lat="43.57979" lon="3.73953">
        <ele>73.3</ele>
        <time>2010-11-28T11:01:50Z</time>
      </trkpt>
      <trkpt lat="43.57976" lon="3.73958">
        <ele>73.2</ele>
        <time>2010-11-28T11:01:51Z</time>
      </trkpt>
      <trkpt lat="43.57973" lon="3.73963">
        <ele>73.1</ele>
        <time>2010-11-28T11:01:52Z</time>
      </trkpt>
      <trkpt lat="43.5797" lon="3.73968">
        <ele>73.1</ele>
        <time>2010-11-28T11:01:53Z</time>
      </trkpt>
      <trkpt lat="43.57966" lon="3.73973">
        <ele>73</ele>
        <time>2010-11-28T11:01:54Z</time>
      </trkpt>
      <trkpt lat="43.57963" lon="3.73978">
        <ele>72.9</ele>
        <time>2010-11-28T11:01:55Z</time>
      </trkpt>
      <trkpt lat="43.5796" lon="3.73983">
        <ele>72.8</ele>
        <time>2010-11-28T11:01:56Z</time>
      </trkpt>
      <trkpt lat="43.57958" lon="3.73988">
        <ele>73</ele>
        <time>2010-11-28T11:01:57Z</time>
      </trkpt>
      <trkpt lat="43.57956" lon="3.73994">
        <ele>73.2</ele>
        <time>2010-11-28T11:01:58Z</time>
      </trkpt>
      <trkpt lat="43.57954" lon="3.74">
        <ele>73.3</ele>
        <time>2010-11-28T11:01:59Z</time>
      </trkpt>
      <trkpt lat="43.57952" lon="3.74005">
        <ele>73.4</ele>
        <time>2010-11-28T11:02:00Z</time>
      </trkpt>
      <trkpt lat="43.5795" lon="3.74012">
        <ele>73.4</ele>
        <time>2010-11-28T11:02:01Z</time>
      </trkpt>
      <trkpt lat="43.57948" lon="3.74018">
        <ele>73.5</ele>
        <time>2010-11-28T11:02:02Z</time>
      </trkpt>
      <trkpt lat="43.57945" lon="3.74023">
        <ele>73</ele>
        <time>2010-11-28T11:02:03Z</time>
      </trkpt>
      <trkpt lat="43.57938" lon="3.7403">
        <ele>72.4</ele>
        <time>2010-11-28T11:02:05Z</time>
      </trkpt>
      <trkpt lat="43.57929" lon="3.74033">
        <ele>71.8</ele>
        <time>2010-11-28T11:02:07Z</time>
      </trkpt>
      <trkpt lat="43.57921" lon="3.74033">
        <ele>71.4</ele>
        <time>2010-11-28T11:02:09Z</time>
      </trkpt>
      <trkpt lat="43.57916" lon="3.74032">
        <ele>71.4</ele>
        <time>2010-11-28T11:02:10Z</time>
      </trkpt>
      <trkpt lat="43.57911" lon="3.74032">
        <ele>71.4</ele>
        <time>2010-11-28T11:02:11Z</time>
      </trkpt>
      <trkpt lat="43.57906" lon="3.74031">
        <ele>71.3</ele>
        <time>2010-11-28T11:02:12Z</time>
      </trkpt>
      <trkpt lat="43.579" lon="3.74031">
        <ele>71.2</ele>
        <time>2010-11-28T11:02:13Z</time>
      </trkpt>
      <trkpt lat="43.57895" lon="3.74031">
        <ele>71.1</ele>
        <time>2010-11-28T11:02:14Z</time>
      </trkpt>
      <trkpt lat="43.5789" lon="3.74032">
        <ele>71</ele>
        <time>2010-11-28T11:02:15Z</time>
      </trkpt>
      <trkpt lat="43.57885" lon="3.74034">
        <ele>70.7</ele>
        <time>2010-11-28T11:02:16Z</time>
      </trkpt>
      <trkpt lat="43.57881" lon="3.74035">
        <ele>70.4</ele>
        <time>2010-11-28T11:02:17Z</time>
      </trkpt>
      <trkpt lat="43.57872" lon="3.74037">
        <ele>70.3</ele>
        <time>2010-11-28T11:02:19Z</time>
      </trkpt>
      <trkpt lat="43.57864" lon="3.7404">
        <ele>70.5</ele>
        <time>2010-11-28T11:02:21Z</time>
      </trkpt>
      <trkpt lat="43.57859" lon="3.74042">
        <ele>70.5</ele>
        <time>2010-11-28T11:02:22Z</time>
      </trkpt>
      <trkpt lat="43.57855" lon="3.74045">
        <ele>70.5</ele>
        <time>2010-11-28T11:02:23Z</time>
      </trkpt>
      <trkpt lat="43.57851" lon="3.74049">
        <ele>70.4</ele>
        <time>2010-11-28T11:02:24Z</time>
      </trkpt>
      <trkpt lat="43.57847" lon="3.74052">
        <ele>70.4</ele>
        <time>2010-11-28T11:02:25Z</time>
      </trkpt>
      <trkpt lat="43.57843" lon="3.74056">
        <ele>70.4</ele>
        <time>2010-11-28T11:02:26Z</time>
      </trkpt>
      <trkpt lat="43.57839" lon="3.7406">
        <ele>70.4</ele>
        <time>2010-11-28T11:02:27Z</time>
      </trkpt>
      <trkpt lat="43.57835" lon="3.74064">
        <ele>70.4</ele>
        <time>2010-11-28T11:02:28Z</time>
      </trkpt>
      <trkpt lat="43.57831" lon="3.74068">
        <ele>70.2</ele>
        <time>2010-11-28T11:02:29Z</time>
      </trkpt>
      <trkpt lat="43.57826" lon="3.74072">
        <ele>70</ele>
        <time>2010-11-28T11:02:30Z</time>
      </trkpt>
      <trkpt lat="43.57822" lon="3.74077">
        <ele>69.8</ele>
        <time>2010-11-28T11:02:31Z</time>
      </trkpt>
      <trkpt lat="43.57818" lon="3.74082">
        <ele>69.5</ele>
        <time>2010-11-28T11:02:32Z</time>
      </trkpt>
      <trkpt lat="43.57814" lon="3.74088">
        <ele>69.3</ele>
        <time>2010-11-28T11:02:33Z</time>
      </trkpt>
      <trkpt lat="43.5781" lon="3.74093">
        <ele>69.1</ele>
        <time>2010-11-28T11:02:34Z</time>
      </trkpt>
      <trkpt lat="43.57805" lon="3.74098">
        <ele>68.6</ele>
        <time>2010-11-28T11:02:35Z</time>
      </trkpt>
      <trkpt lat="43.578" lon="3.74104">
        <ele>68.2</ele>
        <time>2010-11-28T11:02:36Z</time>
      </trkpt>
      <trkpt lat="43.57796" lon="3.74109">
        <ele>67.8</ele>
        <time>2010-11-28T11:02:37Z</time>
      </trkpt>
      <trkpt lat="43.57792" lon="3.74115">
        <ele>67.8</ele>
        <time>2010-11-28T11:02:38Z</time>
      </trkpt>
      <trkpt lat="43.57788" lon="3.7412">
        <ele>67.7</ele>
        <time>2010-11-28T11:02:39Z</time>
      </trkpt>
      <trkpt lat="43.57785" lon="3.74126">
        <ele>67.6</ele>
        <time>2010-11-28T11:02:40Z</time>
      </trkpt>
      <trkpt lat="43.57782" lon="3.74133">
        <ele>67.3</ele>
        <time>2010-11-28T11:02:41Z</time>
      </trkpt>
      <trkpt lat="43.57779" lon="3.74139">
        <ele>67.1</ele>
        <time>2010-11-28T11:02:42Z</time>
      </trkpt>
      <trkpt lat="43.57777" lon="3.74146">
        <ele>66.9</ele>
        <time>2010-11-28T11:02:43Z</time>
      </trkpt>
      <trkpt lat="43.57775" lon="3.74153">
        <ele>66.8</ele>
        <time>2010-11-28T11:02:44Z</time>
      </trkpt>
      <trkpt lat="43.57774" lon="3.74159">
        <ele>67</ele>
        <time>2010-11-28T11:02:45Z</time>
      </trkpt>
      <trkpt lat="43.57773" lon="3.74166">
        <ele>67.1</ele>
        <time>2010-11-28T11:02:46Z</time>
      </trkpt>
      <trkpt lat="43.57772" lon="3.74172">
        <ele>67.2</ele>
        <time>2010-11-28T11:02:47Z</time>
      </trkpt>
      <trkpt lat="43.57772" lon="3.74178">
        <ele>67.5</ele>
        <time>2010-11-28T11:02:48Z</time>
      </trkpt>
      <trkpt lat="43.57771" lon="3.74185">
        <ele>67.8</ele>
        <time>2010-11-28T11:02:49Z</time>
      </trkpt>
      <trkpt lat="43.57771" lon="3.74191">
        <ele>68</ele>
        <time>2010-11-28T11:02:50Z</time>
      </trkpt>
      <trkpt lat="43.57771" lon="3.74198">
        <ele>67.6</ele>
        <time>2010-11-28T11:02:51Z</time>
      </trkpt>
      <trkpt lat="43.57771" lon="3.74205">
        <ele>67.4</ele>
        <time>2010-11-28T11:02:52Z</time>
      </trkpt>
      <trkpt lat="43.57771" lon="3.74213">
        <ele>67.2</ele>
        <time>2010-11-28T11:02:53Z</time>
      </trkpt>
      <trkpt lat="43.57772" lon="3.7422">
        <ele>66.8</ele>
        <time>2010-11-28T11:02:54Z</time>
      </trkpt>
      <trkpt lat="43.57773" lon="3.74227">
        <ele>66.6</ele>
        <time>2010-11-28T11:02:55Z</time>
      </trkpt>
      <trkpt lat="43.57774" lon="3.74234">
        <ele>66.4</ele>
        <time>2010-11-28T11:02:56Z</time>
      </trkpt>
      <trkpt lat="43.57774" lon="3.74241">
        <ele>66.5</ele>
        <time>2010-11-28T11:02:57Z</time>
      </trkpt>
      <trkpt lat="43.57775" lon="3.74247">
        <ele>66.5</ele>
        <time>2010-11-28T11:02:58Z</time>
      </trkpt>
      <trkpt lat="43.57778" lon="3.74258">
        <ele>66.6</ele>
        <time>2010-11-28T11:03:00Z</time>
      </trkpt>
      <trkpt lat="43.57782" lon="3.74267">
        <ele>66.7</ele>
        <time>2010-11-28T11:03:02Z</time>
      </trkpt>
      <trkpt lat="43.57786" lon="3.74275">
        <ele>66.9</ele>
        <time>2010-11-28T11:03:04Z</time>
      </trkpt>
      <trkpt lat="43.5779" lon="3.74283">
        <ele>67.1</ele>
        <time>2010-11-28T11:03:06Z</time>
      </trkpt>
      <trkpt lat="43.57794" lon="3.74291">
        <ele>67</ele>
        <time>2010-11-28T11:03:08Z</time>
      </trkpt>
      <trkpt lat="43.57798" lon="3.74298">
        <ele>67.5</ele>
        <time>2010-11-28T11:03:10Z</time>
      </trkpt>
      <trkpt lat="43.57802" lon="3.74305">
        <ele>68.2</ele>
        <time>2010-11-28T11:03:12Z</time>
      </trkpt>
      <trkpt lat="43.57807" lon="3.74314">
        <ele>69.1</ele>
        <time>2010-11-28T11:03:15Z</time>
      </trkpt>
      <trkpt lat="43.57811" lon="3.74324">
        <ele>69.6</ele>
        <time>2010-11-28T11:03:19Z</time>
      </trkpt>
      <trkpt lat="43.57812" lon="3.74326">
        <ele>69.8</ele>
        <time>2010-11-28T11:03:20Z</time>
      </trkpt>
      <trkpt lat="43.57821" lon="3.74342">
        <ele>71.5</ele>
        <time>2010-11-28T11:03:28Z</time>
      </trkpt>
      <trkpt lat="43.57826" lon="3.7435">
        <ele>71.5</ele>
        <time>2010-11-28T11:03:33Z</time>
      </trkpt>
      <trkpt lat="43.57831" lon="3.74359">
        <ele>72.4</ele>
        <time>2010-11-28T11:03:38Z</time>
      </trkpt>
      <trkpt lat="43.57835" lon="3.74367">
        <ele>73.1</ele>
        <time>2010-11-28T11:03:42Z</time>
      </trkpt>
      <trkpt lat="43.57839" lon="3.74375">
        <ele>73.2</ele>
        <time>2010-11-28T11:03:45Z</time>
      </trkpt>
      <trkpt lat="43.57845" lon="3.74384">
        <ele>73.6</ele>
        <time>2010-11-28T11:03:49Z</time>
      </trkpt>
      <trkpt lat="43.5785" lon="3.74393">
        <ele>74.7</ele>
        <time>2010-11-28T11:03:53Z</time>
      </trkpt>
      <trkpt lat="43.57856" lon="3.74402">
        <ele>76</ele>
        <time>2010-11-28T11:03:57Z</time>
      </trkpt>
      <trkpt lat="43.57862" lon="3.74411">
        <ele>76.8</ele>
        <time>2010-11-28T11:04:01Z</time>
      </trkpt>
      <trkpt lat="43.5787" lon="3.74418">
        <ele>77.3</ele>
        <time>2010-11-28T11:04:05Z</time>
      </trkpt>
      <trkpt lat="43.57875" lon="3.74408">
        <ele>79.5</ele>
        <time>2010-11-28T11:04:10Z</time>
      </trkpt>
      <trkpt lat="43.57877" lon="3.74397">
        <ele>80.3</ele>
        <time>2010-11-28T11:04:14Z</time>
      </trkpt>
      <trkpt lat="43.57882" lon="3.74388">
        <ele>81.4</ele>
        <time>2010-11-28T11:04:18Z</time>
      </trkpt>
      <trkpt lat="43.57886" lon="3.74379">
        <ele>81.9</ele>
        <time>2010-11-28T11:04:22Z</time>
      </trkpt>
      <trkpt lat="43.57887" lon="3.74377">
        <ele>82</ele>
        <time>2010-11-28T11:04:23Z</time>
      </trkpt>
      <trkpt lat="43.57897" lon="3.74364">
        <ele>83.7</ele>
        <time>2010-11-28T11:04:30Z</time>
      </trkpt>
      <trkpt lat="43.57904" lon="3.74359">
        <ele>84</ele>
        <time>2010-11-28T11:04:34Z</time>
      </trkpt>
      <trkpt lat="43.57912" lon="3.74359">
        <ele>84.3</ele>
        <time>2010-11-28T11:04:38Z</time>
      </trkpt>
      <trkpt lat="43.5792" lon="3.74358">
        <ele>84.8</ele>
        <time>2010-11-28T11:04:42Z</time>
      </trkpt>
      <trkpt lat="43.57928" lon="3.7436">
        <ele>86.4</ele>
        <time>2010-11-28T11:04:46Z</time>
      </trkpt>
      <trkpt lat="43.57935" lon="3.74365">
        <ele>87</ele>
        <time>2010-11-28T11:04:50Z</time>
      </trkpt>
      <trkpt lat="43.57942" lon="3.74369">
        <ele>87.7</ele>
        <time>2010-11-28T11:04:53Z</time>
      </trkpt>
      <trkpt lat="43.57948" lon="3.74375">
        <ele>88.1</ele>
        <time>2010-11-28T11:04:56Z</time>
      </trkpt>
      <trkpt lat="43.57954" lon="3.74383">
        <ele>88.1</ele>
        <time>2010-11-28T11:04:59Z</time>
      </trkpt>
      <trkpt lat="43.5796" lon="3.7439">
        <ele>88.1</ele>
        <time>2010-11-28T11:05:02Z</time>
      </trkpt>
      <trkpt lat="43.57965" lon="3.74396">
        <ele>88.4</ele>
        <time>2010-11-28T11:05:04Z</time>
      </trkpt>
      <trkpt lat="43.5797" lon="3.74402">
        <ele>88.9</ele>
        <time>2010-11-28T11:05:06Z</time>
      </trkpt>
      <trkpt lat="43.57974" lon="3.74408">
        <ele>88.9</ele>
        <time>2010-11-28T11:05:08Z</time>
      </trkpt>
      <trkpt lat="43.57979" lon="3.74415">
        <ele>88.7</ele>
        <time>2010-11-28T11:05:10Z</time>
      </trkpt>
      <trkpt lat="43.57983" lon="3.74422">
        <ele>88.8</ele>
        <time>2010-11-28T11:05:12Z</time>
      </trkpt>
      <trkpt lat="43.57988" lon="3.74429">
        <ele>89</ele>
        <time>2010-11-28T11:05:14Z</time>
      </trkpt>
      <trkpt lat="43.57992" lon="3.74437">
        <ele>89.4</ele>
        <time>2010-11-28T11:05:16Z</time>
      </trkpt>
      <trkpt lat="43.57996" lon="3.74445">
        <ele>89.6</ele>
        <time>2010-11-28T11:05:18Z</time>
      </trkpt>
      <trkpt lat="43.57998" lon="3.74454">
        <ele>89.7</ele>
        <time>2010-11-28T11:05:20Z</time>
      </trkpt>
      <trkpt lat="43.58001" lon="3.74465">
        <ele>89.9</ele>
        <time>2010-11-28T11:05:22Z</time>
      </trkpt>
      <trkpt lat="43.58002" lon="3.74472">
        <ele>89.9</ele>
        <time>2010-11-28T11:05:23Z</time>
      </trkpt>
      <trkpt lat="43.58003" lon="3.74478">
        <ele>89.8</ele>
        <time>2010-11-28T11:05:24Z</time>
      </trkpt>
      <trkpt lat="43.58004" lon="3.74485">
        <ele>89.7</ele>
        <time>2010-11-28T11:05:25Z</time>
      </trkpt>
      <trkpt lat="43.58006" lon="3.74492">
        <ele>89.6</ele>
        <time>2010-11-28T11:05:26Z</time>
      </trkpt>
      <trkpt lat="43.58009" lon="3.74499">
        <ele>89.6</ele>
        <time>2010-11-28T11:05:27Z</time>
      </trkpt>
      <trkpt lat="43.58011" lon="3.74505">
        <ele>89.5</ele>
        <time>2010-11-28T11:05:28Z</time>
      </trkpt>
      <trkpt lat="43.58014" lon="3.74511">
        <ele>89.5</ele>
        <time>2010-11-28T11:05:29Z</time>
      </trkpt>
      <trkpt lat="43.58016" lon="3.74517">
        <ele>89.5</ele>
        <time>2010-11-28T11:05:30Z</time>
      </trkpt>
      <trkpt lat="43.58019" lon="3.74522">
        <ele>89.5</ele>
        <time>2010-11-28T11:05:31Z</time>
      </trkpt>
      <trkpt lat="43.58022" lon="3.74528">
        <ele>89.6</ele>
        <time>2010-11-28T11:05:32Z</time>
      </trkpt>
      <trkpt lat="43.58028" lon="3.74536">
        <ele>89.5</ele>
        <time>2010-11-28T11:05:34Z</time>
      </trkpt>
      <trkpt lat="43.58035" lon="3.74542">
        <ele>89.3</ele>
        <time>2010-11-28T11:05:36Z</time>
      </trkpt>
      <trkpt lat="43.58041" lon="3.74545">
        <ele>89.5</ele>
        <time>2010-11-28T11:05:38Z</time>
      </trkpt>
      <trkpt lat="43.58049" lon="3.74551">
        <ele>90.4</ele>
        <time>2010-11-28T11:05:41Z</time>
      </trkpt>
      <trkpt lat="43.58053" lon="3.74555">
        <ele>90.6</ele>
        <time>2010-11-28T11:05:43Z</time>
      </trkpt>
      <trkpt lat="43.58058" lon="3.74562">
        <ele>90.5</ele>
        <time>2010-11-28T11:05:45Z</time>
      </trkpt>
      <trkpt lat="43.58064" lon="3.7457">
        <ele>90.6</ele>
        <time>2010-11-28T11:05:47Z</time>
      </trkpt>
      <trkpt lat="43.58068" lon="3.7458">
        <ele>90.8</ele>
        <time>2010-11-28T11:05:49Z</time>
      </trkpt>
      <trkpt lat="43.5807" lon="3.74589">
        <ele>90.2</ele>
        <time>2010-11-28T11:05:51Z</time>
      </trkpt>
      <trkpt lat="43.58068" lon="3.746">
        <ele>89.4</ele>
        <time>2010-11-28T11:05:53Z</time>
      </trkpt>
      <trkpt lat="43.58067" lon="3.74611">
        <ele>88.7</ele>
        <time>2010-11-28T11:05:55Z</time>
      </trkpt>
      <trkpt lat="43.58065" lon="3.74622">
        <ele>87.2</ele>
        <time>2010-11-28T11:05:57Z</time>
      </trkpt>
      <trkpt lat="43.58064" lon="3.74632">
        <ele>85.8</ele>
        <time>2010-11-28T11:05:59Z</time>
      </trkpt>
      <trkpt lat="43.58065" lon="3.74642">
        <ele>84.6</ele>
        <time>2010-11-28T11:06:01Z</time>
      </trkpt>
      <trkpt lat="43.58071" lon="3.74649">
        <ele>83.2</ele>
        <time>2010-11-28T11:06:03Z</time>
      </trkpt>
      <trkpt lat="43.58078" lon="3.74654">
        <ele>81.8</ele>
        <time>2010-11-28T11:06:05Z</time>
      </trkpt>
      <trkpt lat="43.58082" lon="3.74665">
        <ele>79.7</ele>
        <time>2010-11-28T11:06:09Z</time>
      </trkpt>
      <trkpt lat="43.58087" lon="3.74674">
        <ele>79.4</ele>
        <time>2010-11-28T11:06:13Z</time>
      </trkpt>
      <trkpt lat="43.58092" lon="3.74681">
        <ele>80.3</ele>
        <time>2010-11-28T11:06:16Z</time>
      </trkpt>
      <trkpt lat="43.58097" lon="3.74688">
        <ele>81</ele>
        <time>2010-11-28T11:06:19Z</time>
      </trkpt>
      <trkpt lat="43.58104" lon="3.74696">
        <ele>81.5</ele>
        <time>2010-11-28T11:06:23Z</time>
      </trkpt>
      <trkpt lat="43.58096" lon="3.74704">
        <ele>81.8</ele>
        <time>2010-11-28T11:08:22Z</time>
      </trkpt>
      <trkpt lat="43.58096" lon="3.74704">
        <ele>81.9</ele>
        <time>2010-11-28T11:08:23Z</time>
      </trkpt>
    </trkseg>
  </trk>
</gpx>